<?xml version="1.0" encoding="UTF-8" standalone="no" ?>
<gpx xmlns="http://www.topografix.com/GPX/1/1" xmlns:xsi="http://www.w3.org/2001/XMLSchema-instance" xsi:schemaLocation="http://www.topografix.com/GPX/1/1 http://www.topografix.com/GPX/1/1/gpx.xsd" version="1.1" creator="VisuGPX - https://www.visugpx.com">
  <metadata>
    <name>lundi 2016 01</name>
    <desc><![CDATA[cumul janvier 2016]]></desc>
  </metadata>
  <trk>
    <name><![CDATA[lundi 2016 01 04]]></name>
    <extensions>
      <line xmlns="http://www.topografix.com/GPX/gpx_style/0/2">
        <color>000000</color>
      </line>
    </extensions>
    <trkseg>
      <trkpt lat="48.85731" lon="2.34679">
        <ele>39.599998474121</ele>
        <time>2016-01-04T19:21:11Z</time>
      </trkpt>
      <trkpt lat="48.85734" lon="2.34685">
        <ele>39.599998474121</ele>
        <time>2016-01-04T19:21:12Z</time>
      </trkpt>
      <trkpt lat="48.85743" lon="2.34668">
        <ele>38.599998474121</ele>
        <time>2016-01-04T19:21:21Z</time>
      </trkpt>
      <trkpt lat="48.85747" lon="2.34657">
        <ele>39</ele>
        <time>2016-01-04T19:21:25Z</time>
      </trkpt>
      <trkpt lat="48.85751" lon="2.34646">
        <ele>40</ele>
        <time>2016-01-04T19:21:29Z</time>
      </trkpt>
      <trkpt lat="48.85752" lon="2.34632">
        <ele>41.400001525879</ele>
        <time>2016-01-04T19:21:32Z</time>
      </trkpt>
      <trkpt lat="48.85756" lon="2.34617">
        <ele>42.400001525879</ele>
        <time>2016-01-04T19:21:36Z</time>
      </trkpt>
      <trkpt lat="48.85764" lon="2.3459">
        <ele>44.599998474121</ele>
        <time>2016-01-04T19:21:43Z</time>
      </trkpt>
      <trkpt lat="48.85774" lon="2.34566">
        <ele>44.20000076294</ele>
        <time>2016-01-04T19:21:49Z</time>
      </trkpt>
      <trkpt lat="48.85784" lon="2.34542">
        <ele>43.400001525879</ele>
        <time>2016-01-04T19:21:55Z</time>
      </trkpt>
      <trkpt lat="48.85791" lon="2.34514">
        <ele>42.400001525879</ele>
        <time>2016-01-04T19:22:03Z</time>
      </trkpt>
      <trkpt lat="48.85798" lon="2.34488">
        <ele>42.599998474121</ele>
        <time>2016-01-04T19:22:09Z</time>
      </trkpt>
      <trkpt lat="48.85805" lon="2.34458">
        <ele>43.599998474121</ele>
        <time>2016-01-04T19:22:15Z</time>
      </trkpt>
      <trkpt lat="48.85813" lon="2.34428">
        <ele>44</ele>
        <time>2016-01-04T19:22:21Z</time>
      </trkpt>
      <trkpt lat="48.85819" lon="2.34402">
        <ele>44.599998474121</ele>
        <time>2016-01-04T19:22:26Z</time>
      </trkpt>
      <trkpt lat="48.85825" lon="2.3437">
        <ele>46.599998474121</ele>
        <time>2016-01-04T19:22:32Z</time>
      </trkpt>
      <trkpt lat="48.85832" lon="2.34341">
        <ele>50</ele>
        <time>2016-01-04T19:22:38Z</time>
      </trkpt>
      <trkpt lat="48.8584" lon="2.34313">
        <ele>52.599998474121</ele>
        <time>2016-01-04T19:22:44Z</time>
      </trkpt>
      <trkpt lat="48.85847" lon="2.34294">
        <ele>55.79999923706</ele>
        <time>2016-01-04T19:22:50Z</time>
      </trkpt>
      <trkpt lat="48.85851" lon="2.34268">
        <ele>59.20000076294</ele>
        <time>2016-01-04T19:23:01Z</time>
      </trkpt>
      <trkpt lat="48.85851" lon="2.34265">
        <ele>59.400001525879</ele>
        <time>2016-01-04T19:23:02Z</time>
      </trkpt>
      <trkpt lat="48.85854" lon="2.34238">
        <ele>61.20000076294</ele>
        <time>2016-01-04T19:23:13Z</time>
      </trkpt>
      <trkpt lat="48.85862" lon="2.34212">
        <ele>59.20000076294</ele>
        <time>2016-01-04T19:23:20Z</time>
      </trkpt>
      <trkpt lat="48.85868" lon="2.3418">
        <ele>56.79999923706</ele>
        <time>2016-01-04T19:23:26Z</time>
      </trkpt>
      <trkpt lat="48.85872" lon="2.34159">
        <ele>54.599998474121</ele>
        <time>2016-01-04T19:23:31Z</time>
      </trkpt>
      <trkpt lat="48.8588" lon="2.34154">
        <ele>53.20000076294</ele>
        <time>2016-01-04T19:23:37Z</time>
      </trkpt>
      <trkpt lat="48.85896" lon="2.34144">
        <ele>50</ele>
        <time>2016-01-04T19:23:47Z</time>
      </trkpt>
      <trkpt lat="48.85911" lon="2.34147">
        <ele>49.20000076294</ele>
        <time>2016-01-04T19:23:52Z</time>
      </trkpt>
      <trkpt lat="48.85929" lon="2.34139">
        <ele>48.79999923706</ele>
        <time>2016-01-04T19:23:58Z</time>
      </trkpt>
      <trkpt lat="48.85948" lon="2.34154">
        <ele>49.599998474121</ele>
        <time>2016-01-04T19:24:02Z</time>
      </trkpt>
      <trkpt lat="48.85954" lon="2.34159">
        <ele>49.599998474121</ele>
        <time>2016-01-04T19:24:04Z</time>
      </trkpt>
      <trkpt lat="48.85973" lon="2.34174">
        <ele>49.20000076294</ele>
        <time>2016-01-04T19:24:10Z</time>
      </trkpt>
      <trkpt lat="48.8599" lon="2.342">
        <ele>48.79999923706</ele>
        <time>2016-01-04T19:24:13Z</time>
      </trkpt>
      <trkpt lat="48.86007" lon="2.34221">
        <ele>48.400001525879</ele>
        <time>2016-01-04T19:24:19Z</time>
      </trkpt>
      <trkpt lat="48.86022" lon="2.34223">
        <ele>48</ele>
        <time>2016-01-04T19:24:29Z</time>
      </trkpt>
      <trkpt lat="48.86038" lon="2.34211">
        <ele>48.20000076294</ele>
        <time>2016-01-04T19:24:39Z</time>
      </trkpt>
      <trkpt lat="48.8605" lon="2.34183">
        <ele>48.20000076294</ele>
        <time>2016-01-04T19:24:45Z</time>
      </trkpt>
      <trkpt lat="48.86063" lon="2.34161">
        <ele>48</ele>
        <time>2016-01-04T19:24:50Z</time>
      </trkpt>
      <trkpt lat="48.86076" lon="2.34138">
        <ele>48</ele>
        <time>2016-01-04T19:24:55Z</time>
      </trkpt>
      <trkpt lat="48.86086" lon="2.34106">
        <ele>47</ele>
        <time>2016-01-04T19:25:00Z</time>
      </trkpt>
      <trkpt lat="48.86097" lon="2.34079">
        <ele>46</ele>
        <time>2016-01-04T19:25:04Z</time>
      </trkpt>
      <trkpt lat="48.86106" lon="2.3405">
        <ele>46.400001525879</ele>
        <time>2016-01-04T19:25:08Z</time>
      </trkpt>
      <trkpt lat="48.86111" lon="2.34019">
        <ele>47</ele>
        <time>2016-01-04T19:25:11Z</time>
      </trkpt>
      <trkpt lat="48.86119" lon="2.33991">
        <ele>47.599998474121</ele>
        <time>2016-01-04T19:25:15Z</time>
      </trkpt>
      <trkpt lat="48.86129" lon="2.33962">
        <ele>49.20000076294</ele>
        <time>2016-01-04T19:25:19Z</time>
      </trkpt>
      <trkpt lat="48.86138" lon="2.33935">
        <ele>49.79999923706</ele>
        <time>2016-01-04T19:25:23Z</time>
      </trkpt>
      <trkpt lat="48.86147" lon="2.33908">
        <ele>48.20000076294</ele>
        <time>2016-01-04T19:25:27Z</time>
      </trkpt>
      <trkpt lat="48.86158" lon="2.33881">
        <ele>48</ele>
        <time>2016-01-04T19:25:31Z</time>
      </trkpt>
      <trkpt lat="48.86167" lon="2.33851">
        <ele>46.20000076294</ele>
        <time>2016-01-04T19:25:35Z</time>
      </trkpt>
      <trkpt lat="48.86176" lon="2.33821">
        <ele>44.20000076294</ele>
        <time>2016-01-04T19:25:39Z</time>
      </trkpt>
      <trkpt lat="48.86185" lon="2.33792">
        <ele>45</ele>
        <time>2016-01-04T19:25:43Z</time>
      </trkpt>
      <trkpt lat="48.86195" lon="2.33764">
        <ele>46.400001525879</ele>
        <time>2016-01-04T19:25:47Z</time>
      </trkpt>
      <trkpt lat="48.86207" lon="2.33736">
        <ele>47.400001525879</ele>
        <time>2016-01-04T19:25:51Z</time>
      </trkpt>
      <trkpt lat="48.86219" lon="2.33709">
        <ele>48.400001525879</ele>
        <time>2016-01-04T19:25:55Z</time>
      </trkpt>
      <trkpt lat="48.86227" lon="2.33682">
        <ele>49</ele>
        <time>2016-01-04T19:25:59Z</time>
      </trkpt>
      <trkpt lat="48.86239" lon="2.33655">
        <ele>48.599998474121</ele>
        <time>2016-01-04T19:26:04Z</time>
      </trkpt>
      <trkpt lat="48.86247" lon="2.33629">
        <ele>48</ele>
        <time>2016-01-04T19:26:08Z</time>
      </trkpt>
      <trkpt lat="48.86249" lon="2.33622">
        <ele>48</ele>
        <time>2016-01-04T19:26:09Z</time>
      </trkpt>
      <trkpt lat="48.86258" lon="2.33596">
        <ele>48.20000076294</ele>
        <time>2016-01-04T19:26:13Z</time>
      </trkpt>
      <trkpt lat="48.86268" lon="2.33567">
        <ele>47.20000076294</ele>
        <time>2016-01-04T19:26:18Z</time>
      </trkpt>
      <trkpt lat="48.86276" lon="2.33543">
        <ele>46.20000076294</ele>
        <time>2016-01-04T19:26:24Z</time>
      </trkpt>
      <trkpt lat="48.86283" lon="2.33512">
        <ele>44.599998474121</ele>
        <time>2016-01-04T19:26:46Z</time>
      </trkpt>
      <trkpt lat="48.86293" lon="2.33488">
        <ele>44.79999923706</ele>
        <time>2016-01-04T19:26:51Z</time>
      </trkpt>
      <trkpt lat="48.86302" lon="2.33461">
        <ele>45</ele>
        <time>2016-01-04T19:26:56Z</time>
      </trkpt>
      <trkpt lat="48.86314" lon="2.33431">
        <ele>46.400001525879</ele>
        <time>2016-01-04T19:27:01Z</time>
      </trkpt>
      <trkpt lat="48.86322" lon="2.33403">
        <ele>48</ele>
        <time>2016-01-04T19:27:05Z</time>
      </trkpt>
      <trkpt lat="48.86331" lon="2.33379">
        <ele>48.79999923706</ele>
        <time>2016-01-04T19:27:09Z</time>
      </trkpt>
      <trkpt lat="48.8634" lon="2.33347">
        <ele>48</ele>
        <time>2016-01-04T19:27:14Z</time>
      </trkpt>
      <trkpt lat="48.86348" lon="2.33321">
        <ele>47.599998474121</ele>
        <time>2016-01-04T19:27:18Z</time>
      </trkpt>
      <trkpt lat="48.86356" lon="2.33292">
        <ele>46.20000076294</ele>
        <time>2016-01-04T19:27:22Z</time>
      </trkpt>
      <trkpt lat="48.86365" lon="2.33262">
        <ele>44.79999923706</ele>
        <time>2016-01-04T19:27:26Z</time>
      </trkpt>
      <trkpt lat="48.86374" lon="2.33234">
        <ele>43.79999923706</ele>
        <time>2016-01-04T19:27:30Z</time>
      </trkpt>
      <trkpt lat="48.86377" lon="2.33221">
        <ele>43.20000076294</ele>
        <time>2016-01-04T19:27:32Z</time>
      </trkpt>
      <trkpt lat="48.86385" lon="2.33195">
        <ele>41.79999923706</ele>
        <time>2016-01-04T19:27:36Z</time>
      </trkpt>
      <trkpt lat="48.86392" lon="2.33167">
        <ele>41.400001525879</ele>
        <time>2016-01-04T19:27:40Z</time>
      </trkpt>
      <trkpt lat="48.86401" lon="2.33135">
        <ele>42.400001525879</ele>
        <time>2016-01-04T19:27:44Z</time>
      </trkpt>
      <trkpt lat="48.86409" lon="2.33103">
        <ele>43.20000076294</ele>
        <time>2016-01-04T19:27:48Z</time>
      </trkpt>
      <trkpt lat="48.86418" lon="2.33072">
        <ele>44.20000076294</ele>
        <time>2016-01-04T19:27:52Z</time>
      </trkpt>
      <trkpt lat="48.86427" lon="2.33043">
        <ele>44</ele>
        <time>2016-01-04T19:27:56Z</time>
      </trkpt>
      <trkpt lat="48.86435" lon="2.33018">
        <ele>43.599998474121</ele>
        <time>2016-01-04T19:28:00Z</time>
      </trkpt>
      <trkpt lat="48.86442" lon="2.32992">
        <ele>43.20000076294</ele>
        <time>2016-01-04T19:28:04Z</time>
      </trkpt>
      <trkpt lat="48.8645" lon="2.32965">
        <ele>43.400001525879</ele>
        <time>2016-01-04T19:28:08Z</time>
      </trkpt>
      <trkpt lat="48.86454" lon="2.32951">
        <ele>43.599998474121</ele>
        <time>2016-01-04T19:28:10Z</time>
      </trkpt>
      <trkpt lat="48.86463" lon="2.32922">
        <ele>44</ele>
        <time>2016-01-04T19:28:14Z</time>
      </trkpt>
      <trkpt lat="48.86474" lon="2.32894">
        <ele>44.400001525879</ele>
        <time>2016-01-04T19:28:18Z</time>
      </trkpt>
      <trkpt lat="48.86484" lon="2.32862">
        <ele>45</ele>
        <time>2016-01-04T19:28:22Z</time>
      </trkpt>
      <trkpt lat="48.86491" lon="2.32839">
        <ele>45.20000076294</ele>
        <time>2016-01-04T19:28:25Z</time>
      </trkpt>
      <trkpt lat="48.86501" lon="2.32811">
        <ele>44.79999923706</ele>
        <time>2016-01-04T19:28:29Z</time>
      </trkpt>
      <trkpt lat="48.86511" lon="2.32782">
        <ele>44.79999923706</ele>
        <time>2016-01-04T19:28:33Z</time>
      </trkpt>
      <trkpt lat="48.8652" lon="2.32754">
        <ele>45</ele>
        <time>2016-01-04T19:28:37Z</time>
      </trkpt>
      <trkpt lat="48.8653" lon="2.32727">
        <ele>44.20000076294</ele>
        <time>2016-01-04T19:28:41Z</time>
      </trkpt>
      <trkpt lat="48.8654" lon="2.32697">
        <ele>43.20000076294</ele>
        <time>2016-01-04T19:28:45Z</time>
      </trkpt>
      <trkpt lat="48.86549" lon="2.32668">
        <ele>42.599998474121</ele>
        <time>2016-01-04T19:28:49Z</time>
      </trkpt>
      <trkpt lat="48.86558" lon="2.32638">
        <ele>42.20000076294</ele>
        <time>2016-01-04T19:28:53Z</time>
      </trkpt>
      <trkpt lat="48.8656" lon="2.32631">
        <ele>42</ele>
        <time>2016-01-04T19:28:54Z</time>
      </trkpt>
      <trkpt lat="48.86569" lon="2.32603">
        <ele>41.79999923706</ele>
        <time>2016-01-04T19:28:58Z</time>
      </trkpt>
      <trkpt lat="48.86578" lon="2.32573">
        <ele>42</ele>
        <time>2016-01-04T19:29:02Z</time>
      </trkpt>
      <trkpt lat="48.86588" lon="2.32544">
        <ele>42.20000076294</ele>
        <time>2016-01-04T19:29:06Z</time>
      </trkpt>
      <trkpt lat="48.86597" lon="2.32516">
        <ele>42</ele>
        <time>2016-01-04T19:29:10Z</time>
      </trkpt>
      <trkpt lat="48.86607" lon="2.32486">
        <ele>41.599998474121</ele>
        <time>2016-01-04T19:29:14Z</time>
      </trkpt>
      <trkpt lat="48.86616" lon="2.32459">
        <ele>40.599998474121</ele>
        <time>2016-01-04T19:29:18Z</time>
      </trkpt>
      <trkpt lat="48.86625" lon="2.32433">
        <ele>39.599998474121</ele>
        <time>2016-01-04T19:29:22Z</time>
      </trkpt>
      <trkpt lat="48.86632" lon="2.32409">
        <ele>39.79999923706</ele>
        <time>2016-01-04T19:29:26Z</time>
      </trkpt>
      <trkpt lat="48.86636" lon="2.32392">
        <ele>39.79999923706</ele>
        <time>2016-01-04T19:29:29Z</time>
      </trkpt>
      <trkpt lat="48.86639" lon="2.32372">
        <ele>39.79999923706</ele>
        <time>2016-01-04T19:29:33Z</time>
      </trkpt>
      <trkpt lat="48.8664" lon="2.32354">
        <ele>39.599998474121</ele>
        <time>2016-01-04T19:29:37Z</time>
      </trkpt>
      <trkpt lat="48.86642" lon="2.32343">
        <ele>39.400001525879</ele>
        <time>2016-01-04T19:29:42Z</time>
      </trkpt>
      <trkpt lat="48.86642" lon="2.32339">
        <ele>39.400001525879</ele>
        <time>2016-01-04T19:29:44Z</time>
      </trkpt>
      <trkpt lat="48.86647" lon="2.32329">
        <ele>39.400001525879</ele>
        <time>2016-01-04T19:29:53Z</time>
      </trkpt>
      <trkpt lat="48.86656" lon="2.32304">
        <ele>39.400001525879</ele>
        <time>2016-01-04T19:30:17Z</time>
      </trkpt>
      <trkpt lat="48.86664" lon="2.32279">
        <ele>39.79999923706</ele>
        <time>2016-01-04T19:30:23Z</time>
      </trkpt>
      <trkpt lat="48.86674" lon="2.32256">
        <ele>40.599998474121</ele>
        <time>2016-01-04T19:30:30Z</time>
      </trkpt>
      <trkpt lat="48.86678" lon="2.32227">
        <ele>41</ele>
        <time>2016-01-04T19:30:40Z</time>
      </trkpt>
      <trkpt lat="48.86686" lon="2.32201">
        <ele>41.20000076294</ele>
        <time>2016-01-04T19:30:48Z</time>
      </trkpt>
      <trkpt lat="48.86692" lon="2.32197">
        <ele>41.400001525879</ele>
        <time>2016-01-04T19:30:51Z</time>
      </trkpt>
      <trkpt lat="48.86695" lon="2.32185">
        <ele>41.400001525879</ele>
        <time>2016-01-04T19:30:55Z</time>
      </trkpt>
      <trkpt lat="48.86696" lon="2.32174">
        <ele>41.400001525879</ele>
        <time>2016-01-04T19:30:59Z</time>
      </trkpt>
      <trkpt lat="48.86693" lon="2.3216">
        <ele>41.20000076294</ele>
        <time>2016-01-04T19:31:03Z</time>
      </trkpt>
      <trkpt lat="48.86694" lon="2.32131">
        <ele>40.400001525879</ele>
        <time>2016-01-04T19:31:09Z</time>
      </trkpt>
      <trkpt lat="48.86699" lon="2.32105">
        <ele>39.79999923706</ele>
        <time>2016-01-04T19:31:17Z</time>
      </trkpt>
      <trkpt lat="48.86708" lon="2.32079">
        <ele>40.20000076294</ele>
        <time>2016-01-04T19:31:26Z</time>
      </trkpt>
      <trkpt lat="48.86712" lon="2.3205">
        <ele>41.400001525879</ele>
        <time>2016-01-04T19:31:35Z</time>
      </trkpt>
      <trkpt lat="48.86717" lon="2.32022">
        <ele>42.400001525879</ele>
        <time>2016-01-04T19:31:41Z</time>
      </trkpt>
      <trkpt lat="48.86728" lon="2.31996">
        <ele>41</ele>
        <time>2016-01-04T19:31:48Z</time>
      </trkpt>
      <trkpt lat="48.86739" lon="2.31971">
        <ele>40.79999923706</ele>
        <time>2016-01-04T19:31:54Z</time>
      </trkpt>
      <trkpt lat="48.86751" lon="2.31945">
        <ele>39.400001525879</ele>
        <time>2016-01-04T19:32:00Z</time>
      </trkpt>
      <trkpt lat="48.86762" lon="2.31921">
        <ele>37.599998474121</ele>
        <time>2016-01-04T19:32:05Z</time>
      </trkpt>
      <trkpt lat="48.8677" lon="2.31889">
        <ele>37</ele>
        <time>2016-01-04T19:32:10Z</time>
      </trkpt>
      <trkpt lat="48.8678" lon="2.31861">
        <ele>37</ele>
        <time>2016-01-04T19:32:14Z</time>
      </trkpt>
      <trkpt lat="48.86788" lon="2.31833">
        <ele>36.79999923706</ele>
        <time>2016-01-04T19:32:18Z</time>
      </trkpt>
      <trkpt lat="48.86795" lon="2.31803">
        <ele>36</ele>
        <time>2016-01-04T19:32:22Z</time>
      </trkpt>
      <trkpt lat="48.86803" lon="2.31776">
        <ele>35.400001525879</ele>
        <time>2016-01-04T19:32:26Z</time>
      </trkpt>
      <trkpt lat="48.86811" lon="2.31751">
        <ele>36.599998474121</ele>
        <time>2016-01-04T19:32:30Z</time>
      </trkpt>
      <trkpt lat="48.86818" lon="2.31722">
        <ele>37.20000076294</ele>
        <time>2016-01-04T19:32:34Z</time>
      </trkpt>
      <trkpt lat="48.86827" lon="2.31696">
        <ele>38.20000076294</ele>
        <time>2016-01-04T19:32:38Z</time>
      </trkpt>
      <trkpt lat="48.86834" lon="2.31669">
        <ele>39.20000076294</ele>
        <time>2016-01-04T19:32:42Z</time>
      </trkpt>
      <trkpt lat="48.86834" lon="2.31662">
        <ele>39.400001525879</ele>
        <time>2016-01-04T19:32:43Z</time>
      </trkpt>
      <trkpt lat="48.86834" lon="2.31628">
        <ele>39.599998474121</ele>
        <time>2016-01-04T19:32:47Z</time>
      </trkpt>
      <trkpt lat="48.86833" lon="2.31592">
        <ele>39</ele>
        <time>2016-01-04T19:32:51Z</time>
      </trkpt>
      <trkpt lat="48.86834" lon="2.31565">
        <ele>39</ele>
        <time>2016-01-04T19:32:54Z</time>
      </trkpt>
      <trkpt lat="48.8684" lon="2.31532">
        <ele>38.400001525879</ele>
        <time>2016-01-04T19:32:58Z</time>
      </trkpt>
      <trkpt lat="48.86842" lon="2.31525">
        <ele>38.400001525879</ele>
        <time>2016-01-04T19:32:59Z</time>
      </trkpt>
      <trkpt lat="48.86845" lon="2.31518">
        <ele>38.20000076294</ele>
        <time>2016-01-04T19:33:00Z</time>
      </trkpt>
      <trkpt lat="48.86859" lon="2.31497">
        <ele>38</ele>
        <time>2016-01-04T19:33:05Z</time>
      </trkpt>
      <trkpt lat="48.86869" lon="2.31483">
        <ele>38</ele>
        <time>2016-01-04T19:33:10Z</time>
      </trkpt>
      <trkpt lat="48.86875" lon="2.31477">
        <ele>38</ele>
        <time>2016-01-04T19:33:14Z</time>
      </trkpt>
      <trkpt lat="48.86894" lon="2.31469">
        <ele>38</ele>
        <time>2016-01-04T19:33:35Z</time>
      </trkpt>
      <trkpt lat="48.8691" lon="2.31452">
        <ele>38.599998474121</ele>
        <time>2016-01-04T19:33:41Z</time>
      </trkpt>
      <trkpt lat="48.86921" lon="2.31426">
        <ele>39.79999923706</ele>
        <time>2016-01-04T19:33:47Z</time>
      </trkpt>
      <trkpt lat="48.8693" lon="2.31401">
        <ele>40.20000076294</ele>
        <time>2016-01-04T19:33:52Z</time>
      </trkpt>
      <trkpt lat="48.86939" lon="2.31376">
        <ele>39.599998474121</ele>
        <time>2016-01-04T19:33:57Z</time>
      </trkpt>
      <trkpt lat="48.86947" lon="2.3135">
        <ele>39.20000076294</ele>
        <time>2016-01-04T19:34:02Z</time>
      </trkpt>
      <trkpt lat="48.86958" lon="2.3132">
        <ele>38.79999923706</ele>
        <time>2016-01-04T19:34:07Z</time>
      </trkpt>
      <trkpt lat="48.86968" lon="2.31292">
        <ele>38.20000076294</ele>
        <time>2016-01-04T19:34:12Z</time>
      </trkpt>
      <trkpt lat="48.86978" lon="2.31265">
        <ele>38.599998474121</ele>
        <time>2016-01-04T19:34:17Z</time>
      </trkpt>
      <trkpt lat="48.86987" lon="2.31237">
        <ele>40.400001525879</ele>
        <time>2016-01-04T19:34:22Z</time>
      </trkpt>
      <trkpt lat="48.86989" lon="2.31215">
        <ele>41.79999923706</ele>
        <time>2016-01-04T19:34:31Z</time>
      </trkpt>
      <trkpt lat="48.86996" lon="2.31187">
        <ele>43.20000076294</ele>
        <time>2016-01-04T19:34:43Z</time>
      </trkpt>
      <trkpt lat="48.87005" lon="2.31159">
        <ele>44.79999923706</ele>
        <time>2016-01-04T19:34:48Z</time>
      </trkpt>
      <trkpt lat="48.87015" lon="2.31133">
        <ele>46.400001525879</ele>
        <time>2016-01-04T19:34:54Z</time>
      </trkpt>
      <trkpt lat="48.8702" lon="2.31117">
        <ele>47</ele>
        <time>2016-01-04T19:34:58Z</time>
      </trkpt>
      <trkpt lat="48.87001" lon="2.31105">
        <ele>46.400001525879</ele>
        <time>2016-01-04T19:35:04Z</time>
      </trkpt>
      <trkpt lat="48.86982" lon="2.31093">
        <ele>45.79999923706</ele>
        <time>2016-01-04T19:35:10Z</time>
      </trkpt>
      <trkpt lat="48.86976" lon="2.31074">
        <ele>45.79999923706</ele>
        <time>2016-01-04T19:35:14Z</time>
      </trkpt>
      <trkpt lat="48.86972" lon="2.31054">
        <ele>45.599998474121</ele>
        <time>2016-01-04T19:35:19Z</time>
      </trkpt>
      <trkpt lat="48.86972" lon="2.31027">
        <ele>45.599998474121</ele>
        <time>2016-01-04T19:35:27Z</time>
      </trkpt>
      <trkpt lat="48.86966" lon="2.31012">
        <ele>45.20000076294</ele>
        <time>2016-01-04T19:35:34Z</time>
      </trkpt>
      <trkpt lat="48.86966" lon="2.30993">
        <ele>45</ele>
        <time>2016-01-04T19:35:40Z</time>
      </trkpt>
      <trkpt lat="48.86958" lon="2.30966">
        <ele>44.20000076294</ele>
        <time>2016-01-04T19:35:47Z</time>
      </trkpt>
      <trkpt lat="48.86949" lon="2.30941">
        <ele>43.599998474121</ele>
        <time>2016-01-04T19:35:54Z</time>
      </trkpt>
      <trkpt lat="48.86949" lon="2.30919">
        <ele>43.20000076294</ele>
        <time>2016-01-04T19:36:02Z</time>
      </trkpt>
      <trkpt lat="48.86958" lon="2.30893">
        <ele>43</ele>
        <time>2016-01-04T19:36:15Z</time>
      </trkpt>
      <trkpt lat="48.8696" lon="2.30887">
        <ele>43</ele>
        <time>2016-01-04T19:36:17Z</time>
      </trkpt>
      <trkpt lat="48.8697" lon="2.30861">
        <ele>43</ele>
        <time>2016-01-04T19:36:24Z</time>
      </trkpt>
      <trkpt lat="48.86978" lon="2.30835">
        <ele>43.400001525879</ele>
        <time>2016-01-04T19:36:31Z</time>
      </trkpt>
      <trkpt lat="48.86987" lon="2.30807">
        <ele>43.599998474121</ele>
        <time>2016-01-04T19:36:37Z</time>
      </trkpt>
      <trkpt lat="48.86997" lon="2.30782">
        <ele>45.20000076294</ele>
        <time>2016-01-04T19:36:42Z</time>
      </trkpt>
      <trkpt lat="48.87009" lon="2.30757">
        <ele>48</ele>
        <time>2016-01-04T19:36:48Z</time>
      </trkpt>
      <trkpt lat="48.87018" lon="2.30731">
        <ele>50.20000076294</ele>
        <time>2016-01-04T19:36:53Z</time>
      </trkpt>
      <trkpt lat="48.87025" lon="2.30703">
        <ele>50.400001525879</ele>
        <time>2016-01-04T19:36:58Z</time>
      </trkpt>
      <trkpt lat="48.87035" lon="2.30677">
        <ele>50.400001525879</ele>
        <time>2016-01-04T19:37:04Z</time>
      </trkpt>
      <trkpt lat="48.87044" lon="2.30653">
        <ele>50.20000076294</ele>
        <time>2016-01-04T19:37:09Z</time>
      </trkpt>
      <trkpt lat="48.87049" lon="2.30627">
        <ele>49</ele>
        <time>2016-01-04T19:37:13Z</time>
      </trkpt>
      <trkpt lat="48.87055" lon="2.30595">
        <ele>48.400001525879</ele>
        <time>2016-01-04T19:37:18Z</time>
      </trkpt>
      <trkpt lat="48.8706" lon="2.30566">
        <ele>49.400001525879</ele>
        <time>2016-01-04T19:37:28Z</time>
      </trkpt>
      <trkpt lat="48.8706" lon="2.30566">
        <ele>49.400001525879</ele>
        <time>2016-01-04T19:37:29Z</time>
      </trkpt>
      <trkpt lat="48.87071" lon="2.30544">
        <ele>51</ele>
        <time>2016-01-04T19:37:44Z</time>
      </trkpt>
      <trkpt lat="48.87081" lon="2.30519">
        <ele>51.400001525879</ele>
        <time>2016-01-04T19:37:50Z</time>
      </trkpt>
      <trkpt lat="48.87088" lon="2.30496">
        <ele>51.79999923706</ele>
        <time>2016-01-04T19:37:54Z</time>
      </trkpt>
      <trkpt lat="48.87095" lon="2.30466">
        <ele>53.20000076294</ele>
        <time>2016-01-04T19:37:59Z</time>
      </trkpt>
      <trkpt lat="48.87104" lon="2.30441">
        <ele>54</ele>
        <time>2016-01-04T19:38:04Z</time>
      </trkpt>
      <trkpt lat="48.87104" lon="2.3041">
        <ele>55</ele>
        <time>2016-01-04T19:38:09Z</time>
      </trkpt>
      <trkpt lat="48.87109" lon="2.30384">
        <ele>55.20000076294</ele>
        <time>2016-01-04T19:38:13Z</time>
      </trkpt>
      <trkpt lat="48.87117" lon="2.30358">
        <ele>55.400001525879</ele>
        <time>2016-01-04T19:38:17Z</time>
      </trkpt>
      <trkpt lat="48.87126" lon="2.30329">
        <ele>55.400001525879</ele>
        <time>2016-01-04T19:38:22Z</time>
      </trkpt>
      <trkpt lat="48.87139" lon="2.30304">
        <ele>55.20000076294</ele>
        <time>2016-01-04T19:38:27Z</time>
      </trkpt>
      <trkpt lat="48.87143" lon="2.30292">
        <ele>55</ele>
        <time>2016-01-04T19:38:29Z</time>
      </trkpt>
      <trkpt lat="48.87148" lon="2.30264">
        <ele>54.400001525879</ele>
        <time>2016-01-04T19:38:34Z</time>
      </trkpt>
      <trkpt lat="48.87151" lon="2.30253">
        <ele>54.20000076294</ele>
        <time>2016-01-04T19:38:36Z</time>
      </trkpt>
      <trkpt lat="48.87155" lon="2.30231">
        <ele>54</ele>
        <time>2016-01-04T19:38:40Z</time>
      </trkpt>
      <trkpt lat="48.87159" lon="2.30221">
        <ele>54</ele>
        <time>2016-01-04T19:38:42Z</time>
      </trkpt>
      <trkpt lat="48.87165" lon="2.30191">
        <ele>54.20000076294</ele>
        <time>2016-01-04T19:38:47Z</time>
      </trkpt>
      <trkpt lat="48.87174" lon="2.30166">
        <ele>54.400001525879</ele>
        <time>2016-01-04T19:38:51Z</time>
      </trkpt>
      <trkpt lat="48.87183" lon="2.30136">
        <ele>55.79999923706</ele>
        <time>2016-01-04T19:38:56Z</time>
      </trkpt>
      <trkpt lat="48.87184" lon="2.3013">
        <ele>56</ele>
        <time>2016-01-04T19:38:57Z</time>
      </trkpt>
      <trkpt lat="48.87196" lon="2.30106">
        <ele>57</ele>
        <time>2016-01-04T19:39:02Z</time>
      </trkpt>
      <trkpt lat="48.87203" lon="2.30094">
        <ele>57.79999923706</ele>
        <time>2016-01-04T19:39:05Z</time>
      </trkpt>
      <trkpt lat="48.87209" lon="2.30079">
        <ele>59</ele>
        <time>2016-01-04T19:39:08Z</time>
      </trkpt>
      <trkpt lat="48.87216" lon="2.30064">
        <ele>60.20000076294</ele>
        <time>2016-01-04T19:39:11Z</time>
      </trkpt>
      <trkpt lat="48.87224" lon="2.30042">
        <ele>62.20000076294</ele>
        <time>2016-01-04T19:39:16Z</time>
      </trkpt>
      <trkpt lat="48.87226" lon="2.30014">
        <ele>62</ele>
        <time>2016-01-04T19:39:22Z</time>
      </trkpt>
      <trkpt lat="48.87236" lon="2.29986">
        <ele>62</ele>
        <time>2016-01-04T19:39:28Z</time>
      </trkpt>
      <trkpt lat="48.87238" lon="2.29981">
        <ele>62.400001525879</ele>
        <time>2016-01-04T19:39:29Z</time>
      </trkpt>
      <trkpt lat="48.87248" lon="2.29956">
        <ele>63</ele>
        <time>2016-01-04T19:39:34Z</time>
      </trkpt>
      <trkpt lat="48.87259" lon="2.2993">
        <ele>63.20000076294</ele>
        <time>2016-01-04T19:39:39Z</time>
      </trkpt>
      <trkpt lat="48.87266" lon="2.29902">
        <ele>63.79999923706</ele>
        <time>2016-01-04T19:39:44Z</time>
      </trkpt>
      <trkpt lat="48.87275" lon="2.29874">
        <ele>65</ele>
        <time>2016-01-04T19:39:49Z</time>
      </trkpt>
      <trkpt lat="48.87284" lon="2.29849">
        <ele>66.800003051758</ele>
        <time>2016-01-04T19:39:54Z</time>
      </trkpt>
      <trkpt lat="48.87288" lon="2.29836">
        <ele>67</ele>
        <time>2016-01-04T19:39:58Z</time>
      </trkpt>
      <trkpt lat="48.87294" lon="2.29805">
        <ele>68</ele>
        <time>2016-01-04T19:40:06Z</time>
      </trkpt>
      <trkpt lat="48.87303" lon="2.29779">
        <ele>68.800003051758</ele>
        <time>2016-01-04T19:40:11Z</time>
      </trkpt>
      <trkpt lat="48.87304" lon="2.29774">
        <ele>68.599998474121</ele>
        <time>2016-01-04T19:40:12Z</time>
      </trkpt>
      <trkpt lat="48.87309" lon="2.29747">
        <ele>67</ele>
        <time>2016-01-04T19:40:17Z</time>
      </trkpt>
      <trkpt lat="48.8732" lon="2.29721">
        <ele>64.599998474121</ele>
        <time>2016-01-04T19:40:26Z</time>
      </trkpt>
      <trkpt lat="48.87329" lon="2.29694">
        <ele>63.599998474121</ele>
        <time>2016-01-04T19:40:33Z</time>
      </trkpt>
      <trkpt lat="48.87335" lon="2.29683">
        <ele>63.599998474121</ele>
        <time>2016-01-04T19:41:49Z</time>
      </trkpt>
      <trkpt lat="48.87345" lon="2.29681">
        <ele>63.20000076294</ele>
        <time>2016-01-04T19:42:59Z</time>
      </trkpt>
      <trkpt lat="48.8735" lon="2.29653">
        <ele>62.79999923706</ele>
        <time>2016-01-04T19:43:06Z</time>
      </trkpt>
      <trkpt lat="48.87353" lon="2.29638">
        <ele>62.400001525879</ele>
        <time>2016-01-04T19:43:12Z</time>
      </trkpt>
      <trkpt lat="48.87427" lon="2.29397">
        <ele>59.20000076294</ele>
        <time>2016-01-04T19:44:38Z</time>
      </trkpt>
      <trkpt lat="48.87436" lon="2.29373">
        <ele>59.599998474121</ele>
        <time>2016-01-04T19:45:19Z</time>
      </trkpt>
      <trkpt lat="48.87437" lon="2.29371">
        <ele>59.599998474121</ele>
        <time>2016-01-04T19:45:20Z</time>
      </trkpt>
      <trkpt lat="48.87435" lon="2.29368">
        <ele>59.79999923706</ele>
        <time>2016-01-04T19:45:25Z</time>
      </trkpt>
      <trkpt lat="48.8742" lon="2.29355">
        <ele>61</ele>
        <time>2016-01-04T19:45:40Z</time>
      </trkpt>
      <trkpt lat="48.87403" lon="2.29344">
        <ele>62.20000076294</ele>
        <time>2016-01-04T19:45:49Z</time>
      </trkpt>
      <trkpt lat="48.87403" lon="2.29342">
        <ele>62.400001525879</ele>
        <time>2016-01-04T19:45:50Z</time>
      </trkpt>
      <trkpt lat="48.87417" lon="2.29319">
        <ele>62.400001525879</ele>
        <time>2016-01-04T19:46:00Z</time>
      </trkpt>
      <trkpt lat="48.8742" lon="2.29303">
        <ele>62.599998474121</ele>
        <time>2016-01-04T19:46:05Z</time>
      </trkpt>
      <trkpt lat="48.87419" lon="2.29293">
        <ele>62.79999923706</ele>
        <time>2016-01-04T19:46:09Z</time>
      </trkpt>
      <trkpt lat="48.87429" lon="2.29267">
        <ele>63</ele>
        <time>2016-01-04T19:46:17Z</time>
      </trkpt>
      <trkpt lat="48.87437" lon="2.29237">
        <ele>63.400001525879</ele>
        <time>2016-01-04T19:46:23Z</time>
      </trkpt>
      <trkpt lat="48.87443" lon="2.29207">
        <ele>65.199996948242</ele>
        <time>2016-01-04T19:46:28Z</time>
      </trkpt>
      <trkpt lat="48.87451" lon="2.29178">
        <ele>67.199996948242</ele>
        <time>2016-01-04T19:46:33Z</time>
      </trkpt>
      <trkpt lat="48.87462" lon="2.29155">
        <ele>67</ele>
        <time>2016-01-04T19:46:39Z</time>
      </trkpt>
      <trkpt lat="48.8747" lon="2.29124">
        <ele>68</ele>
        <time>2016-01-04T19:46:44Z</time>
      </trkpt>
      <trkpt lat="48.87478" lon="2.29092">
        <ele>68.400001525879</ele>
        <time>2016-01-04T19:46:49Z</time>
      </trkpt>
      <trkpt lat="48.87488" lon="2.29065">
        <ele>68.199996948242</ele>
        <time>2016-01-04T19:46:53Z</time>
      </trkpt>
      <trkpt lat="48.87495" lon="2.29039">
        <ele>68.199996948242</ele>
        <time>2016-01-04T19:46:58Z</time>
      </trkpt>
      <trkpt lat="48.87502" lon="2.29019">
        <ele>68.199996948242</ele>
        <time>2016-01-04T19:47:02Z</time>
      </trkpt>
      <trkpt lat="48.87505" lon="2.29006">
        <ele>68.400001525879</ele>
        <time>2016-01-04T19:47:04Z</time>
      </trkpt>
      <trkpt lat="48.8751" lon="2.28985">
        <ele>68</ele>
        <time>2016-01-04T19:47:07Z</time>
      </trkpt>
      <trkpt lat="48.87519" lon="2.28956">
        <ele>65.800003051758</ele>
        <time>2016-01-04T19:47:11Z</time>
      </trkpt>
      <trkpt lat="48.87523" lon="2.28942">
        <ele>64.800003051758</ele>
        <time>2016-01-04T19:47:13Z</time>
      </trkpt>
      <trkpt lat="48.87531" lon="2.28916">
        <ele>62.79999923706</ele>
        <time>2016-01-04T19:47:17Z</time>
      </trkpt>
      <trkpt lat="48.87533" lon="2.28908">
        <ele>62.400001525879</ele>
        <time>2016-01-04T19:47:18Z</time>
      </trkpt>
      <trkpt lat="48.87539" lon="2.28881">
        <ele>60.79999923706</ele>
        <time>2016-01-04T19:47:22Z</time>
      </trkpt>
      <trkpt lat="48.87548" lon="2.28861">
        <ele>59.599998474121</ele>
        <time>2016-01-04T19:47:25Z</time>
      </trkpt>
      <trkpt lat="48.87557" lon="2.28834">
        <ele>58.599998474121</ele>
        <time>2016-01-04T19:47:29Z</time>
      </trkpt>
      <trkpt lat="48.87565" lon="2.28817">
        <ele>59</ele>
        <time>2016-01-04T19:47:32Z</time>
      </trkpt>
      <trkpt lat="48.87569" lon="2.28806">
        <ele>59.400001525879</ele>
        <time>2016-01-04T19:47:34Z</time>
      </trkpt>
      <trkpt lat="48.87578" lon="2.28779">
        <ele>58.599998474121</ele>
        <time>2016-01-04T19:47:39Z</time>
      </trkpt>
      <trkpt lat="48.87588" lon="2.28754">
        <ele>56.79999923706</ele>
        <time>2016-01-04T19:47:44Z</time>
      </trkpt>
      <trkpt lat="48.87589" lon="2.28749">
        <ele>56.599998474121</ele>
        <time>2016-01-04T19:47:45Z</time>
      </trkpt>
      <trkpt lat="48.87592" lon="2.28738">
        <ele>56</ele>
        <time>2016-01-04T19:47:47Z</time>
      </trkpt>
      <trkpt lat="48.87598" lon="2.28725">
        <ele>55.599998474121</ele>
        <time>2016-01-04T19:47:50Z</time>
      </trkpt>
      <trkpt lat="48.87603" lon="2.28714">
        <ele>55.20000076294</ele>
        <time>2016-01-04T19:47:54Z</time>
      </trkpt>
      <trkpt lat="48.87606" lon="2.2871">
        <ele>55</ele>
        <time>2016-01-04T19:47:56Z</time>
      </trkpt>
      <trkpt lat="48.87609" lon="2.28705">
        <ele>55</ele>
        <time>2016-01-04T19:47:58Z</time>
      </trkpt>
      <trkpt lat="48.87607" lon="2.2869">
        <ele>55</ele>
        <time>2016-01-04T19:48:35Z</time>
      </trkpt>
      <trkpt lat="48.87617" lon="2.28664">
        <ele>54.79999923706</ele>
        <time>2016-01-04T19:48:41Z</time>
      </trkpt>
      <trkpt lat="48.87627" lon="2.28638">
        <ele>55.400001525879</ele>
        <time>2016-01-04T19:48:46Z</time>
      </trkpt>
      <trkpt lat="48.87637" lon="2.2861">
        <ele>56.20000076294</ele>
        <time>2016-01-04T19:48:51Z</time>
      </trkpt>
      <trkpt lat="48.87647" lon="2.28581">
        <ele>55</ele>
        <time>2016-01-04T19:48:56Z</time>
      </trkpt>
      <trkpt lat="48.87656" lon="2.28551">
        <ele>54</ele>
        <time>2016-01-04T19:49:01Z</time>
      </trkpt>
      <trkpt lat="48.87664" lon="2.28519">
        <ele>53.20000076294</ele>
        <time>2016-01-04T19:49:06Z</time>
      </trkpt>
      <trkpt lat="48.87673" lon="2.28493">
        <ele>52.20000076294</ele>
        <time>2016-01-04T19:49:10Z</time>
      </trkpt>
      <trkpt lat="48.87681" lon="2.28467">
        <ele>51</ele>
        <time>2016-01-04T19:49:14Z</time>
      </trkpt>
      <trkpt lat="48.87686" lon="2.28455">
        <ele>50.400001525879</ele>
        <time>2016-01-04T19:49:16Z</time>
      </trkpt>
      <trkpt lat="48.87697" lon="2.28426">
        <ele>49.20000076294</ele>
        <time>2016-01-04T19:49:21Z</time>
      </trkpt>
      <trkpt lat="48.877" lon="2.28414">
        <ele>48.599998474121</ele>
        <time>2016-01-04T19:49:23Z</time>
      </trkpt>
      <trkpt lat="48.87707" lon="2.28394">
        <ele>48</ele>
        <time>2016-01-04T19:49:27Z</time>
      </trkpt>
      <trkpt lat="48.87709" lon="2.2839">
        <ele>47.79999923706</ele>
        <time>2016-01-04T19:49:28Z</time>
      </trkpt>
      <trkpt lat="48.87713" lon="2.28384">
        <ele>47.599998474121</ele>
        <time>2016-01-04T19:49:31Z</time>
      </trkpt>
      <trkpt lat="48.877" lon="2.2836">
        <ele>47.79999923706</ele>
        <time>2016-01-04T19:50:08Z</time>
      </trkpt>
      <trkpt lat="48.87698" lon="2.28355">
        <ele>48</ele>
        <time>2016-01-04T19:50:10Z</time>
      </trkpt>
      <trkpt lat="48.87693" lon="2.2834">
        <ele>48</ele>
        <time>2016-01-04T19:50:15Z</time>
      </trkpt>
      <trkpt lat="48.87695" lon="2.28312">
        <ele>45.599998474121</ele>
        <time>2016-01-04T19:50:22Z</time>
      </trkpt>
      <trkpt lat="48.87693" lon="2.28283">
        <ele>43</ele>
        <time>2016-01-04T19:50:28Z</time>
      </trkpt>
      <trkpt lat="48.8769" lon="2.28268">
        <ele>42</ele>
        <time>2016-01-04T19:50:33Z</time>
      </trkpt>
      <trkpt lat="48.87693" lon="2.28236">
        <ele>40.20000076294</ele>
        <time>2016-01-04T19:50:40Z</time>
      </trkpt>
      <trkpt lat="48.87699" lon="2.28207">
        <ele>40.599998474121</ele>
        <time>2016-01-04T19:50:45Z</time>
      </trkpt>
      <trkpt lat="48.8771" lon="2.28179">
        <ele>40.79999923706</ele>
        <time>2016-01-04T19:50:50Z</time>
      </trkpt>
      <trkpt lat="48.87721" lon="2.28151">
        <ele>39.79999923706</ele>
        <time>2016-01-04T19:50:55Z</time>
      </trkpt>
      <trkpt lat="48.87731" lon="2.28127">
        <ele>38.599998474121</ele>
        <time>2016-01-04T19:51:03Z</time>
      </trkpt>
      <trkpt lat="48.87743" lon="2.28109">
        <ele>38.400001525879</ele>
        <time>2016-01-04T19:51:24Z</time>
      </trkpt>
      <trkpt lat="48.87761" lon="2.28103">
        <ele>38</ele>
        <time>2016-01-04T19:51:31Z</time>
      </trkpt>
      <trkpt lat="48.87779" lon="2.28094">
        <ele>37.599998474121</ele>
        <time>2016-01-04T19:51:37Z</time>
      </trkpt>
      <trkpt lat="48.87798" lon="2.28087">
        <ele>37.599998474121</ele>
        <time>2016-01-04T19:51:43Z</time>
      </trkpt>
      <trkpt lat="48.87815" lon="2.28074">
        <ele>37.400001525879</ele>
        <time>2016-01-04T19:51:49Z</time>
      </trkpt>
      <trkpt lat="48.87826" lon="2.28052">
        <ele>37.400001525879</ele>
        <time>2016-01-04T19:51:54Z</time>
      </trkpt>
      <trkpt lat="48.87835" lon="2.28025">
        <ele>39.599998474121</ele>
        <time>2016-01-04T19:52:00Z</time>
      </trkpt>
      <trkpt lat="48.87842" lon="2.27999">
        <ele>42</ele>
        <time>2016-01-04T19:52:08Z</time>
      </trkpt>
      <trkpt lat="48.87842" lon="2.27995">
        <ele>42.20000076294</ele>
        <time>2016-01-04T19:52:09Z</time>
      </trkpt>
      <trkpt lat="48.87831" lon="2.27972">
        <ele>43.20000076294</ele>
        <time>2016-01-04T19:52:16Z</time>
      </trkpt>
      <trkpt lat="48.87815" lon="2.27956">
        <ele>43.400001525879</ele>
        <time>2016-01-04T19:52:22Z</time>
      </trkpt>
      <trkpt lat="48.87798" lon="2.27943">
        <ele>43.400001525879</ele>
        <time>2016-01-04T19:52:28Z</time>
      </trkpt>
      <trkpt lat="48.87788" lon="2.27936">
        <ele>43.20000076294</ele>
        <time>2016-01-04T19:52:32Z</time>
      </trkpt>
      <trkpt lat="48.87789" lon="2.27908">
        <ele>44.79999923706</ele>
        <time>2016-01-04T19:52:40Z</time>
      </trkpt>
      <trkpt lat="48.87795" lon="2.27879">
        <ele>45.79999923706</ele>
        <time>2016-01-04T19:52:46Z</time>
      </trkpt>
      <trkpt lat="48.87798" lon="2.27848">
        <ele>46.599998474121</ele>
        <time>2016-01-04T19:52:51Z</time>
      </trkpt>
      <trkpt lat="48.87802" lon="2.2782">
        <ele>46.599998474121</ele>
        <time>2016-01-04T19:52:55Z</time>
      </trkpt>
      <trkpt lat="48.87804" lon="2.27791">
        <ele>46.79999923706</ele>
        <time>2016-01-04T19:52:59Z</time>
      </trkpt>
      <trkpt lat="48.87808" lon="2.27761">
        <ele>46.400001525879</ele>
        <time>2016-01-04T19:53:03Z</time>
      </trkpt>
      <trkpt lat="48.87812" lon="2.27734">
        <ele>45.400001525879</ele>
        <time>2016-01-04T19:53:07Z</time>
      </trkpt>
      <trkpt lat="48.87817" lon="2.27702">
        <ele>44</ele>
        <time>2016-01-04T19:53:12Z</time>
      </trkpt>
      <trkpt lat="48.8782" lon="2.27672">
        <ele>43.79999923706</ele>
        <time>2016-01-04T19:53:16Z</time>
      </trkpt>
      <trkpt lat="48.87825" lon="2.27638">
        <ele>42.400001525879</ele>
        <time>2016-01-04T19:53:20Z</time>
      </trkpt>
      <trkpt lat="48.87829" lon="2.27611">
        <ele>43</ele>
        <time>2016-01-04T19:53:23Z</time>
      </trkpt>
      <trkpt lat="48.87832" lon="2.27583">
        <ele>44</ele>
        <time>2016-01-04T19:53:26Z</time>
      </trkpt>
      <trkpt lat="48.87835" lon="2.27555">
        <ele>45</ele>
        <time>2016-01-04T19:53:29Z</time>
      </trkpt>
      <trkpt lat="48.87839" lon="2.27525">
        <ele>46.20000076294</ele>
        <time>2016-01-04T19:53:32Z</time>
      </trkpt>
      <trkpt lat="48.87842" lon="2.27496">
        <ele>47.20000076294</ele>
        <time>2016-01-04T19:53:35Z</time>
      </trkpt>
      <trkpt lat="48.87846" lon="2.27466">
        <ele>47.20000076294</ele>
        <time>2016-01-04T19:53:38Z</time>
      </trkpt>
      <trkpt lat="48.8785" lon="2.27439">
        <ele>46.400001525879</ele>
        <time>2016-01-04T19:53:41Z</time>
      </trkpt>
      <trkpt lat="48.87854" lon="2.27411">
        <ele>46</ele>
        <time>2016-01-04T19:53:44Z</time>
      </trkpt>
      <trkpt lat="48.87857" lon="2.27383">
        <ele>46.400001525879</ele>
        <time>2016-01-04T19:53:47Z</time>
      </trkpt>
      <trkpt lat="48.87861" lon="2.27353">
        <ele>46.599998474121</ele>
        <time>2016-01-04T19:53:50Z</time>
      </trkpt>
      <trkpt lat="48.87865" lon="2.27324">
        <ele>46.20000076294</ele>
        <time>2016-01-04T19:53:53Z</time>
      </trkpt>
      <trkpt lat="48.87867" lon="2.27306">
        <ele>44.79999923706</ele>
        <time>2016-01-04T19:53:55Z</time>
      </trkpt>
      <trkpt lat="48.87871" lon="2.27276">
        <ele>42.599998474121</ele>
        <time>2016-01-04T19:53:58Z</time>
      </trkpt>
      <trkpt lat="48.87874" lon="2.27247">
        <ele>42.20000076294</ele>
        <time>2016-01-04T19:54:01Z</time>
      </trkpt>
      <trkpt lat="48.87878" lon="2.27218">
        <ele>42.79999923706</ele>
        <time>2016-01-04T19:54:04Z</time>
      </trkpt>
      <trkpt lat="48.87881" lon="2.2719">
        <ele>43.400001525879</ele>
        <time>2016-01-04T19:54:07Z</time>
      </trkpt>
      <trkpt lat="48.87885" lon="2.27163">
        <ele>44</ele>
        <time>2016-01-04T19:54:10Z</time>
      </trkpt>
      <trkpt lat="48.87886" lon="2.27153">
        <ele>44.20000076294</ele>
        <time>2016-01-04T19:54:11Z</time>
      </trkpt>
      <trkpt lat="48.87889" lon="2.27125">
        <ele>44.79999923706</ele>
        <time>2016-01-04T19:54:14Z</time>
      </trkpt>
      <trkpt lat="48.87892" lon="2.27095">
        <ele>45.400001525879</ele>
        <time>2016-01-04T19:54:17Z</time>
      </trkpt>
      <trkpt lat="48.87896" lon="2.27061">
        <ele>45</ele>
        <time>2016-01-04T19:54:21Z</time>
      </trkpt>
      <trkpt lat="48.87901" lon="2.27028">
        <ele>44.400001525879</ele>
        <time>2016-01-04T19:54:25Z</time>
      </trkpt>
      <trkpt lat="48.87903" lon="2.27011">
        <ele>44.599998474121</ele>
        <time>2016-01-04T19:54:27Z</time>
      </trkpt>
      <trkpt lat="48.87906" lon="2.26994">
        <ele>45</ele>
        <time>2016-01-04T19:54:29Z</time>
      </trkpt>
      <trkpt lat="48.8791" lon="2.26959">
        <ele>45</ele>
        <time>2016-01-04T19:54:33Z</time>
      </trkpt>
      <trkpt lat="48.87914" lon="2.26924">
        <ele>45</ele>
        <time>2016-01-04T19:54:37Z</time>
      </trkpt>
      <trkpt lat="48.87917" lon="2.26896">
        <ele>45.400001525879</ele>
        <time>2016-01-04T19:54:40Z</time>
      </trkpt>
      <trkpt lat="48.8792" lon="2.26867">
        <ele>45</ele>
        <time>2016-01-04T19:54:43Z</time>
      </trkpt>
      <trkpt lat="48.87923" lon="2.26837">
        <ele>44</ele>
        <time>2016-01-04T19:54:46Z</time>
      </trkpt>
      <trkpt lat="48.87926" lon="2.26805">
        <ele>44.400001525879</ele>
        <time>2016-01-04T19:54:49Z</time>
      </trkpt>
      <trkpt lat="48.87929" lon="2.26774">
        <ele>45</ele>
        <time>2016-01-04T19:54:52Z</time>
      </trkpt>
      <trkpt lat="48.87932" lon="2.26742">
        <ele>45.400001525879</ele>
        <time>2016-01-04T19:54:55Z</time>
      </trkpt>
      <trkpt lat="48.87938" lon="2.26712">
        <ele>45.79999923706</ele>
        <time>2016-01-04T19:54:58Z</time>
      </trkpt>
      <trkpt lat="48.87943" lon="2.2668">
        <ele>46</ele>
        <time>2016-01-04T19:55:01Z</time>
      </trkpt>
      <trkpt lat="48.87949" lon="2.2665">
        <ele>45.599998474121</ele>
        <time>2016-01-04T19:55:04Z</time>
      </trkpt>
      <trkpt lat="48.87955" lon="2.26619">
        <ele>44.20000076294</ele>
        <time>2016-01-04T19:55:07Z</time>
      </trkpt>
      <trkpt lat="48.8796" lon="2.26588">
        <ele>42.599998474121</ele>
        <time>2016-01-04T19:55:10Z</time>
      </trkpt>
      <trkpt lat="48.87962" lon="2.26554">
        <ele>41</ele>
        <time>2016-01-04T19:55:13Z</time>
      </trkpt>
      <trkpt lat="48.87966" lon="2.26521">
        <ele>40</ele>
        <time>2016-01-04T19:55:16Z</time>
      </trkpt>
      <trkpt lat="48.87969" lon="2.26489">
        <ele>41.400001525879</ele>
        <time>2016-01-04T19:55:19Z</time>
      </trkpt>
      <trkpt lat="48.87973" lon="2.26459">
        <ele>41</ele>
        <time>2016-01-04T19:55:22Z</time>
      </trkpt>
      <trkpt lat="48.87976" lon="2.26427">
        <ele>40.599998474121</ele>
        <time>2016-01-04T19:55:25Z</time>
      </trkpt>
      <trkpt lat="48.87979" lon="2.26397">
        <ele>40.400001525879</ele>
        <time>2016-01-04T19:55:28Z</time>
      </trkpt>
      <trkpt lat="48.87983" lon="2.26366">
        <ele>39.599998474121</ele>
        <time>2016-01-04T19:55:31Z</time>
      </trkpt>
      <trkpt lat="48.87986" lon="2.26335">
        <ele>37.20000076294</ele>
        <time>2016-01-04T19:55:34Z</time>
      </trkpt>
      <trkpt lat="48.8799" lon="2.26304">
        <ele>36.79999923706</ele>
        <time>2016-01-04T19:55:37Z</time>
      </trkpt>
      <trkpt lat="48.87994" lon="2.26274">
        <ele>37.20000076294</ele>
        <time>2016-01-04T19:55:40Z</time>
      </trkpt>
      <trkpt lat="48.87998" lon="2.26244">
        <ele>37.79999923706</ele>
        <time>2016-01-04T19:55:43Z</time>
      </trkpt>
      <trkpt lat="48.88002" lon="2.26214">
        <ele>38.79999923706</ele>
        <time>2016-01-04T19:55:46Z</time>
      </trkpt>
      <trkpt lat="48.88005" lon="2.26184">
        <ele>39.599998474121</ele>
        <time>2016-01-04T19:55:49Z</time>
      </trkpt>
      <trkpt lat="48.88009" lon="2.26155">
        <ele>40.400001525879</ele>
        <time>2016-01-04T19:55:52Z</time>
      </trkpt>
      <trkpt lat="48.88014" lon="2.26128">
        <ele>40.20000076294</ele>
        <time>2016-01-04T19:55:55Z</time>
      </trkpt>
      <trkpt lat="48.88017" lon="2.26099">
        <ele>40</ele>
        <time>2016-01-04T19:55:58Z</time>
      </trkpt>
      <trkpt lat="48.88021" lon="2.26064">
        <ele>40.20000076294</ele>
        <time>2016-01-04T19:56:02Z</time>
      </trkpt>
      <trkpt lat="48.88022" lon="2.26055">
        <ele>40.20000076294</ele>
        <time>2016-01-04T19:56:03Z</time>
      </trkpt>
      <trkpt lat="48.88025" lon="2.26028">
        <ele>40.599998474121</ele>
        <time>2016-01-04T19:56:06Z</time>
      </trkpt>
      <trkpt lat="48.88028" lon="2.25994">
        <ele>41.20000076294</ele>
        <time>2016-01-04T19:56:10Z</time>
      </trkpt>
      <trkpt lat="48.88033" lon="2.25961">
        <ele>41.400001525879</ele>
        <time>2016-01-04T19:56:14Z</time>
      </trkpt>
      <trkpt lat="48.88037" lon="2.25931">
        <ele>41.599998474121</ele>
        <time>2016-01-04T19:56:18Z</time>
      </trkpt>
      <trkpt lat="48.88041" lon="2.25903">
        <ele>41.400001525879</ele>
        <time>2016-01-04T19:56:22Z</time>
      </trkpt>
      <trkpt lat="48.88042" lon="2.25879">
        <ele>40.79999923706</ele>
        <time>2016-01-04T19:56:26Z</time>
      </trkpt>
      <trkpt lat="48.88039" lon="2.25861">
        <ele>40</ele>
        <time>2016-01-04T19:56:31Z</time>
      </trkpt>
      <trkpt lat="48.88039" lon="2.25859">
        <ele>39.79999923706</ele>
        <time>2016-01-04T19:56:33Z</time>
      </trkpt>
      <trkpt lat="48.88044" lon="2.25842">
        <ele>39.599998474121</ele>
        <time>2016-01-04T19:57:33Z</time>
      </trkpt>
      <trkpt lat="48.88045" lon="2.25839">
        <ele>39.79999923706</ele>
        <time>2016-01-04T19:57:36Z</time>
      </trkpt>
      <trkpt lat="48.88042" lon="2.2583">
        <ele>39.400001525879</ele>
        <time>2016-01-04T19:57:42Z</time>
      </trkpt>
      <trkpt lat="48.88041" lon="2.25829">
        <ele>39.20000076294</ele>
        <time>2016-01-04T19:57:43Z</time>
      </trkpt>
      <trkpt lat="48.88037" lon="2.25847">
        <ele>39.400001525879</ele>
        <time>2016-01-04T19:58:33Z</time>
      </trkpt>
      <trkpt lat="48.88024" lon="2.25837">
        <ele>38.20000076294</ele>
        <time>2016-01-04T19:58:58Z</time>
      </trkpt>
      <trkpt lat="48.88006" lon="2.25821">
        <ele>38.400001525879</ele>
        <time>2016-01-04T19:59:03Z</time>
      </trkpt>
      <trkpt lat="48.87987" lon="2.25813">
        <ele>38.79999923706</ele>
        <time>2016-01-04T19:59:07Z</time>
      </trkpt>
      <trkpt lat="48.8797" lon="2.25804">
        <ele>39.20000076294</ele>
        <time>2016-01-04T19:59:11Z</time>
      </trkpt>
      <trkpt lat="48.87952" lon="2.25794">
        <ele>39.79999923706</ele>
        <time>2016-01-04T19:59:15Z</time>
      </trkpt>
      <trkpt lat="48.87942" lon="2.25787">
        <ele>40</ele>
        <time>2016-01-04T19:59:17Z</time>
      </trkpt>
      <trkpt lat="48.87922" lon="2.25776">
        <ele>40</ele>
        <time>2016-01-04T19:59:21Z</time>
      </trkpt>
      <trkpt lat="48.87905" lon="2.25768">
        <ele>40</ele>
        <time>2016-01-04T19:59:24Z</time>
      </trkpt>
      <trkpt lat="48.87888" lon="2.25758">
        <ele>40</ele>
        <time>2016-01-04T19:59:27Z</time>
      </trkpt>
      <trkpt lat="48.87866" lon="2.25746">
        <ele>40.20000076294</ele>
        <time>2016-01-04T19:59:31Z</time>
      </trkpt>
      <trkpt lat="48.87845" lon="2.25735">
        <ele>39.599998474121</ele>
        <time>2016-01-04T19:59:35Z</time>
      </trkpt>
      <trkpt lat="48.87825" lon="2.25724">
        <ele>39.599998474121</ele>
        <time>2016-01-04T19:59:39Z</time>
      </trkpt>
      <trkpt lat="48.87806" lon="2.25715">
        <ele>39.599998474121</ele>
        <time>2016-01-04T19:59:43Z</time>
      </trkpt>
      <trkpt lat="48.87785" lon="2.25704">
        <ele>39.599998474121</ele>
        <time>2016-01-04T19:59:48Z</time>
      </trkpt>
      <trkpt lat="48.87766" lon="2.25695">
        <ele>39.400001525879</ele>
        <time>2016-01-04T19:59:52Z</time>
      </trkpt>
      <trkpt lat="48.87757" lon="2.2569">
        <ele>39</ele>
        <time>2016-01-04T19:59:54Z</time>
      </trkpt>
      <trkpt lat="48.87743" lon="2.25683">
        <ele>38.400001525879</ele>
        <time>2016-01-04T19:59:57Z</time>
      </trkpt>
      <trkpt lat="48.87723" lon="2.25672">
        <ele>37.599998474121</ele>
        <time>2016-01-04T20:00:01Z</time>
      </trkpt>
      <trkpt lat="48.87705" lon="2.25663">
        <ele>37</ele>
        <time>2016-01-04T20:00:05Z</time>
      </trkpt>
      <trkpt lat="48.87687" lon="2.25653">
        <ele>37.400001525879</ele>
        <time>2016-01-04T20:00:09Z</time>
      </trkpt>
      <trkpt lat="48.87682" lon="2.25651">
        <ele>37.400001525879</ele>
        <time>2016-01-04T20:00:10Z</time>
      </trkpt>
      <trkpt lat="48.87662" lon="2.25639">
        <ele>37.79999923706</ele>
        <time>2016-01-04T20:00:14Z</time>
      </trkpt>
      <trkpt lat="48.8764" lon="2.25628">
        <ele>38.400001525879</ele>
        <time>2016-01-04T20:00:18Z</time>
      </trkpt>
      <trkpt lat="48.87626" lon="2.25619">
        <ele>38.79999923706</ele>
        <time>2016-01-04T20:00:21Z</time>
      </trkpt>
      <trkpt lat="48.87618" lon="2.25615">
        <ele>39</ele>
        <time>2016-01-04T20:00:23Z</time>
      </trkpt>
      <trkpt lat="48.87599" lon="2.25605">
        <ele>39.400001525879</ele>
        <time>2016-01-04T20:00:27Z</time>
      </trkpt>
      <trkpt lat="48.87578" lon="2.25596">
        <ele>39.599998474121</ele>
        <time>2016-01-04T20:00:31Z</time>
      </trkpt>
      <trkpt lat="48.87559" lon="2.25586">
        <ele>39.79999923706</ele>
        <time>2016-01-04T20:00:35Z</time>
      </trkpt>
      <trkpt lat="48.87554" lon="2.25584">
        <ele>39.79999923706</ele>
        <time>2016-01-04T20:00:36Z</time>
      </trkpt>
      <trkpt lat="48.87536" lon="2.25578">
        <ele>40</ele>
        <time>2016-01-04T20:00:40Z</time>
      </trkpt>
      <trkpt lat="48.87531" lon="2.25576">
        <ele>40</ele>
        <time>2016-01-04T20:00:41Z</time>
      </trkpt>
      <trkpt lat="48.87517" lon="2.25567">
        <ele>39.79999923706</ele>
        <time>2016-01-04T20:00:44Z</time>
      </trkpt>
      <trkpt lat="48.875" lon="2.2556">
        <ele>39.79999923706</ele>
        <time>2016-01-04T20:00:48Z</time>
      </trkpt>
      <trkpt lat="48.87487" lon="2.25552">
        <ele>39.599998474121</ele>
        <time>2016-01-04T20:00:51Z</time>
      </trkpt>
      <trkpt lat="48.87467" lon="2.2554">
        <ele>39.400001525879</ele>
        <time>2016-01-04T20:00:56Z</time>
      </trkpt>
      <trkpt lat="48.87455" lon="2.25532">
        <ele>39.20000076294</ele>
        <time>2016-01-04T20:00:59Z</time>
      </trkpt>
      <trkpt lat="48.87448" lon="2.25529">
        <ele>39.20000076294</ele>
        <time>2016-01-04T20:01:01Z</time>
      </trkpt>
      <trkpt lat="48.8744" lon="2.25523">
        <ele>39</ele>
        <time>2016-01-04T20:01:04Z</time>
      </trkpt>
      <trkpt lat="48.87434" lon="2.25511">
        <ele>38.79999923706</ele>
        <time>2016-01-04T20:01:08Z</time>
      </trkpt>
      <trkpt lat="48.87431" lon="2.25499">
        <ele>38.79999923706</ele>
        <time>2016-01-04T20:02:02Z</time>
      </trkpt>
      <trkpt lat="48.87413" lon="2.25494">
        <ele>38.400001525879</ele>
        <time>2016-01-04T20:02:10Z</time>
      </trkpt>
      <trkpt lat="48.87395" lon="2.25488">
        <ele>38</ele>
        <time>2016-01-04T20:02:18Z</time>
      </trkpt>
      <trkpt lat="48.87376" lon="2.25477">
        <ele>37.400001525879</ele>
        <time>2016-01-04T20:02:25Z</time>
      </trkpt>
      <trkpt lat="48.87358" lon="2.25467">
        <ele>37</ele>
        <time>2016-01-04T20:02:30Z</time>
      </trkpt>
      <trkpt lat="48.87337" lon="2.25455">
        <ele>37</ele>
        <time>2016-01-04T20:02:35Z</time>
      </trkpt>
      <trkpt lat="48.87319" lon="2.25444">
        <ele>37</ele>
        <time>2016-01-04T20:02:39Z</time>
      </trkpt>
      <trkpt lat="48.87298" lon="2.25434">
        <ele>37</ele>
        <time>2016-01-04T20:02:43Z</time>
      </trkpt>
      <trkpt lat="48.87281" lon="2.25425">
        <ele>36.79999923706</ele>
        <time>2016-01-04T20:02:46Z</time>
      </trkpt>
      <trkpt lat="48.87264" lon="2.25414">
        <ele>36.79999923706</ele>
        <time>2016-01-04T20:02:49Z</time>
      </trkpt>
      <trkpt lat="48.87245" lon="2.25402">
        <ele>36.79999923706</ele>
        <time>2016-01-04T20:02:52Z</time>
      </trkpt>
      <trkpt lat="48.87225" lon="2.25386">
        <ele>36.79999923706</ele>
        <time>2016-01-04T20:02:55Z</time>
      </trkpt>
      <trkpt lat="48.87204" lon="2.25372">
        <ele>36.599998474121</ele>
        <time>2016-01-04T20:02:58Z</time>
      </trkpt>
      <trkpt lat="48.87183" lon="2.25358">
        <ele>36.79999923706</ele>
        <time>2016-01-04T20:03:01Z</time>
      </trkpt>
      <trkpt lat="48.87161" lon="2.25345">
        <ele>37.400001525879</ele>
        <time>2016-01-04T20:03:04Z</time>
      </trkpt>
      <trkpt lat="48.87139" lon="2.25333">
        <ele>38.20000076294</ele>
        <time>2016-01-04T20:03:07Z</time>
      </trkpt>
      <trkpt lat="48.87117" lon="2.25321">
        <ele>38.599998474121</ele>
        <time>2016-01-04T20:03:10Z</time>
      </trkpt>
      <trkpt lat="48.87096" lon="2.25306">
        <ele>39.20000076294</ele>
        <time>2016-01-04T20:03:13Z</time>
      </trkpt>
      <trkpt lat="48.87075" lon="2.25293">
        <ele>39.599998474121</ele>
        <time>2016-01-04T20:03:16Z</time>
      </trkpt>
      <trkpt lat="48.87055" lon="2.25278">
        <ele>40.20000076294</ele>
        <time>2016-01-04T20:03:19Z</time>
      </trkpt>
      <trkpt lat="48.87035" lon="2.25264">
        <ele>40.599998474121</ele>
        <time>2016-01-04T20:03:22Z</time>
      </trkpt>
      <trkpt lat="48.87014" lon="2.25253">
        <ele>41</ele>
        <time>2016-01-04T20:03:25Z</time>
      </trkpt>
      <trkpt lat="48.86993" lon="2.25242">
        <ele>41.599998474121</ele>
        <time>2016-01-04T20:03:28Z</time>
      </trkpt>
      <trkpt lat="48.86973" lon="2.2523">
        <ele>42</ele>
        <time>2016-01-04T20:03:31Z</time>
      </trkpt>
      <trkpt lat="48.86953" lon="2.25219">
        <ele>42.400001525879</ele>
        <time>2016-01-04T20:03:34Z</time>
      </trkpt>
      <trkpt lat="48.86933" lon="2.25208">
        <ele>42.400001525879</ele>
        <time>2016-01-04T20:03:37Z</time>
      </trkpt>
      <trkpt lat="48.86914" lon="2.252">
        <ele>42.20000076294</ele>
        <time>2016-01-04T20:03:40Z</time>
      </trkpt>
      <trkpt lat="48.86895" lon="2.25189">
        <ele>41.79999923706</ele>
        <time>2016-01-04T20:03:43Z</time>
      </trkpt>
      <trkpt lat="48.86875" lon="2.25178">
        <ele>41.400001525879</ele>
        <time>2016-01-04T20:03:46Z</time>
      </trkpt>
      <trkpt lat="48.86857" lon="2.25166">
        <ele>41</ele>
        <time>2016-01-04T20:03:49Z</time>
      </trkpt>
      <trkpt lat="48.86838" lon="2.25155">
        <ele>41.79999923706</ele>
        <time>2016-01-04T20:03:52Z</time>
      </trkpt>
      <trkpt lat="48.86821" lon="2.25142">
        <ele>42.599998474121</ele>
        <time>2016-01-04T20:03:55Z</time>
      </trkpt>
      <trkpt lat="48.86803" lon="2.25131">
        <ele>43.400001525879</ele>
        <time>2016-01-04T20:03:58Z</time>
      </trkpt>
      <trkpt lat="48.86784" lon="2.25119">
        <ele>44.20000076294</ele>
        <time>2016-01-04T20:04:02Z</time>
      </trkpt>
      <trkpt lat="48.86775" lon="2.25112">
        <ele>44.79999923706</ele>
        <time>2016-01-04T20:04:05Z</time>
      </trkpt>
      <trkpt lat="48.86771" lon="2.25107">
        <ele>45</ele>
        <time>2016-01-04T20:04:08Z</time>
      </trkpt>
      <trkpt lat="48.86766" lon="2.25083">
        <ele>46</ele>
        <time>2016-01-04T20:04:50Z</time>
      </trkpt>
      <trkpt lat="48.86746" lon="2.25069">
        <ele>46.400001525879</ele>
        <time>2016-01-04T20:04:55Z</time>
      </trkpt>
      <trkpt lat="48.86728" lon="2.25059">
        <ele>46.599998474121</ele>
        <time>2016-01-04T20:04:59Z</time>
      </trkpt>
      <trkpt lat="48.86721" lon="2.2505">
        <ele>46.599998474121</ele>
        <time>2016-01-04T20:05:15Z</time>
      </trkpt>
      <trkpt lat="48.8672" lon="2.25044">
        <ele>46.599998474121</ele>
        <time>2016-01-04T20:07:02Z</time>
      </trkpt>
      <trkpt lat="48.86706" lon="2.25045">
        <ele>46.79999923706</ele>
        <time>2016-01-04T20:07:46Z</time>
      </trkpt>
      <trkpt lat="48.86689" lon="2.25035">
        <ele>47</ele>
        <time>2016-01-04T20:07:51Z</time>
      </trkpt>
      <trkpt lat="48.86667" lon="2.25025">
        <ele>46.79999923706</ele>
        <time>2016-01-04T20:07:56Z</time>
      </trkpt>
      <trkpt lat="48.86648" lon="2.25013">
        <ele>46.599998474121</ele>
        <time>2016-01-04T20:08:00Z</time>
      </trkpt>
      <trkpt lat="48.86628" lon="2.25002">
        <ele>46.20000076294</ele>
        <time>2016-01-04T20:08:04Z</time>
      </trkpt>
      <trkpt lat="48.86606" lon="2.24988">
        <ele>45.79999923706</ele>
        <time>2016-01-04T20:08:08Z</time>
      </trkpt>
      <trkpt lat="48.86587" lon="2.24978">
        <ele>46</ele>
        <time>2016-01-04T20:08:11Z</time>
      </trkpt>
      <trkpt lat="48.86574" lon="2.24969">
        <ele>46.20000076294</ele>
        <time>2016-01-04T20:08:13Z</time>
      </trkpt>
      <trkpt lat="48.86555" lon="2.24954">
        <ele>46.20000076294</ele>
        <time>2016-01-04T20:08:16Z</time>
      </trkpt>
      <trkpt lat="48.86534" lon="2.2494">
        <ele>46.400001525879</ele>
        <time>2016-01-04T20:08:19Z</time>
      </trkpt>
      <trkpt lat="48.86515" lon="2.24925">
        <ele>46.599998474121</ele>
        <time>2016-01-04T20:08:22Z</time>
      </trkpt>
      <trkpt lat="48.86496" lon="2.24911">
        <ele>47.20000076294</ele>
        <time>2016-01-04T20:08:25Z</time>
      </trkpt>
      <trkpt lat="48.86477" lon="2.24897">
        <ele>47.599998474121</ele>
        <time>2016-01-04T20:08:28Z</time>
      </trkpt>
      <trkpt lat="48.86458" lon="2.24882">
        <ele>48</ele>
        <time>2016-01-04T20:08:31Z</time>
      </trkpt>
      <trkpt lat="48.86436" lon="2.24867">
        <ele>48.400001525879</ele>
        <time>2016-01-04T20:08:34Z</time>
      </trkpt>
      <trkpt lat="48.86415" lon="2.24852">
        <ele>48.20000076294</ele>
        <time>2016-01-04T20:08:37Z</time>
      </trkpt>
      <trkpt lat="48.86395" lon="2.24835">
        <ele>47.79999923706</ele>
        <time>2016-01-04T20:08:40Z</time>
      </trkpt>
      <trkpt lat="48.86374" lon="2.2482">
        <ele>47.599998474121</ele>
        <time>2016-01-04T20:08:43Z</time>
      </trkpt>
      <trkpt lat="48.86355" lon="2.24808">
        <ele>47.79999923706</ele>
        <time>2016-01-04T20:08:46Z</time>
      </trkpt>
      <trkpt lat="48.86336" lon="2.24796">
        <ele>48</ele>
        <time>2016-01-04T20:08:49Z</time>
      </trkpt>
      <trkpt lat="48.86318" lon="2.24784">
        <ele>48.400001525879</ele>
        <time>2016-01-04T20:08:52Z</time>
      </trkpt>
      <trkpt lat="48.86298" lon="2.24772">
        <ele>48.599998474121</ele>
        <time>2016-01-04T20:08:55Z</time>
      </trkpt>
      <trkpt lat="48.86279" lon="2.24759">
        <ele>49</ele>
        <time>2016-01-04T20:08:58Z</time>
      </trkpt>
      <trkpt lat="48.86261" lon="2.24747">
        <ele>48.79999923706</ele>
        <time>2016-01-04T20:09:01Z</time>
      </trkpt>
      <trkpt lat="48.86242" lon="2.24735">
        <ele>47.79999923706</ele>
        <time>2016-01-04T20:09:04Z</time>
      </trkpt>
      <trkpt lat="48.86224" lon="2.24723">
        <ele>47</ele>
        <time>2016-01-04T20:09:07Z</time>
      </trkpt>
      <trkpt lat="48.86206" lon="2.24712">
        <ele>46.20000076294</ele>
        <time>2016-01-04T20:09:10Z</time>
      </trkpt>
      <trkpt lat="48.86187" lon="2.24701">
        <ele>45.599998474121</ele>
        <time>2016-01-04T20:09:13Z</time>
      </trkpt>
      <trkpt lat="48.86167" lon="2.24689">
        <ele>46</ele>
        <time>2016-01-04T20:09:16Z</time>
      </trkpt>
      <trkpt lat="48.86149" lon="2.24677">
        <ele>46.400001525879</ele>
        <time>2016-01-04T20:09:19Z</time>
      </trkpt>
      <trkpt lat="48.86131" lon="2.24665">
        <ele>47</ele>
        <time>2016-01-04T20:09:22Z</time>
      </trkpt>
      <trkpt lat="48.86113" lon="2.24655">
        <ele>47.599998474121</ele>
        <time>2016-01-04T20:09:25Z</time>
      </trkpt>
      <trkpt lat="48.86094" lon="2.24642">
        <ele>47.79999923706</ele>
        <time>2016-01-04T20:09:28Z</time>
      </trkpt>
      <trkpt lat="48.86076" lon="2.2463">
        <ele>47.20000076294</ele>
        <time>2016-01-04T20:09:31Z</time>
      </trkpt>
      <trkpt lat="48.86059" lon="2.24619">
        <ele>46.79999923706</ele>
        <time>2016-01-04T20:09:34Z</time>
      </trkpt>
      <trkpt lat="48.86041" lon="2.24605">
        <ele>46.400001525879</ele>
        <time>2016-01-04T20:09:37Z</time>
      </trkpt>
      <trkpt lat="48.86021" lon="2.24593">
        <ele>46</ele>
        <time>2016-01-04T20:09:40Z</time>
      </trkpt>
      <trkpt lat="48.86" lon="2.24579">
        <ele>45.79999923706</ele>
        <time>2016-01-04T20:09:43Z</time>
      </trkpt>
      <trkpt lat="48.85979" lon="2.24564">
        <ele>45.599998474121</ele>
        <time>2016-01-04T20:09:46Z</time>
      </trkpt>
      <trkpt lat="48.8596" lon="2.24551">
        <ele>45.599998474121</ele>
        <time>2016-01-04T20:09:49Z</time>
      </trkpt>
      <trkpt lat="48.85943" lon="2.24539">
        <ele>45.599998474121</ele>
        <time>2016-01-04T20:09:52Z</time>
      </trkpt>
      <trkpt lat="48.85922" lon="2.24525">
        <ele>46.599998474121</ele>
        <time>2016-01-04T20:09:56Z</time>
      </trkpt>
      <trkpt lat="48.85904" lon="2.24515">
        <ele>47.79999923706</ele>
        <time>2016-01-04T20:10:00Z</time>
      </trkpt>
      <trkpt lat="48.85897" lon="2.24511">
        <ele>48.400001525879</ele>
        <time>2016-01-04T20:10:02Z</time>
      </trkpt>
      <trkpt lat="48.85888" lon="2.24506">
        <ele>49</ele>
        <time>2016-01-04T20:10:05Z</time>
      </trkpt>
      <trkpt lat="48.85875" lon="2.24494">
        <ele>49.79999923706</ele>
        <time>2016-01-04T20:10:11Z</time>
      </trkpt>
      <trkpt lat="48.85866" lon="2.24485">
        <ele>50.20000076294</ele>
        <time>2016-01-04T20:10:16Z</time>
      </trkpt>
      <trkpt lat="48.85864" lon="2.24479">
        <ele>50.20000076294</ele>
        <time>2016-01-04T20:11:54Z</time>
      </trkpt>
      <trkpt lat="48.85845" lon="2.24472">
        <ele>50.79999923706</ele>
        <time>2016-01-04T20:12:03Z</time>
      </trkpt>
      <trkpt lat="48.85827" lon="2.24461">
        <ele>50.599998474121</ele>
        <time>2016-01-04T20:12:08Z</time>
      </trkpt>
      <trkpt lat="48.85808" lon="2.24452">
        <ele>50.599998474121</ele>
        <time>2016-01-04T20:12:12Z</time>
      </trkpt>
      <trkpt lat="48.85788" lon="2.24444">
        <ele>50.599998474121</ele>
        <time>2016-01-04T20:12:16Z</time>
      </trkpt>
      <trkpt lat="48.85769" lon="2.24436">
        <ele>50.599998474121</ele>
        <time>2016-01-04T20:12:20Z</time>
      </trkpt>
      <trkpt lat="48.85749" lon="2.24429">
        <ele>51</ele>
        <time>2016-01-04T20:12:24Z</time>
      </trkpt>
      <trkpt lat="48.8573" lon="2.24416">
        <ele>51.20000076294</ele>
        <time>2016-01-04T20:12:28Z</time>
      </trkpt>
      <trkpt lat="48.85712" lon="2.24408">
        <ele>51.20000076294</ele>
        <time>2016-01-04T20:12:31Z</time>
      </trkpt>
      <trkpt lat="48.8569" lon="2.24395">
        <ele>51.400001525879</ele>
        <time>2016-01-04T20:12:35Z</time>
      </trkpt>
      <trkpt lat="48.85672" lon="2.24384">
        <ele>51</ele>
        <time>2016-01-04T20:12:38Z</time>
      </trkpt>
      <trkpt lat="48.85654" lon="2.24372">
        <ele>50.599998474121</ele>
        <time>2016-01-04T20:12:41Z</time>
      </trkpt>
      <trkpt lat="48.85637" lon="2.24357">
        <ele>50</ele>
        <time>2016-01-04T20:12:44Z</time>
      </trkpt>
      <trkpt lat="48.85619" lon="2.2434">
        <ele>49.400001525879</ele>
        <time>2016-01-04T20:12:47Z</time>
      </trkpt>
      <trkpt lat="48.85602" lon="2.24324">
        <ele>49</ele>
        <time>2016-01-04T20:12:50Z</time>
      </trkpt>
      <trkpt lat="48.85583" lon="2.2431">
        <ele>48.79999923706</ele>
        <time>2016-01-04T20:12:53Z</time>
      </trkpt>
      <trkpt lat="48.85564" lon="2.24296">
        <ele>48.400001525879</ele>
        <time>2016-01-04T20:12:56Z</time>
      </trkpt>
      <trkpt lat="48.85545" lon="2.24281">
        <ele>48.20000076294</ele>
        <time>2016-01-04T20:12:59Z</time>
      </trkpt>
      <trkpt lat="48.85539" lon="2.24276">
        <ele>48.20000076294</ele>
        <time>2016-01-04T20:13:00Z</time>
      </trkpt>
      <trkpt lat="48.85518" lon="2.24262">
        <ele>48.20000076294</ele>
        <time>2016-01-04T20:13:03Z</time>
      </trkpt>
      <trkpt lat="48.85498" lon="2.2425">
        <ele>48.599998474121</ele>
        <time>2016-01-04T20:13:06Z</time>
      </trkpt>
      <trkpt lat="48.85478" lon="2.24238">
        <ele>49</ele>
        <time>2016-01-04T20:13:09Z</time>
      </trkpt>
      <trkpt lat="48.85459" lon="2.24225">
        <ele>49.20000076294</ele>
        <time>2016-01-04T20:13:12Z</time>
      </trkpt>
      <trkpt lat="48.85439" lon="2.24214">
        <ele>49.599998474121</ele>
        <time>2016-01-04T20:13:15Z</time>
      </trkpt>
      <trkpt lat="48.8542" lon="2.24201">
        <ele>49.599998474121</ele>
        <time>2016-01-04T20:13:18Z</time>
      </trkpt>
      <trkpt lat="48.85401" lon="2.24187">
        <ele>49.79999923706</ele>
        <time>2016-01-04T20:13:21Z</time>
      </trkpt>
      <trkpt lat="48.85382" lon="2.24174">
        <ele>49.79999923706</ele>
        <time>2016-01-04T20:13:24Z</time>
      </trkpt>
      <trkpt lat="48.85364" lon="2.24159">
        <ele>49.79999923706</ele>
        <time>2016-01-04T20:13:27Z</time>
      </trkpt>
      <trkpt lat="48.85351" lon="2.24151">
        <ele>50</ele>
        <time>2016-01-04T20:13:29Z</time>
      </trkpt>
      <trkpt lat="48.85333" lon="2.24148">
        <ele>50.20000076294</ele>
        <time>2016-01-04T20:13:32Z</time>
      </trkpt>
      <trkpt lat="48.85326" lon="2.24149">
        <ele>50.20000076294</ele>
        <time>2016-01-04T20:13:33Z</time>
      </trkpt>
      <trkpt lat="48.85307" lon="2.24152">
        <ele>50.20000076294</ele>
        <time>2016-01-04T20:13:36Z</time>
      </trkpt>
      <trkpt lat="48.85288" lon="2.24155">
        <ele>50</ele>
        <time>2016-01-04T20:13:39Z</time>
      </trkpt>
      <trkpt lat="48.85269" lon="2.24157">
        <ele>50</ele>
        <time>2016-01-04T20:13:42Z</time>
      </trkpt>
      <trkpt lat="48.8525" lon="2.24159">
        <ele>50</ele>
        <time>2016-01-04T20:13:45Z</time>
      </trkpt>
      <trkpt lat="48.8523" lon="2.24163">
        <ele>50</ele>
        <time>2016-01-04T20:13:48Z</time>
      </trkpt>
      <trkpt lat="48.8521" lon="2.24165">
        <ele>50</ele>
        <time>2016-01-04T20:13:51Z</time>
      </trkpt>
      <trkpt lat="48.85188" lon="2.24168">
        <ele>50</ele>
        <time>2016-01-04T20:13:54Z</time>
      </trkpt>
      <trkpt lat="48.85166" lon="2.24171">
        <ele>49</ele>
        <time>2016-01-04T20:13:57Z</time>
      </trkpt>
      <trkpt lat="48.85145" lon="2.24174">
        <ele>47.79999923706</ele>
        <time>2016-01-04T20:14:00Z</time>
      </trkpt>
      <trkpt lat="48.85122" lon="2.24176">
        <ele>46.79999923706</ele>
        <time>2016-01-04T20:14:03Z</time>
      </trkpt>
      <trkpt lat="48.85099" lon="2.24178">
        <ele>46.20000076294</ele>
        <time>2016-01-04T20:14:06Z</time>
      </trkpt>
      <trkpt lat="48.85075" lon="2.2418">
        <ele>45.599998474121</ele>
        <time>2016-01-04T20:14:09Z</time>
      </trkpt>
      <trkpt lat="48.8505" lon="2.24183">
        <ele>45.20000076294</ele>
        <time>2016-01-04T20:14:12Z</time>
      </trkpt>
      <trkpt lat="48.85025" lon="2.24186">
        <ele>44.20000076294</ele>
        <time>2016-01-04T20:14:15Z</time>
      </trkpt>
      <trkpt lat="48.85001" lon="2.24188">
        <ele>43</ele>
        <time>2016-01-04T20:14:18Z</time>
      </trkpt>
      <trkpt lat="48.84976" lon="2.2419">
        <ele>41.79999923706</ele>
        <time>2016-01-04T20:14:21Z</time>
      </trkpt>
      <trkpt lat="48.84951" lon="2.24194">
        <ele>40.599998474121</ele>
        <time>2016-01-04T20:14:24Z</time>
      </trkpt>
      <trkpt lat="48.84927" lon="2.24194">
        <ele>39.400001525879</ele>
        <time>2016-01-04T20:14:27Z</time>
      </trkpt>
      <trkpt lat="48.84904" lon="2.24195">
        <ele>38.20000076294</ele>
        <time>2016-01-04T20:14:30Z</time>
      </trkpt>
      <trkpt lat="48.84882" lon="2.24199">
        <ele>37.599998474121</ele>
        <time>2016-01-04T20:14:33Z</time>
      </trkpt>
      <trkpt lat="48.84864" lon="2.24201">
        <ele>37.20000076294</ele>
        <time>2016-01-04T20:14:36Z</time>
      </trkpt>
      <trkpt lat="48.84852" lon="2.24203">
        <ele>37</ele>
        <time>2016-01-04T20:14:38Z</time>
      </trkpt>
      <trkpt lat="48.84834" lon="2.24192">
        <ele>37.20000076294</ele>
        <time>2016-01-04T20:14:42Z</time>
      </trkpt>
      <trkpt lat="48.8483" lon="2.24187">
        <ele>37.20000076294</ele>
        <time>2016-01-04T20:14:43Z</time>
      </trkpt>
      <trkpt lat="48.84816" lon="2.24173">
        <ele>37.20000076294</ele>
        <time>2016-01-04T20:14:47Z</time>
      </trkpt>
      <trkpt lat="48.84799" lon="2.2417">
        <ele>37.599998474121</ele>
        <time>2016-01-04T20:14:52Z</time>
      </trkpt>
      <trkpt lat="48.84789" lon="2.2417">
        <ele>37.79999923706</ele>
        <time>2016-01-04T20:14:58Z</time>
      </trkpt>
      <trkpt lat="48.84787" lon="2.24184">
        <ele>38</ele>
        <time>2016-01-04T20:15:58Z</time>
      </trkpt>
      <trkpt lat="48.84785" lon="2.24195">
        <ele>38.20000076294</ele>
        <time>2016-01-04T20:16:04Z</time>
      </trkpt>
      <trkpt lat="48.84777" lon="2.2422">
        <ele>38.599998474121</ele>
        <time>2016-01-04T20:16:30Z</time>
      </trkpt>
      <trkpt lat="48.84764" lon="2.2424">
        <ele>39</ele>
        <time>2016-01-04T20:16:36Z</time>
      </trkpt>
      <trkpt lat="48.84758" lon="2.24266">
        <ele>39.20000076294</ele>
        <time>2016-01-04T20:16:41Z</time>
      </trkpt>
      <trkpt lat="48.8475" lon="2.24298">
        <ele>39</ele>
        <time>2016-01-04T20:16:46Z</time>
      </trkpt>
      <trkpt lat="48.84743" lon="2.24327">
        <ele>38.79999923706</ele>
        <time>2016-01-04T20:16:51Z</time>
      </trkpt>
      <trkpt lat="48.84736" lon="2.24353">
        <ele>38.20000076294</ele>
        <time>2016-01-04T20:16:56Z</time>
      </trkpt>
      <trkpt lat="48.8473" lon="2.2438">
        <ele>37.79999923706</ele>
        <time>2016-01-04T20:17:01Z</time>
      </trkpt>
      <trkpt lat="48.84723" lon="2.24412">
        <ele>37.20000076294</ele>
        <time>2016-01-04T20:17:06Z</time>
      </trkpt>
      <trkpt lat="48.84715" lon="2.24443">
        <ele>37.79999923706</ele>
        <time>2016-01-04T20:17:10Z</time>
      </trkpt>
      <trkpt lat="48.84706" lon="2.24475">
        <ele>38.400001525879</ele>
        <time>2016-01-04T20:17:14Z</time>
      </trkpt>
      <trkpt lat="48.84702" lon="2.24491">
        <ele>38.599998474121</ele>
        <time>2016-01-04T20:17:16Z</time>
      </trkpt>
      <trkpt lat="48.84694" lon="2.2452">
        <ele>38.599998474121</ele>
        <time>2016-01-04T20:17:20Z</time>
      </trkpt>
      <trkpt lat="48.84687" lon="2.24547">
        <ele>38.400001525879</ele>
        <time>2016-01-04T20:17:24Z</time>
      </trkpt>
      <trkpt lat="48.84681" lon="2.24573">
        <ele>38.400001525879</ele>
        <time>2016-01-04T20:17:27Z</time>
      </trkpt>
      <trkpt lat="48.84673" lon="2.246">
        <ele>38.599998474121</ele>
        <time>2016-01-04T20:17:30Z</time>
      </trkpt>
      <trkpt lat="48.84666" lon="2.24627">
        <ele>38.599998474121</ele>
        <time>2016-01-04T20:17:32Z</time>
      </trkpt>
      <trkpt lat="48.84657" lon="2.2466">
        <ele>39.20000076294</ele>
        <time>2016-01-04T20:17:35Z</time>
      </trkpt>
      <trkpt lat="48.84655" lon="2.2467">
        <ele>39.400001525879</ele>
        <time>2016-01-04T20:17:36Z</time>
      </trkpt>
      <trkpt lat="48.84648" lon="2.24707">
        <ele>39.400001525879</ele>
        <time>2016-01-04T20:17:39Z</time>
      </trkpt>
      <trkpt lat="48.84639" lon="2.24744">
        <ele>40.20000076294</ele>
        <time>2016-01-04T20:17:42Z</time>
      </trkpt>
      <trkpt lat="48.8463" lon="2.2478">
        <ele>41.20000076294</ele>
        <time>2016-01-04T20:17:45Z</time>
      </trkpt>
      <trkpt lat="48.84622" lon="2.24815">
        <ele>41.20000076294</ele>
        <time>2016-01-04T20:17:48Z</time>
      </trkpt>
      <trkpt lat="48.84614" lon="2.24847">
        <ele>41</ele>
        <time>2016-01-04T20:17:51Z</time>
      </trkpt>
      <trkpt lat="48.84606" lon="2.24878">
        <ele>40.20000076294</ele>
        <time>2016-01-04T20:17:54Z</time>
      </trkpt>
      <trkpt lat="48.84597" lon="2.24912">
        <ele>39.20000076294</ele>
        <time>2016-01-04T20:17:57Z</time>
      </trkpt>
      <trkpt lat="48.84587" lon="2.24944">
        <ele>38.79999923706</ele>
        <time>2016-01-04T20:18:00Z</time>
      </trkpt>
      <trkpt lat="48.84578" lon="2.24975">
        <ele>38.599998474121</ele>
        <time>2016-01-04T20:18:03Z</time>
      </trkpt>
      <trkpt lat="48.8457" lon="2.25">
        <ele>38.400001525879</ele>
        <time>2016-01-04T20:18:06Z</time>
      </trkpt>
      <trkpt lat="48.84568" lon="2.25008">
        <ele>38.400001525879</ele>
        <time>2016-01-04T20:18:07Z</time>
      </trkpt>
      <trkpt lat="48.8456" lon="2.25039">
        <ele>38</ele>
        <time>2016-01-04T20:18:11Z</time>
      </trkpt>
      <trkpt lat="48.84553" lon="2.25063">
        <ele>37.79999923706</ele>
        <time>2016-01-04T20:18:16Z</time>
      </trkpt>
      <trkpt lat="48.84551" lon="2.25079">
        <ele>37.599998474121</ele>
        <time>2016-01-04T20:18:49Z</time>
      </trkpt>
      <trkpt lat="48.84551" lon="2.25112">
        <ele>38</ele>
        <time>2016-01-04T20:18:54Z</time>
      </trkpt>
      <trkpt lat="48.84552" lon="2.25144">
        <ele>38.400001525879</ele>
        <time>2016-01-04T20:18:59Z</time>
      </trkpt>
      <trkpt lat="48.84553" lon="2.25174">
        <ele>38.599998474121</ele>
        <time>2016-01-04T20:19:04Z</time>
      </trkpt>
      <trkpt lat="48.84553" lon="2.25208">
        <ele>38.599998474121</ele>
        <time>2016-01-04T20:19:09Z</time>
      </trkpt>
      <trkpt lat="48.84553" lon="2.25236">
        <ele>38.599998474121</ele>
        <time>2016-01-04T20:19:13Z</time>
      </trkpt>
      <trkpt lat="48.84552" lon="2.25258">
        <ele>38.20000076294</ele>
        <time>2016-01-04T20:19:16Z</time>
      </trkpt>
      <trkpt lat="48.84552" lon="2.25285">
        <ele>37.20000076294</ele>
        <time>2016-01-04T20:19:20Z</time>
      </trkpt>
      <trkpt lat="48.84551" lon="2.25301">
        <ele>36.400001525879</ele>
        <time>2016-01-04T20:19:22Z</time>
      </trkpt>
      <trkpt lat="48.84552" lon="2.2533">
        <ele>35</ele>
        <time>2016-01-04T20:19:26Z</time>
      </trkpt>
      <trkpt lat="48.84553" lon="2.25354">
        <ele>34.400001525879</ele>
        <time>2016-01-04T20:19:29Z</time>
      </trkpt>
      <trkpt lat="48.84551" lon="2.25386">
        <ele>34.400001525879</ele>
        <time>2016-01-04T20:19:33Z</time>
      </trkpt>
      <trkpt lat="48.84547" lon="2.25417">
        <ele>34.400001525879</ele>
        <time>2016-01-04T20:19:37Z</time>
      </trkpt>
      <trkpt lat="48.84544" lon="2.25445">
        <ele>34.79999923706</ele>
        <time>2016-01-04T20:19:41Z</time>
      </trkpt>
      <trkpt lat="48.84542" lon="2.25456">
        <ele>34.79999923706</ele>
        <time>2016-01-04T20:19:43Z</time>
      </trkpt>
      <trkpt lat="48.84535" lon="2.25469">
        <ele>34.79999923706</ele>
        <time>2016-01-04T20:19:47Z</time>
      </trkpt>
      <trkpt lat="48.84531" lon="2.25478">
        <ele>34.79999923706</ele>
        <time>2016-01-04T20:19:50Z</time>
      </trkpt>
      <trkpt lat="48.84528" lon="2.25489">
        <ele>35</ele>
        <time>2016-01-04T20:19:53Z</time>
      </trkpt>
      <trkpt lat="48.84526" lon="2.2551">
        <ele>35.400001525879</ele>
        <time>2016-01-04T20:19:58Z</time>
      </trkpt>
      <trkpt lat="48.84522" lon="2.25539">
        <ele>36</ele>
        <time>2016-01-04T20:20:05Z</time>
      </trkpt>
      <trkpt lat="48.84522" lon="2.25543">
        <ele>36.20000076294</ele>
        <time>2016-01-04T20:20:07Z</time>
      </trkpt>
      <trkpt lat="48.84526" lon="2.25558">
        <ele>36.599998474121</ele>
        <time>2016-01-04T20:20:11Z</time>
      </trkpt>
      <trkpt lat="48.84531" lon="2.25586">
        <ele>37.20000076294</ele>
        <time>2016-01-04T20:20:17Z</time>
      </trkpt>
      <trkpt lat="48.84535" lon="2.25613">
        <ele>38</ele>
        <time>2016-01-04T20:20:23Z</time>
      </trkpt>
      <trkpt lat="48.84535" lon="2.25643">
        <ele>39.20000076294</ele>
        <time>2016-01-04T20:20:28Z</time>
      </trkpt>
      <trkpt lat="48.84534" lon="2.25672">
        <ele>40</ele>
        <time>2016-01-04T20:20:33Z</time>
      </trkpt>
      <trkpt lat="48.84533" lon="2.25699">
        <ele>41</ele>
        <time>2016-01-04T20:20:39Z</time>
      </trkpt>
      <trkpt lat="48.84531" lon="2.25728">
        <ele>42</ele>
        <time>2016-01-04T20:20:48Z</time>
      </trkpt>
      <trkpt lat="48.8452" lon="2.2574">
        <ele>43</ele>
        <time>2016-01-04T20:21:28Z</time>
      </trkpt>
      <trkpt lat="48.84524" lon="2.2575">
        <ele>43.20000076294</ele>
        <time>2016-01-04T20:21:36Z</time>
      </trkpt>
      <trkpt lat="48.84528" lon="2.25752">
        <ele>43.20000076294</ele>
        <time>2016-01-04T20:21:41Z</time>
      </trkpt>
      <trkpt lat="48.84527" lon="2.25781">
        <ele>45</ele>
        <time>2016-01-04T20:21:51Z</time>
      </trkpt>
      <trkpt lat="48.84526" lon="2.25813">
        <ele>47</ele>
        <time>2016-01-04T20:21:57Z</time>
      </trkpt>
      <trkpt lat="48.8453" lon="2.25844">
        <ele>48</ele>
        <time>2016-01-04T20:22:03Z</time>
      </trkpt>
      <trkpt lat="48.8454" lon="2.25871">
        <ele>48.20000076294</ele>
        <time>2016-01-04T20:22:11Z</time>
      </trkpt>
      <trkpt lat="48.84556" lon="2.25888">
        <ele>48.599998474121</ele>
        <time>2016-01-04T20:22:18Z</time>
      </trkpt>
      <trkpt lat="48.84574" lon="2.259">
        <ele>49</ele>
        <time>2016-01-04T20:22:24Z</time>
      </trkpt>
      <trkpt lat="48.84589" lon="2.2592">
        <ele>49.400001525879</ele>
        <time>2016-01-04T20:22:30Z</time>
      </trkpt>
      <trkpt lat="48.84606" lon="2.25933">
        <ele>50.20000076294</ele>
        <time>2016-01-04T20:22:35Z</time>
      </trkpt>
      <trkpt lat="48.84626" lon="2.2594">
        <ele>49.79999923706</ele>
        <time>2016-01-04T20:22:40Z</time>
      </trkpt>
      <trkpt lat="48.84643" lon="2.25958">
        <ele>49.599998474121</ele>
        <time>2016-01-04T20:22:46Z</time>
      </trkpt>
      <trkpt lat="48.84659" lon="2.2597">
        <ele>49.400001525879</ele>
        <time>2016-01-04T20:22:51Z</time>
      </trkpt>
      <trkpt lat="48.84673" lon="2.25989">
        <ele>49.400001525879</ele>
        <time>2016-01-04T20:22:57Z</time>
      </trkpt>
      <trkpt lat="48.84677" lon="2.25989">
        <ele>49.20000076294</ele>
        <time>2016-01-04T20:22:58Z</time>
      </trkpt>
      <trkpt lat="48.84699" lon="2.25993">
        <ele>49.400001525879</ele>
        <time>2016-01-04T20:23:03Z</time>
      </trkpt>
      <trkpt lat="48.84718" lon="2.25994">
        <ele>50</ele>
        <time>2016-01-04T20:23:07Z</time>
      </trkpt>
      <trkpt lat="48.84739" lon="2.25997">
        <ele>50.79999923706</ele>
        <time>2016-01-04T20:23:12Z</time>
      </trkpt>
      <trkpt lat="48.84758" lon="2.26008">
        <ele>51.599998474121</ele>
        <time>2016-01-04T20:23:17Z</time>
      </trkpt>
      <trkpt lat="48.84772" lon="2.26014">
        <ele>52.20000076294</ele>
        <time>2016-01-04T20:23:23Z</time>
      </trkpt>
      <trkpt lat="48.84792" lon="2.26009">
        <ele>51.79999923706</ele>
        <time>2016-01-04T20:23:47Z</time>
      </trkpt>
      <trkpt lat="48.84799" lon="2.26004">
        <ele>51.400001525879</ele>
        <time>2016-01-04T20:23:53Z</time>
      </trkpt>
      <trkpt lat="48.84804" lon="2.2598">
        <ele>50.400001525879</ele>
        <time>2016-01-04T20:24:07Z</time>
      </trkpt>
      <trkpt lat="48.84815" lon="2.25976">
        <ele>50</ele>
        <time>2016-01-04T20:24:29Z</time>
      </trkpt>
      <trkpt lat="48.84822" lon="2.25974">
        <ele>49.79999923706</ele>
        <time>2016-01-04T20:24:34Z</time>
      </trkpt>
      <trkpt lat="48.84828" lon="2.25957">
        <ele>49.400001525879</ele>
        <time>2016-01-04T20:24:41Z</time>
      </trkpt>
      <trkpt lat="48.84829" lon="2.25952">
        <ele>49.400001525879</ele>
        <time>2016-01-04T20:24:44Z</time>
      </trkpt>
      <trkpt lat="48.84843" lon="2.25934">
        <ele>49.20000076294</ele>
        <time>2016-01-04T20:25:03Z</time>
      </trkpt>
      <trkpt lat="48.8484" lon="2.259">
        <ele>48</ele>
        <time>2016-01-04T20:25:15Z</time>
      </trkpt>
      <trkpt lat="48.84838" lon="2.25887">
        <ele>47.400001525879</ele>
        <time>2016-01-04T20:25:17Z</time>
      </trkpt>
      <trkpt lat="48.84833" lon="2.25874">
        <ele>47</ele>
        <time>2016-01-04T20:25:22Z</time>
      </trkpt>
      <trkpt lat="48.8483" lon="2.2587">
        <ele>46.599998474121</ele>
        <time>2016-01-04T20:25:25Z</time>
      </trkpt>
      <trkpt lat="48.8483" lon="2.25862">
        <ele>46.599998474121</ele>
        <time>2016-01-04T20:25:30Z</time>
      </trkpt>
      <trkpt lat="48.8483" lon="2.25858">
        <ele>46.599998474121</ele>
        <time>2016-01-04T20:25:32Z</time>
      </trkpt>
      <trkpt lat="48.84841" lon="2.25834">
        <ele>47</ele>
        <time>2016-01-04T20:25:39Z</time>
      </trkpt>
      <trkpt lat="48.84856" lon="2.25816">
        <ele>47.79999923706</ele>
        <time>2016-01-04T20:25:45Z</time>
      </trkpt>
      <trkpt lat="48.84873" lon="2.25798">
        <ele>48.400001525879</ele>
        <time>2016-01-04T20:25:51Z</time>
      </trkpt>
      <trkpt lat="48.84876" lon="2.25795">
        <ele>48.599998474121</ele>
        <time>2016-01-04T20:25:53Z</time>
      </trkpt>
      <trkpt lat="48.84886" lon="2.25791">
        <ele>49</ele>
        <time>2016-01-04T20:25:59Z</time>
      </trkpt>
      <trkpt lat="48.84892" lon="2.25794">
        <ele>49.400001525879</ele>
        <time>2016-01-04T20:26:04Z</time>
      </trkpt>
      <trkpt lat="48.849" lon="2.25796">
        <ele>49.79999923706</ele>
        <time>2016-01-04T20:26:10Z</time>
      </trkpt>
      <trkpt lat="48.84918" lon="2.25801">
        <ele>50.20000076294</ele>
        <time>2016-01-04T20:26:19Z</time>
      </trkpt>
      <trkpt lat="48.84937" lon="2.25805">
        <ele>50.20000076294</ele>
        <time>2016-01-04T20:26:27Z</time>
      </trkpt>
      <trkpt lat="48.84956" lon="2.25813">
        <ele>51.400001525879</ele>
        <time>2016-01-04T20:26:34Z</time>
      </trkpt>
      <trkpt lat="48.84973" lon="2.25823">
        <ele>52.79999923706</ele>
        <time>2016-01-04T20:26:40Z</time>
      </trkpt>
      <trkpt lat="48.84992" lon="2.25833">
        <ele>54</ele>
        <time>2016-01-04T20:26:46Z</time>
      </trkpt>
      <trkpt lat="48.85011" lon="2.25843">
        <ele>54.79999923706</ele>
        <time>2016-01-04T20:26:52Z</time>
      </trkpt>
      <trkpt lat="48.85031" lon="2.25855">
        <ele>55.400001525879</ele>
        <time>2016-01-04T20:26:58Z</time>
      </trkpt>
      <trkpt lat="48.85049" lon="2.25866">
        <ele>55.79999923706</ele>
        <time>2016-01-04T20:27:03Z</time>
      </trkpt>
      <trkpt lat="48.85068" lon="2.25879">
        <ele>56.20000076294</ele>
        <time>2016-01-04T20:27:08Z</time>
      </trkpt>
      <trkpt lat="48.85087" lon="2.25893">
        <ele>56.599998474121</ele>
        <time>2016-01-04T20:27:13Z</time>
      </trkpt>
      <trkpt lat="48.85106" lon="2.25907">
        <ele>57</ele>
        <time>2016-01-04T20:27:18Z</time>
      </trkpt>
      <trkpt lat="48.85123" lon="2.25916">
        <ele>57</ele>
        <time>2016-01-04T20:27:22Z</time>
      </trkpt>
      <trkpt lat="48.8514" lon="2.25926">
        <ele>57.20000076294</ele>
        <time>2016-01-04T20:27:26Z</time>
      </trkpt>
      <trkpt lat="48.85161" lon="2.25939">
        <ele>57.599998474121</ele>
        <time>2016-01-04T20:27:31Z</time>
      </trkpt>
      <trkpt lat="48.85178" lon="2.25949">
        <ele>57.79999923706</ele>
        <time>2016-01-04T20:27:35Z</time>
      </trkpt>
      <trkpt lat="48.85196" lon="2.2596">
        <ele>58</ele>
        <time>2016-01-04T20:27:39Z</time>
      </trkpt>
      <trkpt lat="48.852" lon="2.25963">
        <ele>57.79999923706</ele>
        <time>2016-01-04T20:27:40Z</time>
      </trkpt>
      <trkpt lat="48.85218" lon="2.25975">
        <ele>57.599998474121</ele>
        <time>2016-01-04T20:27:44Z</time>
      </trkpt>
      <trkpt lat="48.85238" lon="2.25988">
        <ele>57.20000076294</ele>
        <time>2016-01-04T20:27:48Z</time>
      </trkpt>
      <trkpt lat="48.85258" lon="2.26001">
        <ele>56.79999923706</ele>
        <time>2016-01-04T20:27:52Z</time>
      </trkpt>
      <trkpt lat="48.85278" lon="2.26014">
        <ele>56.400001525879</ele>
        <time>2016-01-04T20:27:56Z</time>
      </trkpt>
      <trkpt lat="48.853" lon="2.26026">
        <ele>56</ele>
        <time>2016-01-04T20:28:00Z</time>
      </trkpt>
      <trkpt lat="48.85309" lon="2.26032">
        <ele>56</ele>
        <time>2016-01-04T20:28:02Z</time>
      </trkpt>
      <trkpt lat="48.85323" lon="2.2604">
        <ele>56</ele>
        <time>2016-01-04T20:28:05Z</time>
      </trkpt>
      <trkpt lat="48.85337" lon="2.26048">
        <ele>56.20000076294</ele>
        <time>2016-01-04T20:28:08Z</time>
      </trkpt>
      <trkpt lat="48.85354" lon="2.2606">
        <ele>56.20000076294</ele>
        <time>2016-01-04T20:28:12Z</time>
      </trkpt>
      <trkpt lat="48.85372" lon="2.26072">
        <ele>55.400001525879</ele>
        <time>2016-01-04T20:28:16Z</time>
      </trkpt>
      <trkpt lat="48.85392" lon="2.26085">
        <ele>54.79999923706</ele>
        <time>2016-01-04T20:28:20Z</time>
      </trkpt>
      <trkpt lat="48.85411" lon="2.261">
        <ele>54.20000076294</ele>
        <time>2016-01-04T20:28:24Z</time>
      </trkpt>
      <trkpt lat="48.85431" lon="2.26111">
        <ele>53.599998474121</ele>
        <time>2016-01-04T20:28:28Z</time>
      </trkpt>
      <trkpt lat="48.8545" lon="2.26126">
        <ele>54</ele>
        <time>2016-01-04T20:28:32Z</time>
      </trkpt>
      <trkpt lat="48.85469" lon="2.2614">
        <ele>54.79999923706</ele>
        <time>2016-01-04T20:28:36Z</time>
      </trkpt>
      <trkpt lat="48.85488" lon="2.26152">
        <ele>55.599998474121</ele>
        <time>2016-01-04T20:28:40Z</time>
      </trkpt>
      <trkpt lat="48.85506" lon="2.26166">
        <ele>56.400001525879</ele>
        <time>2016-01-04T20:28:44Z</time>
      </trkpt>
      <trkpt lat="48.85526" lon="2.2618">
        <ele>56.599998474121</ele>
        <time>2016-01-04T20:28:48Z</time>
      </trkpt>
      <trkpt lat="48.85547" lon="2.26193">
        <ele>56.79999923706</ele>
        <time>2016-01-04T20:28:52Z</time>
      </trkpt>
      <trkpt lat="48.85569" lon="2.26207">
        <ele>57</ele>
        <time>2016-01-04T20:28:56Z</time>
      </trkpt>
      <trkpt lat="48.85574" lon="2.2621">
        <ele>57</ele>
        <time>2016-01-04T20:28:57Z</time>
      </trkpt>
      <trkpt lat="48.85592" lon="2.26223">
        <ele>56.79999923706</ele>
        <time>2016-01-04T20:29:01Z</time>
      </trkpt>
      <trkpt lat="48.8561" lon="2.26234">
        <ele>56.599998474121</ele>
        <time>2016-01-04T20:29:05Z</time>
      </trkpt>
      <trkpt lat="48.85628" lon="2.26245">
        <ele>56.20000076294</ele>
        <time>2016-01-04T20:29:09Z</time>
      </trkpt>
      <trkpt lat="48.85644" lon="2.26257">
        <ele>55.79999923706</ele>
        <time>2016-01-04T20:29:13Z</time>
      </trkpt>
      <trkpt lat="48.85648" lon="2.26259">
        <ele>55.599998474121</ele>
        <time>2016-01-04T20:29:14Z</time>
      </trkpt>
      <trkpt lat="48.85663" lon="2.26254">
        <ele>55</ele>
        <time>2016-01-04T20:29:18Z</time>
      </trkpt>
      <trkpt lat="48.85666" lon="2.26252">
        <ele>55</ele>
        <time>2016-01-04T20:29:19Z</time>
      </trkpt>
      <trkpt lat="48.85682" lon="2.26259">
        <ele>54.400001525879</ele>
        <time>2016-01-04T20:29:24Z</time>
      </trkpt>
      <trkpt lat="48.85686" lon="2.26259">
        <ele>54.20000076294</ele>
        <time>2016-01-04T20:29:25Z</time>
      </trkpt>
      <trkpt lat="48.85698" lon="2.26262">
        <ele>54</ele>
        <time>2016-01-04T20:29:28Z</time>
      </trkpt>
      <trkpt lat="48.85715" lon="2.26265">
        <ele>54</ele>
        <time>2016-01-04T20:29:32Z</time>
      </trkpt>
      <trkpt lat="48.85734" lon="2.2627">
        <ele>54.20000076294</ele>
        <time>2016-01-04T20:29:37Z</time>
      </trkpt>
      <trkpt lat="48.85753" lon="2.26281">
        <ele>54.400001525879</ele>
        <time>2016-01-04T20:29:42Z</time>
      </trkpt>
      <trkpt lat="48.85772" lon="2.26295">
        <ele>54.400001525879</ele>
        <time>2016-01-04T20:29:48Z</time>
      </trkpt>
      <trkpt lat="48.85773" lon="2.26297">
        <ele>54.400001525879</ele>
        <time>2016-01-04T20:29:49Z</time>
      </trkpt>
      <trkpt lat="48.85777" lon="2.26298">
        <ele>54.400001525879</ele>
        <time>2016-01-04T20:29:53Z</time>
      </trkpt>
      <trkpt lat="48.85792" lon="2.26306">
        <ele>54</ele>
        <time>2016-01-04T20:30:59Z</time>
      </trkpt>
      <trkpt lat="48.85809" lon="2.26318">
        <ele>53.79999923706</ele>
        <time>2016-01-04T20:31:05Z</time>
      </trkpt>
      <trkpt lat="48.85827" lon="2.26331">
        <ele>53.400001525879</ele>
        <time>2016-01-04T20:31:11Z</time>
      </trkpt>
      <trkpt lat="48.85845" lon="2.26343">
        <ele>54</ele>
        <time>2016-01-04T20:31:16Z</time>
      </trkpt>
      <trkpt lat="48.85862" lon="2.26354">
        <ele>54.400001525879</ele>
        <time>2016-01-04T20:31:20Z</time>
      </trkpt>
      <trkpt lat="48.85878" lon="2.26365">
        <ele>55.20000076294</ele>
        <time>2016-01-04T20:31:24Z</time>
      </trkpt>
      <trkpt lat="48.85897" lon="2.26376">
        <ele>55.79999923706</ele>
        <time>2016-01-04T20:31:29Z</time>
      </trkpt>
      <trkpt lat="48.85915" lon="2.26388">
        <ele>56.599998474121</ele>
        <time>2016-01-04T20:31:34Z</time>
      </trkpt>
      <trkpt lat="48.85935" lon="2.26399">
        <ele>57.400001525879</ele>
        <time>2016-01-04T20:31:39Z</time>
      </trkpt>
      <trkpt lat="48.85955" lon="2.2641">
        <ele>57</ele>
        <time>2016-01-04T20:31:44Z</time>
      </trkpt>
      <trkpt lat="48.85972" lon="2.26421">
        <ele>56.599998474121</ele>
        <time>2016-01-04T20:31:49Z</time>
      </trkpt>
      <trkpt lat="48.85989" lon="2.26431">
        <ele>56.20000076294</ele>
        <time>2016-01-04T20:31:54Z</time>
      </trkpt>
      <trkpt lat="48.86006" lon="2.2644">
        <ele>55.599998474121</ele>
        <time>2016-01-04T20:31:58Z</time>
      </trkpt>
      <trkpt lat="48.86024" lon="2.26451">
        <ele>55.20000076294</ele>
        <time>2016-01-04T20:32:02Z</time>
      </trkpt>
      <trkpt lat="48.86028" lon="2.26454">
        <ele>55.20000076294</ele>
        <time>2016-01-04T20:32:03Z</time>
      </trkpt>
      <trkpt lat="48.86047" lon="2.26467">
        <ele>54.599998474121</ele>
        <time>2016-01-04T20:32:07Z</time>
      </trkpt>
      <trkpt lat="48.86064" lon="2.26479">
        <ele>54</ele>
        <time>2016-01-04T20:32:11Z</time>
      </trkpt>
      <trkpt lat="48.86084" lon="2.26491">
        <ele>53.400001525879</ele>
        <time>2016-01-04T20:32:15Z</time>
      </trkpt>
      <trkpt lat="48.86102" lon="2.26503">
        <ele>52.599998474121</ele>
        <time>2016-01-04T20:32:19Z</time>
      </trkpt>
      <trkpt lat="48.86116" lon="2.2651">
        <ele>52.79999923706</ele>
        <time>2016-01-04T20:32:22Z</time>
      </trkpt>
      <trkpt lat="48.86134" lon="2.26515">
        <ele>52.400001525879</ele>
        <time>2016-01-04T20:32:26Z</time>
      </trkpt>
      <trkpt lat="48.86143" lon="2.26516">
        <ele>52</ele>
        <time>2016-01-04T20:32:28Z</time>
      </trkpt>
      <trkpt lat="48.86161" lon="2.26519">
        <ele>51.20000076294</ele>
        <time>2016-01-04T20:32:32Z</time>
      </trkpt>
      <trkpt lat="48.8618" lon="2.26518">
        <ele>50</ele>
        <time>2016-01-04T20:32:36Z</time>
      </trkpt>
      <trkpt lat="48.86194" lon="2.26516">
        <ele>49</ele>
        <time>2016-01-04T20:32:39Z</time>
      </trkpt>
      <trkpt lat="48.86214" lon="2.26513">
        <ele>48.400001525879</ele>
        <time>2016-01-04T20:32:43Z</time>
      </trkpt>
      <trkpt lat="48.86233" lon="2.26523">
        <ele>49.400001525879</ele>
        <time>2016-01-04T20:32:47Z</time>
      </trkpt>
      <trkpt lat="48.86245" lon="2.26533">
        <ele>50.20000076294</ele>
        <time>2016-01-04T20:32:50Z</time>
      </trkpt>
      <trkpt lat="48.86259" lon="2.26546">
        <ele>51</ele>
        <time>2016-01-04T20:32:55Z</time>
      </trkpt>
      <trkpt lat="48.86264" lon="2.26548">
        <ele>51.20000076294</ele>
        <time>2016-01-04T20:32:57Z</time>
      </trkpt>
      <trkpt lat="48.86269" lon="2.26553">
        <ele>51.599998474121</ele>
        <time>2016-01-04T20:33:00Z</time>
      </trkpt>
      <trkpt lat="48.86276" lon="2.26557">
        <ele>51.79999923706</ele>
        <time>2016-01-04T20:33:03Z</time>
      </trkpt>
      <trkpt lat="48.86295" lon="2.26563">
        <ele>51.20000076294</ele>
        <time>2016-01-04T20:33:10Z</time>
      </trkpt>
      <trkpt lat="48.86315" lon="2.26573">
        <ele>50.599998474121</ele>
        <time>2016-01-04T20:33:15Z</time>
      </trkpt>
      <trkpt lat="48.86335" lon="2.26589">
        <ele>50</ele>
        <time>2016-01-04T20:33:20Z</time>
      </trkpt>
      <trkpt lat="48.8635" lon="2.26605">
        <ele>49.20000076294</ele>
        <time>2016-01-04T20:33:24Z</time>
      </trkpt>
      <trkpt lat="48.86366" lon="2.26624">
        <ele>48.599998474121</ele>
        <time>2016-01-04T20:33:28Z</time>
      </trkpt>
      <trkpt lat="48.86381" lon="2.26648">
        <ele>48.20000076294</ele>
        <time>2016-01-04T20:33:32Z</time>
      </trkpt>
      <trkpt lat="48.86392" lon="2.26673">
        <ele>47.79999923706</ele>
        <time>2016-01-04T20:33:36Z</time>
      </trkpt>
      <trkpt lat="48.86398" lon="2.2669">
        <ele>47.79999923706</ele>
        <time>2016-01-04T20:33:39Z</time>
      </trkpt>
      <trkpt lat="48.86391" lon="2.26714">
        <ele>48.400001525879</ele>
        <time>2016-01-04T20:33:44Z</time>
      </trkpt>
      <trkpt lat="48.86388" lon="2.26717">
        <ele>48.599998474121</ele>
        <time>2016-01-04T20:33:45Z</time>
      </trkpt>
      <trkpt lat="48.86382" lon="2.26724">
        <ele>48.79999923706</ele>
        <time>2016-01-04T20:33:47Z</time>
      </trkpt>
      <trkpt lat="48.86379" lon="2.26731">
        <ele>49</ele>
        <time>2016-01-04T20:33:50Z</time>
      </trkpt>
      <trkpt lat="48.86388" lon="2.26741">
        <ele>48.79999923706</ele>
        <time>2016-01-04T20:34:10Z</time>
      </trkpt>
      <trkpt lat="48.86403" lon="2.26757">
        <ele>48.20000076294</ele>
        <time>2016-01-04T20:34:16Z</time>
      </trkpt>
      <trkpt lat="48.86421" lon="2.26771">
        <ele>47.400001525879</ele>
        <time>2016-01-04T20:34:22Z</time>
      </trkpt>
      <trkpt lat="48.86437" lon="2.26785">
        <ele>46.599998474121</ele>
        <time>2016-01-04T20:34:27Z</time>
      </trkpt>
      <trkpt lat="48.86454" lon="2.26799">
        <ele>45.79999923706</ele>
        <time>2016-01-04T20:34:32Z</time>
      </trkpt>
      <trkpt lat="48.86471" lon="2.26816">
        <ele>45</ele>
        <time>2016-01-04T20:34:37Z</time>
      </trkpt>
      <trkpt lat="48.8649" lon="2.26833">
        <ele>44.599998474121</ele>
        <time>2016-01-04T20:34:42Z</time>
      </trkpt>
      <trkpt lat="48.86507" lon="2.26848">
        <ele>45.20000076294</ele>
        <time>2016-01-04T20:34:46Z</time>
      </trkpt>
      <trkpt lat="48.86527" lon="2.2686">
        <ele>45.599998474121</ele>
        <time>2016-01-04T20:34:50Z</time>
      </trkpt>
      <trkpt lat="48.86546" lon="2.26874">
        <ele>47</ele>
        <time>2016-01-04T20:34:54Z</time>
      </trkpt>
      <trkpt lat="48.86567" lon="2.26888">
        <ele>48.400001525879</ele>
        <time>2016-01-04T20:34:58Z</time>
      </trkpt>
      <trkpt lat="48.86588" lon="2.26903">
        <ele>50</ele>
        <time>2016-01-04T20:35:02Z</time>
      </trkpt>
      <trkpt lat="48.86592" lon="2.26907">
        <ele>50.400001525879</ele>
        <time>2016-01-04T20:35:03Z</time>
      </trkpt>
      <trkpt lat="48.86612" lon="2.26922">
        <ele>51.400001525879</ele>
        <time>2016-01-04T20:35:07Z</time>
      </trkpt>
      <trkpt lat="48.86634" lon="2.26937">
        <ele>52</ele>
        <time>2016-01-04T20:35:11Z</time>
      </trkpt>
      <trkpt lat="48.8665" lon="2.26949">
        <ele>52.20000076294</ele>
        <time>2016-01-04T20:35:14Z</time>
      </trkpt>
      <trkpt lat="48.8667" lon="2.26966">
        <ele>53</ele>
        <time>2016-01-04T20:35:18Z</time>
      </trkpt>
      <trkpt lat="48.86691" lon="2.26982">
        <ele>53.400001525879</ele>
        <time>2016-01-04T20:35:22Z</time>
      </trkpt>
      <trkpt lat="48.86711" lon="2.26998">
        <ele>54</ele>
        <time>2016-01-04T20:35:26Z</time>
      </trkpt>
      <trkpt lat="48.86731" lon="2.27013">
        <ele>52.400001525879</ele>
        <time>2016-01-04T20:35:30Z</time>
      </trkpt>
      <trkpt lat="48.86749" lon="2.27029">
        <ele>51</ele>
        <time>2016-01-04T20:35:34Z</time>
      </trkpt>
      <trkpt lat="48.86769" lon="2.27044">
        <ele>49.400001525879</ele>
        <time>2016-01-04T20:35:38Z</time>
      </trkpt>
      <trkpt lat="48.86789" lon="2.27059">
        <ele>48.599998474121</ele>
        <time>2016-01-04T20:35:42Z</time>
      </trkpt>
      <trkpt lat="48.86793" lon="2.27064">
        <ele>48.400001525879</ele>
        <time>2016-01-04T20:35:43Z</time>
      </trkpt>
      <trkpt lat="48.86808" lon="2.27076">
        <ele>47.599998474121</ele>
        <time>2016-01-04T20:35:46Z</time>
      </trkpt>
      <trkpt lat="48.86829" lon="2.27094">
        <ele>48</ele>
        <time>2016-01-04T20:35:50Z</time>
      </trkpt>
      <trkpt lat="48.86849" lon="2.27112">
        <ele>48.599998474121</ele>
        <time>2016-01-04T20:35:54Z</time>
      </trkpt>
      <trkpt lat="48.8687" lon="2.27128">
        <ele>49.400001525879</ele>
        <time>2016-01-04T20:35:58Z</time>
      </trkpt>
      <trkpt lat="48.86888" lon="2.27146">
        <ele>50.599998474121</ele>
        <time>2016-01-04T20:36:02Z</time>
      </trkpt>
      <trkpt lat="48.86904" lon="2.27163">
        <ele>51.599998474121</ele>
        <time>2016-01-04T20:36:06Z</time>
      </trkpt>
      <trkpt lat="48.86922" lon="2.27178">
        <ele>52.79999923706</ele>
        <time>2016-01-04T20:36:10Z</time>
      </trkpt>
      <trkpt lat="48.8694" lon="2.27195">
        <ele>54.20000076294</ele>
        <time>2016-01-04T20:36:15Z</time>
      </trkpt>
      <trkpt lat="48.86945" lon="2.272">
        <ele>54</ele>
        <time>2016-01-04T20:36:17Z</time>
      </trkpt>
      <trkpt lat="48.86951" lon="2.27213">
        <ele>54.400001525879</ele>
        <time>2016-01-04T20:36:21Z</time>
      </trkpt>
      <trkpt lat="48.86953" lon="2.27216">
        <ele>54.400001525879</ele>
        <time>2016-01-04T20:36:22Z</time>
      </trkpt>
      <trkpt lat="48.86966" lon="2.27226">
        <ele>53.599998474121</ele>
        <time>2016-01-04T20:36:28Z</time>
      </trkpt>
      <trkpt lat="48.86968" lon="2.27227">
        <ele>53.599998474121</ele>
        <time>2016-01-04T20:36:29Z</time>
      </trkpt>
      <trkpt lat="48.86973" lon="2.2723">
        <ele>53.20000076294</ele>
        <time>2016-01-04T20:36:31Z</time>
      </trkpt>
      <trkpt lat="48.86983" lon="2.27235">
        <ele>52.599998474121</ele>
        <time>2016-01-04T20:36:34Z</time>
      </trkpt>
      <trkpt lat="48.87" lon="2.27253">
        <ele>51.400001525879</ele>
        <time>2016-01-04T20:36:39Z</time>
      </trkpt>
      <trkpt lat="48.87017" lon="2.27272">
        <ele>49.599998474121</ele>
        <time>2016-01-04T20:36:44Z</time>
      </trkpt>
      <trkpt lat="48.87027" lon="2.27284">
        <ele>49</ele>
        <time>2016-01-04T20:36:47Z</time>
      </trkpt>
      <trkpt lat="48.87034" lon="2.27292">
        <ele>48.79999923706</ele>
        <time>2016-01-04T20:36:49Z</time>
      </trkpt>
      <trkpt lat="48.87048" lon="2.27312">
        <ele>48.400001525879</ele>
        <time>2016-01-04T20:36:54Z</time>
      </trkpt>
      <trkpt lat="48.87062" lon="2.27332">
        <ele>48.20000076294</ele>
        <time>2016-01-04T20:36:59Z</time>
      </trkpt>
      <trkpt lat="48.87065" lon="2.27335">
        <ele>48.20000076294</ele>
        <time>2016-01-04T20:37:00Z</time>
      </trkpt>
      <trkpt lat="48.87075" lon="2.27356">
        <ele>48.599998474121</ele>
        <time>2016-01-04T20:37:05Z</time>
      </trkpt>
      <trkpt lat="48.8709" lon="2.2738">
        <ele>49.20000076294</ele>
        <time>2016-01-04T20:37:11Z</time>
      </trkpt>
      <trkpt lat="48.87105" lon="2.27401">
        <ele>49.599998474121</ele>
        <time>2016-01-04T20:37:17Z</time>
      </trkpt>
      <trkpt lat="48.87117" lon="2.27426">
        <ele>49.599998474121</ele>
        <time>2016-01-04T20:37:24Z</time>
      </trkpt>
      <trkpt lat="48.87109" lon="2.27453">
        <ele>49</ele>
        <time>2016-01-04T20:37:31Z</time>
      </trkpt>
      <trkpt lat="48.87101" lon="2.2748">
        <ele>48.400001525879</ele>
        <time>2016-01-04T20:37:37Z</time>
      </trkpt>
      <trkpt lat="48.87101" lon="2.2751">
        <ele>50.20000076294</ele>
        <time>2016-01-04T20:37:42Z</time>
      </trkpt>
      <trkpt lat="48.87109" lon="2.27538">
        <ele>52.599998474121</ele>
        <time>2016-01-04T20:37:47Z</time>
      </trkpt>
      <trkpt lat="48.87121" lon="2.27559">
        <ele>53.20000076294</ele>
        <time>2016-01-04T20:37:52Z</time>
      </trkpt>
      <trkpt lat="48.87132" lon="2.27581">
        <ele>54</ele>
        <time>2016-01-04T20:37:58Z</time>
      </trkpt>
      <trkpt lat="48.8715" lon="2.2759">
        <ele>51</ele>
        <time>2016-01-04T20:38:06Z</time>
      </trkpt>
      <trkpt lat="48.8716" lon="2.27594">
        <ele>49.400001525879</ele>
        <time>2016-01-04T20:38:13Z</time>
      </trkpt>
      <trkpt lat="48.87167" lon="2.27618">
        <ele>48.20000076294</ele>
        <time>2016-01-04T20:38:34Z</time>
      </trkpt>
      <trkpt lat="48.87163" lon="2.27642">
        <ele>48.599998474121</ele>
        <time>2016-01-04T20:38:45Z</time>
      </trkpt>
      <trkpt lat="48.87163" lon="2.2765">
        <ele>49</ele>
        <time>2016-01-04T20:38:49Z</time>
      </trkpt>
      <trkpt lat="48.87161" lon="2.27656">
        <ele>49.599998474121</ele>
        <time>2016-01-04T20:38:53Z</time>
      </trkpt>
      <trkpt lat="48.87151" lon="2.27681">
        <ele>52.400001525879</ele>
        <time>2016-01-04T20:39:08Z</time>
      </trkpt>
      <trkpt lat="48.87142" lon="2.27708">
        <ele>54.20000076294</ele>
        <time>2016-01-04T20:39:18Z</time>
      </trkpt>
      <trkpt lat="48.87139" lon="2.27735">
        <ele>54.20000076294</ele>
        <time>2016-01-04T20:39:29Z</time>
      </trkpt>
      <trkpt lat="48.87132" lon="2.27761">
        <ele>56</ele>
        <time>2016-01-04T20:39:41Z</time>
      </trkpt>
      <trkpt lat="48.87135" lon="2.27766">
        <ele>56</ele>
        <time>2016-01-04T20:39:50Z</time>
      </trkpt>
      <trkpt lat="48.87144" lon="2.27791">
        <ele>55.599998474121</ele>
        <time>2016-01-04T20:39:58Z</time>
      </trkpt>
      <trkpt lat="48.87149" lon="2.27817">
        <ele>54.79999923706</ele>
        <time>2016-01-04T20:40:03Z</time>
      </trkpt>
      <trkpt lat="48.87155" lon="2.27848">
        <ele>53.79999923706</ele>
        <time>2016-01-04T20:40:07Z</time>
      </trkpt>
      <trkpt lat="48.87157" lon="2.27876">
        <ele>53.400001525879</ele>
        <time>2016-01-04T20:40:10Z</time>
      </trkpt>
      <trkpt lat="48.87159" lon="2.27885">
        <ele>53.20000076294</ele>
        <time>2016-01-04T20:40:11Z</time>
      </trkpt>
      <trkpt lat="48.87164" lon="2.27915">
        <ele>52.599998474121</ele>
        <time>2016-01-04T20:40:14Z</time>
      </trkpt>
      <trkpt lat="48.87168" lon="2.27946">
        <ele>53.79999923706</ele>
        <time>2016-01-04T20:40:17Z</time>
      </trkpt>
      <trkpt lat="48.8717" lon="2.27968">
        <ele>54.79999923706</ele>
        <time>2016-01-04T20:40:19Z</time>
      </trkpt>
      <trkpt lat="48.87173" lon="2.28002">
        <ele>55.79999923706</ele>
        <time>2016-01-04T20:40:22Z</time>
      </trkpt>
      <trkpt lat="48.87177" lon="2.28034">
        <ele>56</ele>
        <time>2016-01-04T20:40:25Z</time>
      </trkpt>
      <trkpt lat="48.8718" lon="2.28066">
        <ele>56.20000076294</ele>
        <time>2016-01-04T20:40:28Z</time>
      </trkpt>
      <trkpt lat="48.87186" lon="2.28096">
        <ele>56.599998474121</ele>
        <time>2016-01-04T20:40:31Z</time>
      </trkpt>
      <trkpt lat="48.87191" lon="2.28126">
        <ele>57.599998474121</ele>
        <time>2016-01-04T20:40:34Z</time>
      </trkpt>
      <trkpt lat="48.87195" lon="2.28154">
        <ele>58.20000076294</ele>
        <time>2016-01-04T20:40:37Z</time>
      </trkpt>
      <trkpt lat="48.87199" lon="2.28174">
        <ele>58.599998474121</ele>
        <time>2016-01-04T20:40:39Z</time>
      </trkpt>
      <trkpt lat="48.87205" lon="2.28202">
        <ele>59</ele>
        <time>2016-01-04T20:40:42Z</time>
      </trkpt>
      <trkpt lat="48.87208" lon="2.28231">
        <ele>59.599998474121</ele>
        <time>2016-01-04T20:40:45Z</time>
      </trkpt>
      <trkpt lat="48.87209" lon="2.2826">
        <ele>58.79999923706</ele>
        <time>2016-01-04T20:40:48Z</time>
      </trkpt>
      <trkpt lat="48.87214" lon="2.2829">
        <ele>58.599998474121</ele>
        <time>2016-01-04T20:40:51Z</time>
      </trkpt>
      <trkpt lat="48.87217" lon="2.28321">
        <ele>59</ele>
        <time>2016-01-04T20:40:54Z</time>
      </trkpt>
      <trkpt lat="48.8722" lon="2.28351">
        <ele>58.400001525879</ele>
        <time>2016-01-04T20:40:57Z</time>
      </trkpt>
      <trkpt lat="48.87223" lon="2.28378">
        <ele>57.79999923706</ele>
        <time>2016-01-04T20:41:00Z</time>
      </trkpt>
      <trkpt lat="48.87226" lon="2.284">
        <ele>57.79999923706</ele>
        <time>2016-01-04T20:41:03Z</time>
      </trkpt>
      <trkpt lat="48.87227" lon="2.28416">
        <ele>58</ele>
        <time>2016-01-04T20:41:06Z</time>
      </trkpt>
      <trkpt lat="48.87227" lon="2.28447">
        <ele>59.599998474121</ele>
        <time>2016-01-04T20:41:13Z</time>
      </trkpt>
      <trkpt lat="48.87229" lon="2.28453">
        <ele>59.400001525879</ele>
        <time>2016-01-04T20:41:16Z</time>
      </trkpt>
      <trkpt lat="48.87221" lon="2.28463">
        <ele>60.20000076294</ele>
        <time>2016-01-04T20:42:16Z</time>
      </trkpt>
      <trkpt lat="48.8722" lon="2.28469">
        <ele>60.20000076294</ele>
        <time>2016-01-04T20:42:19Z</time>
      </trkpt>
      <trkpt lat="48.87226" lon="2.28483">
        <ele>59</ele>
        <time>2016-01-04T20:42:25Z</time>
      </trkpt>
      <trkpt lat="48.87227" lon="2.28486">
        <ele>58.79999923706</ele>
        <time>2016-01-04T20:42:28Z</time>
      </trkpt>
      <trkpt lat="48.87232" lon="2.28515">
        <ele>59.20000076294</ele>
        <time>2016-01-04T20:42:47Z</time>
      </trkpt>
      <trkpt lat="48.87237" lon="2.28543">
        <ele>60.599998474121</ele>
        <time>2016-01-04T20:42:52Z</time>
      </trkpt>
      <trkpt lat="48.8724" lon="2.28573">
        <ele>60</ele>
        <time>2016-01-04T20:42:57Z</time>
      </trkpt>
      <trkpt lat="48.87244" lon="2.28603">
        <ele>60.400001525879</ele>
        <time>2016-01-04T20:43:02Z</time>
      </trkpt>
      <trkpt lat="48.87248" lon="2.28634">
        <ele>60.79999923706</ele>
        <time>2016-01-04T20:43:07Z</time>
      </trkpt>
      <trkpt lat="48.87251" lon="2.28664">
        <ele>61</ele>
        <time>2016-01-04T20:43:11Z</time>
      </trkpt>
      <trkpt lat="48.87256" lon="2.28695">
        <ele>61.599998474121</ele>
        <time>2016-01-04T20:43:15Z</time>
      </trkpt>
      <trkpt lat="48.87258" lon="2.28728">
        <ele>62.20000076294</ele>
        <time>2016-01-04T20:43:19Z</time>
      </trkpt>
      <trkpt lat="48.8726" lon="2.28761">
        <ele>64</ele>
        <time>2016-01-04T20:43:23Z</time>
      </trkpt>
      <trkpt lat="48.87263" lon="2.28793">
        <ele>65.199996948242</ele>
        <time>2016-01-04T20:43:27Z</time>
      </trkpt>
      <trkpt lat="48.87266" lon="2.28817">
        <ele>66</ele>
        <time>2016-01-04T20:43:30Z</time>
      </trkpt>
      <trkpt lat="48.8727" lon="2.28846">
        <ele>66.400001525879</ele>
        <time>2016-01-04T20:43:34Z</time>
      </trkpt>
      <trkpt lat="48.87271" lon="2.28853">
        <ele>66.400001525879</ele>
        <time>2016-01-04T20:43:35Z</time>
      </trkpt>
      <trkpt lat="48.87276" lon="2.28881">
        <ele>66.400001525879</ele>
        <time>2016-01-04T20:43:39Z</time>
      </trkpt>
      <trkpt lat="48.87282" lon="2.28909">
        <ele>66.400001525879</ele>
        <time>2016-01-04T20:43:43Z</time>
      </trkpt>
      <trkpt lat="48.87284" lon="2.28937">
        <ele>65.800003051758</ele>
        <time>2016-01-04T20:43:47Z</time>
      </trkpt>
      <trkpt lat="48.87284" lon="2.28943">
        <ele>65.599998474121</ele>
        <time>2016-01-04T20:43:48Z</time>
      </trkpt>
      <trkpt lat="48.87286" lon="2.28973">
        <ele>64.800003051758</ele>
        <time>2016-01-04T20:43:52Z</time>
      </trkpt>
      <trkpt lat="48.87287" lon="2.2898">
        <ele>64.599998474121</ele>
        <time>2016-01-04T20:43:53Z</time>
      </trkpt>
      <trkpt lat="48.8729" lon="2.29011">
        <ele>65.599998474121</ele>
        <time>2016-01-04T20:43:57Z</time>
      </trkpt>
      <trkpt lat="48.87293" lon="2.29042">
        <ele>67.400001525879</ele>
        <time>2016-01-04T20:44:01Z</time>
      </trkpt>
      <trkpt lat="48.87295" lon="2.29056">
        <ele>68.400001525879</ele>
        <time>2016-01-04T20:44:03Z</time>
      </trkpt>
      <trkpt lat="48.87296" lon="2.2907">
        <ele>69.199996948242</ele>
        <time>2016-01-04T20:44:05Z</time>
      </trkpt>
      <trkpt lat="48.873" lon="2.29098">
        <ele>69.400001525879</ele>
        <time>2016-01-04T20:44:09Z</time>
      </trkpt>
      <trkpt lat="48.87301" lon="2.29104">
        <ele>69.400001525879</ele>
        <time>2016-01-04T20:44:10Z</time>
      </trkpt>
      <trkpt lat="48.87305" lon="2.29128">
        <ele>70.199996948242</ele>
        <time>2016-01-04T20:44:14Z</time>
      </trkpt>
      <trkpt lat="48.87308" lon="2.29139">
        <ele>70.599998474121</ele>
        <time>2016-01-04T20:44:16Z</time>
      </trkpt>
      <trkpt lat="48.87318" lon="2.29159">
        <ele>71</ele>
        <time>2016-01-04T20:44:20Z</time>
      </trkpt>
      <trkpt lat="48.87331" lon="2.29186">
        <ele>69.800003051758</ele>
        <time>2016-01-04T20:44:25Z</time>
      </trkpt>
      <trkpt lat="48.87337" lon="2.292">
        <ele>69.199996948242</ele>
        <time>2016-01-04T20:44:28Z</time>
      </trkpt>
      <trkpt lat="48.87345" lon="2.29226">
        <ele>68.199996948242</ele>
        <time>2016-01-04T20:44:34Z</time>
      </trkpt>
      <trkpt lat="48.87347" lon="2.29231">
        <ele>68</ele>
        <time>2016-01-04T20:44:35Z</time>
      </trkpt>
      <trkpt lat="48.87348" lon="2.29238">
        <ele>67.800003051758</ele>
        <time>2016-01-04T20:44:37Z</time>
      </trkpt>
      <trkpt lat="48.87356" lon="2.2926">
        <ele>66.599998474121</ele>
        <time>2016-01-04T20:44:58Z</time>
      </trkpt>
      <trkpt lat="48.87359" lon="2.2926">
        <ele>66.599998474121</ele>
        <time>2016-01-04T20:46:51Z</time>
      </trkpt>
      <trkpt lat="48.87356" lon="2.29279">
        <ele>66.199996948242</ele>
        <time>2016-01-04T20:48:32Z</time>
      </trkpt>
      <trkpt lat="48.87339" lon="2.29289">
        <ele>67.400001525879</ele>
        <time>2016-01-04T20:48:43Z</time>
      </trkpt>
      <trkpt lat="48.87322" lon="2.29304">
        <ele>68</ele>
        <time>2016-01-04T20:48:52Z</time>
      </trkpt>
      <trkpt lat="48.87305" lon="2.29318">
        <ele>67.199996948242</ele>
        <time>2016-01-04T20:49:00Z</time>
      </trkpt>
      <trkpt lat="48.87291" lon="2.29326">
        <ele>67</ele>
        <time>2016-01-04T20:49:31Z</time>
      </trkpt>
      <trkpt lat="48.87292" lon="2.29326">
        <ele>66.800003051758</ele>
        <time>2016-01-04T20:49:57Z</time>
      </trkpt>
      <trkpt lat="48.87305" lon="2.2932">
        <ele>67</ele>
        <time>2016-01-04T20:50:48Z</time>
      </trkpt>
      <trkpt lat="48.87291" lon="2.29333">
        <ele>66.599998474121</ele>
        <time>2016-01-04T20:51:33Z</time>
      </trkpt>
      <trkpt lat="48.87275" lon="2.29351">
        <ele>66.599998474121</ele>
        <time>2016-01-04T20:51:47Z</time>
      </trkpt>
      <trkpt lat="48.87259" lon="2.29368">
        <ele>66.199996948242</ele>
        <time>2016-01-04T20:51:54Z</time>
      </trkpt>
      <trkpt lat="48.87252" lon="2.29396">
        <ele>65.599998474121</ele>
        <time>2016-01-04T20:52:00Z</time>
      </trkpt>
      <trkpt lat="48.87247" lon="2.29426">
        <ele>65</ele>
        <time>2016-01-04T20:52:06Z</time>
      </trkpt>
      <trkpt lat="48.87241" lon="2.29455">
        <ele>64.400001525879</ele>
        <time>2016-01-04T20:52:13Z</time>
      </trkpt>
      <trkpt lat="48.87241" lon="2.29483">
        <ele>64.199996948242</ele>
        <time>2016-01-04T20:52:20Z</time>
      </trkpt>
      <trkpt lat="48.87238" lon="2.295">
        <ele>64.199996948242</ele>
        <time>2016-01-04T20:52:25Z</time>
      </trkpt>
      <trkpt lat="48.87232" lon="2.29516">
        <ele>64</ele>
        <time>2016-01-04T20:52:45Z</time>
      </trkpt>
      <trkpt lat="48.87232" lon="2.29544">
        <ele>63.400001525879</ele>
        <time>2016-01-04T20:52:52Z</time>
      </trkpt>
      <trkpt lat="48.87239" lon="2.29573">
        <ele>63</ele>
        <time>2016-01-04T20:53:00Z</time>
      </trkpt>
      <trkpt lat="48.8725" lon="2.29596">
        <ele>63.20000076294</ele>
        <time>2016-01-04T20:53:05Z</time>
      </trkpt>
      <trkpt lat="48.8726" lon="2.2962">
        <ele>63.79999923706</ele>
        <time>2016-01-04T20:53:11Z</time>
      </trkpt>
      <trkpt lat="48.87273" lon="2.2964">
        <ele>63.79999923706</ele>
        <time>2016-01-04T20:53:17Z</time>
      </trkpt>
      <trkpt lat="48.87284" lon="2.29662">
        <ele>64.599998474121</ele>
        <time>2016-01-04T20:53:22Z</time>
      </trkpt>
      <trkpt lat="48.87298" lon="2.2968">
        <ele>64.400001525879</ele>
        <time>2016-01-04T20:53:28Z</time>
      </trkpt>
      <trkpt lat="48.87303" lon="2.29687">
        <ele>64.199996948242</ele>
        <time>2016-01-04T20:53:32Z</time>
      </trkpt>
      <trkpt lat="48.87303" lon="2.29698">
        <ele>64.599998474121</ele>
        <time>2016-01-04T20:54:22Z</time>
      </trkpt>
      <trkpt lat="48.87302" lon="2.29695">
        <ele>64.400001525879</ele>
        <time>2016-01-04T20:55:52Z</time>
      </trkpt>
      <trkpt lat="48.87298" lon="2.29717">
        <ele>66.199996948242</ele>
        <time>2016-01-04T20:56:36Z</time>
      </trkpt>
      <trkpt lat="48.87287" lon="2.2974">
        <ele>68.400001525879</ele>
        <time>2016-01-04T20:56:44Z</time>
      </trkpt>
      <trkpt lat="48.87275" lon="2.29764">
        <ele>69.400001525879</ele>
        <time>2016-01-04T20:56:51Z</time>
      </trkpt>
      <trkpt lat="48.87264" lon="2.29786">
        <ele>68.599998474121</ele>
        <time>2016-01-04T20:56:58Z</time>
      </trkpt>
      <trkpt lat="48.87256" lon="2.29812">
        <ele>67.800003051758</ele>
        <time>2016-01-04T20:57:04Z</time>
      </trkpt>
      <trkpt lat="48.87249" lon="2.29838">
        <ele>67.400001525879</ele>
        <time>2016-01-04T20:57:09Z</time>
      </trkpt>
      <trkpt lat="48.8724" lon="2.29863">
        <ele>66.599998474121</ele>
        <time>2016-01-04T20:57:13Z</time>
      </trkpt>
      <trkpt lat="48.87233" lon="2.29888">
        <ele>65.400001525879</ele>
        <time>2016-01-04T20:57:17Z</time>
      </trkpt>
      <trkpt lat="48.87238" lon="2.29925">
        <ele>63.79999923706</ele>
        <time>2016-01-04T20:57:23Z</time>
      </trkpt>
      <trkpt lat="48.87226" lon="2.29951">
        <ele>63.599998474121</ele>
        <time>2016-01-04T20:57:29Z</time>
      </trkpt>
      <trkpt lat="48.8722" lon="2.29978">
        <ele>62.20000076294</ele>
        <time>2016-01-04T20:57:33Z</time>
      </trkpt>
      <trkpt lat="48.87214" lon="2.3001">
        <ele>61.79999923706</ele>
        <time>2016-01-04T20:57:38Z</time>
      </trkpt>
      <trkpt lat="48.87209" lon="2.30031">
        <ele>61.20000076294</ele>
        <time>2016-01-04T20:57:42Z</time>
      </trkpt>
      <trkpt lat="48.87208" lon="2.30059">
        <ele>59.79999923706</ele>
        <time>2016-01-04T20:57:47Z</time>
      </trkpt>
      <trkpt lat="48.87201" lon="2.30075">
        <ele>58.400001525879</ele>
        <time>2016-01-04T20:57:51Z</time>
      </trkpt>
      <trkpt lat="48.87188" lon="2.30101">
        <ele>56.599998474121</ele>
        <time>2016-01-04T20:57:56Z</time>
      </trkpt>
      <trkpt lat="48.87177" lon="2.30125">
        <ele>56.20000076294</ele>
        <time>2016-01-04T20:58:01Z</time>
      </trkpt>
      <trkpt lat="48.87167" lon="2.30155">
        <ele>55</ele>
        <time>2016-01-04T20:58:06Z</time>
      </trkpt>
      <trkpt lat="48.8716" lon="2.30185">
        <ele>54</ele>
        <time>2016-01-04T20:58:11Z</time>
      </trkpt>
      <trkpt lat="48.87152" lon="2.30212">
        <ele>53.599998474121</ele>
        <time>2016-01-04T20:58:15Z</time>
      </trkpt>
      <trkpt lat="48.87153" lon="2.30234">
        <ele>54</ele>
        <time>2016-01-04T20:58:21Z</time>
      </trkpt>
      <trkpt lat="48.8715" lon="2.30258">
        <ele>54.400001525879</ele>
        <time>2016-01-04T20:58:42Z</time>
      </trkpt>
      <trkpt lat="48.87143" lon="2.30288">
        <ele>54.79999923706</ele>
        <time>2016-01-04T20:58:48Z</time>
      </trkpt>
      <trkpt lat="48.87137" lon="2.3032">
        <ele>55.400001525879</ele>
        <time>2016-01-04T20:58:54Z</time>
      </trkpt>
      <trkpt lat="48.87127" lon="2.30337">
        <ele>55.599998474121</ele>
        <time>2016-01-04T20:58:58Z</time>
      </trkpt>
      <trkpt lat="48.87115" lon="2.30358">
        <ele>55.400001525879</ele>
        <time>2016-01-04T20:59:02Z</time>
      </trkpt>
      <trkpt lat="48.87111" lon="2.30389">
        <ele>55.20000076294</ele>
        <time>2016-01-04T20:59:06Z</time>
      </trkpt>
      <trkpt lat="48.87104" lon="2.30415">
        <ele>55</ele>
        <time>2016-01-04T20:59:10Z</time>
      </trkpt>
      <trkpt lat="48.87094" lon="2.30435">
        <ele>54.400001525879</ele>
        <time>2016-01-04T20:59:14Z</time>
      </trkpt>
      <trkpt lat="48.87088" lon="2.30446">
        <ele>54</ele>
        <time>2016-01-04T20:59:16Z</time>
      </trkpt>
      <trkpt lat="48.87081" lon="2.3046">
        <ele>53.599998474121</ele>
        <time>2016-01-04T20:59:19Z</time>
      </trkpt>
      <trkpt lat="48.87076" lon="2.30476">
        <ele>53</ele>
        <time>2016-01-04T20:59:22Z</time>
      </trkpt>
      <trkpt lat="48.8707" lon="2.30485">
        <ele>52.20000076294</ele>
        <time>2016-01-04T20:59:24Z</time>
      </trkpt>
      <trkpt lat="48.87068" lon="2.30514">
        <ele>51.400001525879</ele>
        <time>2016-01-04T20:59:28Z</time>
      </trkpt>
      <trkpt lat="48.87065" lon="2.30529">
        <ele>51.20000076294</ele>
        <time>2016-01-04T20:59:30Z</time>
      </trkpt>
      <trkpt lat="48.87058" lon="2.30559">
        <ele>49.599998474121</ele>
        <time>2016-01-04T20:59:35Z</time>
      </trkpt>
      <trkpt lat="48.87051" lon="2.30586">
        <ele>48.20000076294</ele>
        <time>2016-01-04T20:59:41Z</time>
      </trkpt>
      <trkpt lat="48.87049" lon="2.306">
        <ele>48</ele>
        <time>2016-01-04T20:59:46Z</time>
      </trkpt>
      <trkpt lat="48.87037" lon="2.30625">
        <ele>49</ele>
        <time>2016-01-04T20:59:54Z</time>
      </trkpt>
      <trkpt lat="48.87028" lon="2.30652">
        <ele>50.400001525879</ele>
        <time>2016-01-04T20:59:57Z</time>
      </trkpt>
      <trkpt lat="48.87023" lon="2.30661">
        <ele>50.79999923706</ele>
        <time>2016-01-04T20:59:59Z</time>
      </trkpt>
      <trkpt lat="48.87016" lon="2.30673">
        <ele>50.79999923706</ele>
        <time>2016-01-04T21:00:02Z</time>
      </trkpt>
      <trkpt lat="48.87001" lon="2.30691">
        <ele>50.400001525879</ele>
        <time>2016-01-04T21:00:08Z</time>
      </trkpt>
      <trkpt lat="48.86993" lon="2.30717">
        <ele>50</ele>
        <time>2016-01-04T21:00:13Z</time>
      </trkpt>
      <trkpt lat="48.86984" lon="2.30747">
        <ele>46.79999923706</ele>
        <time>2016-01-04T21:00:20Z</time>
      </trkpt>
      <trkpt lat="48.8698" lon="2.30773">
        <ele>44.400001525879</ele>
        <time>2016-01-04T21:00:26Z</time>
      </trkpt>
      <trkpt lat="48.86972" lon="2.308">
        <ele>43.400001525879</ele>
        <time>2016-01-04T21:00:31Z</time>
      </trkpt>
      <trkpt lat="48.86963" lon="2.30827">
        <ele>43.20000076294</ele>
        <time>2016-01-04T21:00:36Z</time>
      </trkpt>
      <trkpt lat="48.86955" lon="2.30852">
        <ele>43</ele>
        <time>2016-01-04T21:00:41Z</time>
      </trkpt>
      <trkpt lat="48.86943" lon="2.30858">
        <ele>43</ele>
        <time>2016-01-04T21:00:47Z</time>
      </trkpt>
      <trkpt lat="48.86931" lon="2.30866">
        <ele>43.20000076294</ele>
        <time>2016-01-04T21:02:02Z</time>
      </trkpt>
      <trkpt lat="48.86923" lon="2.30891">
        <ele>43.20000076294</ele>
        <time>2016-01-04T21:02:10Z</time>
      </trkpt>
      <trkpt lat="48.86932" lon="2.30902">
        <ele>43</ele>
        <time>2016-01-04T21:02:47Z</time>
      </trkpt>
      <trkpt lat="48.86932" lon="2.30904">
        <ele>43</ele>
        <time>2016-01-04T21:02:48Z</time>
      </trkpt>
      <trkpt lat="48.86943" lon="2.30926">
        <ele>43.20000076294</ele>
        <time>2016-01-04T21:02:55Z</time>
      </trkpt>
      <trkpt lat="48.86956" lon="2.30948">
        <ele>44</ele>
        <time>2016-01-04T21:03:02Z</time>
      </trkpt>
      <trkpt lat="48.86963" lon="2.30979">
        <ele>44.599998474121</ele>
        <time>2016-01-04T21:03:08Z</time>
      </trkpt>
      <trkpt lat="48.86965" lon="2.31007">
        <ele>45</ele>
        <time>2016-01-04T21:03:16Z</time>
      </trkpt>
      <trkpt lat="48.86961" lon="2.31037">
        <ele>45</ele>
        <time>2016-01-04T21:03:24Z</time>
      </trkpt>
      <trkpt lat="48.86954" lon="2.31066">
        <ele>44.599998474121</ele>
        <time>2016-01-04T21:03:30Z</time>
      </trkpt>
      <trkpt lat="48.86946" lon="2.31083">
        <ele>44.20000076294</ele>
        <time>2016-01-04T21:03:37Z</time>
      </trkpt>
      <trkpt lat="48.8695" lon="2.31099">
        <ele>43.79999923706</ele>
        <time>2016-01-04T21:03:56Z</time>
      </trkpt>
      <trkpt lat="48.8696" lon="2.31122">
        <ele>43.20000076294</ele>
        <time>2016-01-04T21:04:01Z</time>
      </trkpt>
      <trkpt lat="48.86975" lon="2.31148">
        <ele>42.79999923706</ele>
        <time>2016-01-04T21:04:06Z</time>
      </trkpt>
      <trkpt lat="48.86987" lon="2.31172">
        <ele>42.79999923706</ele>
        <time>2016-01-04T21:04:11Z</time>
      </trkpt>
      <trkpt lat="48.86999" lon="2.31194">
        <ele>43.20000076294</ele>
        <time>2016-01-04T21:04:15Z</time>
      </trkpt>
      <trkpt lat="48.87011" lon="2.31217">
        <ele>43.599998474121</ele>
        <time>2016-01-04T21:04:19Z</time>
      </trkpt>
      <trkpt lat="48.87021" lon="2.31243">
        <ele>44</ele>
        <time>2016-01-04T21:04:23Z</time>
      </trkpt>
      <trkpt lat="48.87035" lon="2.3127">
        <ele>43.79999923706</ele>
        <time>2016-01-04T21:04:27Z</time>
      </trkpt>
      <trkpt lat="48.87048" lon="2.31297">
        <ele>43.400001525879</ele>
        <time>2016-01-04T21:04:31Z</time>
      </trkpt>
      <trkpt lat="48.87065" lon="2.31322">
        <ele>43</ele>
        <time>2016-01-04T21:04:35Z</time>
      </trkpt>
      <trkpt lat="48.87083" lon="2.31342">
        <ele>42.79999923706</ele>
        <time>2016-01-04T21:04:39Z</time>
      </trkpt>
      <trkpt lat="48.87104" lon="2.31359">
        <ele>42.79999923706</ele>
        <time>2016-01-04T21:04:43Z</time>
      </trkpt>
      <trkpt lat="48.87123" lon="2.31377">
        <ele>42.79999923706</ele>
        <time>2016-01-04T21:04:47Z</time>
      </trkpt>
      <trkpt lat="48.87143" lon="2.31395">
        <ele>42.599998474121</ele>
        <time>2016-01-04T21:04:51Z</time>
      </trkpt>
      <trkpt lat="48.87151" lon="2.31405">
        <ele>42.79999923706</ele>
        <time>2016-01-04T21:04:53Z</time>
      </trkpt>
      <trkpt lat="48.87166" lon="2.31423">
        <ele>42.79999923706</ele>
        <time>2016-01-04T21:04:57Z</time>
      </trkpt>
      <trkpt lat="48.87184" lon="2.31437">
        <ele>43</ele>
        <time>2016-01-04T21:05:01Z</time>
      </trkpt>
      <trkpt lat="48.87203" lon="2.31449">
        <ele>43.20000076294</ele>
        <time>2016-01-04T21:05:05Z</time>
      </trkpt>
      <trkpt lat="48.87217" lon="2.31459">
        <ele>43.20000076294</ele>
        <time>2016-01-04T21:05:08Z</time>
      </trkpt>
      <trkpt lat="48.87235" lon="2.31471">
        <ele>43.599998474121</ele>
        <time>2016-01-04T21:05:12Z</time>
      </trkpt>
      <trkpt lat="48.87252" lon="2.31484">
        <ele>43.79999923706</ele>
        <time>2016-01-04T21:05:16Z</time>
      </trkpt>
      <trkpt lat="48.8727" lon="2.31494">
        <ele>44</ele>
        <time>2016-01-04T21:05:19Z</time>
      </trkpt>
      <trkpt lat="48.87271" lon="2.31501">
        <ele>44</ele>
        <time>2016-01-04T21:05:20Z</time>
      </trkpt>
      <trkpt lat="48.87282" lon="2.31527">
        <ele>44.599998474121</ele>
        <time>2016-01-04T21:05:24Z</time>
      </trkpt>
      <trkpt lat="48.87285" lon="2.31534">
        <ele>44.79999923706</ele>
        <time>2016-01-04T21:05:25Z</time>
      </trkpt>
      <trkpt lat="48.87294" lon="2.3156">
        <ele>45.20000076294</ele>
        <time>2016-01-04T21:05:29Z</time>
      </trkpt>
      <trkpt lat="48.87301" lon="2.31587">
        <ele>45.400001525879</ele>
        <time>2016-01-04T21:05:34Z</time>
      </trkpt>
      <trkpt lat="48.87303" lon="2.31591">
        <ele>45.20000076294</ele>
        <time>2016-01-04T21:05:35Z</time>
      </trkpt>
      <trkpt lat="48.87297" lon="2.31611">
        <ele>44.20000076294</ele>
        <time>2016-01-04T21:05:41Z</time>
      </trkpt>
      <trkpt lat="48.87302" lon="2.31638">
        <ele>43.599998474121</ele>
        <time>2016-01-04T21:05:46Z</time>
      </trkpt>
      <trkpt lat="48.87309" lon="2.31665">
        <ele>43</ele>
        <time>2016-01-04T21:05:50Z</time>
      </trkpt>
      <trkpt lat="48.87316" lon="2.31694">
        <ele>42.599998474121</ele>
        <time>2016-01-04T21:05:54Z</time>
      </trkpt>
      <trkpt lat="48.87325" lon="2.31722">
        <ele>42.400001525879</ele>
        <time>2016-01-04T21:05:58Z</time>
      </trkpt>
      <trkpt lat="48.87334" lon="2.31751">
        <ele>42.599998474121</ele>
        <time>2016-01-04T21:06:02Z</time>
      </trkpt>
      <trkpt lat="48.87344" lon="2.31778">
        <ele>43</ele>
        <time>2016-01-04T21:06:06Z</time>
      </trkpt>
      <trkpt lat="48.87348" lon="2.31807">
        <ele>43.599998474121</ele>
        <time>2016-01-04T21:06:10Z</time>
      </trkpt>
      <trkpt lat="48.87351" lon="2.31836">
        <ele>44.20000076294</ele>
        <time>2016-01-04T21:06:14Z</time>
      </trkpt>
      <trkpt lat="48.87349" lon="2.31851">
        <ele>44.599998474121</ele>
        <time>2016-01-04T21:06:16Z</time>
      </trkpt>
      <trkpt lat="48.8735" lon="2.31865">
        <ele>45</ele>
        <time>2016-01-04T21:06:18Z</time>
      </trkpt>
      <trkpt lat="48.8735" lon="2.31895">
        <ele>45.79999923706</ele>
        <time>2016-01-04T21:06:22Z</time>
      </trkpt>
      <trkpt lat="48.87353" lon="2.31922">
        <ele>45.79999923706</ele>
        <time>2016-01-04T21:06:26Z</time>
      </trkpt>
      <trkpt lat="48.87356" lon="2.31949">
        <ele>45.20000076294</ele>
        <time>2016-01-04T21:06:30Z</time>
      </trkpt>
      <trkpt lat="48.87357" lon="2.31983">
        <ele>44.400001525879</ele>
        <time>2016-01-04T21:06:35Z</time>
      </trkpt>
      <trkpt lat="48.87359" lon="2.31989">
        <ele>44.20000076294</ele>
        <time>2016-01-04T21:06:36Z</time>
      </trkpt>
      <trkpt lat="48.87363" lon="2.32018">
        <ele>44.400001525879</ele>
        <time>2016-01-04T21:06:40Z</time>
      </trkpt>
      <trkpt lat="48.87365" lon="2.32046">
        <ele>45</ele>
        <time>2016-01-04T21:06:44Z</time>
      </trkpt>
      <trkpt lat="48.87365" lon="2.3207">
        <ele>45.20000076294</ele>
        <time>2016-01-04T21:06:48Z</time>
      </trkpt>
      <trkpt lat="48.87362" lon="2.32099">
        <ele>45.400001525879</ele>
        <time>2016-01-04T21:06:53Z</time>
      </trkpt>
      <trkpt lat="48.87359" lon="2.32115">
        <ele>45.599998474121</ele>
        <time>2016-01-04T21:06:56Z</time>
      </trkpt>
      <trkpt lat="48.87354" lon="2.32142">
        <ele>45.79999923706</ele>
        <time>2016-01-04T21:07:01Z</time>
      </trkpt>
      <trkpt lat="48.87354" lon="2.32147">
        <ele>45.79999923706</ele>
        <time>2016-01-04T21:07:02Z</time>
      </trkpt>
      <trkpt lat="48.87354" lon="2.32159">
        <ele>46</ele>
        <time>2016-01-04T21:07:04Z</time>
      </trkpt>
      <trkpt lat="48.87351" lon="2.32193">
        <ele>45</ele>
        <time>2016-01-04T21:07:09Z</time>
      </trkpt>
      <trkpt lat="48.87348" lon="2.32224">
        <ele>44</ele>
        <time>2016-01-04T21:07:14Z</time>
      </trkpt>
      <trkpt lat="48.87347" lon="2.32227">
        <ele>43.79999923706</ele>
        <time>2016-01-04T21:07:15Z</time>
      </trkpt>
      <trkpt lat="48.87336" lon="2.32242">
        <ele>44</ele>
        <time>2016-01-04T21:07:19Z</time>
      </trkpt>
      <trkpt lat="48.87329" lon="2.32263">
        <ele>44.20000076294</ele>
        <time>2016-01-04T21:07:23Z</time>
      </trkpt>
      <trkpt lat="48.87322" lon="2.3229">
        <ele>44.599998474121</ele>
        <time>2016-01-04T21:07:27Z</time>
      </trkpt>
      <trkpt lat="48.87318" lon="2.32319">
        <ele>45.20000076294</ele>
        <time>2016-01-04T21:07:32Z</time>
      </trkpt>
      <trkpt lat="48.87317" lon="2.32327">
        <ele>45.400001525879</ele>
        <time>2016-01-04T21:07:34Z</time>
      </trkpt>
      <trkpt lat="48.87311" lon="2.3234">
        <ele>46</ele>
        <time>2016-01-04T21:07:37Z</time>
      </trkpt>
      <trkpt lat="48.87298" lon="2.32361">
        <ele>47</ele>
        <time>2016-01-04T21:07:42Z</time>
      </trkpt>
      <trkpt lat="48.87297" lon="2.3238">
        <ele>47.20000076294</ele>
        <time>2016-01-04T21:07:46Z</time>
      </trkpt>
      <trkpt lat="48.87301" lon="2.3241">
        <ele>47</ele>
        <time>2016-01-04T21:07:51Z</time>
      </trkpt>
      <trkpt lat="48.87297" lon="2.32443">
        <ele>47.79999923706</ele>
        <time>2016-01-04T21:07:57Z</time>
      </trkpt>
      <trkpt lat="48.87291" lon="2.32472">
        <ele>48.20000076294</ele>
        <time>2016-01-04T21:08:02Z</time>
      </trkpt>
      <trkpt lat="48.87291" lon="2.32506">
        <ele>49</ele>
        <time>2016-01-04T21:08:09Z</time>
      </trkpt>
      <trkpt lat="48.8732" lon="2.32536">
        <ele>49.20000076294</ele>
        <time>2016-01-04T21:08:31Z</time>
      </trkpt>
      <trkpt lat="48.87322" lon="2.32539">
        <ele>49.400001525879</ele>
        <time>2016-01-04T21:08:33Z</time>
      </trkpt>
      <trkpt lat="48.87336" lon="2.32552">
        <ele>49.400001525879</ele>
        <time>2016-01-04T21:09:06Z</time>
      </trkpt>
      <trkpt lat="48.87339" lon="2.3258">
        <ele>49.599998474121</ele>
        <time>2016-01-04T21:09:17Z</time>
      </trkpt>
      <trkpt lat="48.87333" lon="2.32605">
        <ele>48.79999923706</ele>
        <time>2016-01-04T21:09:24Z</time>
      </trkpt>
      <trkpt lat="48.87327" lon="2.32632">
        <ele>48</ele>
        <time>2016-01-04T21:09:30Z</time>
      </trkpt>
      <trkpt lat="48.87327" lon="2.32658">
        <ele>48.20000076294</ele>
        <time>2016-01-04T21:09:45Z</time>
      </trkpt>
      <trkpt lat="48.87325" lon="2.3269">
        <ele>48.400001525879</ele>
        <time>2016-01-04T21:09:56Z</time>
      </trkpt>
      <trkpt lat="48.87322" lon="2.32697">
        <ele>48.400001525879</ele>
        <time>2016-01-04T21:09:57Z</time>
      </trkpt>
      <trkpt lat="48.87315" lon="2.32717">
        <ele>48.79999923706</ele>
        <time>2016-01-04T21:10:01Z</time>
      </trkpt>
      <trkpt lat="48.87309" lon="2.32745">
        <ele>50.20000076294</ele>
        <time>2016-01-04T21:10:06Z</time>
      </trkpt>
      <trkpt lat="48.87303" lon="2.32777">
        <ele>50.599998474121</ele>
        <time>2016-01-04T21:10:11Z</time>
      </trkpt>
      <trkpt lat="48.87298" lon="2.32808">
        <ele>50</ele>
        <time>2016-01-04T21:10:16Z</time>
      </trkpt>
      <trkpt lat="48.87301" lon="2.32832">
        <ele>49.400001525879</ele>
        <time>2016-01-04T21:10:19Z</time>
      </trkpt>
      <trkpt lat="48.87299" lon="2.32852">
        <ele>49.79999923706</ele>
        <time>2016-01-04T21:10:22Z</time>
      </trkpt>
      <trkpt lat="48.87304" lon="2.32885">
        <ele>50</ele>
        <time>2016-01-04T21:10:26Z</time>
      </trkpt>
      <trkpt lat="48.87306" lon="2.329">
        <ele>50</ele>
        <time>2016-01-04T21:10:28Z</time>
      </trkpt>
      <trkpt lat="48.87307" lon="2.32923">
        <ele>49.599998474121</ele>
        <time>2016-01-04T21:10:31Z</time>
      </trkpt>
      <trkpt lat="48.87302" lon="2.3295">
        <ele>48.599998474121</ele>
        <time>2016-01-04T21:10:35Z</time>
      </trkpt>
      <trkpt lat="48.87292" lon="2.3298">
        <ele>47.599998474121</ele>
        <time>2016-01-04T21:10:40Z</time>
      </trkpt>
      <trkpt lat="48.87283" lon="2.33004">
        <ele>47</ele>
        <time>2016-01-04T21:10:44Z</time>
      </trkpt>
      <trkpt lat="48.87276" lon="2.33035">
        <ele>45.400001525879</ele>
        <time>2016-01-04T21:10:49Z</time>
      </trkpt>
      <trkpt lat="48.87275" lon="2.33063">
        <ele>43.79999923706</ele>
        <time>2016-01-04T21:10:53Z</time>
      </trkpt>
      <trkpt lat="48.87275" lon="2.33092">
        <ele>44</ele>
        <time>2016-01-04T21:10:59Z</time>
      </trkpt>
      <trkpt lat="48.87274" lon="2.33095">
        <ele>44.20000076294</ele>
        <time>2016-01-04T21:11:00Z</time>
      </trkpt>
      <trkpt lat="48.87294" lon="2.33117">
        <ele>46</ele>
        <time>2016-01-04T21:11:04Z</time>
      </trkpt>
      <trkpt lat="48.87295" lon="2.33121">
        <ele>46.400001525879</ele>
        <time>2016-01-04T21:11:05Z</time>
      </trkpt>
      <trkpt lat="48.87297" lon="2.33124">
        <ele>46.599998474121</ele>
        <time>2016-01-04T21:11:06Z</time>
      </trkpt>
      <trkpt lat="48.87308" lon="2.33141">
        <ele>48</ele>
        <time>2016-01-04T21:11:12Z</time>
      </trkpt>
      <trkpt lat="48.87326" lon="2.33134">
        <ele>47.599998474121</ele>
        <time>2016-01-04T21:11:19Z</time>
      </trkpt>
      <trkpt lat="48.87344" lon="2.33119">
        <ele>47.400001525879</ele>
        <time>2016-01-04T21:11:25Z</time>
      </trkpt>
      <trkpt lat="48.87362" lon="2.33116">
        <ele>47.79999923706</ele>
        <time>2016-01-04T21:11:34Z</time>
      </trkpt>
      <trkpt lat="48.8738" lon="2.33115">
        <ele>48.20000076294</ele>
        <time>2016-01-04T21:11:44Z</time>
      </trkpt>
      <trkpt lat="48.87403" lon="2.3313">
        <ele>49.400001525879</ele>
        <time>2016-01-04T21:11:48Z</time>
      </trkpt>
      <trkpt lat="48.87415" lon="2.33157">
        <ele>51</ele>
        <time>2016-01-04T21:11:52Z</time>
      </trkpt>
      <trkpt lat="48.87423" lon="2.33184">
        <ele>51.20000076294</ele>
        <time>2016-01-04T21:11:58Z</time>
      </trkpt>
      <trkpt lat="48.87431" lon="2.3321">
        <ele>50.599998474121</ele>
        <time>2016-01-04T21:12:04Z</time>
      </trkpt>
      <trkpt lat="48.87434" lon="2.33238">
        <ele>50</ele>
        <time>2016-01-04T21:12:08Z</time>
      </trkpt>
      <trkpt lat="48.87435" lon="2.33271">
        <ele>48.79999923706</ele>
        <time>2016-01-04T21:12:13Z</time>
      </trkpt>
      <trkpt lat="48.8744" lon="2.33277">
        <ele>48.599998474121</ele>
        <time>2016-01-04T21:12:14Z</time>
      </trkpt>
      <trkpt lat="48.87445" lon="2.33309">
        <ele>47.20000076294</ele>
        <time>2016-01-04T21:12:18Z</time>
      </trkpt>
      <trkpt lat="48.87448" lon="2.3334">
        <ele>46</ele>
        <time>2016-01-04T21:12:22Z</time>
      </trkpt>
      <trkpt lat="48.87445" lon="2.33369">
        <ele>46</ele>
        <time>2016-01-04T21:12:26Z</time>
      </trkpt>
      <trkpt lat="48.87441" lon="2.33401">
        <ele>46</ele>
        <time>2016-01-04T21:12:31Z</time>
      </trkpt>
      <trkpt lat="48.87443" lon="2.33408">
        <ele>46</ele>
        <time>2016-01-04T21:12:32Z</time>
      </trkpt>
      <trkpt lat="48.87438" lon="2.33438">
        <ele>46.20000076294</ele>
        <time>2016-01-04T21:12:36Z</time>
      </trkpt>
      <trkpt lat="48.87438" lon="2.33463">
        <ele>46.599998474121</ele>
        <time>2016-01-04T21:12:39Z</time>
      </trkpt>
      <trkpt lat="48.87438" lon="2.33492">
        <ele>47</ele>
        <time>2016-01-04T21:12:43Z</time>
      </trkpt>
      <trkpt lat="48.87436" lon="2.33498">
        <ele>47.20000076294</ele>
        <time>2016-01-04T21:12:44Z</time>
      </trkpt>
      <trkpt lat="48.87431" lon="2.33528">
        <ele>48.400001525879</ele>
        <time>2016-01-04T21:12:49Z</time>
      </trkpt>
      <trkpt lat="48.87434" lon="2.33537">
        <ele>48.599998474121</ele>
        <time>2016-01-04T21:12:50Z</time>
      </trkpt>
      <trkpt lat="48.87436" lon="2.33567">
        <ele>49.599998474121</ele>
        <time>2016-01-04T21:12:54Z</time>
      </trkpt>
      <trkpt lat="48.87435" lon="2.336">
        <ele>49.599998474121</ele>
        <time>2016-01-04T21:12:58Z</time>
      </trkpt>
      <trkpt lat="48.87435" lon="2.33633">
        <ele>48.400001525879</ele>
        <time>2016-01-04T21:13:02Z</time>
      </trkpt>
      <trkpt lat="48.87437" lon="2.33663">
        <ele>47.20000076294</ele>
        <time>2016-01-04T21:13:06Z</time>
      </trkpt>
      <trkpt lat="48.87434" lon="2.3369">
        <ele>46.79999923706</ele>
        <time>2016-01-04T21:13:10Z</time>
      </trkpt>
      <trkpt lat="48.87433" lon="2.33721">
        <ele>46.20000076294</ele>
        <time>2016-01-04T21:13:14Z</time>
      </trkpt>
      <trkpt lat="48.87432" lon="2.33728">
        <ele>46</ele>
        <time>2016-01-04T21:13:15Z</time>
      </trkpt>
      <trkpt lat="48.87434" lon="2.33755">
        <ele>45.599998474121</ele>
        <time>2016-01-04T21:13:19Z</time>
      </trkpt>
      <trkpt lat="48.87431" lon="2.33783">
        <ele>46</ele>
        <time>2016-01-04T21:13:25Z</time>
      </trkpt>
      <trkpt lat="48.87427" lon="2.33793">
        <ele>46.400001525879</ele>
        <time>2016-01-04T21:13:28Z</time>
      </trkpt>
      <trkpt lat="48.87425" lon="2.33806">
        <ele>46.79999923706</ele>
        <time>2016-01-04T21:13:31Z</time>
      </trkpt>
      <trkpt lat="48.87424" lon="2.33837">
        <ele>46.400001525879</ele>
        <time>2016-01-04T21:13:36Z</time>
      </trkpt>
      <trkpt lat="48.87423" lon="2.33849">
        <ele>46.599998474121</ele>
        <time>2016-01-04T21:13:38Z</time>
      </trkpt>
      <trkpt lat="48.87418" lon="2.33876">
        <ele>47</ele>
        <time>2016-01-04T21:13:43Z</time>
      </trkpt>
      <trkpt lat="48.87422" lon="2.33906">
        <ele>47.20000076294</ele>
        <time>2016-01-04T21:13:49Z</time>
      </trkpt>
      <trkpt lat="48.87422" lon="2.33924">
        <ele>47.20000076294</ele>
        <time>2016-01-04T21:13:52Z</time>
      </trkpt>
      <trkpt lat="48.87413" lon="2.33951">
        <ele>47.400001525879</ele>
        <time>2016-01-04T21:13:58Z</time>
      </trkpt>
      <trkpt lat="48.87421" lon="2.33979">
        <ele>47.20000076294</ele>
        <time>2016-01-04T21:14:02Z</time>
      </trkpt>
      <trkpt lat="48.87419" lon="2.33988">
        <ele>47</ele>
        <time>2016-01-04T21:14:04Z</time>
      </trkpt>
      <trkpt lat="48.87416" lon="2.34011">
        <ele>46.79999923706</ele>
        <time>2016-01-04T21:14:08Z</time>
      </trkpt>
      <trkpt lat="48.87411" lon="2.34018">
        <ele>46.599998474121</ele>
        <time>2016-01-04T21:14:10Z</time>
      </trkpt>
      <trkpt lat="48.87415" lon="2.34033">
        <ele>46.79999923706</ele>
        <time>2016-01-04T21:14:13Z</time>
      </trkpt>
      <trkpt lat="48.87418" lon="2.34067">
        <ele>46.79999923706</ele>
        <time>2016-01-04T21:14:17Z</time>
      </trkpt>
      <trkpt lat="48.87418" lon="2.341">
        <ele>46.79999923706</ele>
        <time>2016-01-04T21:14:21Z</time>
      </trkpt>
      <trkpt lat="48.87419" lon="2.34116">
        <ele>46.79999923706</ele>
        <time>2016-01-04T21:14:23Z</time>
      </trkpt>
      <trkpt lat="48.87416" lon="2.34149">
        <ele>46.79999923706</ele>
        <time>2016-01-04T21:14:27Z</time>
      </trkpt>
      <trkpt lat="48.87411" lon="2.34178">
        <ele>46.599998474121</ele>
        <time>2016-01-04T21:14:31Z</time>
      </trkpt>
      <trkpt lat="48.87412" lon="2.34187">
        <ele>46.400001525879</ele>
        <time>2016-01-04T21:14:32Z</time>
      </trkpt>
      <trkpt lat="48.87413" lon="2.34215">
        <ele>45.79999923706</ele>
        <time>2016-01-04T21:14:36Z</time>
      </trkpt>
      <trkpt lat="48.87421" lon="2.34244">
        <ele>45.400001525879</ele>
        <time>2016-01-04T21:14:40Z</time>
      </trkpt>
      <trkpt lat="48.87425" lon="2.34273">
        <ele>45.400001525879</ele>
        <time>2016-01-04T21:14:44Z</time>
      </trkpt>
      <trkpt lat="48.87426" lon="2.34295">
        <ele>45.400001525879</ele>
        <time>2016-01-04T21:14:47Z</time>
      </trkpt>
      <trkpt lat="48.87425" lon="2.34308">
        <ele>45.400001525879</ele>
        <time>2016-01-04T21:14:49Z</time>
      </trkpt>
      <trkpt lat="48.87425" lon="2.34324">
        <ele>45.20000076294</ele>
        <time>2016-01-04T21:14:51Z</time>
      </trkpt>
      <trkpt lat="48.87423" lon="2.34353">
        <ele>45.400001525879</ele>
        <time>2016-01-04T21:14:55Z</time>
      </trkpt>
      <trkpt lat="48.87421" lon="2.34369">
        <ele>45.599998474121</ele>
        <time>2016-01-04T21:14:57Z</time>
      </trkpt>
      <trkpt lat="48.87421" lon="2.34392">
        <ele>46</ele>
        <time>2016-01-04T21:15:00Z</time>
      </trkpt>
      <trkpt lat="48.8742" lon="2.34424">
        <ele>46.400001525879</ele>
        <time>2016-01-04T21:15:04Z</time>
      </trkpt>
      <trkpt lat="48.8742" lon="2.3446">
        <ele>46</ele>
        <time>2016-01-04T21:15:08Z</time>
      </trkpt>
      <trkpt lat="48.8742" lon="2.34485">
        <ele>45.599998474121</ele>
        <time>2016-01-04T21:15:11Z</time>
      </trkpt>
      <trkpt lat="48.87417" lon="2.34509">
        <ele>45.79999923706</ele>
        <time>2016-01-04T21:15:14Z</time>
      </trkpt>
      <trkpt lat="48.87417" lon="2.34532">
        <ele>46.400001525879</ele>
        <time>2016-01-04T21:15:17Z</time>
      </trkpt>
      <trkpt lat="48.87419" lon="2.34566">
        <ele>47</ele>
        <time>2016-01-04T21:15:21Z</time>
      </trkpt>
      <trkpt lat="48.8742" lon="2.34602">
        <ele>47.400001525879</ele>
        <time>2016-01-04T21:15:25Z</time>
      </trkpt>
      <trkpt lat="48.87418" lon="2.34639">
        <ele>48</ele>
        <time>2016-01-04T21:15:29Z</time>
      </trkpt>
      <trkpt lat="48.87417" lon="2.34675">
        <ele>48.599998474121</ele>
        <time>2016-01-04T21:15:33Z</time>
      </trkpt>
      <trkpt lat="48.87414" lon="2.34709">
        <ele>49.400001525879</ele>
        <time>2016-01-04T21:15:37Z</time>
      </trkpt>
      <trkpt lat="48.87414" lon="2.34742">
        <ele>49.599998474121</ele>
        <time>2016-01-04T21:15:41Z</time>
      </trkpt>
      <trkpt lat="48.87416" lon="2.34776">
        <ele>49.79999923706</ele>
        <time>2016-01-04T21:15:45Z</time>
      </trkpt>
      <trkpt lat="48.87414" lon="2.34808">
        <ele>49.599998474121</ele>
        <time>2016-01-04T21:15:49Z</time>
      </trkpt>
      <trkpt lat="48.87413" lon="2.3484">
        <ele>48.400001525879</ele>
        <time>2016-01-04T21:15:53Z</time>
      </trkpt>
      <trkpt lat="48.87412" lon="2.34874">
        <ele>46.400001525879</ele>
        <time>2016-01-04T21:15:58Z</time>
      </trkpt>
      <trkpt lat="48.8741" lon="2.34881">
        <ele>46</ele>
        <time>2016-01-04T21:15:59Z</time>
      </trkpt>
      <trkpt lat="48.87405" lon="2.34912">
        <ele>45</ele>
        <time>2016-01-04T21:16:04Z</time>
      </trkpt>
      <trkpt lat="48.87401" lon="2.34939">
        <ele>45.79999923706</ele>
        <time>2016-01-04T21:16:08Z</time>
      </trkpt>
      <trkpt lat="48.87397" lon="2.34969">
        <ele>46.79999923706</ele>
        <time>2016-01-04T21:16:12Z</time>
      </trkpt>
      <trkpt lat="48.87394" lon="2.34996">
        <ele>47.400001525879</ele>
        <time>2016-01-04T21:16:16Z</time>
      </trkpt>
      <trkpt lat="48.87394" lon="2.35003">
        <ele>47.400001525879</ele>
        <time>2016-01-04T21:16:17Z</time>
      </trkpt>
      <trkpt lat="48.87392" lon="2.3502">
        <ele>47.400001525879</ele>
        <time>2016-01-04T21:16:20Z</time>
      </trkpt>
      <trkpt lat="48.87389" lon="2.35044">
        <ele>47.79999923706</ele>
        <time>2016-01-04T21:16:25Z</time>
      </trkpt>
      <trkpt lat="48.87379" lon="2.3507">
        <ele>48.400001525879</ele>
        <time>2016-01-04T21:16:30Z</time>
      </trkpt>
      <trkpt lat="48.87369" lon="2.35094">
        <ele>48.400001525879</ele>
        <time>2016-01-04T21:16:34Z</time>
      </trkpt>
      <trkpt lat="48.87364" lon="2.35114">
        <ele>48.599998474121</ele>
        <time>2016-01-04T21:16:37Z</time>
      </trkpt>
      <trkpt lat="48.87358" lon="2.35143">
        <ele>49</ele>
        <time>2016-01-04T21:16:41Z</time>
      </trkpt>
      <trkpt lat="48.87348" lon="2.3517">
        <ele>49</ele>
        <time>2016-01-04T21:16:45Z</time>
      </trkpt>
      <trkpt lat="48.87347" lon="2.35177">
        <ele>48.79999923706</ele>
        <time>2016-01-04T21:16:46Z</time>
      </trkpt>
      <trkpt lat="48.87334" lon="2.35199">
        <ele>48.400001525879</ele>
        <time>2016-01-04T21:16:50Z</time>
      </trkpt>
      <trkpt lat="48.8733" lon="2.35204">
        <ele>48.400001525879</ele>
        <time>2016-01-04T21:16:51Z</time>
      </trkpt>
      <trkpt lat="48.8732" lon="2.35217">
        <ele>48</ele>
        <time>2016-01-04T21:16:54Z</time>
      </trkpt>
      <trkpt lat="48.87311" lon="2.35228">
        <ele>47.400001525879</ele>
        <time>2016-01-04T21:16:57Z</time>
      </trkpt>
      <trkpt lat="48.873" lon="2.35244">
        <ele>46.400001525879</ele>
        <time>2016-01-04T21:17:01Z</time>
      </trkpt>
      <trkpt lat="48.87286" lon="2.35271">
        <ele>46.20000076294</ele>
        <time>2016-01-04T21:17:06Z</time>
      </trkpt>
      <trkpt lat="48.87274" lon="2.35299">
        <ele>46.599998474121</ele>
        <time>2016-01-04T21:17:11Z</time>
      </trkpt>
      <trkpt lat="48.8727" lon="2.3531">
        <ele>46.79999923706</ele>
        <time>2016-01-04T21:17:13Z</time>
      </trkpt>
      <trkpt lat="48.87257" lon="2.35336">
        <ele>47.400001525879</ele>
        <time>2016-01-04T21:17:18Z</time>
      </trkpt>
      <trkpt lat="48.87252" lon="2.35347">
        <ele>47.400001525879</ele>
        <time>2016-01-04T21:17:20Z</time>
      </trkpt>
      <trkpt lat="48.87243" lon="2.35361">
        <ele>47.400001525879</ele>
        <time>2016-01-04T21:17:23Z</time>
      </trkpt>
      <trkpt lat="48.87231" lon="2.35379">
        <ele>47.20000076294</ele>
        <time>2016-01-04T21:17:29Z</time>
      </trkpt>
      <trkpt lat="48.87264" lon="2.35416">
        <ele>46</ele>
        <time>2016-01-04T21:17:43Z</time>
      </trkpt>
      <trkpt lat="48.87265" lon="2.35444">
        <ele>46</ele>
        <time>2016-01-04T21:17:49Z</time>
      </trkpt>
      <trkpt lat="48.87261" lon="2.35455">
        <ele>46</ele>
        <time>2016-01-04T21:17:51Z</time>
      </trkpt>
      <trkpt lat="48.87252" lon="2.35485">
        <ele>45.79999923706</ele>
        <time>2016-01-04T21:17:56Z</time>
      </trkpt>
      <trkpt lat="48.87237" lon="2.35508">
        <ele>45.400001525879</ele>
        <time>2016-01-04T21:18:00Z</time>
      </trkpt>
      <trkpt lat="48.87226" lon="2.35532">
        <ele>45</ele>
        <time>2016-01-04T21:18:04Z</time>
      </trkpt>
      <trkpt lat="48.87214" lon="2.35556">
        <ele>45.400001525879</ele>
        <time>2016-01-04T21:18:09Z</time>
      </trkpt>
      <trkpt lat="48.8721" lon="2.3556">
        <ele>45.400001525879</ele>
        <time>2016-01-04T21:18:10Z</time>
      </trkpt>
      <trkpt lat="48.87211" lon="2.35579">
        <ele>45.79999923706</ele>
        <time>2016-01-04T21:18:13Z</time>
      </trkpt>
      <trkpt lat="48.87211" lon="2.35592">
        <ele>46.20000076294</ele>
        <time>2016-01-04T21:18:15Z</time>
      </trkpt>
      <trkpt lat="48.87203" lon="2.35623">
        <ele>47</ele>
        <time>2016-01-04T21:18:20Z</time>
      </trkpt>
      <trkpt lat="48.87195" lon="2.35654">
        <ele>47.79999923706</ele>
        <time>2016-01-04T21:18:25Z</time>
      </trkpt>
      <trkpt lat="48.87182" lon="2.35677">
        <ele>48.20000076294</ele>
        <time>2016-01-04T21:18:30Z</time>
      </trkpt>
      <trkpt lat="48.87181" lon="2.35691">
        <ele>48.599998474121</ele>
        <time>2016-01-04T21:18:34Z</time>
      </trkpt>
      <trkpt lat="48.87189" lon="2.35704">
        <ele>49</ele>
        <time>2016-01-04T21:18:55Z</time>
      </trkpt>
      <trkpt lat="48.87184" lon="2.35724">
        <ele>49.400001525879</ele>
        <time>2016-01-04T21:19:08Z</time>
      </trkpt>
      <trkpt lat="48.87169" lon="2.35746">
        <ele>49</ele>
        <time>2016-01-04T21:19:13Z</time>
      </trkpt>
      <trkpt lat="48.87152" lon="2.35763">
        <ele>46.79999923706</ele>
        <time>2016-01-04T21:19:17Z</time>
      </trkpt>
      <trkpt lat="48.87146" lon="2.35796">
        <ele>44.599998474121</ele>
        <time>2016-01-04T21:19:23Z</time>
      </trkpt>
      <trkpt lat="48.8714" lon="2.3583">
        <ele>45.400001525879</ele>
        <time>2016-01-04T21:19:29Z</time>
      </trkpt>
      <trkpt lat="48.87128" lon="2.3585">
        <ele>45.599998474121</ele>
        <time>2016-01-04T21:19:34Z</time>
      </trkpt>
      <trkpt lat="48.8711" lon="2.35874">
        <ele>48</ele>
        <time>2016-01-04T21:19:39Z</time>
      </trkpt>
      <trkpt lat="48.87093" lon="2.35894">
        <ele>49</ele>
        <time>2016-01-04T21:19:43Z</time>
      </trkpt>
      <trkpt lat="48.87077" lon="2.35918">
        <ele>48.599998474121</ele>
        <time>2016-01-04T21:19:47Z</time>
      </trkpt>
      <trkpt lat="48.87073" lon="2.35922">
        <ele>48.400001525879</ele>
        <time>2016-01-04T21:19:48Z</time>
      </trkpt>
      <trkpt lat="48.87056" lon="2.35945">
        <ele>47.599998474121</ele>
        <time>2016-01-04T21:19:52Z</time>
      </trkpt>
      <trkpt lat="48.87041" lon="2.35961">
        <ele>47.20000076294</ele>
        <time>2016-01-04T21:19:55Z</time>
      </trkpt>
      <trkpt lat="48.87028" lon="2.35983">
        <ele>47</ele>
        <time>2016-01-04T21:19:58Z</time>
      </trkpt>
      <trkpt lat="48.87016" lon="2.36004">
        <ele>47.20000076294</ele>
        <time>2016-01-04T21:20:01Z</time>
      </trkpt>
      <trkpt lat="48.87" lon="2.36027">
        <ele>47.79999923706</ele>
        <time>2016-01-04T21:20:05Z</time>
      </trkpt>
      <trkpt lat="48.86986" lon="2.36051">
        <ele>48.599998474121</ele>
        <time>2016-01-04T21:20:09Z</time>
      </trkpt>
      <trkpt lat="48.86981" lon="2.36056">
        <ele>48.599998474121</ele>
        <time>2016-01-04T21:20:10Z</time>
      </trkpt>
      <trkpt lat="48.86965" lon="2.36077">
        <ele>49.400001525879</ele>
        <time>2016-01-04T21:20:14Z</time>
      </trkpt>
      <trkpt lat="48.86952" lon="2.361">
        <ele>49.599998474121</ele>
        <time>2016-01-04T21:20:18Z</time>
      </trkpt>
      <trkpt lat="48.86943" lon="2.36117">
        <ele>49.20000076294</ele>
        <time>2016-01-04T21:20:21Z</time>
      </trkpt>
      <trkpt lat="48.8693" lon="2.36139">
        <ele>48</ele>
        <time>2016-01-04T21:20:25Z</time>
      </trkpt>
      <trkpt lat="48.86917" lon="2.36162">
        <ele>47.599998474121</ele>
        <time>2016-01-04T21:20:29Z</time>
      </trkpt>
      <trkpt lat="48.86905" lon="2.36184">
        <ele>47.400001525879</ele>
        <time>2016-01-04T21:20:33Z</time>
      </trkpt>
      <trkpt lat="48.86894" lon="2.36207">
        <ele>47</ele>
        <time>2016-01-04T21:20:38Z</time>
      </trkpt>
      <trkpt lat="48.86888" lon="2.36219">
        <ele>46.79999923706</ele>
        <time>2016-01-04T21:20:41Z</time>
      </trkpt>
      <trkpt lat="48.86879" lon="2.36235">
        <ele>46.400001525879</ele>
        <time>2016-01-04T21:20:46Z</time>
      </trkpt>
      <trkpt lat="48.86861" lon="2.36252">
        <ele>46</ele>
        <time>2016-01-04T21:20:53Z</time>
      </trkpt>
      <trkpt lat="48.86845" lon="2.36251">
        <ele>46</ele>
        <time>2016-01-04T21:20:56Z</time>
      </trkpt>
      <trkpt lat="48.86843" lon="2.36264">
        <ele>45.20000076294</ele>
        <time>2016-01-04T21:21:00Z</time>
      </trkpt>
      <trkpt lat="48.86843" lon="2.36269">
        <ele>44.79999923706</ele>
        <time>2016-01-04T21:21:03Z</time>
      </trkpt>
      <trkpt lat="48.86844" lon="2.36271">
        <ele>44.79999923706</ele>
        <time>2016-01-04T21:21:05Z</time>
      </trkpt>
      <trkpt lat="48.86844" lon="2.36276">
        <ele>44.400001525879</ele>
        <time>2016-01-04T21:21:10Z</time>
      </trkpt>
      <trkpt lat="48.86842" lon="2.36287">
        <ele>43.79999923706</ele>
        <time>2016-01-04T21:21:29Z</time>
      </trkpt>
      <trkpt lat="48.86843" lon="2.3629">
        <ele>43.599998474121</ele>
        <time>2016-01-04T21:21:35Z</time>
      </trkpt>
      <trkpt lat="48.8685" lon="2.36302">
        <ele>42.79999923706</ele>
        <time>2016-01-04T21:21:45Z</time>
      </trkpt>
      <trkpt lat="48.86864" lon="2.36327">
        <ele>41.599998474121</ele>
        <time>2016-01-04T21:21:53Z</time>
      </trkpt>
      <trkpt lat="48.86877" lon="2.36349">
        <ele>42</ele>
        <time>2016-01-04T21:21:58Z</time>
      </trkpt>
      <trkpt lat="48.8689" lon="2.36372">
        <ele>42.79999923706</ele>
        <time>2016-01-04T21:22:02Z</time>
      </trkpt>
      <trkpt lat="48.86904" lon="2.3638">
        <ele>43.20000076294</ele>
        <time>2016-01-04T21:22:04Z</time>
      </trkpt>
      <trkpt lat="48.8692" lon="2.36402">
        <ele>44.20000076294</ele>
        <time>2016-01-04T21:22:08Z</time>
      </trkpt>
      <trkpt lat="48.86928" lon="2.36433">
        <ele>44.400001525879</ele>
        <time>2016-01-04T21:22:14Z</time>
      </trkpt>
      <trkpt lat="48.86935" lon="2.36462">
        <ele>44.20000076294</ele>
        <time>2016-01-04T21:22:19Z</time>
      </trkpt>
      <trkpt lat="48.86944" lon="2.3649">
        <ele>44.20000076294</ele>
        <time>2016-01-04T21:22:23Z</time>
      </trkpt>
      <trkpt lat="48.86953" lon="2.36519">
        <ele>44</ele>
        <time>2016-01-04T21:22:27Z</time>
      </trkpt>
      <trkpt lat="48.86963" lon="2.3655">
        <ele>44</ele>
        <time>2016-01-04T21:22:31Z</time>
      </trkpt>
      <trkpt lat="48.86975" lon="2.36578">
        <ele>43.79999923706</ele>
        <time>2016-01-04T21:22:35Z</time>
      </trkpt>
      <trkpt lat="48.86987" lon="2.36598">
        <ele>43.79999923706</ele>
        <time>2016-01-04T21:22:39Z</time>
      </trkpt>
      <trkpt lat="48.86989" lon="2.36608">
        <ele>43.599998474121</ele>
        <time>2016-01-04T21:22:43Z</time>
      </trkpt>
      <trkpt lat="48.86994" lon="2.36627">
        <ele>43.20000076294</ele>
        <time>2016-01-04T21:23:16Z</time>
      </trkpt>
      <trkpt lat="48.86989" lon="2.3663">
        <ele>43</ele>
        <time>2016-01-04T21:23:42Z</time>
      </trkpt>
      <trkpt lat="48.86988" lon="2.36632">
        <ele>43</ele>
        <time>2016-01-04T21:23:46Z</time>
      </trkpt>
      <trkpt lat="48.86981" lon="2.36628">
        <ele>43.20000076294</ele>
        <time>2016-01-04T21:24:52Z</time>
      </trkpt>
      <trkpt lat="48.86971" lon="2.36631">
        <ele>43.400001525879</ele>
        <time>2016-01-04T21:25:17Z</time>
      </trkpt>
      <trkpt lat="48.86952" lon="2.36632">
        <ele>44</ele>
        <time>2016-01-04T21:25:23Z</time>
      </trkpt>
      <trkpt lat="48.86937" lon="2.36649">
        <ele>44.79999923706</ele>
        <time>2016-01-04T21:25:31Z</time>
      </trkpt>
      <trkpt lat="48.86926" lon="2.36671">
        <ele>45.79999923706</ele>
        <time>2016-01-04T21:25:36Z</time>
      </trkpt>
      <trkpt lat="48.86911" lon="2.36687">
        <ele>46.79999923706</ele>
        <time>2016-01-04T21:25:41Z</time>
      </trkpt>
      <trkpt lat="48.86891" lon="2.36689">
        <ele>47.599998474121</ele>
        <time>2016-01-04T21:25:45Z</time>
      </trkpt>
      <trkpt lat="48.86871" lon="2.36704">
        <ele>47.400001525879</ele>
        <time>2016-01-04T21:25:51Z</time>
      </trkpt>
      <trkpt lat="48.86849" lon="2.36706">
        <ele>46.79999923706</ele>
        <time>2016-01-04T21:25:55Z</time>
      </trkpt>
      <trkpt lat="48.8683" lon="2.36703">
        <ele>46.400001525879</ele>
        <time>2016-01-04T21:25:58Z</time>
      </trkpt>
      <trkpt lat="48.86813" lon="2.36724">
        <ele>45.79999923706</ele>
        <time>2016-01-04T21:26:03Z</time>
      </trkpt>
      <trkpt lat="48.86792" lon="2.3673">
        <ele>45.400001525879</ele>
        <time>2016-01-04T21:26:07Z</time>
      </trkpt>
      <trkpt lat="48.86774" lon="2.36742">
        <ele>45</ele>
        <time>2016-01-04T21:26:11Z</time>
      </trkpt>
      <trkpt lat="48.86756" lon="2.36766">
        <ele>45</ele>
        <time>2016-01-04T21:26:16Z</time>
      </trkpt>
      <trkpt lat="48.86748" lon="2.36805">
        <ele>45</ele>
        <time>2016-01-04T21:26:21Z</time>
      </trkpt>
      <trkpt lat="48.86737" lon="2.36818">
        <ele>44.79999923706</ele>
        <time>2016-01-04T21:26:24Z</time>
      </trkpt>
      <trkpt lat="48.86717" lon="2.36826">
        <ele>44.400001525879</ele>
        <time>2016-01-04T21:26:28Z</time>
      </trkpt>
      <trkpt lat="48.86697" lon="2.36836">
        <ele>44.20000076294</ele>
        <time>2016-01-04T21:26:32Z</time>
      </trkpt>
      <trkpt lat="48.86681" lon="2.36847">
        <ele>44.599998474121</ele>
        <time>2016-01-04T21:26:36Z</time>
      </trkpt>
      <trkpt lat="48.86666" lon="2.36851">
        <ele>45.400001525879</ele>
        <time>2016-01-04T21:26:40Z</time>
      </trkpt>
      <trkpt lat="48.86662" lon="2.36857">
        <ele>45.599998474121</ele>
        <time>2016-01-04T21:26:42Z</time>
      </trkpt>
      <trkpt lat="48.8666" lon="2.36866">
        <ele>45.79999923706</ele>
        <time>2016-01-04T21:26:46Z</time>
      </trkpt>
      <trkpt lat="48.86657" lon="2.36852">
        <ele>45.79999923706</ele>
        <time>2016-01-04T21:27:13Z</time>
      </trkpt>
      <trkpt lat="48.86658" lon="2.36825">
        <ele>45.400001525879</ele>
        <time>2016-01-04T21:27:19Z</time>
      </trkpt>
      <trkpt lat="48.86651" lon="2.36795">
        <ele>45.400001525879</ele>
        <time>2016-01-04T21:27:25Z</time>
      </trkpt>
      <trkpt lat="48.86645" lon="2.36764">
        <ele>45.79999923706</ele>
        <time>2016-01-04T21:27:30Z</time>
      </trkpt>
      <trkpt lat="48.86637" lon="2.36734">
        <ele>46</ele>
        <time>2016-01-04T21:27:35Z</time>
      </trkpt>
      <trkpt lat="48.86628" lon="2.36707">
        <ele>46</ele>
        <time>2016-01-04T21:27:40Z</time>
      </trkpt>
      <trkpt lat="48.86624" lon="2.3668">
        <ele>45.79999923706</ele>
        <time>2016-01-04T21:27:45Z</time>
      </trkpt>
      <trkpt lat="48.86611" lon="2.36657">
        <ele>46</ele>
        <time>2016-01-04T21:27:51Z</time>
      </trkpt>
      <trkpt lat="48.86605" lon="2.36627">
        <ele>46.400001525879</ele>
        <time>2016-01-04T21:28:00Z</time>
      </trkpt>
      <trkpt lat="48.86589" lon="2.36615">
        <ele>46.599998474121</ele>
        <time>2016-01-04T21:28:08Z</time>
      </trkpt>
      <trkpt lat="48.86567" lon="2.3662">
        <ele>46.599998474121</ele>
        <time>2016-01-04T21:28:13Z</time>
      </trkpt>
      <trkpt lat="48.8655" lon="2.36629">
        <ele>46.20000076294</ele>
        <time>2016-01-04T21:28:20Z</time>
      </trkpt>
      <trkpt lat="48.86528" lon="2.36637">
        <ele>45.79999923706</ele>
        <time>2016-01-04T21:28:25Z</time>
      </trkpt>
      <trkpt lat="48.86508" lon="2.36646">
        <ele>45.400001525879</ele>
        <time>2016-01-04T21:28:30Z</time>
      </trkpt>
      <trkpt lat="48.86505" lon="2.36645">
        <ele>45.400001525879</ele>
        <time>2016-01-04T21:28:31Z</time>
      </trkpt>
      <trkpt lat="48.86494" lon="2.36618">
        <ele>46.20000076294</ele>
        <time>2016-01-04T21:28:37Z</time>
      </trkpt>
      <trkpt lat="48.86486" lon="2.36592">
        <ele>46.79999923706</ele>
        <time>2016-01-04T21:28:45Z</time>
      </trkpt>
      <trkpt lat="48.86482" lon="2.36586">
        <ele>46.79999923706</ele>
        <time>2016-01-04T21:28:49Z</time>
      </trkpt>
      <trkpt lat="48.86481" lon="2.36578">
        <ele>47</ele>
        <time>2016-01-04T21:28:53Z</time>
      </trkpt>
      <trkpt lat="48.86469" lon="2.36572">
        <ele>47.20000076294</ele>
        <time>2016-01-04T21:29:01Z</time>
      </trkpt>
      <trkpt lat="48.86451" lon="2.36561">
        <ele>47.20000076294</ele>
        <time>2016-01-04T21:29:09Z</time>
      </trkpt>
      <trkpt lat="48.86433" lon="2.36551">
        <ele>47</ele>
        <time>2016-01-04T21:29:15Z</time>
      </trkpt>
      <trkpt lat="48.86416" lon="2.36539">
        <ele>46.400001525879</ele>
        <time>2016-01-04T21:29:23Z</time>
      </trkpt>
      <trkpt lat="48.86398" lon="2.36514">
        <ele>45.79999923706</ele>
        <time>2016-01-04T21:29:30Z</time>
      </trkpt>
      <trkpt lat="48.86382" lon="2.36497">
        <ele>45.20000076294</ele>
        <time>2016-01-04T21:29:34Z</time>
      </trkpt>
      <trkpt lat="48.86365" lon="2.36491">
        <ele>44.400001525879</ele>
        <time>2016-01-04T21:29:41Z</time>
      </trkpt>
      <trkpt lat="48.86343" lon="2.36466">
        <ele>44.599998474121</ele>
        <time>2016-01-04T21:29:46Z</time>
      </trkpt>
      <trkpt lat="48.86326" lon="2.36446">
        <ele>45.400001525879</ele>
        <time>2016-01-04T21:29:51Z</time>
      </trkpt>
      <trkpt lat="48.86311" lon="2.36429">
        <ele>46.20000076294</ele>
        <time>2016-01-04T21:29:56Z</time>
      </trkpt>
      <trkpt lat="48.86293" lon="2.3641">
        <ele>47.20000076294</ele>
        <time>2016-01-04T21:30:01Z</time>
      </trkpt>
      <trkpt lat="48.86276" lon="2.36395">
        <ele>48.400001525879</ele>
        <time>2016-01-04T21:30:06Z</time>
      </trkpt>
      <trkpt lat="48.86264" lon="2.36367">
        <ele>49</ele>
        <time>2016-01-04T21:30:14Z</time>
      </trkpt>
      <trkpt lat="48.86247" lon="2.36352">
        <ele>49.20000076294</ele>
        <time>2016-01-04T21:30:21Z</time>
      </trkpt>
      <trkpt lat="48.86232" lon="2.36335">
        <ele>49.400001525879</ele>
        <time>2016-01-04T21:30:28Z</time>
      </trkpt>
      <trkpt lat="48.8622" lon="2.3631">
        <ele>49.400001525879</ele>
        <time>2016-01-04T21:30:34Z</time>
      </trkpt>
      <trkpt lat="48.86208" lon="2.3629">
        <ele>49.20000076294</ele>
        <time>2016-01-04T21:30:39Z</time>
      </trkpt>
      <trkpt lat="48.86194" lon="2.36268">
        <ele>49</ele>
        <time>2016-01-04T21:30:44Z</time>
      </trkpt>
      <trkpt lat="48.86182" lon="2.36246">
        <ele>48.79999923706</ele>
        <time>2016-01-04T21:30:49Z</time>
      </trkpt>
      <trkpt lat="48.86167" lon="2.36224">
        <ele>47.79999923706</ele>
        <time>2016-01-04T21:30:55Z</time>
      </trkpt>
      <trkpt lat="48.86149" lon="2.36206">
        <ele>47</ele>
        <time>2016-01-04T21:31:00Z</time>
      </trkpt>
      <trkpt lat="48.8613" lon="2.36193">
        <ele>46.20000076294</ele>
        <time>2016-01-04T21:31:04Z</time>
      </trkpt>
      <trkpt lat="48.86117" lon="2.36168">
        <ele>45.400001525879</ele>
        <time>2016-01-04T21:31:10Z</time>
      </trkpt>
      <trkpt lat="48.86096" lon="2.36161">
        <ele>44.599998474121</ele>
        <time>2016-01-04T21:31:15Z</time>
      </trkpt>
      <trkpt lat="48.86078" lon="2.3617">
        <ele>44</ele>
        <time>2016-01-04T21:31:20Z</time>
      </trkpt>
      <trkpt lat="48.8606" lon="2.3618">
        <ele>43.599998474121</ele>
        <time>2016-01-04T21:31:26Z</time>
      </trkpt>
      <trkpt lat="48.86057" lon="2.36176">
        <ele>43.400001525879</ele>
        <time>2016-01-04T21:31:27Z</time>
      </trkpt>
      <trkpt lat="48.86041" lon="2.36155">
        <ele>42.599998474121</ele>
        <time>2016-01-04T21:31:32Z</time>
      </trkpt>
      <trkpt lat="48.86026" lon="2.36128">
        <ele>41.599998474121</ele>
        <time>2016-01-04T21:31:37Z</time>
      </trkpt>
      <trkpt lat="48.86011" lon="2.36106">
        <ele>41.20000076294</ele>
        <time>2016-01-04T21:31:41Z</time>
      </trkpt>
      <trkpt lat="48.85999" lon="2.36083">
        <ele>41</ele>
        <time>2016-01-04T21:31:45Z</time>
      </trkpt>
      <trkpt lat="48.85987" lon="2.3606">
        <ele>41.599998474121</ele>
        <time>2016-01-04T21:31:49Z</time>
      </trkpt>
      <trkpt lat="48.85972" lon="2.36037">
        <ele>42</ele>
        <time>2016-01-04T21:31:53Z</time>
      </trkpt>
      <trkpt lat="48.85959" lon="2.36012">
        <ele>42.400001525879</ele>
        <time>2016-01-04T21:31:57Z</time>
      </trkpt>
      <trkpt lat="48.85945" lon="2.35989">
        <ele>42.79999923706</ele>
        <time>2016-01-04T21:32:01Z</time>
      </trkpt>
      <trkpt lat="48.85929" lon="2.35966">
        <ele>42.79999923706</ele>
        <time>2016-01-04T21:32:05Z</time>
      </trkpt>
      <trkpt lat="48.85912" lon="2.35947">
        <ele>42.599998474121</ele>
        <time>2016-01-04T21:32:09Z</time>
      </trkpt>
      <trkpt lat="48.85898" lon="2.35923">
        <ele>42.599998474121</ele>
        <time>2016-01-04T21:32:13Z</time>
      </trkpt>
      <trkpt lat="48.85887" lon="2.359">
        <ele>42.599998474121</ele>
        <time>2016-01-04T21:32:17Z</time>
      </trkpt>
      <trkpt lat="48.85882" lon="2.35886">
        <ele>42.599998474121</ele>
        <time>2016-01-04T21:32:20Z</time>
      </trkpt>
      <trkpt lat="48.85875" lon="2.35868">
        <ele>42.79999923706</ele>
        <time>2016-01-04T21:32:24Z</time>
      </trkpt>
      <trkpt lat="48.85857" lon="2.35852">
        <ele>42.79999923706</ele>
        <time>2016-01-04T21:32:29Z</time>
      </trkpt>
      <trkpt lat="48.85844" lon="2.35833">
        <ele>43.400001525879</ele>
        <time>2016-01-04T21:32:34Z</time>
      </trkpt>
      <trkpt lat="48.85854" lon="2.35809">
        <ele>43.599998474121</ele>
        <time>2016-01-04T21:32:39Z</time>
      </trkpt>
      <trkpt lat="48.85857" lon="2.35805">
        <ele>43.599998474121</ele>
        <time>2016-01-04T21:32:40Z</time>
      </trkpt>
      <trkpt lat="48.85861" lon="2.35792">
        <ele>43.79999923706</ele>
        <time>2016-01-04T21:32:43Z</time>
      </trkpt>
      <trkpt lat="48.8585" lon="2.35772">
        <ele>44.599998474121</ele>
        <time>2016-01-04T21:32:50Z</time>
      </trkpt>
      <trkpt lat="48.85848" lon="2.3577">
        <ele>44.599998474121</ele>
        <time>2016-01-04T21:32:51Z</time>
      </trkpt>
      <trkpt lat="48.85831" lon="2.35757">
        <ele>45.400001525879</ele>
        <time>2016-01-04T21:32:56Z</time>
      </trkpt>
      <trkpt lat="48.85817" lon="2.35733">
        <ele>45.599998474121</ele>
        <time>2016-01-04T21:33:04Z</time>
      </trkpt>
      <trkpt lat="48.85813" lon="2.35712">
        <ele>45.20000076294</ele>
        <time>2016-01-04T21:33:08Z</time>
      </trkpt>
      <trkpt lat="48.8581" lon="2.35684">
        <ele>45</ele>
        <time>2016-01-04T21:33:15Z</time>
      </trkpt>
      <trkpt lat="48.85801" lon="2.35662">
        <ele>45</ele>
        <time>2016-01-04T21:33:26Z</time>
      </trkpt>
      <trkpt lat="48.85784" lon="2.35652">
        <ele>45</ele>
        <time>2016-01-04T21:33:31Z</time>
      </trkpt>
      <trkpt lat="48.85766" lon="2.35641">
        <ele>45</ele>
        <time>2016-01-04T21:33:37Z</time>
      </trkpt>
      <trkpt lat="48.85749" lon="2.35627">
        <ele>45.20000076294</ele>
        <time>2016-01-04T21:33:43Z</time>
      </trkpt>
      <trkpt lat="48.85731" lon="2.35615">
        <ele>45.599998474121</ele>
        <time>2016-01-04T21:33:49Z</time>
      </trkpt>
      <trkpt lat="48.85716" lon="2.35594">
        <ele>45.599998474121</ele>
        <time>2016-01-04T21:33:55Z</time>
      </trkpt>
      <trkpt lat="48.85713" lon="2.35582">
        <ele>45.79999923706</ele>
        <time>2016-01-04T21:33:57Z</time>
      </trkpt>
      <trkpt lat="48.85718" lon="2.35552">
        <ele>46</ele>
        <time>2016-01-04T21:34:02Z</time>
      </trkpt>
      <trkpt lat="48.85729" lon="2.35528">
        <ele>46.20000076294</ele>
        <time>2016-01-04T21:34:08Z</time>
      </trkpt>
      <trkpt lat="48.85741" lon="2.35504">
        <ele>46.400001525879</ele>
        <time>2016-01-04T21:34:14Z</time>
      </trkpt>
      <trkpt lat="48.85752" lon="2.35478">
        <ele>45.79999923706</ele>
        <time>2016-01-04T21:34:20Z</time>
      </trkpt>
      <trkpt lat="48.85757" lon="2.35447">
        <ele>48</ele>
        <time>2016-01-04T21:34:27Z</time>
      </trkpt>
      <trkpt lat="48.8576" lon="2.35435">
        <ele>48.79999923706</ele>
        <time>2016-01-04T21:34:32Z</time>
      </trkpt>
      <trkpt lat="48.85769" lon="2.35408">
        <ele>51</ele>
        <time>2016-01-04T21:34:44Z</time>
      </trkpt>
      <trkpt lat="48.85772" lon="2.35401">
        <ele>51.20000076294</ele>
        <time>2016-01-04T21:34:46Z</time>
      </trkpt>
      <trkpt lat="48.85785" lon="2.35377">
        <ele>50.79999923706</ele>
        <time>2016-01-04T21:34:53Z</time>
      </trkpt>
      <trkpt lat="48.85795" lon="2.35354">
        <ele>50.400001525879</ele>
        <time>2016-01-04T21:34:59Z</time>
      </trkpt>
      <trkpt lat="48.85805" lon="2.3533">
        <ele>52</ele>
        <time>2016-01-04T21:35:05Z</time>
      </trkpt>
      <trkpt lat="48.85808" lon="2.35318">
        <ele>51</ele>
        <time>2016-01-04T21:35:09Z</time>
      </trkpt>
      <trkpt lat="48.85806" lon="2.3531">
        <ele>50.599998474121</ele>
        <time>2016-01-04T21:35:13Z</time>
      </trkpt>
      <trkpt lat="48.85819" lon="2.35291">
        <ele>49.20000076294</ele>
        <time>2016-01-04T21:35:22Z</time>
      </trkpt>
      <trkpt lat="48.85833" lon="2.35268">
        <ele>49.400001525879</ele>
        <time>2016-01-04T21:35:29Z</time>
      </trkpt>
      <trkpt lat="48.85846" lon="2.35249">
        <ele>49.599998474121</ele>
        <time>2016-01-04T21:35:34Z</time>
      </trkpt>
      <trkpt lat="48.85853" lon="2.35223">
        <ele>49.20000076294</ele>
        <time>2016-01-04T21:35:40Z</time>
      </trkpt>
      <trkpt lat="48.85862" lon="2.35197">
        <ele>48.599998474121</ele>
        <time>2016-01-04T21:35:46Z</time>
      </trkpt>
      <trkpt lat="48.85873" lon="2.35171">
        <ele>48.20000076294</ele>
        <time>2016-01-04T21:35:53Z</time>
      </trkpt>
      <trkpt lat="48.85885" lon="2.35148">
        <ele>49.20000076294</ele>
        <time>2016-01-04T21:35:59Z</time>
      </trkpt>
      <trkpt lat="48.85899" lon="2.35125">
        <ele>50</ele>
        <time>2016-01-04T21:36:06Z</time>
      </trkpt>
      <trkpt lat="48.85911" lon="2.35104">
        <ele>49.599998474121</ele>
        <time>2016-01-04T21:36:13Z</time>
      </trkpt>
      <trkpt lat="48.85912" lon="2.35096">
        <ele>49.400001525879</ele>
        <time>2016-01-04T21:36:16Z</time>
      </trkpt>
      <trkpt lat="48.85897" lon="2.35081">
        <ele>49</ele>
        <time>2016-01-04T21:36:31Z</time>
      </trkpt>
      <trkpt lat="48.85895" lon="2.35082">
        <ele>49</ele>
        <time>2016-01-04T21:36:32Z</time>
      </trkpt>
      <trkpt lat="48.85887" lon="2.3507">
        <ele>48.79999923706</ele>
        <time>2016-01-04T21:36:42Z</time>
      </trkpt>
      <trkpt lat="48.85867" lon="2.35059">
        <ele>48.400001525879</ele>
        <time>2016-01-04T21:36:54Z</time>
      </trkpt>
      <trkpt lat="48.85867" lon="2.35055">
        <ele>48.400001525879</ele>
        <time>2016-01-04T21:36:55Z</time>
      </trkpt>
      <trkpt lat="48.85871" lon="2.35024">
        <ele>47.599998474121</ele>
        <time>2016-01-04T21:37:03Z</time>
      </trkpt>
      <trkpt lat="48.85874" lon="2.34997">
        <ele>47</ele>
        <time>2016-01-04T21:37:13Z</time>
      </trkpt>
      <trkpt lat="48.85881" lon="2.3497">
        <ele>47.400001525879</ele>
        <time>2016-01-04T21:37:23Z</time>
      </trkpt>
      <trkpt lat="48.85881" lon="2.34942">
        <ele>47.599998474121</ele>
        <time>2016-01-04T21:37:30Z</time>
      </trkpt>
      <trkpt lat="48.85881" lon="2.34912">
        <ele>48</ele>
        <time>2016-01-04T21:37:37Z</time>
      </trkpt>
      <trkpt lat="48.85887" lon="2.34885">
        <ele>48</ele>
        <time>2016-01-04T21:37:42Z</time>
      </trkpt>
      <trkpt lat="48.85889" lon="2.34857">
        <ele>48</ele>
        <time>2016-01-04T21:37:48Z</time>
      </trkpt>
      <trkpt lat="48.85884" lon="2.34827">
        <ele>48</ele>
        <time>2016-01-04T21:37:55Z</time>
      </trkpt>
      <trkpt lat="48.85886" lon="2.348">
        <ele>47.599998474121</ele>
        <time>2016-01-04T21:38:01Z</time>
      </trkpt>
      <trkpt lat="48.85897" lon="2.34776">
        <ele>47</ele>
        <time>2016-01-04T21:38:07Z</time>
      </trkpt>
      <trkpt lat="48.85912" lon="2.34757">
        <ele>45.400001525879</ele>
        <time>2016-01-04T21:38:14Z</time>
      </trkpt>
      <trkpt lat="48.8593" lon="2.34744">
        <ele>44.400001525879</ele>
        <time>2016-01-04T21:38:20Z</time>
      </trkpt>
      <trkpt lat="48.85949" lon="2.34727">
        <ele>44.79999923706</ele>
        <time>2016-01-04T21:38:26Z</time>
      </trkpt>
      <trkpt lat="48.85967" lon="2.34729">
        <ele>45</ele>
        <time>2016-01-04T21:38:32Z</time>
      </trkpt>
      <trkpt lat="48.85976" lon="2.34749">
        <ele>44.400001525879</ele>
        <time>2016-01-04T21:38:42Z</time>
      </trkpt>
      <trkpt lat="48.85977" lon="2.34751">
        <ele>44.599998474121</ele>
        <time>2016-01-04T21:39:10Z</time>
      </trkpt>
    </trkseg>
  </trk>
  <trk>
    <name><![CDATA[lundi 2016 01 25]]></name>
    <extensions>
      <line xmlns="http://www.topografix.com/GPX/gpx_style/0/2">
        <color>000000</color>
      </line>
    </extensions>
    <trkseg>
      <trkpt lat="48.8573" lon="2.34755">
        <ele>40.400001525879</ele>
        <time>2016-01-25T19:21:07Z</time>
      </trkpt>
      <trkpt lat="48.85726" lon="2.34758">
        <ele>40.400001525879</ele>
        <time>2016-01-25T19:21:08Z</time>
      </trkpt>
      <trkpt lat="48.85743" lon="2.34725">
        <ele>40.400001525879</ele>
        <time>2016-01-25T19:21:24Z</time>
      </trkpt>
      <trkpt lat="48.85735" lon="2.34724">
        <ele>40.400001525879</ele>
        <time>2016-01-25T19:21:31Z</time>
      </trkpt>
      <trkpt lat="48.85737" lon="2.34725">
        <ele>40.400001525879</ele>
        <time>2016-01-25T19:21:35Z</time>
      </trkpt>
      <trkpt lat="48.85745" lon="2.34743">
        <ele>40.400001525879</ele>
        <time>2016-01-25T19:21:54Z</time>
      </trkpt>
      <trkpt lat="48.85757" lon="2.34752">
        <ele>40</ele>
        <time>2016-01-25T19:22:00Z</time>
      </trkpt>
      <trkpt lat="48.85773" lon="2.34764">
        <ele>39.599998474121</ele>
        <time>2016-01-25T19:22:25Z</time>
      </trkpt>
      <trkpt lat="48.85784" lon="2.34775">
        <ele>40.599998474121</ele>
        <time>2016-01-25T19:22:34Z</time>
      </trkpt>
      <trkpt lat="48.85793" lon="2.34795">
        <ele>41.20000076294</ele>
        <time>2016-01-25T19:23:01Z</time>
      </trkpt>
      <trkpt lat="48.85807" lon="2.34812">
        <ele>42.599998474121</ele>
        <time>2016-01-25T19:23:06Z</time>
      </trkpt>
      <trkpt lat="48.85825" lon="2.34822">
        <ele>44.400001525879</ele>
        <time>2016-01-25T19:23:13Z</time>
      </trkpt>
      <trkpt lat="48.85826" lon="2.34822">
        <ele>44.599998474121</ele>
        <time>2016-01-25T19:23:14Z</time>
      </trkpt>
      <trkpt lat="48.85837" lon="2.34818">
        <ele>46</ele>
        <time>2016-01-25T19:23:21Z</time>
      </trkpt>
      <trkpt lat="48.85857" lon="2.3482">
        <ele>47.79999923706</ele>
        <time>2016-01-25T19:23:48Z</time>
      </trkpt>
      <trkpt lat="48.85873" lon="2.34831">
        <ele>48</ele>
        <time>2016-01-25T19:23:54Z</time>
      </trkpt>
      <trkpt lat="48.85891" lon="2.34839">
        <ele>48</ele>
        <time>2016-01-25T19:24:03Z</time>
      </trkpt>
      <trkpt lat="48.85909" lon="2.34855">
        <ele>48</ele>
        <time>2016-01-25T19:24:10Z</time>
      </trkpt>
      <trkpt lat="48.85928" lon="2.34868">
        <ele>48</ele>
        <time>2016-01-25T19:24:15Z</time>
      </trkpt>
      <trkpt lat="48.85947" lon="2.34884">
        <ele>48</ele>
        <time>2016-01-25T19:24:21Z</time>
      </trkpt>
      <trkpt lat="48.85964" lon="2.34893">
        <ele>48.20000076294</ele>
        <time>2016-01-25T19:24:25Z</time>
      </trkpt>
      <trkpt lat="48.85983" lon="2.34905">
        <ele>48.599998474121</ele>
        <time>2016-01-25T19:24:30Z</time>
      </trkpt>
      <trkpt lat="48.86" lon="2.34916">
        <ele>48.79999923706</ele>
        <time>2016-01-25T19:24:34Z</time>
      </trkpt>
      <trkpt lat="48.86019" lon="2.3492">
        <ele>48.79999923706</ele>
        <time>2016-01-25T19:24:37Z</time>
      </trkpt>
      <trkpt lat="48.8604" lon="2.34927">
        <ele>48.400001525879</ele>
        <time>2016-01-25T19:24:41Z</time>
      </trkpt>
      <trkpt lat="48.86055" lon="2.34936">
        <ele>48</ele>
        <time>2016-01-25T19:24:44Z</time>
      </trkpt>
      <trkpt lat="48.86075" lon="2.34944">
        <ele>47.400001525879</ele>
        <time>2016-01-25T19:24:48Z</time>
      </trkpt>
      <trkpt lat="48.86096" lon="2.34955">
        <ele>46.79999923706</ele>
        <time>2016-01-25T19:24:52Z</time>
      </trkpt>
      <trkpt lat="48.86115" lon="2.34969">
        <ele>46.400001525879</ele>
        <time>2016-01-25T19:24:56Z</time>
      </trkpt>
      <trkpt lat="48.8613" lon="2.34978">
        <ele>46.599998474121</ele>
        <time>2016-01-25T19:24:59Z</time>
      </trkpt>
      <trkpt lat="48.8615" lon="2.34991">
        <ele>46.599998474121</ele>
        <time>2016-01-25T19:25:03Z</time>
      </trkpt>
      <trkpt lat="48.8616" lon="2.34991">
        <ele>46.79999923706</ele>
        <time>2016-01-25T19:25:04Z</time>
      </trkpt>
      <trkpt lat="48.86172" lon="2.35001">
        <ele>46.79999923706</ele>
        <time>2016-01-25T19:25:07Z</time>
      </trkpt>
      <trkpt lat="48.86188" lon="2.35015">
        <ele>47.20000076294</ele>
        <time>2016-01-25T19:25:11Z</time>
      </trkpt>
      <trkpt lat="48.8621" lon="2.35019">
        <ele>47.599998474121</ele>
        <time>2016-01-25T19:25:14Z</time>
      </trkpt>
      <trkpt lat="48.86223" lon="2.3502">
        <ele>47.599998474121</ele>
        <time>2016-01-25T19:25:16Z</time>
      </trkpt>
      <trkpt lat="48.86242" lon="2.35029">
        <ele>48</ele>
        <time>2016-01-25T19:25:20Z</time>
      </trkpt>
      <trkpt lat="48.86259" lon="2.35041">
        <ele>48.400001525879</ele>
        <time>2016-01-25T19:25:24Z</time>
      </trkpt>
      <trkpt lat="48.86267" lon="2.35047">
        <ele>48.599998474121</ele>
        <time>2016-01-25T19:25:26Z</time>
      </trkpt>
      <trkpt lat="48.86284" lon="2.35059">
        <ele>48.599998474121</ele>
        <time>2016-01-25T19:25:30Z</time>
      </trkpt>
      <trkpt lat="48.86305" lon="2.35067">
        <ele>48.400001525879</ele>
        <time>2016-01-25T19:25:34Z</time>
      </trkpt>
      <trkpt lat="48.86309" lon="2.35066">
        <ele>48.400001525879</ele>
        <time>2016-01-25T19:25:35Z</time>
      </trkpt>
      <trkpt lat="48.86329" lon="2.35071">
        <ele>48.20000076294</ele>
        <time>2016-01-25T19:25:52Z</time>
      </trkpt>
      <trkpt lat="48.86336" lon="2.35075">
        <ele>48.20000076294</ele>
        <time>2016-01-25T19:25:58Z</time>
      </trkpt>
      <trkpt lat="48.8635" lon="2.35094">
        <ele>48</ele>
        <time>2016-01-25T19:26:05Z</time>
      </trkpt>
      <trkpt lat="48.86366" lon="2.35109">
        <ele>47.599998474121</ele>
        <time>2016-01-25T19:26:12Z</time>
      </trkpt>
      <trkpt lat="48.86386" lon="2.35122">
        <ele>47.599998474121</ele>
        <time>2016-01-25T19:26:19Z</time>
      </trkpt>
      <trkpt lat="48.86404" lon="2.3513">
        <ele>47.400001525879</ele>
        <time>2016-01-25T19:26:24Z</time>
      </trkpt>
      <trkpt lat="48.86424" lon="2.35142">
        <ele>47.20000076294</ele>
        <time>2016-01-25T19:26:29Z</time>
      </trkpt>
      <trkpt lat="48.86442" lon="2.35159">
        <ele>46.79999923706</ele>
        <time>2016-01-25T19:26:35Z</time>
      </trkpt>
      <trkpt lat="48.86459" lon="2.35166">
        <ele>46.599998474121</ele>
        <time>2016-01-25T19:26:41Z</time>
      </trkpt>
      <trkpt lat="48.86483" lon="2.35176">
        <ele>46.400001525879</ele>
        <time>2016-01-25T19:26:46Z</time>
      </trkpt>
      <trkpt lat="48.865" lon="2.35188">
        <ele>46.400001525879</ele>
        <time>2016-01-25T19:26:50Z</time>
      </trkpt>
      <trkpt lat="48.86517" lon="2.35205">
        <ele>46.599998474121</ele>
        <time>2016-01-25T19:26:55Z</time>
      </trkpt>
      <trkpt lat="48.86536" lon="2.35219">
        <ele>47.20000076294</ele>
        <time>2016-01-25T19:27:00Z</time>
      </trkpt>
      <trkpt lat="48.86556" lon="2.35232">
        <ele>47.79999923706</ele>
        <time>2016-01-25T19:27:05Z</time>
      </trkpt>
      <trkpt lat="48.86569" lon="2.35241">
        <ele>48.400001525879</ele>
        <time>2016-01-25T19:27:09Z</time>
      </trkpt>
      <trkpt lat="48.86575" lon="2.35242">
        <ele>48.400001525879</ele>
        <time>2016-01-25T19:27:11Z</time>
      </trkpt>
      <trkpt lat="48.86588" lon="2.35237">
        <ele>48.400001525879</ele>
        <time>2016-01-25T19:27:17Z</time>
      </trkpt>
      <trkpt lat="48.86596" lon="2.35237">
        <ele>48.400001525879</ele>
        <time>2016-01-25T19:27:22Z</time>
      </trkpt>
      <trkpt lat="48.8661" lon="2.35247">
        <ele>49</ele>
        <time>2016-01-25T19:27:34Z</time>
      </trkpt>
      <trkpt lat="48.86609" lon="2.35263">
        <ele>48.79999923706</ele>
        <time>2016-01-25T19:27:37Z</time>
      </trkpt>
      <trkpt lat="48.86604" lon="2.35289">
        <ele>48.400001525879</ele>
        <time>2016-01-25T19:27:42Z</time>
      </trkpt>
      <trkpt lat="48.86598" lon="2.35319">
        <ele>48</ele>
        <time>2016-01-25T19:27:47Z</time>
      </trkpt>
      <trkpt lat="48.86606" lon="2.35356">
        <ele>48</ele>
        <time>2016-01-25T19:27:52Z</time>
      </trkpt>
      <trkpt lat="48.86608" lon="2.35365">
        <ele>48</ele>
        <time>2016-01-25T19:27:55Z</time>
      </trkpt>
      <trkpt lat="48.86601" lon="2.35391">
        <ele>47.79999923706</ele>
        <time>2016-01-25T19:28:18Z</time>
      </trkpt>
      <trkpt lat="48.86591" lon="2.3542">
        <ele>48</ele>
        <time>2016-01-25T19:28:24Z</time>
      </trkpt>
      <trkpt lat="48.86588" lon="2.35438">
        <ele>47.599998474121</ele>
        <time>2016-01-25T19:28:27Z</time>
      </trkpt>
      <trkpt lat="48.86582" lon="2.35465">
        <ele>47</ele>
        <time>2016-01-25T19:28:32Z</time>
      </trkpt>
      <trkpt lat="48.86575" lon="2.35491">
        <ele>47.20000076294</ele>
        <time>2016-01-25T19:28:38Z</time>
      </trkpt>
      <trkpt lat="48.86571" lon="2.35523">
        <ele>45.79999923706</ele>
        <time>2016-01-25T19:28:44Z</time>
      </trkpt>
      <trkpt lat="48.86559" lon="2.35552">
        <ele>44.79999923706</ele>
        <time>2016-01-25T19:28:49Z</time>
      </trkpt>
      <trkpt lat="48.86555" lon="2.3558">
        <ele>44.20000076294</ele>
        <time>2016-01-25T19:28:53Z</time>
      </trkpt>
      <trkpt lat="48.86552" lon="2.35608">
        <ele>44.79999923706</ele>
        <time>2016-01-25T19:28:57Z</time>
      </trkpt>
      <trkpt lat="48.86552" lon="2.35637">
        <ele>45</ele>
        <time>2016-01-25T19:29:01Z</time>
      </trkpt>
      <trkpt lat="48.8655" lon="2.35667">
        <ele>45.20000076294</ele>
        <time>2016-01-25T19:29:06Z</time>
      </trkpt>
      <trkpt lat="48.86541" lon="2.35694">
        <ele>45.599998474121</ele>
        <time>2016-01-25T19:29:10Z</time>
      </trkpt>
      <trkpt lat="48.86536" lon="2.35705">
        <ele>45.599998474121</ele>
        <time>2016-01-25T19:29:12Z</time>
      </trkpt>
      <trkpt lat="48.86526" lon="2.35731">
        <ele>45.20000076294</ele>
        <time>2016-01-25T19:29:16Z</time>
      </trkpt>
      <trkpt lat="48.86517" lon="2.35757">
        <ele>45.20000076294</ele>
        <time>2016-01-25T19:29:20Z</time>
      </trkpt>
      <trkpt lat="48.86508" lon="2.35782">
        <ele>45.400001525879</ele>
        <time>2016-01-25T19:29:24Z</time>
      </trkpt>
      <trkpt lat="48.86502" lon="2.35811">
        <ele>45.79999923706</ele>
        <time>2016-01-25T19:29:28Z</time>
      </trkpt>
      <trkpt lat="48.86495" lon="2.3584">
        <ele>45.79999923706</ele>
        <time>2016-01-25T19:29:32Z</time>
      </trkpt>
      <trkpt lat="48.86491" lon="2.35861">
        <ele>45.20000076294</ele>
        <time>2016-01-25T19:29:35Z</time>
      </trkpt>
      <trkpt lat="48.86487" lon="2.3589">
        <ele>44.79999923706</ele>
        <time>2016-01-25T19:29:40Z</time>
      </trkpt>
      <trkpt lat="48.86487" lon="2.35898">
        <ele>44.79999923706</ele>
        <time>2016-01-25T19:29:42Z</time>
      </trkpt>
      <trkpt lat="48.86486" lon="2.35905">
        <ele>44.79999923706</ele>
        <time>2016-01-25T19:29:45Z</time>
      </trkpt>
      <trkpt lat="48.86485" lon="2.35916">
        <ele>45</ele>
        <time>2016-01-25T19:29:49Z</time>
      </trkpt>
      <trkpt lat="48.86486" lon="2.35943">
        <ele>45.20000076294</ele>
        <time>2016-01-25T19:29:57Z</time>
      </trkpt>
      <trkpt lat="48.86498" lon="2.35967">
        <ele>45.20000076294</ele>
        <time>2016-01-25T19:30:02Z</time>
      </trkpt>
      <trkpt lat="48.86513" lon="2.35987">
        <ele>45.20000076294</ele>
        <time>2016-01-25T19:30:06Z</time>
      </trkpt>
      <trkpt lat="48.86528" lon="2.36007">
        <ele>44.79999923706</ele>
        <time>2016-01-25T19:30:10Z</time>
      </trkpt>
      <trkpt lat="48.86543" lon="2.36031">
        <ele>44.400001525879</ele>
        <time>2016-01-25T19:30:14Z</time>
      </trkpt>
      <trkpt lat="48.86559" lon="2.36053">
        <ele>43.79999923706</ele>
        <time>2016-01-25T19:30:18Z</time>
      </trkpt>
      <trkpt lat="48.86577" lon="2.36072">
        <ele>43.400001525879</ele>
        <time>2016-01-25T19:30:22Z</time>
      </trkpt>
      <trkpt lat="48.86594" lon="2.3609">
        <ele>43.20000076294</ele>
        <time>2016-01-25T19:30:26Z</time>
      </trkpt>
      <trkpt lat="48.8661" lon="2.3611">
        <ele>43.400001525879</ele>
        <time>2016-01-25T19:30:30Z</time>
      </trkpt>
      <trkpt lat="48.86628" lon="2.3613">
        <ele>44.20000076294</ele>
        <time>2016-01-25T19:30:34Z</time>
      </trkpt>
      <trkpt lat="48.86637" lon="2.36138">
        <ele>44.400001525879</ele>
        <time>2016-01-25T19:30:36Z</time>
      </trkpt>
      <trkpt lat="48.86654" lon="2.36154">
        <ele>45</ele>
        <time>2016-01-25T19:30:40Z</time>
      </trkpt>
      <trkpt lat="48.86671" lon="2.36168">
        <ele>45.599998474121</ele>
        <time>2016-01-25T19:30:43Z</time>
      </trkpt>
      <trkpt lat="48.86685" lon="2.36193">
        <ele>46.20000076294</ele>
        <time>2016-01-25T19:30:47Z</time>
      </trkpt>
      <trkpt lat="48.86688" lon="2.362">
        <ele>46.400001525879</ele>
        <time>2016-01-25T19:30:48Z</time>
      </trkpt>
      <trkpt lat="48.867" lon="2.36228">
        <ele>46.79999923706</ele>
        <time>2016-01-25T19:30:52Z</time>
      </trkpt>
      <trkpt lat="48.86712" lon="2.36252">
        <ele>46.599998474121</ele>
        <time>2016-01-25T19:30:56Z</time>
      </trkpt>
      <trkpt lat="48.86725" lon="2.36277">
        <ele>44.79999923706</ele>
        <time>2016-01-25T19:31:00Z</time>
      </trkpt>
      <trkpt lat="48.86729" lon="2.3629">
        <ele>44.20000076294</ele>
        <time>2016-01-25T19:31:02Z</time>
      </trkpt>
      <trkpt lat="48.86732" lon="2.363">
        <ele>44.20000076294</ele>
        <time>2016-01-25T19:31:04Z</time>
      </trkpt>
      <trkpt lat="48.86735" lon="2.36312">
        <ele>44.20000076294</ele>
        <time>2016-01-25T19:31:07Z</time>
      </trkpt>
      <trkpt lat="48.86736" lon="2.36321">
        <ele>44.20000076294</ele>
        <time>2016-01-25T19:31:10Z</time>
      </trkpt>
      <trkpt lat="48.86737" lon="2.36326">
        <ele>44.20000076294</ele>
        <time>2016-01-25T19:31:13Z</time>
      </trkpt>
      <trkpt lat="48.86738" lon="2.36335">
        <ele>44.400001525879</ele>
        <time>2016-01-25T19:31:17Z</time>
      </trkpt>
      <trkpt lat="48.86739" lon="2.36342">
        <ele>44</ele>
        <time>2016-01-25T19:31:20Z</time>
      </trkpt>
      <trkpt lat="48.86743" lon="2.36353">
        <ele>43.400001525879</ele>
        <time>2016-01-25T19:31:24Z</time>
      </trkpt>
      <trkpt lat="48.86745" lon="2.3638">
        <ele>42.599998474121</ele>
        <time>2016-01-25T19:31:36Z</time>
      </trkpt>
      <trkpt lat="48.86752" lon="2.36407">
        <ele>40.599998474121</ele>
        <time>2016-01-25T19:31:47Z</time>
      </trkpt>
      <trkpt lat="48.86756" lon="2.36414">
        <ele>39.79999923706</ele>
        <time>2016-01-25T19:31:52Z</time>
      </trkpt>
      <trkpt lat="48.86759" lon="2.36422">
        <ele>39.79999923706</ele>
        <time>2016-01-25T19:31:58Z</time>
      </trkpt>
      <trkpt lat="48.86772" lon="2.3644">
        <ele>39.599998474121</ele>
        <time>2016-01-25T19:32:10Z</time>
      </trkpt>
      <trkpt lat="48.86785" lon="2.36463">
        <ele>40.79999923706</ele>
        <time>2016-01-25T19:32:21Z</time>
      </trkpt>
      <trkpt lat="48.86797" lon="2.36484">
        <ele>41.79999923706</ele>
        <time>2016-01-25T19:32:29Z</time>
      </trkpt>
      <trkpt lat="48.86809" lon="2.36509">
        <ele>43.20000076294</ele>
        <time>2016-01-25T19:32:35Z</time>
      </trkpt>
      <trkpt lat="48.86817" lon="2.36534">
        <ele>44.400001525879</ele>
        <time>2016-01-25T19:32:40Z</time>
      </trkpt>
      <trkpt lat="48.86826" lon="2.36559">
        <ele>46</ele>
        <time>2016-01-25T19:32:45Z</time>
      </trkpt>
      <trkpt lat="48.86837" lon="2.36587">
        <ele>47.599998474121</ele>
        <time>2016-01-25T19:32:50Z</time>
      </trkpt>
      <trkpt lat="48.86845" lon="2.36613">
        <ele>47.79999923706</ele>
        <time>2016-01-25T19:32:55Z</time>
      </trkpt>
      <trkpt lat="48.86852" lon="2.36642">
        <ele>48</ele>
        <time>2016-01-25T19:33:01Z</time>
      </trkpt>
      <trkpt lat="48.86854" lon="2.3667">
        <ele>47.79999923706</ele>
        <time>2016-01-25T19:33:06Z</time>
      </trkpt>
      <trkpt lat="48.86865" lon="2.36694">
        <ele>47.400001525879</ele>
        <time>2016-01-25T19:33:12Z</time>
      </trkpt>
      <trkpt lat="48.86865" lon="2.36697">
        <ele>47.400001525879</ele>
        <time>2016-01-25T19:33:13Z</time>
      </trkpt>
      <trkpt lat="48.86872" lon="2.36711">
        <ele>47.20000076294</ele>
        <time>2016-01-25T19:33:43Z</time>
      </trkpt>
      <trkpt lat="48.86876" lon="2.36739">
        <ele>46.599998474121</ele>
        <time>2016-01-25T19:33:52Z</time>
      </trkpt>
      <trkpt lat="48.86877" lon="2.36766">
        <ele>46.20000076294</ele>
        <time>2016-01-25T19:34:00Z</time>
      </trkpt>
      <trkpt lat="48.8688" lon="2.36782">
        <ele>46.20000076294</ele>
        <time>2016-01-25T19:34:08Z</time>
      </trkpt>
      <trkpt lat="48.86872" lon="2.36806">
        <ele>45.599998474121</ele>
        <time>2016-01-25T19:34:18Z</time>
      </trkpt>
      <trkpt lat="48.86863" lon="2.36832">
        <ele>45.20000076294</ele>
        <time>2016-01-25T19:34:23Z</time>
      </trkpt>
      <trkpt lat="48.86863" lon="2.36841">
        <ele>45.400001525879</ele>
        <time>2016-01-25T19:34:24Z</time>
      </trkpt>
      <trkpt lat="48.86864" lon="2.36873">
        <ele>46.20000076294</ele>
        <time>2016-01-25T19:34:28Z</time>
      </trkpt>
      <trkpt lat="48.86863" lon="2.36905">
        <ele>46.79999923706</ele>
        <time>2016-01-25T19:34:32Z</time>
      </trkpt>
      <trkpt lat="48.86862" lon="2.3692">
        <ele>47.20000076294</ele>
        <time>2016-01-25T19:34:34Z</time>
      </trkpt>
      <trkpt lat="48.86855" lon="2.36951">
        <ele>48.400001525879</ele>
        <time>2016-01-25T19:34:39Z</time>
      </trkpt>
      <trkpt lat="48.86851" lon="2.36966">
        <ele>49</ele>
        <time>2016-01-25T19:34:42Z</time>
      </trkpt>
      <trkpt lat="48.86848" lon="2.36999">
        <ele>50</ele>
        <time>2016-01-25T19:34:47Z</time>
      </trkpt>
      <trkpt lat="48.86844" lon="2.37017">
        <ele>50.400001525879</ele>
        <time>2016-01-25T19:34:50Z</time>
      </trkpt>
      <trkpt lat="48.86841" lon="2.37048">
        <ele>51</ele>
        <time>2016-01-25T19:34:55Z</time>
      </trkpt>
      <trkpt lat="48.86841" lon="2.37079">
        <ele>51.20000076294</ele>
        <time>2016-01-25T19:35:00Z</time>
      </trkpt>
      <trkpt lat="48.86835" lon="2.37107">
        <ele>51</ele>
        <time>2016-01-25T19:35:05Z</time>
      </trkpt>
      <trkpt lat="48.86831" lon="2.3712">
        <ele>51</ele>
        <time>2016-01-25T19:35:08Z</time>
      </trkpt>
      <trkpt lat="48.86827" lon="2.37135">
        <ele>50.79999923706</ele>
        <time>2016-01-25T19:35:11Z</time>
      </trkpt>
      <trkpt lat="48.86819" lon="2.37163">
        <ele>50.400001525879</ele>
        <time>2016-01-25T19:35:16Z</time>
      </trkpt>
      <trkpt lat="48.86815" lon="2.37191">
        <ele>50.599998474121</ele>
        <time>2016-01-25T19:35:23Z</time>
      </trkpt>
      <trkpt lat="48.86819" lon="2.372">
        <ele>51.20000076294</ele>
        <time>2016-01-25T19:35:26Z</time>
      </trkpt>
      <trkpt lat="48.86823" lon="2.37208">
        <ele>51.599998474121</ele>
        <time>2016-01-25T19:35:31Z</time>
      </trkpt>
      <trkpt lat="48.86824" lon="2.37209">
        <ele>51.79999923706</ele>
        <time>2016-01-25T19:35:32Z</time>
      </trkpt>
      <trkpt lat="48.86821" lon="2.37219">
        <ele>52</ele>
        <time>2016-01-25T19:35:41Z</time>
      </trkpt>
      <trkpt lat="48.86808" lon="2.3724">
        <ele>52.400001525879</ele>
        <time>2016-01-25T19:35:49Z</time>
      </trkpt>
      <trkpt lat="48.86807" lon="2.37248">
        <ele>52.599998474121</ele>
        <time>2016-01-25T19:35:52Z</time>
      </trkpt>
      <trkpt lat="48.86807" lon="2.37265">
        <ele>52.400001525879</ele>
        <time>2016-01-25T19:35:56Z</time>
      </trkpt>
      <trkpt lat="48.86812" lon="2.37292">
        <ele>52.599998474121</ele>
        <time>2016-01-25T19:36:02Z</time>
      </trkpt>
      <trkpt lat="48.86817" lon="2.37322">
        <ele>53.20000076294</ele>
        <time>2016-01-25T19:36:08Z</time>
      </trkpt>
      <trkpt lat="48.86824" lon="2.37348">
        <ele>53.400001525879</ele>
        <time>2016-01-25T19:36:13Z</time>
      </trkpt>
      <trkpt lat="48.86835" lon="2.37373">
        <ele>53.20000076294</ele>
        <time>2016-01-25T19:36:18Z</time>
      </trkpt>
      <trkpt lat="48.86841" lon="2.37402">
        <ele>53</ele>
        <time>2016-01-25T19:36:23Z</time>
      </trkpt>
      <trkpt lat="48.86843" lon="2.37432">
        <ele>52.599998474121</ele>
        <time>2016-01-25T19:36:28Z</time>
      </trkpt>
      <trkpt lat="48.86851" lon="2.37457">
        <ele>52.79999923706</ele>
        <time>2016-01-25T19:36:33Z</time>
      </trkpt>
      <trkpt lat="48.86857" lon="2.37487">
        <ele>53</ele>
        <time>2016-01-25T19:36:38Z</time>
      </trkpt>
      <trkpt lat="48.86864" lon="2.37514">
        <ele>52.79999923706</ele>
        <time>2016-01-25T19:36:42Z</time>
      </trkpt>
      <trkpt lat="48.86872" lon="2.37541">
        <ele>52.400001525879</ele>
        <time>2016-01-25T19:36:46Z</time>
      </trkpt>
      <trkpt lat="48.86877" lon="2.37573">
        <ele>51.79999923706</ele>
        <time>2016-01-25T19:36:50Z</time>
      </trkpt>
      <trkpt lat="48.86883" lon="2.37596">
        <ele>51.79999923706</ele>
        <time>2016-01-25T19:36:53Z</time>
      </trkpt>
      <trkpt lat="48.86893" lon="2.37625">
        <ele>52.20000076294</ele>
        <time>2016-01-25T19:36:57Z</time>
      </trkpt>
      <trkpt lat="48.86899" lon="2.37645">
        <ele>52.20000076294</ele>
        <time>2016-01-25T19:37:00Z</time>
      </trkpt>
      <trkpt lat="48.86908" lon="2.37673">
        <ele>52.599998474121</ele>
        <time>2016-01-25T19:37:06Z</time>
      </trkpt>
      <trkpt lat="48.8691" lon="2.37683">
        <ele>53</ele>
        <time>2016-01-25T19:37:08Z</time>
      </trkpt>
      <trkpt lat="48.8692" lon="2.37712">
        <ele>54.20000076294</ele>
        <time>2016-01-25T19:37:14Z</time>
      </trkpt>
      <trkpt lat="48.86927" lon="2.37738">
        <ele>55.20000076294</ele>
        <time>2016-01-25T19:37:19Z</time>
      </trkpt>
      <trkpt lat="48.86936" lon="2.37762">
        <ele>56</ele>
        <time>2016-01-25T19:37:25Z</time>
      </trkpt>
      <trkpt lat="48.86947" lon="2.37787">
        <ele>56.400001525879</ele>
        <time>2016-01-25T19:37:31Z</time>
      </trkpt>
      <trkpt lat="48.86956" lon="2.37817">
        <ele>56.79999923706</ele>
        <time>2016-01-25T19:37:37Z</time>
      </trkpt>
      <trkpt lat="48.86966" lon="2.37839">
        <ele>57</ele>
        <time>2016-01-25T19:37:44Z</time>
      </trkpt>
      <trkpt lat="48.86979" lon="2.3786">
        <ele>57</ele>
        <time>2016-01-25T19:37:51Z</time>
      </trkpt>
      <trkpt lat="48.86989" lon="2.37879">
        <ele>57</ele>
        <time>2016-01-25T19:38:00Z</time>
      </trkpt>
      <trkpt lat="48.87007" lon="2.37893">
        <ele>57</ele>
        <time>2016-01-25T19:38:11Z</time>
      </trkpt>
      <trkpt lat="48.87009" lon="2.37897">
        <ele>57</ele>
        <time>2016-01-25T19:38:13Z</time>
      </trkpt>
      <trkpt lat="48.87019" lon="2.37923">
        <ele>57.400001525879</ele>
        <time>2016-01-25T19:38:44Z</time>
      </trkpt>
      <trkpt lat="48.87026" lon="2.37939">
        <ele>58</ele>
        <time>2016-01-25T19:38:51Z</time>
      </trkpt>
      <trkpt lat="48.87029" lon="2.37953">
        <ele>58.599998474121</ele>
        <time>2016-01-25T19:38:56Z</time>
      </trkpt>
      <trkpt lat="48.87035" lon="2.3798">
        <ele>59.599998474121</ele>
        <time>2016-01-25T19:39:05Z</time>
      </trkpt>
      <trkpt lat="48.87042" lon="2.38007">
        <ele>60.599998474121</ele>
        <time>2016-01-25T19:39:12Z</time>
      </trkpt>
      <trkpt lat="48.87054" lon="2.38033">
        <ele>61.20000076294</ele>
        <time>2016-01-25T19:39:19Z</time>
      </trkpt>
      <trkpt lat="48.87064" lon="2.38058">
        <ele>62.20000076294</ele>
        <time>2016-01-25T19:39:25Z</time>
      </trkpt>
      <trkpt lat="48.87074" lon="2.38084">
        <ele>63</ele>
        <time>2016-01-25T19:39:31Z</time>
      </trkpt>
      <trkpt lat="48.87084" lon="2.38109">
        <ele>63.400001525879</ele>
        <time>2016-01-25T19:39:37Z</time>
      </trkpt>
      <trkpt lat="48.87096" lon="2.38131">
        <ele>63.599998474121</ele>
        <time>2016-01-25T19:39:43Z</time>
      </trkpt>
      <trkpt lat="48.871" lon="2.38144">
        <ele>63.79999923706</ele>
        <time>2016-01-25T19:39:49Z</time>
      </trkpt>
      <trkpt lat="48.871" lon="2.38154">
        <ele>63.79999923706</ele>
        <time>2016-01-25T19:39:53Z</time>
      </trkpt>
      <trkpt lat="48.87103" lon="2.38183">
        <ele>64.599998474121</ele>
        <time>2016-01-25T19:40:01Z</time>
      </trkpt>
      <trkpt lat="48.87108" lon="2.38203">
        <ele>65.400001525879</ele>
        <time>2016-01-25T19:40:10Z</time>
      </trkpt>
      <trkpt lat="48.87114" lon="2.38229">
        <ele>66.599998474121</ele>
        <time>2016-01-25T19:40:23Z</time>
      </trkpt>
      <trkpt lat="48.87119" lon="2.38238">
        <ele>67.199996948242</ele>
        <time>2016-01-25T19:40:30Z</time>
      </trkpt>
      <trkpt lat="48.87124" lon="2.38249">
        <ele>68</ele>
        <time>2016-01-25T19:40:37Z</time>
      </trkpt>
      <trkpt lat="48.87127" lon="2.38256">
        <ele>68.599998474121</ele>
        <time>2016-01-25T19:40:41Z</time>
      </trkpt>
      <trkpt lat="48.87129" lon="2.3826">
        <ele>69</ele>
        <time>2016-01-25T19:40:45Z</time>
      </trkpt>
      <trkpt lat="48.87142" lon="2.38277">
        <ele>71.199996948242</ele>
        <time>2016-01-25T19:41:08Z</time>
      </trkpt>
      <trkpt lat="48.87144" lon="2.38288">
        <ele>72</ele>
        <time>2016-01-25T19:41:19Z</time>
      </trkpt>
      <trkpt lat="48.87127" lon="2.38297">
        <ele>69.800003051758</ele>
        <time>2016-01-25T19:41:26Z</time>
      </trkpt>
      <trkpt lat="48.87124" lon="2.38303">
        <ele>69.400001525879</ele>
        <time>2016-01-25T19:41:28Z</time>
      </trkpt>
      <trkpt lat="48.87123" lon="2.38306">
        <ele>69.199996948242</ele>
        <time>2016-01-25T19:41:29Z</time>
      </trkpt>
      <trkpt lat="48.87121" lon="2.38318">
        <ele>69</ele>
        <time>2016-01-25T19:41:34Z</time>
      </trkpt>
      <trkpt lat="48.87108" lon="2.3833">
        <ele>67.199996948242</ele>
        <time>2016-01-25T19:41:51Z</time>
      </trkpt>
      <trkpt lat="48.87094" lon="2.38347">
        <ele>67.199996948242</ele>
        <time>2016-01-25T19:41:59Z</time>
      </trkpt>
      <trkpt lat="48.8708" lon="2.38365">
        <ele>67.599998474121</ele>
        <time>2016-01-25T19:42:05Z</time>
      </trkpt>
      <trkpt lat="48.87069" lon="2.38383">
        <ele>68</ele>
        <time>2016-01-25T19:42:13Z</time>
      </trkpt>
      <trkpt lat="48.87061" lon="2.3839">
        <ele>67.400001525879</ele>
        <time>2016-01-25T19:42:42Z</time>
      </trkpt>
      <trkpt lat="48.87045" lon="2.38371">
        <ele>66</ele>
        <time>2016-01-25T19:42:51Z</time>
      </trkpt>
      <trkpt lat="48.8703" lon="2.38355">
        <ele>64.800003051758</ele>
        <time>2016-01-25T19:42:57Z</time>
      </trkpt>
      <trkpt lat="48.87022" lon="2.38343">
        <ele>64</ele>
        <time>2016-01-25T19:43:02Z</time>
      </trkpt>
      <trkpt lat="48.87018" lon="2.38338">
        <ele>63.79999923706</ele>
        <time>2016-01-25T19:43:05Z</time>
      </trkpt>
      <trkpt lat="48.87016" lon="2.3835">
        <ele>63.79999923706</ele>
        <time>2016-01-25T19:43:11Z</time>
      </trkpt>
      <trkpt lat="48.8702" lon="2.38381">
        <ele>64.400001525879</ele>
        <time>2016-01-25T19:43:18Z</time>
      </trkpt>
      <trkpt lat="48.87025" lon="2.38408">
        <ele>65</ele>
        <time>2016-01-25T19:43:25Z</time>
      </trkpt>
      <trkpt lat="48.87034" lon="2.38432">
        <ele>66.199996948242</ele>
        <time>2016-01-25T19:43:36Z</time>
      </trkpt>
      <trkpt lat="48.87034" lon="2.38438">
        <ele>66.199996948242</ele>
        <time>2016-01-25T19:43:39Z</time>
      </trkpt>
      <trkpt lat="48.87034" lon="2.38446">
        <ele>66</ele>
        <time>2016-01-25T19:43:42Z</time>
      </trkpt>
      <trkpt lat="48.87038" lon="2.38457">
        <ele>66.400001525879</ele>
        <time>2016-01-25T19:43:46Z</time>
      </trkpt>
      <trkpt lat="48.8704" lon="2.38486">
        <ele>66</ele>
        <time>2016-01-25T19:43:54Z</time>
      </trkpt>
      <trkpt lat="48.87038" lon="2.38516">
        <ele>66</ele>
        <time>2016-01-25T19:44:03Z</time>
      </trkpt>
      <trkpt lat="48.87032" lon="2.38532">
        <ele>64.599998474121</ele>
        <time>2016-01-25T19:44:12Z</time>
      </trkpt>
      <trkpt lat="48.87033" lon="2.38544">
        <ele>65</ele>
        <time>2016-01-25T19:44:16Z</time>
      </trkpt>
      <trkpt lat="48.87036" lon="2.38574">
        <ele>65.599998474121</ele>
        <time>2016-01-25T19:44:23Z</time>
      </trkpt>
      <trkpt lat="48.87037" lon="2.38604">
        <ele>66.199996948242</ele>
        <time>2016-01-25T19:44:32Z</time>
      </trkpt>
      <trkpt lat="48.87034" lon="2.38632">
        <ele>66.800003051758</ele>
        <time>2016-01-25T19:44:40Z</time>
      </trkpt>
      <trkpt lat="48.87035" lon="2.38634">
        <ele>67.199996948242</ele>
        <time>2016-01-25T19:44:41Z</time>
      </trkpt>
      <trkpt lat="48.87037" lon="2.38647">
        <ele>68</ele>
        <time>2016-01-25T19:44:46Z</time>
      </trkpt>
      <trkpt lat="48.87038" lon="2.38675">
        <ele>68.800003051758</ele>
        <time>2016-01-25T19:44:56Z</time>
      </trkpt>
      <trkpt lat="48.87037" lon="2.38677">
        <ele>68.599998474121</ele>
        <time>2016-01-25T19:44:57Z</time>
      </trkpt>
      <trkpt lat="48.87038" lon="2.38685">
        <ele>69</ele>
        <time>2016-01-25T19:45:01Z</time>
      </trkpt>
      <trkpt lat="48.87052" lon="2.38705">
        <ele>72</ele>
        <time>2016-01-25T19:45:10Z</time>
      </trkpt>
      <trkpt lat="48.87056" lon="2.38732">
        <ele>73.599998474121</ele>
        <time>2016-01-25T19:45:17Z</time>
      </trkpt>
      <trkpt lat="48.8706" lon="2.38762">
        <ele>74.599998474121</ele>
        <time>2016-01-25T19:45:25Z</time>
      </trkpt>
      <trkpt lat="48.87061" lon="2.3879">
        <ele>74.599998474121</ele>
        <time>2016-01-25T19:45:33Z</time>
      </trkpt>
      <trkpt lat="48.87061" lon="2.38798">
        <ele>75</ele>
        <time>2016-01-25T19:45:36Z</time>
      </trkpt>
      <trkpt lat="48.87057" lon="2.38806">
        <ele>74.800003051758</ele>
        <time>2016-01-25T19:45:43Z</time>
      </trkpt>
      <trkpt lat="48.87075" lon="2.38815">
        <ele>77</ele>
        <time>2016-01-25T19:46:04Z</time>
      </trkpt>
      <trkpt lat="48.8709" lon="2.38832">
        <ele>79.199996948242</ele>
        <time>2016-01-25T19:46:12Z</time>
      </trkpt>
      <trkpt lat="48.87103" lon="2.38851">
        <ele>80.400001525879</ele>
        <time>2016-01-25T19:46:20Z</time>
      </trkpt>
      <trkpt lat="48.87118" lon="2.38869">
        <ele>81.199996948242</ele>
        <time>2016-01-25T19:46:27Z</time>
      </trkpt>
      <trkpt lat="48.87134" lon="2.38884">
        <ele>82</ele>
        <time>2016-01-25T19:46:34Z</time>
      </trkpt>
      <trkpt lat="48.87151" lon="2.38901">
        <ele>82.800003051758</ele>
        <time>2016-01-25T19:46:40Z</time>
      </trkpt>
      <trkpt lat="48.87168" lon="2.38911">
        <ele>83.800003051758</ele>
        <time>2016-01-25T19:46:50Z</time>
      </trkpt>
      <trkpt lat="48.87185" lon="2.38927">
        <ele>84.599998474121</ele>
        <time>2016-01-25T19:46:57Z</time>
      </trkpt>
      <trkpt lat="48.87204" lon="2.38926">
        <ele>85.800003051758</ele>
        <time>2016-01-25T19:47:05Z</time>
      </trkpt>
      <trkpt lat="48.87223" lon="2.38924">
        <ele>86.800003051758</ele>
        <time>2016-01-25T19:47:11Z</time>
      </trkpt>
      <trkpt lat="48.87243" lon="2.38926">
        <ele>88.199996948242</ele>
        <time>2016-01-25T19:47:22Z</time>
      </trkpt>
      <trkpt lat="48.87264" lon="2.38934">
        <ele>89.199996948242</ele>
        <time>2016-01-25T19:47:30Z</time>
      </trkpt>
      <trkpt lat="48.87271" lon="2.38936">
        <ele>89.599998474121</ele>
        <time>2016-01-25T19:47:34Z</time>
      </trkpt>
      <trkpt lat="48.8729" lon="2.38927">
        <ele>91</ele>
        <time>2016-01-25T19:48:10Z</time>
      </trkpt>
      <trkpt lat="48.87297" lon="2.38951">
        <ele>91.400001525879</ele>
        <time>2016-01-25T19:48:25Z</time>
      </trkpt>
      <trkpt lat="48.87305" lon="2.38962">
        <ele>91.800003051758</ele>
        <time>2016-01-25T19:48:34Z</time>
      </trkpt>
      <trkpt lat="48.87319" lon="2.38985">
        <ele>92.400001525879</ele>
        <time>2016-01-25T19:48:56Z</time>
      </trkpt>
      <trkpt lat="48.87319" lon="2.38989">
        <ele>92.400001525879</ele>
        <time>2016-01-25T19:48:59Z</time>
      </trkpt>
      <trkpt lat="48.87334" lon="2.39005">
        <ele>93.599998474121</ele>
        <time>2016-01-25T19:49:26Z</time>
      </trkpt>
      <trkpt lat="48.87347" lon="2.39012">
        <ele>94.800003051758</ele>
        <time>2016-01-25T19:49:39Z</time>
      </trkpt>
      <trkpt lat="48.87361" lon="2.39032">
        <ele>96.199996948242</ele>
        <time>2016-01-25T19:49:45Z</time>
      </trkpt>
      <trkpt lat="48.87365" lon="2.3904">
        <ele>96.599998474121</ele>
        <time>2016-01-25T19:49:47Z</time>
      </trkpt>
      <trkpt lat="48.87379" lon="2.39056">
        <ele>97.400001525879</ele>
        <time>2016-01-25T19:49:53Z</time>
      </trkpt>
      <trkpt lat="48.87393" lon="2.39077">
        <ele>98.199996948242</ele>
        <time>2016-01-25T19:50:00Z</time>
      </trkpt>
      <trkpt lat="48.87409" lon="2.39093">
        <ele>99.199996948242</ele>
        <time>2016-01-25T19:50:06Z</time>
      </trkpt>
      <trkpt lat="48.87426" lon="2.39109">
        <ele>100.19999694824</ele>
        <time>2016-01-25T19:50:14Z</time>
      </trkpt>
      <trkpt lat="48.87442" lon="2.39124">
        <ele>101.19999694824</ele>
        <time>2016-01-25T19:50:21Z</time>
      </trkpt>
      <trkpt lat="48.87458" lon="2.39138">
        <ele>102.59999847412</ele>
        <time>2016-01-25T19:50:27Z</time>
      </trkpt>
      <trkpt lat="48.87473" lon="2.39154">
        <ele>104.19999694824</ele>
        <time>2016-01-25T19:50:31Z</time>
      </trkpt>
      <trkpt lat="48.87491" lon="2.3917">
        <ele>105.59999847412</ele>
        <time>2016-01-25T19:50:36Z</time>
      </trkpt>
      <trkpt lat="48.87498" lon="2.39181">
        <ele>106.40000152588</ele>
        <time>2016-01-25T19:50:43Z</time>
      </trkpt>
      <trkpt lat="48.87496" lon="2.39185">
        <ele>106.40000152588</ele>
        <time>2016-01-25T19:50:50Z</time>
      </trkpt>
      <trkpt lat="48.87521" lon="2.39224">
        <ele>109</ele>
        <time>2016-01-25T19:51:18Z</time>
      </trkpt>
      <trkpt lat="48.87531" lon="2.39221">
        <ele>109.19999694824</ele>
        <time>2016-01-25T19:51:31Z</time>
      </trkpt>
      <trkpt lat="48.87549" lon="2.39233">
        <ele>109.80000305176</ele>
        <time>2016-01-25T19:52:13Z</time>
      </trkpt>
      <trkpt lat="48.87546" lon="2.39262">
        <ele>111.19999694824</ele>
        <time>2016-01-25T19:52:23Z</time>
      </trkpt>
      <trkpt lat="48.87541" lon="2.3929">
        <ele>112.40000152588</ele>
        <time>2016-01-25T19:52:32Z</time>
      </trkpt>
      <trkpt lat="48.87534" lon="2.39317">
        <ele>113</ele>
        <time>2016-01-25T19:52:40Z</time>
      </trkpt>
      <trkpt lat="48.87534" lon="2.39346">
        <ele>114.19999694824</ele>
        <time>2016-01-25T19:52:46Z</time>
      </trkpt>
      <trkpt lat="48.87534" lon="2.39377">
        <ele>114.80000305176</ele>
        <time>2016-01-25T19:52:52Z</time>
      </trkpt>
      <trkpt lat="48.87535" lon="2.39408">
        <ele>115.59999847412</ele>
        <time>2016-01-25T19:52:58Z</time>
      </trkpt>
      <trkpt lat="48.87536" lon="2.39438">
        <ele>115.80000305176</ele>
        <time>2016-01-25T19:53:05Z</time>
      </trkpt>
      <trkpt lat="48.87535" lon="2.3947">
        <ele>115.80000305176</ele>
        <time>2016-01-25T19:53:11Z</time>
      </trkpt>
      <trkpt lat="48.87535" lon="2.39498">
        <ele>115.80000305176</ele>
        <time>2016-01-25T19:53:17Z</time>
      </trkpt>
      <trkpt lat="48.87533" lon="2.39527">
        <ele>115.80000305176</ele>
        <time>2016-01-25T19:53:26Z</time>
      </trkpt>
      <trkpt lat="48.87536" lon="2.39554">
        <ele>116.40000152588</ele>
        <time>2016-01-25T19:53:35Z</time>
      </trkpt>
      <trkpt lat="48.87541" lon="2.39582">
        <ele>117.19999694824</ele>
        <time>2016-01-25T19:53:43Z</time>
      </trkpt>
      <trkpt lat="48.87545" lon="2.3961">
        <ele>118.80000305176</ele>
        <time>2016-01-25T19:53:52Z</time>
      </trkpt>
      <trkpt lat="48.87549" lon="2.3964">
        <ele>120.59999847412</ele>
        <time>2016-01-25T19:54:00Z</time>
      </trkpt>
      <trkpt lat="48.87552" lon="2.39667">
        <ele>122</ele>
        <time>2016-01-25T19:54:08Z</time>
      </trkpt>
      <trkpt lat="48.87551" lon="2.39697">
        <ele>123.19999694824</ele>
        <time>2016-01-25T19:54:17Z</time>
      </trkpt>
      <trkpt lat="48.87553" lon="2.39726">
        <ele>125</ele>
        <time>2016-01-25T19:54:24Z</time>
      </trkpt>
      <trkpt lat="48.87555" lon="2.39754">
        <ele>126.19999694824</ele>
        <time>2016-01-25T19:54:32Z</time>
      </trkpt>
      <trkpt lat="48.87557" lon="2.39783">
        <ele>126.19999694824</ele>
        <time>2016-01-25T19:54:42Z</time>
      </trkpt>
      <trkpt lat="48.87561" lon="2.39798">
        <ele>126.59999847412</ele>
        <time>2016-01-25T19:54:51Z</time>
      </trkpt>
      <trkpt lat="48.87562" lon="2.39802">
        <ele>126.59999847412</ele>
        <time>2016-01-25T19:54:54Z</time>
      </trkpt>
      <trkpt lat="48.87556" lon="2.39824">
        <ele>127.80000305176</ele>
        <time>2016-01-25T19:55:31Z</time>
      </trkpt>
      <trkpt lat="48.87559" lon="2.39853">
        <ele>128.60000610352</ele>
        <time>2016-01-25T19:55:38Z</time>
      </trkpt>
      <trkpt lat="48.87563" lon="2.39873">
        <ele>129</ele>
        <time>2016-01-25T19:55:44Z</time>
      </trkpt>
      <trkpt lat="48.87565" lon="2.39901">
        <ele>129</ele>
        <time>2016-01-25T19:55:54Z</time>
      </trkpt>
      <trkpt lat="48.87571" lon="2.39929">
        <ele>129.39999389648</ele>
        <time>2016-01-25T19:56:03Z</time>
      </trkpt>
      <trkpt lat="48.87575" lon="2.39959">
        <ele>130.39999389648</ele>
        <time>2016-01-25T19:56:10Z</time>
      </trkpt>
      <trkpt lat="48.87578" lon="2.39987">
        <ele>130.19999694824</ele>
        <time>2016-01-25T19:56:16Z</time>
      </trkpt>
      <trkpt lat="48.87583" lon="2.40017">
        <ele>129.19999694824</ele>
        <time>2016-01-25T19:56:23Z</time>
      </trkpt>
      <trkpt lat="48.87593" lon="2.40045">
        <ele>128.19999694824</ele>
        <time>2016-01-25T19:56:35Z</time>
      </trkpt>
      <trkpt lat="48.87596" lon="2.40076">
        <ele>127.19999694824</ele>
        <time>2016-01-25T19:56:41Z</time>
      </trkpt>
      <trkpt lat="48.876" lon="2.40104">
        <ele>126.19999694824</ele>
        <time>2016-01-25T19:56:46Z</time>
      </trkpt>
      <trkpt lat="48.87604" lon="2.40113">
        <ele>125.80000305176</ele>
        <time>2016-01-25T19:56:48Z</time>
      </trkpt>
      <trkpt lat="48.8761" lon="2.40141">
        <ele>124.59999847412</ele>
        <time>2016-01-25T19:56:53Z</time>
      </trkpt>
      <trkpt lat="48.87614" lon="2.40174">
        <ele>123.40000152588</ele>
        <time>2016-01-25T19:56:58Z</time>
      </trkpt>
      <trkpt lat="48.87618" lon="2.40204">
        <ele>122.40000152588</ele>
        <time>2016-01-25T19:57:03Z</time>
      </trkpt>
      <trkpt lat="48.87618" lon="2.40238">
        <ele>121</ele>
        <time>2016-01-25T19:57:08Z</time>
      </trkpt>
      <trkpt lat="48.8762" lon="2.40271">
        <ele>121.40000152588</ele>
        <time>2016-01-25T19:57:13Z</time>
      </trkpt>
      <trkpt lat="48.87625" lon="2.40297">
        <ele>122.40000152588</ele>
        <time>2016-01-25T19:57:19Z</time>
      </trkpt>
      <trkpt lat="48.87633" lon="2.40323">
        <ele>123.40000152588</ele>
        <time>2016-01-25T19:57:27Z</time>
      </trkpt>
      <trkpt lat="48.87642" lon="2.40349">
        <ele>123.59999847412</ele>
        <time>2016-01-25T19:57:35Z</time>
      </trkpt>
      <trkpt lat="48.87654" lon="2.40374">
        <ele>123.80000305176</ele>
        <time>2016-01-25T19:57:42Z</time>
      </trkpt>
      <trkpt lat="48.87663" lon="2.40401">
        <ele>123.59999847412</ele>
        <time>2016-01-25T19:57:48Z</time>
      </trkpt>
      <trkpt lat="48.87673" lon="2.4043">
        <ele>123.19999694824</ele>
        <time>2016-01-25T19:57:54Z</time>
      </trkpt>
      <trkpt lat="48.87682" lon="2.40457">
        <ele>122.59999847412</ele>
        <time>2016-01-25T19:58:00Z</time>
      </trkpt>
      <trkpt lat="48.87692" lon="2.4048">
        <ele>122</ele>
        <time>2016-01-25T19:58:06Z</time>
      </trkpt>
      <trkpt lat="48.87698" lon="2.40512">
        <ele>121</ele>
        <time>2016-01-25T19:58:13Z</time>
      </trkpt>
      <trkpt lat="48.87704" lon="2.40543">
        <ele>119.19999694824</ele>
        <time>2016-01-25T19:58:19Z</time>
      </trkpt>
      <trkpt lat="48.87711" lon="2.40571">
        <ele>117.40000152588</ele>
        <time>2016-01-25T19:58:25Z</time>
      </trkpt>
      <trkpt lat="48.87714" lon="2.406">
        <ele>117</ele>
        <time>2016-01-25T19:58:32Z</time>
      </trkpt>
      <trkpt lat="48.8771" lon="2.40623">
        <ele>117.59999847412</ele>
        <time>2016-01-25T19:58:40Z</time>
      </trkpt>
      <trkpt lat="48.87706" lon="2.40626">
        <ele>117.80000305176</ele>
        <time>2016-01-25T19:58:44Z</time>
      </trkpt>
      <trkpt lat="48.87705" lon="2.40632">
        <ele>117.80000305176</ele>
        <time>2016-01-25T19:58:48Z</time>
      </trkpt>
      <trkpt lat="48.87704" lon="2.40633">
        <ele>118</ele>
        <time>2016-01-25T19:58:50Z</time>
      </trkpt>
      <trkpt lat="48.87703" lon="2.40656">
        <ele>118.19999694824</ele>
        <time>2016-01-25T19:59:29Z</time>
      </trkpt>
      <trkpt lat="48.87713" lon="2.4068">
        <ele>117.59999847412</ele>
        <time>2016-01-25T19:59:39Z</time>
      </trkpt>
      <trkpt lat="48.87725" lon="2.40701">
        <ele>116.80000305176</ele>
        <time>2016-01-25T19:59:45Z</time>
      </trkpt>
      <trkpt lat="48.8774" lon="2.40724">
        <ele>116</ele>
        <time>2016-01-25T19:59:50Z</time>
      </trkpt>
      <trkpt lat="48.87753" lon="2.40749">
        <ele>115.40000152588</ele>
        <time>2016-01-25T19:59:56Z</time>
      </trkpt>
      <trkpt lat="48.87761" lon="2.40774">
        <ele>114.59999847412</ele>
        <time>2016-01-25T20:00:01Z</time>
      </trkpt>
      <trkpt lat="48.8777" lon="2.40799">
        <ele>113.59999847412</ele>
        <time>2016-01-25T20:00:06Z</time>
      </trkpt>
      <trkpt lat="48.87774" lon="2.40825">
        <ele>113</ele>
        <time>2016-01-25T20:00:12Z</time>
      </trkpt>
      <trkpt lat="48.87774" lon="2.40858">
        <ele>112.59999847412</ele>
        <time>2016-01-25T20:00:18Z</time>
      </trkpt>
      <trkpt lat="48.8778" lon="2.40887">
        <ele>112.19999694824</ele>
        <time>2016-01-25T20:00:23Z</time>
      </trkpt>
      <trkpt lat="48.87786" lon="2.40915">
        <ele>111.59999847412</ele>
        <time>2016-01-25T20:00:28Z</time>
      </trkpt>
      <trkpt lat="48.87795" lon="2.40942">
        <ele>112</ele>
        <time>2016-01-25T20:00:33Z</time>
      </trkpt>
      <trkpt lat="48.8781" lon="2.40962">
        <ele>111.80000305176</ele>
        <time>2016-01-25T20:00:40Z</time>
      </trkpt>
      <trkpt lat="48.87823" lon="2.40983">
        <ele>111.80000305176</ele>
        <time>2016-01-25T20:00:45Z</time>
      </trkpt>
      <trkpt lat="48.87834" lon="2.41005">
        <ele>112.19999694824</ele>
        <time>2016-01-25T20:00:49Z</time>
      </trkpt>
      <trkpt lat="48.87844" lon="2.41033">
        <ele>114</ele>
        <time>2016-01-25T20:00:54Z</time>
      </trkpt>
      <trkpt lat="48.87853" lon="2.4106">
        <ele>115.59999847412</ele>
        <time>2016-01-25T20:00:59Z</time>
      </trkpt>
      <trkpt lat="48.87861" lon="2.41087">
        <ele>117</ele>
        <time>2016-01-25T20:01:05Z</time>
      </trkpt>
      <trkpt lat="48.87867" lon="2.41117">
        <ele>119.80000305176</ele>
        <time>2016-01-25T20:01:11Z</time>
      </trkpt>
      <trkpt lat="48.87879" lon="2.41142">
        <ele>121.19999694824</ele>
        <time>2016-01-25T20:01:16Z</time>
      </trkpt>
      <trkpt lat="48.87887" lon="2.4117">
        <ele>123</ele>
        <time>2016-01-25T20:01:23Z</time>
      </trkpt>
      <trkpt lat="48.8789" lon="2.41201">
        <ele>122</ele>
        <time>2016-01-25T20:01:30Z</time>
      </trkpt>
      <trkpt lat="48.87892" lon="2.4123">
        <ele>120.59999847412</ele>
        <time>2016-01-25T20:01:35Z</time>
      </trkpt>
      <trkpt lat="48.87896" lon="2.41258">
        <ele>119.19999694824</ele>
        <time>2016-01-25T20:01:40Z</time>
      </trkpt>
      <trkpt lat="48.87902" lon="2.41285">
        <ele>119</ele>
        <time>2016-01-25T20:01:46Z</time>
      </trkpt>
      <trkpt lat="48.87908" lon="2.41304">
        <ele>118.40000152588</ele>
        <time>2016-01-25T20:01:55Z</time>
      </trkpt>
      <trkpt lat="48.87913" lon="2.41312">
        <ele>117.80000305176</ele>
        <time>2016-01-25T20:01:59Z</time>
      </trkpt>
      <trkpt lat="48.87919" lon="2.41341">
        <ele>117</ele>
        <time>2016-01-25T20:02:06Z</time>
      </trkpt>
      <trkpt lat="48.87924" lon="2.41368">
        <ele>117.40000152588</ele>
        <time>2016-01-25T20:02:11Z</time>
      </trkpt>
      <trkpt lat="48.87931" lon="2.41398">
        <ele>118</ele>
        <time>2016-01-25T20:02:16Z</time>
      </trkpt>
      <trkpt lat="48.8794" lon="2.41426">
        <ele>118.40000152588</ele>
        <time>2016-01-25T20:02:21Z</time>
      </trkpt>
      <trkpt lat="48.87948" lon="2.41454">
        <ele>119.19999694824</ele>
        <time>2016-01-25T20:02:26Z</time>
      </trkpt>
      <trkpt lat="48.87952" lon="2.41484">
        <ele>120.19999694824</ele>
        <time>2016-01-25T20:02:32Z</time>
      </trkpt>
      <trkpt lat="48.87961" lon="2.4151">
        <ele>121</ele>
        <time>2016-01-25T20:02:37Z</time>
      </trkpt>
      <trkpt lat="48.8797" lon="2.41534">
        <ele>121.40000152588</ele>
        <time>2016-01-25T20:02:41Z</time>
      </trkpt>
      <trkpt lat="48.87977" lon="2.4156">
        <ele>122</ele>
        <time>2016-01-25T20:02:46Z</time>
      </trkpt>
      <trkpt lat="48.87984" lon="2.4159">
        <ele>122.80000305176</ele>
        <time>2016-01-25T20:02:52Z</time>
      </trkpt>
      <trkpt lat="48.87991" lon="2.41616">
        <ele>123.59999847412</ele>
        <time>2016-01-25T20:02:58Z</time>
      </trkpt>
      <trkpt lat="48.88" lon="2.41642">
        <ele>124.40000152588</ele>
        <time>2016-01-25T20:03:06Z</time>
      </trkpt>
      <trkpt lat="48.88008" lon="2.41669">
        <ele>124.59999847412</ele>
        <time>2016-01-25T20:03:14Z</time>
      </trkpt>
      <trkpt lat="48.88015" lon="2.41696">
        <ele>124.40000152588</ele>
        <time>2016-01-25T20:03:20Z</time>
      </trkpt>
      <trkpt lat="48.88025" lon="2.41722">
        <ele>124.40000152588</ele>
        <time>2016-01-25T20:03:25Z</time>
      </trkpt>
      <trkpt lat="48.88035" lon="2.41749">
        <ele>124.19999694824</ele>
        <time>2016-01-25T20:03:30Z</time>
      </trkpt>
      <trkpt lat="48.88041" lon="2.41781">
        <ele>124.40000152588</ele>
        <time>2016-01-25T20:03:36Z</time>
      </trkpt>
      <trkpt lat="48.8805" lon="2.4181">
        <ele>124.59999847412</ele>
        <time>2016-01-25T20:03:42Z</time>
      </trkpt>
      <trkpt lat="48.8806" lon="2.4184">
        <ele>125</ele>
        <time>2016-01-25T20:03:47Z</time>
      </trkpt>
      <trkpt lat="48.8807" lon="2.41869">
        <ele>125.59999847412</ele>
        <time>2016-01-25T20:03:52Z</time>
      </trkpt>
      <trkpt lat="48.8808" lon="2.41896">
        <ele>126</ele>
        <time>2016-01-25T20:03:57Z</time>
      </trkpt>
      <trkpt lat="48.88089" lon="2.41921">
        <ele>126.40000152588</ele>
        <time>2016-01-25T20:04:02Z</time>
      </trkpt>
      <trkpt lat="48.88102" lon="2.41948">
        <ele>127.19999694824</ele>
        <time>2016-01-25T20:04:07Z</time>
      </trkpt>
      <trkpt lat="48.8811" lon="2.41974">
        <ele>127.80000305176</ele>
        <time>2016-01-25T20:04:12Z</time>
      </trkpt>
      <trkpt lat="48.88117" lon="2.42004">
        <ele>128</ele>
        <time>2016-01-25T20:04:17Z</time>
      </trkpt>
      <trkpt lat="48.88123" lon="2.42031">
        <ele>127.40000152588</ele>
        <time>2016-01-25T20:04:22Z</time>
      </trkpt>
      <trkpt lat="48.88132" lon="2.4206">
        <ele>127</ele>
        <time>2016-01-25T20:04:27Z</time>
      </trkpt>
      <trkpt lat="48.88143" lon="2.42085">
        <ele>126.59999847412</ele>
        <time>2016-01-25T20:04:31Z</time>
      </trkpt>
      <trkpt lat="48.88151" lon="2.42111">
        <ele>125.80000305176</ele>
        <time>2016-01-25T20:04:35Z</time>
      </trkpt>
      <trkpt lat="48.88158" lon="2.42141">
        <ele>124.80000305176</ele>
        <time>2016-01-25T20:04:40Z</time>
      </trkpt>
      <trkpt lat="48.88157" lon="2.42147">
        <ele>124.59999847412</ele>
        <time>2016-01-25T20:04:41Z</time>
      </trkpt>
      <trkpt lat="48.88159" lon="2.42158">
        <ele>124.19999694824</ele>
        <time>2016-01-25T20:04:43Z</time>
      </trkpt>
      <trkpt lat="48.88167" lon="2.42191">
        <ele>124</ele>
        <time>2016-01-25T20:04:48Z</time>
      </trkpt>
      <trkpt lat="48.88171" lon="2.42219">
        <ele>124</ele>
        <time>2016-01-25T20:04:52Z</time>
      </trkpt>
      <trkpt lat="48.88174" lon="2.42247">
        <ele>123.59999847412</ele>
        <time>2016-01-25T20:04:56Z</time>
      </trkpt>
      <trkpt lat="48.88176" lon="2.42261">
        <ele>123.40000152588</ele>
        <time>2016-01-25T20:04:58Z</time>
      </trkpt>
      <trkpt lat="48.88181" lon="2.42293">
        <ele>122.80000305176</ele>
        <time>2016-01-25T20:05:03Z</time>
      </trkpt>
      <trkpt lat="48.88189" lon="2.42318">
        <ele>122.40000152588</ele>
        <time>2016-01-25T20:05:07Z</time>
      </trkpt>
      <trkpt lat="48.88198" lon="2.42344">
        <ele>122.19999694824</ele>
        <time>2016-01-25T20:05:11Z</time>
      </trkpt>
      <trkpt lat="48.88202" lon="2.4235">
        <ele>122.19999694824</ele>
        <time>2016-01-25T20:05:12Z</time>
      </trkpt>
      <trkpt lat="48.88211" lon="2.42377">
        <ele>122.80000305176</ele>
        <time>2016-01-25T20:05:16Z</time>
      </trkpt>
      <trkpt lat="48.88216" lon="2.42396">
        <ele>123.19999694824</ele>
        <time>2016-01-25T20:05:19Z</time>
      </trkpt>
      <trkpt lat="48.88223" lon="2.42429">
        <ele>123.19999694824</ele>
        <time>2016-01-25T20:05:24Z</time>
      </trkpt>
      <trkpt lat="48.88233" lon="2.42455">
        <ele>122.59999847412</ele>
        <time>2016-01-25T20:05:28Z</time>
      </trkpt>
      <trkpt lat="48.88242" lon="2.42474">
        <ele>122</ele>
        <time>2016-01-25T20:05:31Z</time>
      </trkpt>
      <trkpt lat="48.88249" lon="2.42493">
        <ele>121.59999847412</ele>
        <time>2016-01-25T20:05:34Z</time>
      </trkpt>
      <trkpt lat="48.88257" lon="2.4252">
        <ele>121.40000152588</ele>
        <time>2016-01-25T20:05:38Z</time>
      </trkpt>
      <trkpt lat="48.88267" lon="2.42545">
        <ele>121.19999694824</ele>
        <time>2016-01-25T20:05:42Z</time>
      </trkpt>
      <trkpt lat="48.88278" lon="2.42572">
        <ele>121.40000152588</ele>
        <time>2016-01-25T20:05:46Z</time>
      </trkpt>
      <trkpt lat="48.88288" lon="2.42596">
        <ele>121</ele>
        <time>2016-01-25T20:05:50Z</time>
      </trkpt>
      <trkpt lat="48.88291" lon="2.42602">
        <ele>121</ele>
        <time>2016-01-25T20:05:51Z</time>
      </trkpt>
      <trkpt lat="48.88296" lon="2.42613">
        <ele>121</ele>
        <time>2016-01-25T20:05:53Z</time>
      </trkpt>
      <trkpt lat="48.88308" lon="2.42638">
        <ele>121</ele>
        <time>2016-01-25T20:05:57Z</time>
      </trkpt>
      <trkpt lat="48.88316" lon="2.42658">
        <ele>121</ele>
        <time>2016-01-25T20:06:00Z</time>
      </trkpt>
      <trkpt lat="48.88326" lon="2.42684">
        <ele>120.80000305176</ele>
        <time>2016-01-25T20:06:04Z</time>
      </trkpt>
      <trkpt lat="48.88335" lon="2.4271">
        <ele>120.40000152588</ele>
        <time>2016-01-25T20:06:08Z</time>
      </trkpt>
      <trkpt lat="48.88344" lon="2.42735">
        <ele>120.19999694824</ele>
        <time>2016-01-25T20:06:12Z</time>
      </trkpt>
      <trkpt lat="48.88351" lon="2.42753">
        <ele>120</ele>
        <time>2016-01-25T20:06:15Z</time>
      </trkpt>
      <trkpt lat="48.88355" lon="2.42764">
        <ele>119.80000305176</ele>
        <time>2016-01-25T20:06:17Z</time>
      </trkpt>
      <trkpt lat="48.88366" lon="2.42793">
        <ele>120.19999694824</ele>
        <time>2016-01-25T20:06:22Z</time>
      </trkpt>
      <trkpt lat="48.88377" lon="2.42822">
        <ele>120.59999847412</ele>
        <time>2016-01-25T20:06:27Z</time>
      </trkpt>
      <trkpt lat="48.88388" lon="2.4285">
        <ele>121.40000152588</ele>
        <time>2016-01-25T20:06:32Z</time>
      </trkpt>
      <trkpt lat="48.884" lon="2.42877">
        <ele>122.59999847412</ele>
        <time>2016-01-25T20:06:37Z</time>
      </trkpt>
      <trkpt lat="48.88405" lon="2.42888">
        <ele>123.19999694824</ele>
        <time>2016-01-25T20:06:39Z</time>
      </trkpt>
      <trkpt lat="48.88415" lon="2.42914">
        <ele>124.19999694824</ele>
        <time>2016-01-25T20:06:44Z</time>
      </trkpt>
      <trkpt lat="48.88425" lon="2.42942">
        <ele>123.40000152588</ele>
        <time>2016-01-25T20:06:50Z</time>
      </trkpt>
      <trkpt lat="48.88431" lon="2.42959">
        <ele>122.80000305176</ele>
        <time>2016-01-25T20:06:54Z</time>
      </trkpt>
      <trkpt lat="48.8844" lon="2.42987">
        <ele>121.80000305176</ele>
        <time>2016-01-25T20:07:01Z</time>
      </trkpt>
      <trkpt lat="48.88442" lon="2.42991">
        <ele>121.40000152588</ele>
        <time>2016-01-25T20:07:02Z</time>
      </trkpt>
      <trkpt lat="48.88445" lon="2.42999">
        <ele>121</ele>
        <time>2016-01-25T20:07:04Z</time>
      </trkpt>
      <trkpt lat="48.88455" lon="2.43026">
        <ele>120.19999694824</ele>
        <time>2016-01-25T20:07:10Z</time>
      </trkpt>
      <trkpt lat="48.88463" lon="2.43054">
        <ele>119.19999694824</ele>
        <time>2016-01-25T20:07:16Z</time>
      </trkpt>
      <trkpt lat="48.88471" lon="2.43081">
        <ele>118.40000152588</ele>
        <time>2016-01-25T20:07:22Z</time>
      </trkpt>
      <trkpt lat="48.88479" lon="2.43106">
        <ele>118.19999694824</ele>
        <time>2016-01-25T20:07:27Z</time>
      </trkpt>
      <trkpt lat="48.88487" lon="2.43132">
        <ele>118</ele>
        <time>2016-01-25T20:07:32Z</time>
      </trkpt>
      <trkpt lat="48.88491" lon="2.43164">
        <ele>118.80000305176</ele>
        <time>2016-01-25T20:07:38Z</time>
      </trkpt>
      <trkpt lat="48.88492" lon="2.43196">
        <ele>119.19999694824</ele>
        <time>2016-01-25T20:07:43Z</time>
      </trkpt>
      <trkpt lat="48.88496" lon="2.43224">
        <ele>119.40000152588</ele>
        <time>2016-01-25T20:07:47Z</time>
      </trkpt>
      <trkpt lat="48.88497" lon="2.43252">
        <ele>120</ele>
        <time>2016-01-25T20:07:51Z</time>
      </trkpt>
      <trkpt lat="48.88497" lon="2.43281">
        <ele>120.40000152588</ele>
        <time>2016-01-25T20:07:55Z</time>
      </trkpt>
      <trkpt lat="48.885" lon="2.43311">
        <ele>120.59999847412</ele>
        <time>2016-01-25T20:07:59Z</time>
      </trkpt>
      <trkpt lat="48.88505" lon="2.4334">
        <ele>120.59999847412</ele>
        <time>2016-01-25T20:08:03Z</time>
      </trkpt>
      <trkpt lat="48.88508" lon="2.4337">
        <ele>120</ele>
        <time>2016-01-25T20:08:07Z</time>
      </trkpt>
      <trkpt lat="48.8851" lon="2.43399">
        <ele>119.59999847412</ele>
        <time>2016-01-25T20:08:11Z</time>
      </trkpt>
      <trkpt lat="48.88513" lon="2.43428">
        <ele>119.40000152588</ele>
        <time>2016-01-25T20:08:15Z</time>
      </trkpt>
      <trkpt lat="48.88517" lon="2.43456">
        <ele>120</ele>
        <time>2016-01-25T20:08:19Z</time>
      </trkpt>
      <trkpt lat="48.88522" lon="2.43489">
        <ele>120.80000305176</ele>
        <time>2016-01-25T20:08:24Z</time>
      </trkpt>
      <trkpt lat="48.88524" lon="2.43519">
        <ele>120.59999847412</ele>
        <time>2016-01-25T20:08:29Z</time>
      </trkpt>
      <trkpt lat="48.88528" lon="2.43548">
        <ele>119.59999847412</ele>
        <time>2016-01-25T20:08:34Z</time>
      </trkpt>
      <trkpt lat="48.8853" lon="2.43565">
        <ele>119.19999694824</ele>
        <time>2016-01-25T20:08:37Z</time>
      </trkpt>
      <trkpt lat="48.88534" lon="2.4358">
        <ele>118.80000305176</ele>
        <time>2016-01-25T20:08:40Z</time>
      </trkpt>
      <trkpt lat="48.88544" lon="2.436">
        <ele>118.19999694824</ele>
        <time>2016-01-25T20:08:47Z</time>
      </trkpt>
      <trkpt lat="48.8855" lon="2.43606">
        <ele>118</ele>
        <time>2016-01-25T20:08:51Z</time>
      </trkpt>
      <trkpt lat="48.88551" lon="2.43611">
        <ele>118</ele>
        <time>2016-01-25T20:08:56Z</time>
      </trkpt>
      <trkpt lat="48.88538" lon="2.43614">
        <ele>118.19999694824</ele>
        <time>2016-01-25T20:10:13Z</time>
      </trkpt>
      <trkpt lat="48.88539" lon="2.43626">
        <ele>118.19999694824</ele>
        <time>2016-01-25T20:10:23Z</time>
      </trkpt>
      <trkpt lat="48.88531" lon="2.43645">
        <ele>118</ele>
        <time>2016-01-25T20:10:52Z</time>
      </trkpt>
      <trkpt lat="48.88524" lon="2.43671">
        <ele>118</ele>
        <time>2016-01-25T20:10:59Z</time>
      </trkpt>
      <trkpt lat="48.88514" lon="2.43695">
        <ele>118.59999847412</ele>
        <time>2016-01-25T20:11:08Z</time>
      </trkpt>
      <trkpt lat="48.88507" lon="2.43724">
        <ele>119.19999694824</ele>
        <time>2016-01-25T20:11:15Z</time>
      </trkpt>
      <trkpt lat="48.88497" lon="2.43754">
        <ele>119.59999847412</ele>
        <time>2016-01-25T20:11:21Z</time>
      </trkpt>
      <trkpt lat="48.8849" lon="2.43783">
        <ele>119.40000152588</ele>
        <time>2016-01-25T20:11:26Z</time>
      </trkpt>
      <trkpt lat="48.88481" lon="2.43811">
        <ele>119</ele>
        <time>2016-01-25T20:11:31Z</time>
      </trkpt>
      <trkpt lat="48.88476" lon="2.43841">
        <ele>118.59999847412</ele>
        <time>2016-01-25T20:11:36Z</time>
      </trkpt>
      <trkpt lat="48.88468" lon="2.43871">
        <ele>118.80000305176</ele>
        <time>2016-01-25T20:11:41Z</time>
      </trkpt>
      <trkpt lat="48.88459" lon="2.43902">
        <ele>118.40000152588</ele>
        <time>2016-01-25T20:11:46Z</time>
      </trkpt>
      <trkpt lat="48.88449" lon="2.43926">
        <ele>118.19999694824</ele>
        <time>2016-01-25T20:11:50Z</time>
      </trkpt>
      <trkpt lat="48.88439" lon="2.43951">
        <ele>118</ele>
        <time>2016-01-25T20:11:54Z</time>
      </trkpt>
      <trkpt lat="48.88434" lon="2.43964">
        <ele>118.19999694824</ele>
        <time>2016-01-25T20:11:56Z</time>
      </trkpt>
      <trkpt lat="48.88426" lon="2.43989">
        <ele>118.40000152588</ele>
        <time>2016-01-25T20:12:00Z</time>
      </trkpt>
      <trkpt lat="48.88422" lon="2.44002">
        <ele>118.40000152588</ele>
        <time>2016-01-25T20:12:02Z</time>
      </trkpt>
      <trkpt lat="48.88417" lon="2.44014">
        <ele>118.40000152588</ele>
        <time>2016-01-25T20:12:04Z</time>
      </trkpt>
      <trkpt lat="48.88412" lon="2.44031">
        <ele>118.19999694824</ele>
        <time>2016-01-25T20:12:07Z</time>
      </trkpt>
      <trkpt lat="48.88409" lon="2.44041">
        <ele>118.19999694824</ele>
        <time>2016-01-25T20:12:09Z</time>
      </trkpt>
      <trkpt lat="48.88404" lon="2.44054">
        <ele>118.19999694824</ele>
        <time>2016-01-25T20:12:13Z</time>
      </trkpt>
      <trkpt lat="48.884" lon="2.44058">
        <ele>118</ele>
        <time>2016-01-25T20:12:16Z</time>
      </trkpt>
      <trkpt lat="48.88393" lon="2.44058">
        <ele>118.19999694824</ele>
        <time>2016-01-25T20:13:56Z</time>
      </trkpt>
      <trkpt lat="48.88394" lon="2.4406">
        <ele>118.19999694824</ele>
        <time>2016-01-25T20:16:33Z</time>
      </trkpt>
      <trkpt lat="48.88392" lon="2.4406">
        <ele>118.19999694824</ele>
        <time>2016-01-25T20:18:56Z</time>
      </trkpt>
      <trkpt lat="48.8839" lon="2.44049">
        <ele>118.40000152588</ele>
        <time>2016-01-25T20:19:50Z</time>
      </trkpt>
      <trkpt lat="48.88379" lon="2.44049">
        <ele>118.59999847412</ele>
        <time>2016-01-25T20:20:33Z</time>
      </trkpt>
      <trkpt lat="48.88362" lon="2.44048">
        <ele>118.80000305176</ele>
        <time>2016-01-25T20:21:12Z</time>
      </trkpt>
      <trkpt lat="48.88358" lon="2.44046">
        <ele>118.80000305176</ele>
        <time>2016-01-25T20:21:15Z</time>
      </trkpt>
      <trkpt lat="48.88344" lon="2.44046">
        <ele>119</ele>
        <time>2016-01-25T20:21:48Z</time>
      </trkpt>
      <trkpt lat="48.88328" lon="2.44034">
        <ele>119.59999847412</ele>
        <time>2016-01-25T20:22:02Z</time>
      </trkpt>
      <trkpt lat="48.88311" lon="2.44023">
        <ele>120</ele>
        <time>2016-01-25T20:22:13Z</time>
      </trkpt>
      <trkpt lat="48.88294" lon="2.44008">
        <ele>120.59999847412</ele>
        <time>2016-01-25T20:22:17Z</time>
      </trkpt>
      <trkpt lat="48.88274" lon="2.43997">
        <ele>121</ele>
        <time>2016-01-25T20:22:21Z</time>
      </trkpt>
      <trkpt lat="48.88257" lon="2.43984">
        <ele>120.59999847412</ele>
        <time>2016-01-25T20:22:25Z</time>
      </trkpt>
      <trkpt lat="48.88238" lon="2.43972">
        <ele>120</ele>
        <time>2016-01-25T20:22:31Z</time>
      </trkpt>
      <trkpt lat="48.88218" lon="2.4396">
        <ele>119.59999847412</ele>
        <time>2016-01-25T20:22:37Z</time>
      </trkpt>
      <trkpt lat="48.882" lon="2.43947">
        <ele>119</ele>
        <time>2016-01-25T20:22:44Z</time>
      </trkpt>
      <trkpt lat="48.88199" lon="2.43937">
        <ele>119</ele>
        <time>2016-01-25T20:23:10Z</time>
      </trkpt>
      <trkpt lat="48.88184" lon="2.43921">
        <ele>119</ele>
        <time>2016-01-25T20:23:18Z</time>
      </trkpt>
      <trkpt lat="48.88168" lon="2.43901">
        <ele>119.40000152588</ele>
        <time>2016-01-25T20:23:23Z</time>
      </trkpt>
      <trkpt lat="48.88155" lon="2.43879">
        <ele>119.40000152588</ele>
        <time>2016-01-25T20:23:28Z</time>
      </trkpt>
      <trkpt lat="48.88139" lon="2.43856">
        <ele>119.59999847412</ele>
        <time>2016-01-25T20:23:33Z</time>
      </trkpt>
      <trkpt lat="48.88127" lon="2.43833">
        <ele>119.80000305176</ele>
        <time>2016-01-25T20:23:37Z</time>
      </trkpt>
      <trkpt lat="48.88115" lon="2.4381">
        <ele>119.80000305176</ele>
        <time>2016-01-25T20:23:41Z</time>
      </trkpt>
      <trkpt lat="48.88103" lon="2.4378">
        <ele>120</ele>
        <time>2016-01-25T20:23:46Z</time>
      </trkpt>
      <trkpt lat="48.88093" lon="2.43755">
        <ele>120</ele>
        <time>2016-01-25T20:23:50Z</time>
      </trkpt>
      <trkpt lat="48.88087" lon="2.4375">
        <ele>120</ele>
        <time>2016-01-25T20:23:51Z</time>
      </trkpt>
      <trkpt lat="48.88075" lon="2.43727">
        <ele>120.19999694824</ele>
        <time>2016-01-25T20:23:55Z</time>
      </trkpt>
      <trkpt lat="48.88062" lon="2.437">
        <ele>120.59999847412</ele>
        <time>2016-01-25T20:24:00Z</time>
      </trkpt>
      <trkpt lat="48.88051" lon="2.43673">
        <ele>121</ele>
        <time>2016-01-25T20:24:05Z</time>
      </trkpt>
      <trkpt lat="48.88049" lon="2.43668">
        <ele>121</ele>
        <time>2016-01-25T20:24:06Z</time>
      </trkpt>
      <trkpt lat="48.88038" lon="2.43646">
        <ele>121</ele>
        <time>2016-01-25T20:24:10Z</time>
      </trkpt>
      <trkpt lat="48.88033" lon="2.43635">
        <ele>121</ele>
        <time>2016-01-25T20:24:12Z</time>
      </trkpt>
      <trkpt lat="48.88021" lon="2.43608">
        <ele>121</ele>
        <time>2016-01-25T20:24:17Z</time>
      </trkpt>
      <trkpt lat="48.88019" lon="2.43602">
        <ele>120.80000305176</ele>
        <time>2016-01-25T20:24:18Z</time>
      </trkpt>
      <trkpt lat="48.88008" lon="2.43573">
        <ele>120.40000152588</ele>
        <time>2016-01-25T20:24:23Z</time>
      </trkpt>
      <trkpt lat="48.87997" lon="2.4355">
        <ele>119.80000305176</ele>
        <time>2016-01-25T20:24:27Z</time>
      </trkpt>
      <trkpt lat="48.87986" lon="2.43528">
        <ele>119.40000152588</ele>
        <time>2016-01-25T20:24:31Z</time>
      </trkpt>
      <trkpt lat="48.87976" lon="2.43505">
        <ele>119.19999694824</ele>
        <time>2016-01-25T20:24:35Z</time>
      </trkpt>
      <trkpt lat="48.87969" lon="2.43488">
        <ele>118.80000305176</ele>
        <time>2016-01-25T20:24:38Z</time>
      </trkpt>
      <trkpt lat="48.87958" lon="2.43464">
        <ele>118.19999694824</ele>
        <time>2016-01-25T20:24:42Z</time>
      </trkpt>
      <trkpt lat="48.87949" lon="2.43441">
        <ele>117.59999847412</ele>
        <time>2016-01-25T20:24:46Z</time>
      </trkpt>
      <trkpt lat="48.8794" lon="2.4341">
        <ele>117.19999694824</ele>
        <time>2016-01-25T20:24:51Z</time>
      </trkpt>
      <trkpt lat="48.87931" lon="2.43381">
        <ele>117.59999847412</ele>
        <time>2016-01-25T20:24:56Z</time>
      </trkpt>
      <trkpt lat="48.87921" lon="2.43352">
        <ele>118</ele>
        <time>2016-01-25T20:25:01Z</time>
      </trkpt>
      <trkpt lat="48.8792" lon="2.43347">
        <ele>118.19999694824</ele>
        <time>2016-01-25T20:25:02Z</time>
      </trkpt>
      <trkpt lat="48.87912" lon="2.4332">
        <ele>118.40000152588</ele>
        <time>2016-01-25T20:25:07Z</time>
      </trkpt>
      <trkpt lat="48.87908" lon="2.43309">
        <ele>118.59999847412</ele>
        <time>2016-01-25T20:25:09Z</time>
      </trkpt>
      <trkpt lat="48.87898" lon="2.43281">
        <ele>118.40000152588</ele>
        <time>2016-01-25T20:25:14Z</time>
      </trkpt>
      <trkpt lat="48.87892" lon="2.43262">
        <ele>118.40000152588</ele>
        <time>2016-01-25T20:25:17Z</time>
      </trkpt>
      <trkpt lat="48.87884" lon="2.43234">
        <ele>118.19999694824</ele>
        <time>2016-01-25T20:25:21Z</time>
      </trkpt>
      <trkpt lat="48.8788" lon="2.43213">
        <ele>117.80000305176</ele>
        <time>2016-01-25T20:25:24Z</time>
      </trkpt>
      <trkpt lat="48.87874" lon="2.43184">
        <ele>117.40000152588</ele>
        <time>2016-01-25T20:25:28Z</time>
      </trkpt>
      <trkpt lat="48.87867" lon="2.43155">
        <ele>117.19999694824</ele>
        <time>2016-01-25T20:25:32Z</time>
      </trkpt>
      <trkpt lat="48.87864" lon="2.43128">
        <ele>117.19999694824</ele>
        <time>2016-01-25T20:25:36Z</time>
      </trkpt>
      <trkpt lat="48.87861" lon="2.43095">
        <ele>117.19999694824</ele>
        <time>2016-01-25T20:25:41Z</time>
      </trkpt>
      <trkpt lat="48.87853" lon="2.43064">
        <ele>117</ele>
        <time>2016-01-25T20:25:46Z</time>
      </trkpt>
      <trkpt lat="48.87853" lon="2.43058">
        <ele>117</ele>
        <time>2016-01-25T20:25:47Z</time>
      </trkpt>
      <trkpt lat="48.87848" lon="2.4303">
        <ele>117</ele>
        <time>2016-01-25T20:25:51Z</time>
      </trkpt>
      <trkpt lat="48.87847" lon="2.43023">
        <ele>117</ele>
        <time>2016-01-25T20:25:52Z</time>
      </trkpt>
      <trkpt lat="48.87845" lon="2.42991">
        <ele>117</ele>
        <time>2016-01-25T20:25:57Z</time>
      </trkpt>
      <trkpt lat="48.8784" lon="2.42964">
        <ele>117</ele>
        <time>2016-01-25T20:26:01Z</time>
      </trkpt>
      <trkpt lat="48.87838" lon="2.42951">
        <ele>117</ele>
        <time>2016-01-25T20:26:03Z</time>
      </trkpt>
      <trkpt lat="48.87835" lon="2.42924">
        <ele>117</ele>
        <time>2016-01-25T20:26:07Z</time>
      </trkpt>
      <trkpt lat="48.87836" lon="2.42918">
        <ele>117</ele>
        <time>2016-01-25T20:26:08Z</time>
      </trkpt>
      <trkpt lat="48.87837" lon="2.42884">
        <ele>116.80000305176</ele>
        <time>2016-01-25T20:26:13Z</time>
      </trkpt>
      <trkpt lat="48.87837" lon="2.42858">
        <ele>116.80000305176</ele>
        <time>2016-01-25T20:26:17Z</time>
      </trkpt>
      <trkpt lat="48.87837" lon="2.42846">
        <ele>116.80000305176</ele>
        <time>2016-01-25T20:26:19Z</time>
      </trkpt>
      <trkpt lat="48.87838" lon="2.42834">
        <ele>116.80000305176</ele>
        <time>2016-01-25T20:26:21Z</time>
      </trkpt>
      <trkpt lat="48.87838" lon="2.42807">
        <ele>116.59999847412</ele>
        <time>2016-01-25T20:26:25Z</time>
      </trkpt>
      <trkpt lat="48.87838" lon="2.42785">
        <ele>116.59999847412</ele>
        <time>2016-01-25T20:26:28Z</time>
      </trkpt>
      <trkpt lat="48.87837" lon="2.42756">
        <ele>116.59999847412</ele>
        <time>2016-01-25T20:26:32Z</time>
      </trkpt>
      <trkpt lat="48.87837" lon="2.42741">
        <ele>116.59999847412</ele>
        <time>2016-01-25T20:26:34Z</time>
      </trkpt>
      <trkpt lat="48.87838" lon="2.42709">
        <ele>116.80000305176</ele>
        <time>2016-01-25T20:26:39Z</time>
      </trkpt>
      <trkpt lat="48.87838" lon="2.42704">
        <ele>116.80000305176</ele>
        <time>2016-01-25T20:26:40Z</time>
      </trkpt>
      <trkpt lat="48.87839" lon="2.4269">
        <ele>116.80000305176</ele>
        <time>2016-01-25T20:26:43Z</time>
      </trkpt>
      <trkpt lat="48.87841" lon="2.42671">
        <ele>116.80000305176</ele>
        <time>2016-01-25T20:26:47Z</time>
      </trkpt>
      <trkpt lat="48.87843" lon="2.42642">
        <ele>116.59999847412</ele>
        <time>2016-01-25T20:26:53Z</time>
      </trkpt>
      <trkpt lat="48.87843" lon="2.42632">
        <ele>116.59999847412</ele>
        <time>2016-01-25T20:26:55Z</time>
      </trkpt>
      <trkpt lat="48.87844" lon="2.42621">
        <ele>116.80000305176</ele>
        <time>2016-01-25T20:26:57Z</time>
      </trkpt>
      <trkpt lat="48.87844" lon="2.42592">
        <ele>116.59999847412</ele>
        <time>2016-01-25T20:27:02Z</time>
      </trkpt>
      <trkpt lat="48.87844" lon="2.42586">
        <ele>116.59999847412</ele>
        <time>2016-01-25T20:27:03Z</time>
      </trkpt>
      <trkpt lat="48.87843" lon="2.42555">
        <ele>116.40000152588</ele>
        <time>2016-01-25T20:27:09Z</time>
      </trkpt>
      <trkpt lat="48.8784" lon="2.42527">
        <ele>116.19999694824</ele>
        <time>2016-01-25T20:27:14Z</time>
      </trkpt>
      <trkpt lat="48.8784" lon="2.42498">
        <ele>116.19999694824</ele>
        <time>2016-01-25T20:27:19Z</time>
      </trkpt>
      <trkpt lat="48.87839" lon="2.4247">
        <ele>116.40000152588</ele>
        <time>2016-01-25T20:27:24Z</time>
      </trkpt>
      <trkpt lat="48.87838" lon="2.42439">
        <ele>116.40000152588</ele>
        <time>2016-01-25T20:27:30Z</time>
      </trkpt>
      <trkpt lat="48.87839" lon="2.42411">
        <ele>116.40000152588</ele>
        <time>2016-01-25T20:27:36Z</time>
      </trkpt>
      <trkpt lat="48.87842" lon="2.42384">
        <ele>116.19999694824</ele>
        <time>2016-01-25T20:27:42Z</time>
      </trkpt>
      <trkpt lat="48.87841" lon="2.42354">
        <ele>115.80000305176</ele>
        <time>2016-01-25T20:27:48Z</time>
      </trkpt>
      <trkpt lat="48.8784" lon="2.42323">
        <ele>115.59999847412</ele>
        <time>2016-01-25T20:27:54Z</time>
      </trkpt>
      <trkpt lat="48.87842" lon="2.42293">
        <ele>116.59999847412</ele>
        <time>2016-01-25T20:28:00Z</time>
      </trkpt>
      <trkpt lat="48.87841" lon="2.42265">
        <ele>117.59999847412</ele>
        <time>2016-01-25T20:28:08Z</time>
      </trkpt>
      <trkpt lat="48.87841" lon="2.42235">
        <ele>118.40000152588</ele>
        <time>2016-01-25T20:28:36Z</time>
      </trkpt>
      <trkpt lat="48.8784" lon="2.42203">
        <ele>119.19999694824</ele>
        <time>2016-01-25T20:28:42Z</time>
      </trkpt>
      <trkpt lat="48.87839" lon="2.42174">
        <ele>119.80000305176</ele>
        <time>2016-01-25T20:28:47Z</time>
      </trkpt>
      <trkpt lat="48.87837" lon="2.42145">
        <ele>119.80000305176</ele>
        <time>2016-01-25T20:28:52Z</time>
      </trkpt>
      <trkpt lat="48.87837" lon="2.42117">
        <ele>118</ele>
        <time>2016-01-25T20:28:57Z</time>
      </trkpt>
      <trkpt lat="48.87833" lon="2.42086">
        <ele>116.19999694824</ele>
        <time>2016-01-25T20:29:02Z</time>
      </trkpt>
      <trkpt lat="48.87832" lon="2.42055">
        <ele>116.59999847412</ele>
        <time>2016-01-25T20:29:07Z</time>
      </trkpt>
      <trkpt lat="48.87828" lon="2.42024">
        <ele>116.59999847412</ele>
        <time>2016-01-25T20:29:12Z</time>
      </trkpt>
      <trkpt lat="48.87826" lon="2.41991">
        <ele>116.59999847412</ele>
        <time>2016-01-25T20:29:17Z</time>
      </trkpt>
      <trkpt lat="48.87824" lon="2.41963">
        <ele>116</ele>
        <time>2016-01-25T20:29:21Z</time>
      </trkpt>
      <trkpt lat="48.87821" lon="2.41934">
        <ele>116.40000152588</ele>
        <time>2016-01-25T20:29:25Z</time>
      </trkpt>
      <trkpt lat="48.87818" lon="2.41907">
        <ele>116.59999847412</ele>
        <time>2016-01-25T20:29:29Z</time>
      </trkpt>
      <trkpt lat="48.87813" lon="2.41875">
        <ele>117</ele>
        <time>2016-01-25T20:29:34Z</time>
      </trkpt>
      <trkpt lat="48.87813" lon="2.41862">
        <ele>117.40000152588</ele>
        <time>2016-01-25T20:29:36Z</time>
      </trkpt>
      <trkpt lat="48.87811" lon="2.4183">
        <ele>118.40000152588</ele>
        <time>2016-01-25T20:29:41Z</time>
      </trkpt>
      <trkpt lat="48.87807" lon="2.41802">
        <ele>118.59999847412</ele>
        <time>2016-01-25T20:29:45Z</time>
      </trkpt>
      <trkpt lat="48.87806" lon="2.41795">
        <ele>118.59999847412</ele>
        <time>2016-01-25T20:29:46Z</time>
      </trkpt>
      <trkpt lat="48.87802" lon="2.41773">
        <ele>118.59999847412</ele>
        <time>2016-01-25T20:29:50Z</time>
      </trkpt>
      <trkpt lat="48.87801" lon="2.4176">
        <ele>118.19999694824</ele>
        <time>2016-01-25T20:29:53Z</time>
      </trkpt>
      <trkpt lat="48.878" lon="2.41729">
        <ele>118.40000152588</ele>
        <time>2016-01-25T20:29:59Z</time>
      </trkpt>
      <trkpt lat="48.8779" lon="2.41703">
        <ele>119.19999694824</ele>
        <time>2016-01-25T20:30:04Z</time>
      </trkpt>
      <trkpt lat="48.87787" lon="2.41697">
        <ele>119.19999694824</ele>
        <time>2016-01-25T20:30:05Z</time>
      </trkpt>
      <trkpt lat="48.87779" lon="2.41669">
        <ele>119.80000305176</ele>
        <time>2016-01-25T20:30:10Z</time>
      </trkpt>
      <trkpt lat="48.87768" lon="2.41643">
        <ele>120.19999694824</ele>
        <time>2016-01-25T20:30:15Z</time>
      </trkpt>
      <trkpt lat="48.87755" lon="2.4162">
        <ele>120.40000152588</ele>
        <time>2016-01-25T20:30:20Z</time>
      </trkpt>
      <trkpt lat="48.87744" lon="2.41592">
        <ele>120.59999847412</ele>
        <time>2016-01-25T20:30:25Z</time>
      </trkpt>
      <trkpt lat="48.87736" lon="2.41561">
        <ele>121</ele>
        <time>2016-01-25T20:30:30Z</time>
      </trkpt>
      <trkpt lat="48.8773" lon="2.41542">
        <ele>121.40000152588</ele>
        <time>2016-01-25T20:30:33Z</time>
      </trkpt>
      <trkpt lat="48.8772" lon="2.41519">
        <ele>121.80000305176</ele>
        <time>2016-01-25T20:30:37Z</time>
      </trkpt>
      <trkpt lat="48.8771" lon="2.41493">
        <ele>122.19999694824</ele>
        <time>2016-01-25T20:30:41Z</time>
      </trkpt>
      <trkpt lat="48.87706" lon="2.41483">
        <ele>122.19999694824</ele>
        <time>2016-01-25T20:30:43Z</time>
      </trkpt>
      <trkpt lat="48.87699" lon="2.41461">
        <ele>122.19999694824</ele>
        <time>2016-01-25T20:30:48Z</time>
      </trkpt>
      <trkpt lat="48.87693" lon="2.41441">
        <ele>122</ele>
        <time>2016-01-25T20:30:53Z</time>
      </trkpt>
      <trkpt lat="48.87688" lon="2.41428">
        <ele>122</ele>
        <time>2016-01-25T20:30:56Z</time>
      </trkpt>
      <trkpt lat="48.87682" lon="2.41413">
        <ele>121.80000305176</ele>
        <time>2016-01-25T20:30:59Z</time>
      </trkpt>
      <trkpt lat="48.87671" lon="2.41387">
        <ele>121.19999694824</ele>
        <time>2016-01-25T20:31:05Z</time>
      </trkpt>
      <trkpt lat="48.87661" lon="2.41362">
        <ele>120.59999847412</ele>
        <time>2016-01-25T20:31:13Z</time>
      </trkpt>
      <trkpt lat="48.87646" lon="2.41345">
        <ele>120.19999694824</ele>
        <time>2016-01-25T20:31:19Z</time>
      </trkpt>
      <trkpt lat="48.87629" lon="2.41353">
        <ele>119.80000305176</ele>
        <time>2016-01-25T20:31:26Z</time>
      </trkpt>
      <trkpt lat="48.87614" lon="2.41372">
        <ele>119.19999694824</ele>
        <time>2016-01-25T20:31:33Z</time>
      </trkpt>
      <trkpt lat="48.87598" lon="2.41386">
        <ele>119</ele>
        <time>2016-01-25T20:31:39Z</time>
      </trkpt>
      <trkpt lat="48.87582" lon="2.41402">
        <ele>118.40000152588</ele>
        <time>2016-01-25T20:31:46Z</time>
      </trkpt>
      <trkpt lat="48.87567" lon="2.41424">
        <ele>117.40000152588</ele>
        <time>2016-01-25T20:31:53Z</time>
      </trkpt>
      <trkpt lat="48.87553" lon="2.41448">
        <ele>116.80000305176</ele>
        <time>2016-01-25T20:31:59Z</time>
      </trkpt>
      <trkpt lat="48.87539" lon="2.41468">
        <ele>116.40000152588</ele>
        <time>2016-01-25T20:32:04Z</time>
      </trkpt>
      <trkpt lat="48.87525" lon="2.41486">
        <ele>116</ele>
        <time>2016-01-25T20:32:10Z</time>
      </trkpt>
      <trkpt lat="48.8751" lon="2.41508">
        <ele>116</ele>
        <time>2016-01-25T20:32:17Z</time>
      </trkpt>
      <trkpt lat="48.87496" lon="2.41528">
        <ele>116</ele>
        <time>2016-01-25T20:32:24Z</time>
      </trkpt>
      <trkpt lat="48.87479" lon="2.41534">
        <ele>116</ele>
        <time>2016-01-25T20:32:32Z</time>
      </trkpt>
      <trkpt lat="48.87477" lon="2.41534">
        <ele>115.80000305176</ele>
        <time>2016-01-25T20:32:33Z</time>
      </trkpt>
      <trkpt lat="48.87459" lon="2.41542">
        <ele>115.40000152588</ele>
        <time>2016-01-25T20:32:41Z</time>
      </trkpt>
      <trkpt lat="48.87439" lon="2.41552">
        <ele>115</ele>
        <time>2016-01-25T20:32:47Z</time>
      </trkpt>
      <trkpt lat="48.87421" lon="2.41561">
        <ele>114.40000152588</ele>
        <time>2016-01-25T20:32:52Z</time>
      </trkpt>
      <trkpt lat="48.87405" lon="2.41572">
        <ele>114.40000152588</ele>
        <time>2016-01-25T20:32:57Z</time>
      </trkpt>
      <trkpt lat="48.87391" lon="2.41595">
        <ele>114.19999694824</ele>
        <time>2016-01-25T20:33:04Z</time>
      </trkpt>
      <trkpt lat="48.8739" lon="2.41602">
        <ele>114.19999694824</ele>
        <time>2016-01-25T20:33:06Z</time>
      </trkpt>
      <trkpt lat="48.87397" lon="2.41616">
        <ele>114</ele>
        <time>2016-01-25T20:33:10Z</time>
      </trkpt>
      <trkpt lat="48.87414" lon="2.41636">
        <ele>114</ele>
        <time>2016-01-25T20:33:16Z</time>
      </trkpt>
      <trkpt lat="48.87428" lon="2.41656">
        <ele>114</ele>
        <time>2016-01-25T20:33:22Z</time>
      </trkpt>
      <trkpt lat="48.87442" lon="2.41678">
        <ele>114</ele>
        <time>2016-01-25T20:33:29Z</time>
      </trkpt>
      <trkpt lat="48.87452" lon="2.41696">
        <ele>114</ele>
        <time>2016-01-25T20:33:34Z</time>
      </trkpt>
      <trkpt lat="48.87446" lon="2.41717">
        <ele>114</ele>
        <time>2016-01-25T20:33:39Z</time>
      </trkpt>
      <trkpt lat="48.87438" lon="2.41745">
        <ele>114</ele>
        <time>2016-01-25T20:33:45Z</time>
      </trkpt>
      <trkpt lat="48.87428" lon="2.41773">
        <ele>113.59999847412</ele>
        <time>2016-01-25T20:33:51Z</time>
      </trkpt>
      <trkpt lat="48.8742" lon="2.41798">
        <ele>113.19999694824</ele>
        <time>2016-01-25T20:33:56Z</time>
      </trkpt>
      <trkpt lat="48.87411" lon="2.41825">
        <ele>112.19999694824</ele>
        <time>2016-01-25T20:34:02Z</time>
      </trkpt>
      <trkpt lat="48.87405" lon="2.41846">
        <ele>111.59999847412</ele>
        <time>2016-01-25T20:34:10Z</time>
      </trkpt>
      <trkpt lat="48.87396" lon="2.41871">
        <ele>111</ele>
        <time>2016-01-25T20:34:23Z</time>
      </trkpt>
      <trkpt lat="48.87382" lon="2.41894">
        <ele>109.19999694824</ele>
        <time>2016-01-25T20:34:32Z</time>
      </trkpt>
      <trkpt lat="48.87371" lon="2.41916">
        <ele>107.80000305176</ele>
        <time>2016-01-25T20:34:39Z</time>
      </trkpt>
      <trkpt lat="48.87361" lon="2.41939">
        <ele>106.80000305176</ele>
        <time>2016-01-25T20:34:46Z</time>
      </trkpt>
      <trkpt lat="48.87351" lon="2.41964">
        <ele>106.19999694824</ele>
        <time>2016-01-25T20:34:54Z</time>
      </trkpt>
      <trkpt lat="48.87335" lon="2.41982">
        <ele>105.19999694824</ele>
        <time>2016-01-25T20:35:03Z</time>
      </trkpt>
      <trkpt lat="48.87318" lon="2.41988">
        <ele>105</ele>
        <time>2016-01-25T20:35:12Z</time>
      </trkpt>
      <trkpt lat="48.87321" lon="2.41997">
        <ele>105.19999694824</ele>
        <time>2016-01-25T20:35:50Z</time>
      </trkpt>
      <trkpt lat="48.87336" lon="2.42015">
        <ele>104.59999847412</ele>
        <time>2016-01-25T20:35:57Z</time>
      </trkpt>
      <trkpt lat="48.87352" lon="2.42031">
        <ele>104</ele>
        <time>2016-01-25T20:36:03Z</time>
      </trkpt>
      <trkpt lat="48.87372" lon="2.42047">
        <ele>104</ele>
        <time>2016-01-25T20:36:08Z</time>
      </trkpt>
      <trkpt lat="48.87387" lon="2.42062">
        <ele>104</ele>
        <time>2016-01-25T20:36:13Z</time>
      </trkpt>
      <trkpt lat="48.87401" lon="2.4208">
        <ele>103.80000305176</ele>
        <time>2016-01-25T20:36:18Z</time>
      </trkpt>
      <trkpt lat="48.87416" lon="2.42098">
        <ele>103.80000305176</ele>
        <time>2016-01-25T20:36:23Z</time>
      </trkpt>
      <trkpt lat="48.87434" lon="2.42117">
        <ele>104</ele>
        <time>2016-01-25T20:36:27Z</time>
      </trkpt>
      <trkpt lat="48.8745" lon="2.42137">
        <ele>104</ele>
        <time>2016-01-25T20:36:32Z</time>
      </trkpt>
      <trkpt lat="48.87465" lon="2.42155">
        <ele>104</ele>
        <time>2016-01-25T20:36:37Z</time>
      </trkpt>
      <trkpt lat="48.87482" lon="2.42171">
        <ele>104.40000152588</ele>
        <time>2016-01-25T20:36:42Z</time>
      </trkpt>
      <trkpt lat="48.87499" lon="2.42188">
        <ele>105</ele>
        <time>2016-01-25T20:36:47Z</time>
      </trkpt>
      <trkpt lat="48.87515" lon="2.42204">
        <ele>105.59999847412</ele>
        <time>2016-01-25T20:36:52Z</time>
      </trkpt>
      <trkpt lat="48.87531" lon="2.42221">
        <ele>106.40000152588</ele>
        <time>2016-01-25T20:36:57Z</time>
      </trkpt>
      <trkpt lat="48.87547" lon="2.42236">
        <ele>107.59999847412</ele>
        <time>2016-01-25T20:37:02Z</time>
      </trkpt>
      <trkpt lat="48.87563" lon="2.42252">
        <ele>108.80000305176</ele>
        <time>2016-01-25T20:37:07Z</time>
      </trkpt>
      <trkpt lat="48.87578" lon="2.42269">
        <ele>109.59999847412</ele>
        <time>2016-01-25T20:37:12Z</time>
      </trkpt>
      <trkpt lat="48.87593" lon="2.42286">
        <ele>110.40000152588</ele>
        <time>2016-01-25T20:37:18Z</time>
      </trkpt>
      <trkpt lat="48.87607" lon="2.42305">
        <ele>111</ele>
        <time>2016-01-25T20:37:25Z</time>
      </trkpt>
      <trkpt lat="48.87611" lon="2.42311">
        <ele>110.80000305176</ele>
        <time>2016-01-25T20:37:29Z</time>
      </trkpt>
      <trkpt lat="48.87623" lon="2.42322">
        <ele>110.80000305176</ele>
        <time>2016-01-25T20:38:19Z</time>
      </trkpt>
      <trkpt lat="48.87624" lon="2.42323">
        <ele>110.80000305176</ele>
        <time>2016-01-25T20:38:20Z</time>
      </trkpt>
      <trkpt lat="48.87618" lon="2.4235">
        <ele>110.19999694824</ele>
        <time>2016-01-25T20:38:35Z</time>
      </trkpt>
      <trkpt lat="48.87606" lon="2.42372">
        <ele>109</ele>
        <time>2016-01-25T20:38:40Z</time>
      </trkpt>
      <trkpt lat="48.87592" lon="2.42393">
        <ele>107.59999847412</ele>
        <time>2016-01-25T20:38:44Z</time>
      </trkpt>
      <trkpt lat="48.87588" lon="2.42398">
        <ele>107.40000152588</ele>
        <time>2016-01-25T20:38:45Z</time>
      </trkpt>
      <trkpt lat="48.87568" lon="2.42418">
        <ele>106.59999847412</ele>
        <time>2016-01-25T20:38:49Z</time>
      </trkpt>
      <trkpt lat="48.87552" lon="2.42431">
        <ele>106</ele>
        <time>2016-01-25T20:38:52Z</time>
      </trkpt>
      <trkpt lat="48.87535" lon="2.42444">
        <ele>106</ele>
        <time>2016-01-25T20:38:55Z</time>
      </trkpt>
      <trkpt lat="48.87517" lon="2.42462">
        <ele>106.80000305176</ele>
        <time>2016-01-25T20:38:59Z</time>
      </trkpt>
      <trkpt lat="48.87507" lon="2.42479">
        <ele>107.59999847412</ele>
        <time>2016-01-25T20:39:02Z</time>
      </trkpt>
      <trkpt lat="48.87496" lon="2.42504">
        <ele>108.59999847412</ele>
        <time>2016-01-25T20:39:06Z</time>
      </trkpt>
      <trkpt lat="48.87488" lon="2.4253">
        <ele>109.19999694824</ele>
        <time>2016-01-25T20:39:10Z</time>
      </trkpt>
      <trkpt lat="48.87486" lon="2.42536">
        <ele>109.40000152588</ele>
        <time>2016-01-25T20:39:11Z</time>
      </trkpt>
      <trkpt lat="48.87475" lon="2.42564">
        <ele>110.59999847412</ele>
        <time>2016-01-25T20:39:16Z</time>
      </trkpt>
      <trkpt lat="48.87473" lon="2.4257">
        <ele>111</ele>
        <time>2016-01-25T20:39:17Z</time>
      </trkpt>
      <trkpt lat="48.87462" lon="2.42597">
        <ele>112.40000152588</ele>
        <time>2016-01-25T20:39:23Z</time>
      </trkpt>
      <trkpt lat="48.87451" lon="2.42621">
        <ele>113.40000152588</ele>
        <time>2016-01-25T20:39:28Z</time>
      </trkpt>
      <trkpt lat="48.8744" lon="2.42637">
        <ele>114.40000152588</ele>
        <time>2016-01-25T20:39:32Z</time>
      </trkpt>
      <trkpt lat="48.87433" lon="2.42651">
        <ele>114.80000305176</ele>
        <time>2016-01-25T20:39:35Z</time>
      </trkpt>
      <trkpt lat="48.8742" lon="2.42677">
        <ele>115</ele>
        <time>2016-01-25T20:39:40Z</time>
      </trkpt>
      <trkpt lat="48.87417" lon="2.42682">
        <ele>115</ele>
        <time>2016-01-25T20:39:41Z</time>
      </trkpt>
      <trkpt lat="48.87404" lon="2.4271">
        <ele>115</ele>
        <time>2016-01-25T20:39:46Z</time>
      </trkpt>
      <trkpt lat="48.87393" lon="2.42734">
        <ele>115.40000152588</ele>
        <time>2016-01-25T20:39:50Z</time>
      </trkpt>
      <trkpt lat="48.87383" lon="2.42759">
        <ele>115.59999847412</ele>
        <time>2016-01-25T20:39:54Z</time>
      </trkpt>
      <trkpt lat="48.87373" lon="2.42782">
        <ele>115.80000305176</ele>
        <time>2016-01-25T20:39:58Z</time>
      </trkpt>
      <trkpt lat="48.87367" lon="2.42799">
        <ele>115.80000305176</ele>
        <time>2016-01-25T20:40:01Z</time>
      </trkpt>
      <trkpt lat="48.87359" lon="2.42825">
        <ele>116</ele>
        <time>2016-01-25T20:40:06Z</time>
      </trkpt>
      <trkpt lat="48.8735" lon="2.42854">
        <ele>116.40000152588</ele>
        <time>2016-01-25T20:40:12Z</time>
      </trkpt>
      <trkpt lat="48.87342" lon="2.42876">
        <ele>117</ele>
        <time>2016-01-25T20:40:16Z</time>
      </trkpt>
      <trkpt lat="48.87334" lon="2.4289">
        <ele>117.59999847412</ele>
        <time>2016-01-25T20:40:19Z</time>
      </trkpt>
      <trkpt lat="48.87316" lon="2.42907">
        <ele>118</ele>
        <time>2016-01-25T20:40:24Z</time>
      </trkpt>
      <trkpt lat="48.87299" lon="2.42921">
        <ele>118.19999694824</ele>
        <time>2016-01-25T20:40:28Z</time>
      </trkpt>
      <trkpt lat="48.87284" lon="2.42935">
        <ele>118.59999847412</ele>
        <time>2016-01-25T20:40:32Z</time>
      </trkpt>
      <trkpt lat="48.87267" lon="2.42949">
        <ele>119.59999847412</ele>
        <time>2016-01-25T20:40:36Z</time>
      </trkpt>
      <trkpt lat="48.87251" lon="2.42964">
        <ele>119.19999694824</ele>
        <time>2016-01-25T20:40:40Z</time>
      </trkpt>
      <trkpt lat="48.87236" lon="2.42982">
        <ele>118.40000152588</ele>
        <time>2016-01-25T20:40:44Z</time>
      </trkpt>
      <trkpt lat="48.87228" lon="2.42989">
        <ele>117.80000305176</ele>
        <time>2016-01-25T20:40:46Z</time>
      </trkpt>
      <trkpt lat="48.87211" lon="2.43003">
        <ele>116.59999847412</ele>
        <time>2016-01-25T20:40:50Z</time>
      </trkpt>
      <trkpt lat="48.87191" lon="2.43017">
        <ele>115.40000152588</ele>
        <time>2016-01-25T20:40:55Z</time>
      </trkpt>
      <trkpt lat="48.8717" lon="2.43029">
        <ele>115.40000152588</ele>
        <time>2016-01-25T20:41:00Z</time>
      </trkpt>
      <trkpt lat="48.87153" lon="2.43044">
        <ele>115.59999847412</ele>
        <time>2016-01-25T20:41:05Z</time>
      </trkpt>
      <trkpt lat="48.87135" lon="2.43062">
        <ele>113.80000305176</ele>
        <time>2016-01-25T20:41:10Z</time>
      </trkpt>
      <trkpt lat="48.87118" lon="2.43081">
        <ele>112</ele>
        <time>2016-01-25T20:41:15Z</time>
      </trkpt>
      <trkpt lat="48.87101" lon="2.43099">
        <ele>109.40000152588</ele>
        <time>2016-01-25T20:41:19Z</time>
      </trkpt>
      <trkpt lat="48.87085" lon="2.43116">
        <ele>106.80000305176</ele>
        <time>2016-01-25T20:41:23Z</time>
      </trkpt>
      <trkpt lat="48.87069" lon="2.43135">
        <ele>104.80000305176</ele>
        <time>2016-01-25T20:41:27Z</time>
      </trkpt>
      <trkpt lat="48.87053" lon="2.43153">
        <ele>105.80000305176</ele>
        <time>2016-01-25T20:41:31Z</time>
      </trkpt>
      <trkpt lat="48.87044" lon="2.43164">
        <ele>106.40000152588</ele>
        <time>2016-01-25T20:41:34Z</time>
      </trkpt>
      <trkpt lat="48.87026" lon="2.43182">
        <ele>106.59999847412</ele>
        <time>2016-01-25T20:41:39Z</time>
      </trkpt>
      <trkpt lat="48.87016" lon="2.43192">
        <ele>106.19999694824</ele>
        <time>2016-01-25T20:41:42Z</time>
      </trkpt>
      <trkpt lat="48.87" lon="2.43209">
        <ele>105.40000152588</ele>
        <time>2016-01-25T20:41:47Z</time>
      </trkpt>
      <trkpt lat="48.86996" lon="2.43212">
        <ele>105.19999694824</ele>
        <time>2016-01-25T20:41:48Z</time>
      </trkpt>
      <trkpt lat="48.86977" lon="2.43229">
        <ele>104.59999847412</ele>
        <time>2016-01-25T20:41:53Z</time>
      </trkpt>
      <trkpt lat="48.86962" lon="2.43244">
        <ele>104.40000152588</ele>
        <time>2016-01-25T20:41:57Z</time>
      </trkpt>
      <trkpt lat="48.86943" lon="2.43261">
        <ele>104</ele>
        <time>2016-01-25T20:42:02Z</time>
      </trkpt>
      <trkpt lat="48.86926" lon="2.43276">
        <ele>103.59999847412</ele>
        <time>2016-01-25T20:42:06Z</time>
      </trkpt>
      <trkpt lat="48.86911" lon="2.43291">
        <ele>103.40000152588</ele>
        <time>2016-01-25T20:42:10Z</time>
      </trkpt>
      <trkpt lat="48.86895" lon="2.43305">
        <ele>102.59999847412</ele>
        <time>2016-01-25T20:42:14Z</time>
      </trkpt>
      <trkpt lat="48.86878" lon="2.43319">
        <ele>101.40000152588</ele>
        <time>2016-01-25T20:42:18Z</time>
      </trkpt>
      <trkpt lat="48.86861" lon="2.43333">
        <ele>100.19999694824</ele>
        <time>2016-01-25T20:42:22Z</time>
      </trkpt>
      <trkpt lat="48.86845" lon="2.43346">
        <ele>100</ele>
        <time>2016-01-25T20:42:26Z</time>
      </trkpt>
      <trkpt lat="48.8683" lon="2.4336">
        <ele>100</ele>
        <time>2016-01-25T20:42:30Z</time>
      </trkpt>
      <trkpt lat="48.86823" lon="2.43367">
        <ele>100</ele>
        <time>2016-01-25T20:42:32Z</time>
      </trkpt>
      <trkpt lat="48.86803" lon="2.43382">
        <ele>99.599998474121</ele>
        <time>2016-01-25T20:42:37Z</time>
      </trkpt>
      <trkpt lat="48.86783" lon="2.43393">
        <ele>98.599998474121</ele>
        <time>2016-01-25T20:42:42Z</time>
      </trkpt>
      <trkpt lat="48.86766" lon="2.43399">
        <ele>98.199996948242</ele>
        <time>2016-01-25T20:42:47Z</time>
      </trkpt>
      <trkpt lat="48.86762" lon="2.43401">
        <ele>98.400001525879</ele>
        <time>2016-01-25T20:42:48Z</time>
      </trkpt>
      <trkpt lat="48.86743" lon="2.43413">
        <ele>98.400001525879</ele>
        <time>2016-01-25T20:42:53Z</time>
      </trkpt>
      <trkpt lat="48.86725" lon="2.43426">
        <ele>98.599998474121</ele>
        <time>2016-01-25T20:42:58Z</time>
      </trkpt>
      <trkpt lat="48.86708" lon="2.43438">
        <ele>98.599998474121</ele>
        <time>2016-01-25T20:43:02Z</time>
      </trkpt>
      <trkpt lat="48.867" lon="2.43443">
        <ele>98.199996948242</ele>
        <time>2016-01-25T20:43:04Z</time>
      </trkpt>
      <trkpt lat="48.86683" lon="2.43454">
        <ele>97.400001525879</ele>
        <time>2016-01-25T20:43:08Z</time>
      </trkpt>
      <trkpt lat="48.86664" lon="2.43462">
        <ele>96.400001525879</ele>
        <time>2016-01-25T20:43:12Z</time>
      </trkpt>
      <trkpt lat="48.8665" lon="2.43468">
        <ele>95.599998474121</ele>
        <time>2016-01-25T20:43:15Z</time>
      </trkpt>
      <trkpt lat="48.86632" lon="2.43474">
        <ele>94.400001525879</ele>
        <time>2016-01-25T20:43:19Z</time>
      </trkpt>
      <trkpt lat="48.86615" lon="2.43484">
        <ele>93.199996948242</ele>
        <time>2016-01-25T20:43:23Z</time>
      </trkpt>
      <trkpt lat="48.86596" lon="2.43494">
        <ele>92.199996948242</ele>
        <time>2016-01-25T20:43:27Z</time>
      </trkpt>
      <trkpt lat="48.86578" lon="2.43503">
        <ele>91.800003051758</ele>
        <time>2016-01-25T20:43:31Z</time>
      </trkpt>
      <trkpt lat="48.86559" lon="2.43513">
        <ele>91.599998474121</ele>
        <time>2016-01-25T20:43:35Z</time>
      </trkpt>
      <trkpt lat="48.8654" lon="2.43523">
        <ele>91.199996948242</ele>
        <time>2016-01-25T20:43:39Z</time>
      </trkpt>
      <trkpt lat="48.8652" lon="2.43532">
        <ele>90</ele>
        <time>2016-01-25T20:43:44Z</time>
      </trkpt>
      <trkpt lat="48.86499" lon="2.43542">
        <ele>89.800003051758</ele>
        <time>2016-01-25T20:43:49Z</time>
      </trkpt>
      <trkpt lat="48.86479" lon="2.43554">
        <ele>89.599998474121</ele>
        <time>2016-01-25T20:43:54Z</time>
      </trkpt>
      <trkpt lat="48.86458" lon="2.43567">
        <ele>89.800003051758</ele>
        <time>2016-01-25T20:43:59Z</time>
      </trkpt>
      <trkpt lat="48.86438" lon="2.43582">
        <ele>90</ele>
        <time>2016-01-25T20:44:03Z</time>
      </trkpt>
      <trkpt lat="48.86416" lon="2.43594">
        <ele>89</ele>
        <time>2016-01-25T20:44:07Z</time>
      </trkpt>
      <trkpt lat="48.86397" lon="2.43606">
        <ele>88</ele>
        <time>2016-01-25T20:44:11Z</time>
      </trkpt>
      <trkpt lat="48.8638" lon="2.43618">
        <ele>87.199996948242</ele>
        <time>2016-01-25T20:44:15Z</time>
      </trkpt>
      <trkpt lat="48.86362" lon="2.43627">
        <ele>86.400001525879</ele>
        <time>2016-01-25T20:44:19Z</time>
      </trkpt>
      <trkpt lat="48.86345" lon="2.43637">
        <ele>85.400001525879</ele>
        <time>2016-01-25T20:44:23Z</time>
      </trkpt>
      <trkpt lat="48.86326" lon="2.43647">
        <ele>84.400001525879</ele>
        <time>2016-01-25T20:44:27Z</time>
      </trkpt>
      <trkpt lat="48.86306" lon="2.43655">
        <ele>84.199996948242</ele>
        <time>2016-01-25T20:44:31Z</time>
      </trkpt>
      <trkpt lat="48.86286" lon="2.43661">
        <ele>84.199996948242</ele>
        <time>2016-01-25T20:44:35Z</time>
      </trkpt>
      <trkpt lat="48.86271" lon="2.43666">
        <ele>84</ele>
        <time>2016-01-25T20:44:38Z</time>
      </trkpt>
      <trkpt lat="48.8625" lon="2.43671">
        <ele>83.199996948242</ele>
        <time>2016-01-25T20:44:42Z</time>
      </trkpt>
      <trkpt lat="48.86229" lon="2.43676">
        <ele>82.400001525879</ele>
        <time>2016-01-25T20:44:46Z</time>
      </trkpt>
      <trkpt lat="48.86206" lon="2.43679">
        <ele>81.599998474121</ele>
        <time>2016-01-25T20:44:50Z</time>
      </trkpt>
      <trkpt lat="48.86201" lon="2.4368">
        <ele>81.599998474121</ele>
        <time>2016-01-25T20:44:51Z</time>
      </trkpt>
      <trkpt lat="48.8618" lon="2.43684">
        <ele>82.199996948242</ele>
        <time>2016-01-25T20:44:55Z</time>
      </trkpt>
      <trkpt lat="48.8616" lon="2.4369">
        <ele>82.400001525879</ele>
        <time>2016-01-25T20:44:59Z</time>
      </trkpt>
      <trkpt lat="48.86145" lon="2.43695">
        <ele>82.599998474121</ele>
        <time>2016-01-25T20:45:02Z</time>
      </trkpt>
      <trkpt lat="48.86122" lon="2.437">
        <ele>81</ele>
        <time>2016-01-25T20:45:06Z</time>
      </trkpt>
      <trkpt lat="48.86111" lon="2.43702">
        <ele>79.599998474121</ele>
        <time>2016-01-25T20:45:08Z</time>
      </trkpt>
      <trkpt lat="48.86089" lon="2.43703">
        <ele>77.800003051758</ele>
        <time>2016-01-25T20:45:12Z</time>
      </trkpt>
      <trkpt lat="48.86067" lon="2.43704">
        <ele>75.800003051758</ele>
        <time>2016-01-25T20:45:16Z</time>
      </trkpt>
      <trkpt lat="48.86056" lon="2.43704">
        <ele>75</ele>
        <time>2016-01-25T20:45:18Z</time>
      </trkpt>
      <trkpt lat="48.86034" lon="2.43701">
        <ele>73.400001525879</ele>
        <time>2016-01-25T20:45:22Z</time>
      </trkpt>
      <trkpt lat="48.86011" lon="2.43699">
        <ele>72.800003051758</ele>
        <time>2016-01-25T20:45:26Z</time>
      </trkpt>
      <trkpt lat="48.85992" lon="2.43693">
        <ele>73.400001525879</ele>
        <time>2016-01-25T20:45:30Z</time>
      </trkpt>
      <trkpt lat="48.85971" lon="2.43685">
        <ele>74</ele>
        <time>2016-01-25T20:45:34Z</time>
      </trkpt>
      <trkpt lat="48.8595" lon="2.43677">
        <ele>74.599998474121</ele>
        <time>2016-01-25T20:45:38Z</time>
      </trkpt>
      <trkpt lat="48.8594" lon="2.43675">
        <ele>74.800003051758</ele>
        <time>2016-01-25T20:45:40Z</time>
      </trkpt>
      <trkpt lat="48.85929" lon="2.43672">
        <ele>74.400001525879</ele>
        <time>2016-01-25T20:45:42Z</time>
      </trkpt>
      <trkpt lat="48.85907" lon="2.43666">
        <ele>73.400001525879</ele>
        <time>2016-01-25T20:45:46Z</time>
      </trkpt>
      <trkpt lat="48.85887" lon="2.43657">
        <ele>72.599998474121</ele>
        <time>2016-01-25T20:45:50Z</time>
      </trkpt>
      <trkpt lat="48.8587" lon="2.43652">
        <ele>71.800003051758</ele>
        <time>2016-01-25T20:45:53Z</time>
      </trkpt>
      <trkpt lat="48.85851" lon="2.43646">
        <ele>71.199996948242</ele>
        <time>2016-01-25T20:45:57Z</time>
      </trkpt>
      <trkpt lat="48.85833" lon="2.43641">
        <ele>70.800003051758</ele>
        <time>2016-01-25T20:46:01Z</time>
      </trkpt>
      <trkpt lat="48.85822" lon="2.43634">
        <ele>70.599998474121</ele>
        <time>2016-01-25T20:46:04Z</time>
      </trkpt>
      <trkpt lat="48.85817" lon="2.4362">
        <ele>70.599998474121</ele>
        <time>2016-01-25T20:46:08Z</time>
      </trkpt>
      <trkpt lat="48.85816" lon="2.43612">
        <ele>70.599998474121</ele>
        <time>2016-01-25T20:46:11Z</time>
      </trkpt>
      <trkpt lat="48.85817" lon="2.43602">
        <ele>70.800003051758</ele>
        <time>2016-01-25T20:46:18Z</time>
      </trkpt>
      <trkpt lat="48.8581" lon="2.43589">
        <ele>70.800003051758</ele>
        <time>2016-01-25T20:46:55Z</time>
      </trkpt>
      <trkpt lat="48.85801" lon="2.43567">
        <ele>70.599998474121</ele>
        <time>2016-01-25T20:47:03Z</time>
      </trkpt>
      <trkpt lat="48.85782" lon="2.4357">
        <ele>70.199996948242</ele>
        <time>2016-01-25T20:47:12Z</time>
      </trkpt>
      <trkpt lat="48.85767" lon="2.43567">
        <ele>70</ele>
        <time>2016-01-25T20:47:18Z</time>
      </trkpt>
      <trkpt lat="48.85759" lon="2.43542">
        <ele>69.800003051758</ele>
        <time>2016-01-25T20:47:25Z</time>
      </trkpt>
      <trkpt lat="48.8575" lon="2.43516">
        <ele>69.800003051758</ele>
        <time>2016-01-25T20:47:32Z</time>
      </trkpt>
      <trkpt lat="48.85748" lon="2.43505">
        <ele>69.599998474121</ele>
        <time>2016-01-25T20:47:35Z</time>
      </trkpt>
      <trkpt lat="48.85745" lon="2.43485">
        <ele>69.800003051758</ele>
        <time>2016-01-25T20:47:41Z</time>
      </trkpt>
      <trkpt lat="48.85727" lon="2.4348">
        <ele>69.599998474121</ele>
        <time>2016-01-25T20:47:50Z</time>
      </trkpt>
      <trkpt lat="48.85709" lon="2.43477">
        <ele>69.400001525879</ele>
        <time>2016-01-25T20:47:58Z</time>
      </trkpt>
      <trkpt lat="48.85689" lon="2.4348">
        <ele>69.199996948242</ele>
        <time>2016-01-25T20:48:06Z</time>
      </trkpt>
      <trkpt lat="48.85668" lon="2.43481">
        <ele>68.800003051758</ele>
        <time>2016-01-25T20:48:12Z</time>
      </trkpt>
      <trkpt lat="48.85649" lon="2.43479">
        <ele>68.599998474121</ele>
        <time>2016-01-25T20:48:17Z</time>
      </trkpt>
      <trkpt lat="48.85628" lon="2.43469">
        <ele>68.199996948242</ele>
        <time>2016-01-25T20:48:22Z</time>
      </trkpt>
      <trkpt lat="48.85611" lon="2.43458">
        <ele>68</ele>
        <time>2016-01-25T20:48:26Z</time>
      </trkpt>
      <trkpt lat="48.85595" lon="2.43445">
        <ele>67.800003051758</ele>
        <time>2016-01-25T20:48:30Z</time>
      </trkpt>
      <trkpt lat="48.85575" lon="2.43429">
        <ele>67.599998474121</ele>
        <time>2016-01-25T20:48:35Z</time>
      </trkpt>
      <trkpt lat="48.85555" lon="2.43417">
        <ele>67.400001525879</ele>
        <time>2016-01-25T20:48:40Z</time>
      </trkpt>
      <trkpt lat="48.85536" lon="2.43402">
        <ele>67.199996948242</ele>
        <time>2016-01-25T20:48:45Z</time>
      </trkpt>
      <trkpt lat="48.85516" lon="2.4339">
        <ele>66.800003051758</ele>
        <time>2016-01-25T20:48:50Z</time>
      </trkpt>
      <trkpt lat="48.85498" lon="2.4338">
        <ele>66.199996948242</ele>
        <time>2016-01-25T20:48:54Z</time>
      </trkpt>
      <trkpt lat="48.85477" lon="2.43368">
        <ele>65.400001525879</ele>
        <time>2016-01-25T20:48:59Z</time>
      </trkpt>
      <trkpt lat="48.8546" lon="2.43358">
        <ele>64.800003051758</ele>
        <time>2016-01-25T20:49:03Z</time>
      </trkpt>
      <trkpt lat="48.85442" lon="2.43349">
        <ele>64.199996948242</ele>
        <time>2016-01-25T20:49:07Z</time>
      </trkpt>
      <trkpt lat="48.85424" lon="2.43335">
        <ele>63.79999923706</ele>
        <time>2016-01-25T20:49:12Z</time>
      </trkpt>
      <trkpt lat="48.85407" lon="2.43324">
        <ele>63.599998474121</ele>
        <time>2016-01-25T20:49:17Z</time>
      </trkpt>
      <trkpt lat="48.85404" lon="2.43321">
        <ele>63.599998474121</ele>
        <time>2016-01-25T20:49:18Z</time>
      </trkpt>
      <trkpt lat="48.85387" lon="2.43309">
        <ele>63.400001525879</ele>
        <time>2016-01-25T20:49:23Z</time>
      </trkpt>
      <trkpt lat="48.8537" lon="2.43299">
        <ele>63.20000076294</ele>
        <time>2016-01-25T20:49:29Z</time>
      </trkpt>
      <trkpt lat="48.85367" lon="2.43298">
        <ele>63.20000076294</ele>
        <time>2016-01-25T20:49:30Z</time>
      </trkpt>
      <trkpt lat="48.85347" lon="2.43291">
        <ele>62.599998474121</ele>
        <time>2016-01-25T20:49:36Z</time>
      </trkpt>
      <trkpt lat="48.85326" lon="2.43287">
        <ele>62</ele>
        <time>2016-01-25T20:49:41Z</time>
      </trkpt>
      <trkpt lat="48.85307" lon="2.43286">
        <ele>61.20000076294</ele>
        <time>2016-01-25T20:49:45Z</time>
      </trkpt>
      <trkpt lat="48.85285" lon="2.43285">
        <ele>60.400001525879</ele>
        <time>2016-01-25T20:49:50Z</time>
      </trkpt>
      <trkpt lat="48.85263" lon="2.43279">
        <ele>59.400001525879</ele>
        <time>2016-01-25T20:49:55Z</time>
      </trkpt>
      <trkpt lat="48.85244" lon="2.43274">
        <ele>58.400001525879</ele>
        <time>2016-01-25T20:49:59Z</time>
      </trkpt>
      <trkpt lat="48.85226" lon="2.43267">
        <ele>57.20000076294</ele>
        <time>2016-01-25T20:50:03Z</time>
      </trkpt>
      <trkpt lat="48.85208" lon="2.43261">
        <ele>56.20000076294</ele>
        <time>2016-01-25T20:50:07Z</time>
      </trkpt>
      <trkpt lat="48.85187" lon="2.43253">
        <ele>55.20000076294</ele>
        <time>2016-01-25T20:50:12Z</time>
      </trkpt>
      <trkpt lat="48.85168" lon="2.43247">
        <ele>55.599998474121</ele>
        <time>2016-01-25T20:50:17Z</time>
      </trkpt>
      <trkpt lat="48.8516" lon="2.43245">
        <ele>55.599998474121</ele>
        <time>2016-01-25T20:50:19Z</time>
      </trkpt>
      <trkpt lat="48.85141" lon="2.43241">
        <ele>56</ele>
        <time>2016-01-25T20:50:24Z</time>
      </trkpt>
      <trkpt lat="48.85139" lon="2.43241">
        <ele>56.20000076294</ele>
        <time>2016-01-25T20:50:25Z</time>
      </trkpt>
      <trkpt lat="48.85122" lon="2.43231">
        <ele>56.400001525879</ele>
        <time>2016-01-25T20:50:32Z</time>
      </trkpt>
      <trkpt lat="48.85119" lon="2.43214">
        <ele>56.20000076294</ele>
        <time>2016-01-25T20:50:37Z</time>
      </trkpt>
      <trkpt lat="48.85113" lon="2.43186">
        <ele>56</ele>
        <time>2016-01-25T20:50:44Z</time>
      </trkpt>
      <trkpt lat="48.85105" lon="2.43159">
        <ele>56</ele>
        <time>2016-01-25T20:50:51Z</time>
      </trkpt>
      <trkpt lat="48.85105" lon="2.43129">
        <ele>55.599998474121</ele>
        <time>2016-01-25T20:50:58Z</time>
      </trkpt>
      <trkpt lat="48.85106" lon="2.43097">
        <ele>55.20000076294</ele>
        <time>2016-01-25T20:51:04Z</time>
      </trkpt>
      <trkpt lat="48.85107" lon="2.43067">
        <ele>55</ele>
        <time>2016-01-25T20:51:10Z</time>
      </trkpt>
      <trkpt lat="48.8511" lon="2.43036">
        <ele>55</ele>
        <time>2016-01-25T20:51:16Z</time>
      </trkpt>
      <trkpt lat="48.85113" lon="2.43004">
        <ele>55</ele>
        <time>2016-01-25T20:51:22Z</time>
      </trkpt>
      <trkpt lat="48.85114" lon="2.42975">
        <ele>55.400001525879</ele>
        <time>2016-01-25T20:51:28Z</time>
      </trkpt>
      <trkpt lat="48.85115" lon="2.42968">
        <ele>55.400001525879</ele>
        <time>2016-01-25T20:51:30Z</time>
      </trkpt>
      <trkpt lat="48.8513" lon="2.42946">
        <ele>56</ele>
        <time>2016-01-25T20:51:37Z</time>
      </trkpt>
      <trkpt lat="48.85146" lon="2.42923">
        <ele>56</ele>
        <time>2016-01-25T20:51:43Z</time>
      </trkpt>
      <trkpt lat="48.85158" lon="2.429">
        <ele>55.79999923706</ele>
        <time>2016-01-25T20:51:48Z</time>
      </trkpt>
      <trkpt lat="48.85171" lon="2.42879">
        <ele>55.599998474121</ele>
        <time>2016-01-25T20:51:53Z</time>
      </trkpt>
      <trkpt lat="48.85187" lon="2.42862">
        <ele>55.400001525879</ele>
        <time>2016-01-25T20:51:57Z</time>
      </trkpt>
      <trkpt lat="48.85201" lon="2.42846">
        <ele>55.400001525879</ele>
        <time>2016-01-25T20:52:01Z</time>
      </trkpt>
      <trkpt lat="48.85218" lon="2.42827">
        <ele>55.599998474121</ele>
        <time>2016-01-25T20:52:06Z</time>
      </trkpt>
      <trkpt lat="48.85233" lon="2.42813">
        <ele>56</ele>
        <time>2016-01-25T20:52:12Z</time>
      </trkpt>
      <trkpt lat="48.85251" lon="2.42802">
        <ele>56.400001525879</ele>
        <time>2016-01-25T20:52:21Z</time>
      </trkpt>
      <trkpt lat="48.8527" lon="2.42797">
        <ele>57</ele>
        <time>2016-01-25T20:52:28Z</time>
      </trkpt>
      <trkpt lat="48.85289" lon="2.4279">
        <ele>57.79999923706</ele>
        <time>2016-01-25T20:52:33Z</time>
      </trkpt>
      <trkpt lat="48.85307" lon="2.42785">
        <ele>58.599998474121</ele>
        <time>2016-01-25T20:52:38Z</time>
      </trkpt>
      <trkpt lat="48.85325" lon="2.42782">
        <ele>59.20000076294</ele>
        <time>2016-01-25T20:52:44Z</time>
      </trkpt>
      <trkpt lat="48.85343" lon="2.42778">
        <ele>59.79999923706</ele>
        <time>2016-01-25T20:52:50Z</time>
      </trkpt>
      <trkpt lat="48.85363" lon="2.42776">
        <ele>60.400001525879</ele>
        <time>2016-01-25T20:52:55Z</time>
      </trkpt>
      <trkpt lat="48.85381" lon="2.42769">
        <ele>60.20000076294</ele>
        <time>2016-01-25T20:53:00Z</time>
      </trkpt>
      <trkpt lat="48.85401" lon="2.42759">
        <ele>60.20000076294</ele>
        <time>2016-01-25T20:53:04Z</time>
      </trkpt>
      <trkpt lat="48.85421" lon="2.42752">
        <ele>60</ele>
        <time>2016-01-25T20:53:09Z</time>
      </trkpt>
      <trkpt lat="48.85441" lon="2.42752">
        <ele>60.20000076294</ele>
        <time>2016-01-25T20:53:14Z</time>
      </trkpt>
      <trkpt lat="48.85461" lon="2.42749">
        <ele>60.599998474121</ele>
        <time>2016-01-25T20:53:19Z</time>
      </trkpt>
      <trkpt lat="48.85482" lon="2.42747">
        <ele>61</ele>
        <time>2016-01-25T20:53:24Z</time>
      </trkpt>
      <trkpt lat="48.85501" lon="2.42743">
        <ele>61.400001525879</ele>
        <time>2016-01-25T20:53:29Z</time>
      </trkpt>
      <trkpt lat="48.85521" lon="2.42739">
        <ele>62</ele>
        <time>2016-01-25T20:53:34Z</time>
      </trkpt>
      <trkpt lat="48.8554" lon="2.42735">
        <ele>62.20000076294</ele>
        <time>2016-01-25T20:53:39Z</time>
      </trkpt>
      <trkpt lat="48.85558" lon="2.42731">
        <ele>62.400001525879</ele>
        <time>2016-01-25T20:53:45Z</time>
      </trkpt>
      <trkpt lat="48.85579" lon="2.42729">
        <ele>62.599998474121</ele>
        <time>2016-01-25T20:53:53Z</time>
      </trkpt>
      <trkpt lat="48.856" lon="2.42727">
        <ele>63.400001525879</ele>
        <time>2016-01-25T20:54:00Z</time>
      </trkpt>
      <trkpt lat="48.85619" lon="2.4273">
        <ele>63.79999923706</ele>
        <time>2016-01-25T20:54:07Z</time>
      </trkpt>
      <trkpt lat="48.85634" lon="2.42732">
        <ele>64</ele>
        <time>2016-01-25T20:54:13Z</time>
      </trkpt>
      <trkpt lat="48.85657" lon="2.42737">
        <ele>64</ele>
        <time>2016-01-25T20:55:04Z</time>
      </trkpt>
      <trkpt lat="48.85675" lon="2.42736">
        <ele>64.400001525879</ele>
        <time>2016-01-25T20:55:14Z</time>
      </trkpt>
      <trkpt lat="48.85695" lon="2.42736">
        <ele>64.800003051758</ele>
        <time>2016-01-25T20:55:20Z</time>
      </trkpt>
      <trkpt lat="48.85715" lon="2.42735">
        <ele>66.199996948242</ele>
        <time>2016-01-25T20:55:26Z</time>
      </trkpt>
      <trkpt lat="48.85737" lon="2.42733">
        <ele>67.800003051758</ele>
        <time>2016-01-25T20:55:32Z</time>
      </trkpt>
      <trkpt lat="48.85754" lon="2.42742">
        <ele>68.800003051758</ele>
        <time>2016-01-25T20:55:38Z</time>
      </trkpt>
      <trkpt lat="48.85763" lon="2.42767">
        <ele>69.199996948242</ele>
        <time>2016-01-25T20:55:44Z</time>
      </trkpt>
      <trkpt lat="48.85764" lon="2.42772">
        <ele>69.400001525879</ele>
        <time>2016-01-25T20:55:45Z</time>
      </trkpt>
      <trkpt lat="48.85776" lon="2.42798">
        <ele>70</ele>
        <time>2016-01-25T20:55:53Z</time>
      </trkpt>
      <trkpt lat="48.85789" lon="2.4282">
        <ele>69.599998474121</ele>
        <time>2016-01-25T20:56:00Z</time>
      </trkpt>
      <trkpt lat="48.85803" lon="2.42841">
        <ele>69.400001525879</ele>
        <time>2016-01-25T20:56:08Z</time>
      </trkpt>
      <trkpt lat="48.85817" lon="2.42864">
        <ele>69.599998474121</ele>
        <time>2016-01-25T20:56:16Z</time>
      </trkpt>
      <trkpt lat="48.8583" lon="2.42885">
        <ele>69.800003051758</ele>
        <time>2016-01-25T20:56:24Z</time>
      </trkpt>
      <trkpt lat="48.85844" lon="2.42906">
        <ele>70</ele>
        <time>2016-01-25T20:56:32Z</time>
      </trkpt>
      <trkpt lat="48.85853" lon="2.42915">
        <ele>70</ele>
        <time>2016-01-25T20:56:41Z</time>
      </trkpt>
      <trkpt lat="48.85862" lon="2.42893">
        <ele>69.599998474121</ele>
        <time>2016-01-25T20:57:00Z</time>
      </trkpt>
      <trkpt lat="48.85865" lon="2.42863">
        <ele>69</ele>
        <time>2016-01-25T20:57:06Z</time>
      </trkpt>
      <trkpt lat="48.85866" lon="2.42835">
        <ele>68.400001525879</ele>
        <time>2016-01-25T20:57:11Z</time>
      </trkpt>
      <trkpt lat="48.85867" lon="2.42807">
        <ele>68.800003051758</ele>
        <time>2016-01-25T20:57:16Z</time>
      </trkpt>
      <trkpt lat="48.85867" lon="2.42777">
        <ele>69</ele>
        <time>2016-01-25T20:57:21Z</time>
      </trkpt>
      <trkpt lat="48.8587" lon="2.42746">
        <ele>69.199996948242</ele>
        <time>2016-01-25T20:57:26Z</time>
      </trkpt>
      <trkpt lat="48.85876" lon="2.42717">
        <ele>69.199996948242</ele>
        <time>2016-01-25T20:57:31Z</time>
      </trkpt>
      <trkpt lat="48.85884" lon="2.42688">
        <ele>69.400001525879</ele>
        <time>2016-01-25T20:57:37Z</time>
      </trkpt>
      <trkpt lat="48.85891" lon="2.42662">
        <ele>70</ele>
        <time>2016-01-25T20:57:42Z</time>
      </trkpt>
      <trkpt lat="48.85899" lon="2.42633">
        <ele>70.800003051758</ele>
        <time>2016-01-25T20:57:48Z</time>
      </trkpt>
      <trkpt lat="48.85906" lon="2.42605">
        <ele>71.599998474121</ele>
        <time>2016-01-25T20:57:54Z</time>
      </trkpt>
      <trkpt lat="48.85912" lon="2.42578">
        <ele>72.199996948242</ele>
        <time>2016-01-25T20:58:01Z</time>
      </trkpt>
      <trkpt lat="48.85919" lon="2.42551">
        <ele>72.599998474121</ele>
        <time>2016-01-25T20:58:08Z</time>
      </trkpt>
      <trkpt lat="48.85926" lon="2.42522">
        <ele>74.199996948242</ele>
        <time>2016-01-25T20:58:15Z</time>
      </trkpt>
      <trkpt lat="48.85932" lon="2.42497">
        <ele>75.400001525879</ele>
        <time>2016-01-25T20:58:21Z</time>
      </trkpt>
      <trkpt lat="48.8594" lon="2.4247">
        <ele>75.599998474121</ele>
        <time>2016-01-25T20:58:28Z</time>
      </trkpt>
      <trkpt lat="48.85948" lon="2.42441">
        <ele>76</ele>
        <time>2016-01-25T20:58:35Z</time>
      </trkpt>
      <trkpt lat="48.85957" lon="2.42414">
        <ele>75.400001525879</ele>
        <time>2016-01-25T20:58:41Z</time>
      </trkpt>
      <trkpt lat="48.85964" lon="2.42387">
        <ele>74.199996948242</ele>
        <time>2016-01-25T20:58:47Z</time>
      </trkpt>
      <trkpt lat="48.85971" lon="2.4236">
        <ele>73.199996948242</ele>
        <time>2016-01-25T20:58:53Z</time>
      </trkpt>
      <trkpt lat="48.85977" lon="2.42332">
        <ele>72.400001525879</ele>
        <time>2016-01-25T20:58:58Z</time>
      </trkpt>
      <trkpt lat="48.85985" lon="2.42301">
        <ele>71.599998474121</ele>
        <time>2016-01-25T20:59:03Z</time>
      </trkpt>
      <trkpt lat="48.85993" lon="2.42273">
        <ele>71.199996948242</ele>
        <time>2016-01-25T20:59:07Z</time>
      </trkpt>
      <trkpt lat="48.86" lon="2.42245">
        <ele>70.800003051758</ele>
        <time>2016-01-25T20:59:11Z</time>
      </trkpt>
      <trkpt lat="48.86005" lon="2.42215">
        <ele>70.800003051758</ele>
        <time>2016-01-25T20:59:15Z</time>
      </trkpt>
      <trkpt lat="48.86012" lon="2.42188">
        <ele>71.199996948242</ele>
        <time>2016-01-25T20:59:19Z</time>
      </trkpt>
      <trkpt lat="48.86018" lon="2.42162">
        <ele>71.800003051758</ele>
        <time>2016-01-25T20:59:23Z</time>
      </trkpt>
      <trkpt lat="48.86023" lon="2.42132">
        <ele>71.599998474121</ele>
        <time>2016-01-25T20:59:28Z</time>
      </trkpt>
      <trkpt lat="48.86029" lon="2.42106">
        <ele>71.599998474121</ele>
        <time>2016-01-25T20:59:32Z</time>
      </trkpt>
      <trkpt lat="48.86039" lon="2.42077">
        <ele>71.199996948242</ele>
        <time>2016-01-25T20:59:36Z</time>
      </trkpt>
      <trkpt lat="48.86045" lon="2.42055">
        <ele>71</ele>
        <time>2016-01-25T20:59:39Z</time>
      </trkpt>
      <trkpt lat="48.86051" lon="2.42026">
        <ele>70.599998474121</ele>
        <time>2016-01-25T20:59:43Z</time>
      </trkpt>
      <trkpt lat="48.86057" lon="2.41998">
        <ele>70.800003051758</ele>
        <time>2016-01-25T20:59:47Z</time>
      </trkpt>
      <trkpt lat="48.86061" lon="2.41983">
        <ele>70.599998474121</ele>
        <time>2016-01-25T20:59:49Z</time>
      </trkpt>
      <trkpt lat="48.86068" lon="2.41954">
        <ele>70</ele>
        <time>2016-01-25T20:59:53Z</time>
      </trkpt>
      <trkpt lat="48.86076" lon="2.41923">
        <ele>70</ele>
        <time>2016-01-25T20:59:57Z</time>
      </trkpt>
      <trkpt lat="48.86078" lon="2.41915">
        <ele>70</ele>
        <time>2016-01-25T20:59:58Z</time>
      </trkpt>
      <trkpt lat="48.86082" lon="2.41899">
        <ele>70</ele>
        <time>2016-01-25T21:00:00Z</time>
      </trkpt>
      <trkpt lat="48.86089" lon="2.41867">
        <ele>70.199996948242</ele>
        <time>2016-01-25T21:00:04Z</time>
      </trkpt>
      <trkpt lat="48.86101" lon="2.4184">
        <ele>70.800003051758</ele>
        <time>2016-01-25T21:00:08Z</time>
      </trkpt>
      <trkpt lat="48.86104" lon="2.41834">
        <ele>71</ele>
        <time>2016-01-25T21:00:09Z</time>
      </trkpt>
      <trkpt lat="48.86119" lon="2.41811">
        <ele>70.199996948242</ele>
        <time>2016-01-25T21:00:13Z</time>
      </trkpt>
      <trkpt lat="48.86134" lon="2.41788">
        <ele>69.400001525879</ele>
        <time>2016-01-25T21:00:17Z</time>
      </trkpt>
      <trkpt lat="48.86147" lon="2.41763">
        <ele>68.800003051758</ele>
        <time>2016-01-25T21:00:21Z</time>
      </trkpt>
      <trkpt lat="48.86162" lon="2.41738">
        <ele>68.599998474121</ele>
        <time>2016-01-25T21:00:25Z</time>
      </trkpt>
      <trkpt lat="48.86176" lon="2.4171">
        <ele>69.400001525879</ele>
        <time>2016-01-25T21:00:29Z</time>
      </trkpt>
      <trkpt lat="48.86189" lon="2.41689">
        <ele>70.400001525879</ele>
        <time>2016-01-25T21:00:33Z</time>
      </trkpt>
      <trkpt lat="48.86196" lon="2.41679">
        <ele>70.800003051758</ele>
        <time>2016-01-25T21:00:35Z</time>
      </trkpt>
      <trkpt lat="48.86202" lon="2.41668">
        <ele>70.800003051758</ele>
        <time>2016-01-25T21:00:37Z</time>
      </trkpt>
      <trkpt lat="48.86212" lon="2.41652">
        <ele>70.800003051758</ele>
        <time>2016-01-25T21:00:40Z</time>
      </trkpt>
      <trkpt lat="48.86225" lon="2.41631">
        <ele>70.599998474121</ele>
        <time>2016-01-25T21:00:44Z</time>
      </trkpt>
      <trkpt lat="48.86239" lon="2.4161">
        <ele>71.199996948242</ele>
        <time>2016-01-25T21:00:48Z</time>
      </trkpt>
      <trkpt lat="48.86249" lon="2.41595">
        <ele>72</ele>
        <time>2016-01-25T21:00:51Z</time>
      </trkpt>
      <trkpt lat="48.86263" lon="2.41572">
        <ele>72.800003051758</ele>
        <time>2016-01-25T21:00:55Z</time>
      </trkpt>
      <trkpt lat="48.86275" lon="2.41555">
        <ele>73</ele>
        <time>2016-01-25T21:00:58Z</time>
      </trkpt>
      <trkpt lat="48.86287" lon="2.41535">
        <ele>73.599998474121</ele>
        <time>2016-01-25T21:01:02Z</time>
      </trkpt>
      <trkpt lat="48.86295" lon="2.41521">
        <ele>74</ele>
        <time>2016-01-25T21:01:05Z</time>
      </trkpt>
      <trkpt lat="48.86307" lon="2.41503">
        <ele>75</ele>
        <time>2016-01-25T21:01:09Z</time>
      </trkpt>
      <trkpt lat="48.86313" lon="2.41495">
        <ele>75.199996948242</ele>
        <time>2016-01-25T21:01:11Z</time>
      </trkpt>
      <trkpt lat="48.86324" lon="2.41477">
        <ele>75.199996948242</ele>
        <time>2016-01-25T21:01:15Z</time>
      </trkpt>
      <trkpt lat="48.86331" lon="2.41463">
        <ele>75.199996948242</ele>
        <time>2016-01-25T21:01:18Z</time>
      </trkpt>
      <trkpt lat="48.86343" lon="2.41442">
        <ele>75.199996948242</ele>
        <time>2016-01-25T21:01:23Z</time>
      </trkpt>
      <trkpt lat="48.86345" lon="2.41438">
        <ele>75.199996948242</ele>
        <time>2016-01-25T21:01:24Z</time>
      </trkpt>
      <trkpt lat="48.86353" lon="2.41427">
        <ele>75.199996948242</ele>
        <time>2016-01-25T21:01:27Z</time>
      </trkpt>
      <trkpt lat="48.86362" lon="2.4141">
        <ele>75.599998474121</ele>
        <time>2016-01-25T21:01:33Z</time>
      </trkpt>
      <trkpt lat="48.86372" lon="2.41397">
        <ele>76.800003051758</ele>
        <time>2016-01-25T21:01:42Z</time>
      </trkpt>
      <trkpt lat="48.86378" lon="2.41389">
        <ele>77.599998474121</ele>
        <time>2016-01-25T21:01:47Z</time>
      </trkpt>
      <trkpt lat="48.86377" lon="2.41378">
        <ele>78.199996948242</ele>
        <time>2016-01-25T21:01:58Z</time>
      </trkpt>
      <trkpt lat="48.86371" lon="2.41367">
        <ele>78.599998474121</ele>
        <time>2016-01-25T21:02:06Z</time>
      </trkpt>
      <trkpt lat="48.86375" lon="2.41357">
        <ele>79.400001525879</ele>
        <time>2016-01-25T21:02:10Z</time>
      </trkpt>
      <trkpt lat="48.86389" lon="2.41334">
        <ele>79.199996948242</ele>
        <time>2016-01-25T21:02:17Z</time>
      </trkpt>
      <trkpt lat="48.86404" lon="2.41314">
        <ele>79</ele>
        <time>2016-01-25T21:02:23Z</time>
      </trkpt>
      <trkpt lat="48.86421" lon="2.41298">
        <ele>79.599998474121</ele>
        <time>2016-01-25T21:02:31Z</time>
      </trkpt>
      <trkpt lat="48.86427" lon="2.41292">
        <ele>80</ele>
        <time>2016-01-25T21:02:34Z</time>
      </trkpt>
      <trkpt lat="48.8644" lon="2.4127">
        <ele>81.800003051758</ele>
        <time>2016-01-25T21:02:42Z</time>
      </trkpt>
      <trkpt lat="48.8645" lon="2.41242">
        <ele>82.800003051758</ele>
        <time>2016-01-25T21:02:49Z</time>
      </trkpt>
      <trkpt lat="48.86459" lon="2.41215">
        <ele>83</ele>
        <time>2016-01-25T21:02:56Z</time>
      </trkpt>
      <trkpt lat="48.86471" lon="2.41193">
        <ele>83</ele>
        <time>2016-01-25T21:03:04Z</time>
      </trkpt>
      <trkpt lat="48.86482" lon="2.41169">
        <ele>83.800003051758</ele>
        <time>2016-01-25T21:03:11Z</time>
      </trkpt>
      <trkpt lat="48.86491" lon="2.41147">
        <ele>83.199996948242</ele>
        <time>2016-01-25T21:03:20Z</time>
      </trkpt>
      <trkpt lat="48.86494" lon="2.4114">
        <ele>82.800003051758</ele>
        <time>2016-01-25T21:03:27Z</time>
      </trkpt>
      <trkpt lat="48.8649" lon="2.4111">
        <ele>82.599998474121</ele>
        <time>2016-01-25T21:04:10Z</time>
      </trkpt>
      <trkpt lat="48.86481" lon="2.41083">
        <ele>82.400001525879</ele>
        <time>2016-01-25T21:04:19Z</time>
      </trkpt>
      <trkpt lat="48.86474" lon="2.41056">
        <ele>82.400001525879</ele>
        <time>2016-01-25T21:04:27Z</time>
      </trkpt>
      <trkpt lat="48.86466" lon="2.41031">
        <ele>82.199996948242</ele>
        <time>2016-01-25T21:04:36Z</time>
      </trkpt>
      <trkpt lat="48.86464" lon="2.41029">
        <ele>82.199996948242</ele>
        <time>2016-01-25T21:04:37Z</time>
      </trkpt>
      <trkpt lat="48.86447" lon="2.41036">
        <ele>81</ele>
        <time>2016-01-25T21:04:43Z</time>
      </trkpt>
      <trkpt lat="48.86431" lon="2.41048">
        <ele>80</ele>
        <time>2016-01-25T21:04:49Z</time>
      </trkpt>
      <trkpt lat="48.8641" lon="2.41058">
        <ele>79.400001525879</ele>
        <time>2016-01-25T21:04:56Z</time>
      </trkpt>
      <trkpt lat="48.86391" lon="2.41069">
        <ele>79.199996948242</ele>
        <time>2016-01-25T21:05:02Z</time>
      </trkpt>
      <trkpt lat="48.86372" lon="2.41077">
        <ele>79.199996948242</ele>
        <time>2016-01-25T21:05:07Z</time>
      </trkpt>
      <trkpt lat="48.86353" lon="2.41082">
        <ele>79</ele>
        <time>2016-01-25T21:05:12Z</time>
      </trkpt>
      <trkpt lat="48.86334" lon="2.41085">
        <ele>78.800003051758</ele>
        <time>2016-01-25T21:05:17Z</time>
      </trkpt>
      <trkpt lat="48.86312" lon="2.4109">
        <ele>78.800003051758</ele>
        <time>2016-01-25T21:05:22Z</time>
      </trkpt>
      <trkpt lat="48.86292" lon="2.41095">
        <ele>78.599998474121</ele>
        <time>2016-01-25T21:05:27Z</time>
      </trkpt>
      <trkpt lat="48.86272" lon="2.41101">
        <ele>77.800003051758</ele>
        <time>2016-01-25T21:05:31Z</time>
      </trkpt>
      <trkpt lat="48.86252" lon="2.41101">
        <ele>76.400001525879</ele>
        <time>2016-01-25T21:05:35Z</time>
      </trkpt>
      <trkpt lat="48.86232" lon="2.41102">
        <ele>74.800003051758</ele>
        <time>2016-01-25T21:05:40Z</time>
      </trkpt>
      <trkpt lat="48.86214" lon="2.41102">
        <ele>73.599998474121</ele>
        <time>2016-01-25T21:05:44Z</time>
      </trkpt>
      <trkpt lat="48.86193" lon="2.41104">
        <ele>72.599998474121</ele>
        <time>2016-01-25T21:05:49Z</time>
      </trkpt>
      <trkpt lat="48.86181" lon="2.41104">
        <ele>72.199996948242</ele>
        <time>2016-01-25T21:05:52Z</time>
      </trkpt>
      <trkpt lat="48.86159" lon="2.41105">
        <ele>71.400001525879</ele>
        <time>2016-01-25T21:05:57Z</time>
      </trkpt>
      <trkpt lat="48.8614" lon="2.41107">
        <ele>70.599998474121</ele>
        <time>2016-01-25T21:06:01Z</time>
      </trkpt>
      <trkpt lat="48.8612" lon="2.41108">
        <ele>69.800003051758</ele>
        <time>2016-01-25T21:06:05Z</time>
      </trkpt>
      <trkpt lat="48.86099" lon="2.41113">
        <ele>69.800003051758</ele>
        <time>2016-01-25T21:06:10Z</time>
      </trkpt>
      <trkpt lat="48.86087" lon="2.41114">
        <ele>70.599998474121</ele>
        <time>2016-01-25T21:06:13Z</time>
      </trkpt>
      <trkpt lat="48.8608" lon="2.41115">
        <ele>71.199996948242</ele>
        <time>2016-01-25T21:06:15Z</time>
      </trkpt>
      <trkpt lat="48.86067" lon="2.41116">
        <ele>72</ele>
        <time>2016-01-25T21:06:19Z</time>
      </trkpt>
      <trkpt lat="48.86047" lon="2.41119">
        <ele>72.800003051758</ele>
        <time>2016-01-25T21:06:24Z</time>
      </trkpt>
      <trkpt lat="48.86039" lon="2.4112">
        <ele>72.800003051758</ele>
        <time>2016-01-25T21:06:26Z</time>
      </trkpt>
      <trkpt lat="48.8602" lon="2.41124">
        <ele>72.800003051758</ele>
        <time>2016-01-25T21:06:31Z</time>
      </trkpt>
      <trkpt lat="48.86" lon="2.41129">
        <ele>71.800003051758</ele>
        <time>2016-01-25T21:06:36Z</time>
      </trkpt>
      <trkpt lat="48.85978" lon="2.41133">
        <ele>71.599998474121</ele>
        <time>2016-01-25T21:06:42Z</time>
      </trkpt>
      <trkpt lat="48.85958" lon="2.41136">
        <ele>72.400001525879</ele>
        <time>2016-01-25T21:06:48Z</time>
      </trkpt>
      <trkpt lat="48.85936" lon="2.41139">
        <ele>73</ele>
        <time>2016-01-25T21:06:54Z</time>
      </trkpt>
      <trkpt lat="48.85917" lon="2.41143">
        <ele>73.199996948242</ele>
        <time>2016-01-25T21:06:59Z</time>
      </trkpt>
      <trkpt lat="48.85895" lon="2.41147">
        <ele>73</ele>
        <time>2016-01-25T21:07:05Z</time>
      </trkpt>
      <trkpt lat="48.85877" lon="2.41152">
        <ele>72.599998474121</ele>
        <time>2016-01-25T21:07:10Z</time>
      </trkpt>
      <trkpt lat="48.85858" lon="2.41153">
        <ele>72.400001525879</ele>
        <time>2016-01-25T21:07:15Z</time>
      </trkpt>
      <trkpt lat="48.85836" lon="2.41154">
        <ele>71</ele>
        <time>2016-01-25T21:07:20Z</time>
      </trkpt>
      <trkpt lat="48.85815" lon="2.41153">
        <ele>69.400001525879</ele>
        <time>2016-01-25T21:07:25Z</time>
      </trkpt>
      <trkpt lat="48.85793" lon="2.41155">
        <ele>67.800003051758</ele>
        <time>2016-01-25T21:07:30Z</time>
      </trkpt>
      <trkpt lat="48.85775" lon="2.41154">
        <ele>66.599998474121</ele>
        <time>2016-01-25T21:07:34Z</time>
      </trkpt>
      <trkpt lat="48.85755" lon="2.41152">
        <ele>66.800003051758</ele>
        <time>2016-01-25T21:07:39Z</time>
      </trkpt>
      <trkpt lat="48.85735" lon="2.41152">
        <ele>67</ele>
        <time>2016-01-25T21:07:44Z</time>
      </trkpt>
      <trkpt lat="48.85716" lon="2.41149">
        <ele>67.199996948242</ele>
        <time>2016-01-25T21:07:50Z</time>
      </trkpt>
      <trkpt lat="48.85706" lon="2.41147">
        <ele>67.400001525879</ele>
        <time>2016-01-25T21:07:54Z</time>
      </trkpt>
      <trkpt lat="48.85692" lon="2.41155">
        <ele>67.400001525879</ele>
        <time>2016-01-25T21:07:59Z</time>
      </trkpt>
      <trkpt lat="48.85672" lon="2.41165">
        <ele>68</ele>
        <time>2016-01-25T21:08:04Z</time>
      </trkpt>
      <trkpt lat="48.85653" lon="2.41176">
        <ele>68.800003051758</ele>
        <time>2016-01-25T21:08:09Z</time>
      </trkpt>
      <trkpt lat="48.85633" lon="2.41187">
        <ele>69.599998474121</ele>
        <time>2016-01-25T21:08:14Z</time>
      </trkpt>
      <trkpt lat="48.85612" lon="2.41196">
        <ele>70.800003051758</ele>
        <time>2016-01-25T21:08:19Z</time>
      </trkpt>
      <trkpt lat="48.85591" lon="2.41202">
        <ele>71</ele>
        <time>2016-01-25T21:08:24Z</time>
      </trkpt>
      <trkpt lat="48.85573" lon="2.41207">
        <ele>70.599998474121</ele>
        <time>2016-01-25T21:08:28Z</time>
      </trkpt>
      <trkpt lat="48.85552" lon="2.41213">
        <ele>69.800003051758</ele>
        <time>2016-01-25T21:08:33Z</time>
      </trkpt>
      <trkpt lat="48.85531" lon="2.41213">
        <ele>69</ele>
        <time>2016-01-25T21:08:38Z</time>
      </trkpt>
      <trkpt lat="48.85509" lon="2.41209">
        <ele>68.800003051758</ele>
        <time>2016-01-25T21:08:43Z</time>
      </trkpt>
      <trkpt lat="48.85505" lon="2.41209">
        <ele>68.599998474121</ele>
        <time>2016-01-25T21:08:44Z</time>
      </trkpt>
      <trkpt lat="48.85486" lon="2.41204">
        <ele>68.599998474121</ele>
        <time>2016-01-25T21:08:49Z</time>
      </trkpt>
      <trkpt lat="48.85466" lon="2.41203">
        <ele>68</ele>
        <time>2016-01-25T21:08:54Z</time>
      </trkpt>
      <trkpt lat="48.85445" lon="2.41201">
        <ele>67.199996948242</ele>
        <time>2016-01-25T21:08:59Z</time>
      </trkpt>
      <trkpt lat="48.85423" lon="2.41201">
        <ele>66.199996948242</ele>
        <time>2016-01-25T21:09:04Z</time>
      </trkpt>
      <trkpt lat="48.85403" lon="2.412">
        <ele>65.400001525879</ele>
        <time>2016-01-25T21:09:10Z</time>
      </trkpt>
      <trkpt lat="48.85397" lon="2.41199">
        <ele>65</ele>
        <time>2016-01-25T21:09:12Z</time>
      </trkpt>
      <trkpt lat="48.8539" lon="2.41197">
        <ele>65</ele>
        <time>2016-01-25T21:09:16Z</time>
      </trkpt>
      <trkpt lat="48.85382" lon="2.41197">
        <ele>64.800003051758</ele>
        <time>2016-01-25T21:09:24Z</time>
      </trkpt>
      <trkpt lat="48.85365" lon="2.4121">
        <ele>63.599998474121</ele>
        <time>2016-01-25T21:09:39Z</time>
      </trkpt>
      <trkpt lat="48.85348" lon="2.41222">
        <ele>62.20000076294</ele>
        <time>2016-01-25T21:09:47Z</time>
      </trkpt>
      <trkpt lat="48.8533" lon="2.41232">
        <ele>61.20000076294</ele>
        <time>2016-01-25T21:09:54Z</time>
      </trkpt>
      <trkpt lat="48.85313" lon="2.41244">
        <ele>60.599998474121</ele>
        <time>2016-01-25T21:10:01Z</time>
      </trkpt>
      <trkpt lat="48.85294" lon="2.41249">
        <ele>60.20000076294</ele>
        <time>2016-01-25T21:10:08Z</time>
      </trkpt>
      <trkpt lat="48.85275" lon="2.41253">
        <ele>59.79999923706</ele>
        <time>2016-01-25T21:10:14Z</time>
      </trkpt>
      <trkpt lat="48.85256" lon="2.41262">
        <ele>58.79999923706</ele>
        <time>2016-01-25T21:10:20Z</time>
      </trkpt>
      <trkpt lat="48.85238" lon="2.41267">
        <ele>57.599998474121</ele>
        <time>2016-01-25T21:10:25Z</time>
      </trkpt>
      <trkpt lat="48.8522" lon="2.41271">
        <ele>56.599998474121</ele>
        <time>2016-01-25T21:10:29Z</time>
      </trkpt>
      <trkpt lat="48.85201" lon="2.41274">
        <ele>56.400001525879</ele>
        <time>2016-01-25T21:10:34Z</time>
      </trkpt>
      <trkpt lat="48.85181" lon="2.41273">
        <ele>56.599998474121</ele>
        <time>2016-01-25T21:10:39Z</time>
      </trkpt>
      <trkpt lat="48.8516" lon="2.41274">
        <ele>57.599998474121</ele>
        <time>2016-01-25T21:10:44Z</time>
      </trkpt>
      <trkpt lat="48.85138" lon="2.4127">
        <ele>58.79999923706</ele>
        <time>2016-01-25T21:10:49Z</time>
      </trkpt>
      <trkpt lat="48.85119" lon="2.41269">
        <ele>59.20000076294</ele>
        <time>2016-01-25T21:10:53Z</time>
      </trkpt>
      <trkpt lat="48.85113" lon="2.41267">
        <ele>59.400001525879</ele>
        <time>2016-01-25T21:10:56Z</time>
      </trkpt>
      <trkpt lat="48.85106" lon="2.41269">
        <ele>59.20000076294</ele>
        <time>2016-01-25T21:11:01Z</time>
      </trkpt>
      <trkpt lat="48.85104" lon="2.41271">
        <ele>59.20000076294</ele>
        <time>2016-01-25T21:11:03Z</time>
      </trkpt>
      <trkpt lat="48.85103" lon="2.41272">
        <ele>59</ele>
        <time>2016-01-25T21:11:05Z</time>
      </trkpt>
      <trkpt lat="48.85096" lon="2.41275">
        <ele>58.599998474121</ele>
        <time>2016-01-25T21:11:39Z</time>
      </trkpt>
      <trkpt lat="48.85077" lon="2.41278">
        <ele>57.599998474121</ele>
        <time>2016-01-25T21:11:45Z</time>
      </trkpt>
      <trkpt lat="48.85057" lon="2.41282">
        <ele>56.400001525879</ele>
        <time>2016-01-25T21:11:50Z</time>
      </trkpt>
      <trkpt lat="48.85038" lon="2.41285">
        <ele>56.20000076294</ele>
        <time>2016-01-25T21:11:54Z</time>
      </trkpt>
      <trkpt lat="48.85017" lon="2.41287">
        <ele>56</ele>
        <time>2016-01-25T21:11:58Z</time>
      </trkpt>
      <trkpt lat="48.84998" lon="2.41288">
        <ele>56</ele>
        <time>2016-01-25T21:12:02Z</time>
      </trkpt>
      <trkpt lat="48.84978" lon="2.41289">
        <ele>56</ele>
        <time>2016-01-25T21:12:06Z</time>
      </trkpt>
      <trkpt lat="48.84959" lon="2.41291">
        <ele>55.79999923706</ele>
        <time>2016-01-25T21:12:10Z</time>
      </trkpt>
      <trkpt lat="48.84938" lon="2.41294">
        <ele>55.400001525879</ele>
        <time>2016-01-25T21:12:14Z</time>
      </trkpt>
      <trkpt lat="48.84929" lon="2.41295">
        <ele>55.599998474121</ele>
        <time>2016-01-25T21:12:16Z</time>
      </trkpt>
      <trkpt lat="48.84915" lon="2.41299">
        <ele>55.599998474121</ele>
        <time>2016-01-25T21:12:20Z</time>
      </trkpt>
      <trkpt lat="48.84895" lon="2.41309">
        <ele>55.400001525879</ele>
        <time>2016-01-25T21:12:25Z</time>
      </trkpt>
      <trkpt lat="48.84891" lon="2.4131">
        <ele>55.20000076294</ele>
        <time>2016-01-25T21:12:26Z</time>
      </trkpt>
      <trkpt lat="48.84884" lon="2.41312">
        <ele>55</ele>
        <time>2016-01-25T21:12:28Z</time>
      </trkpt>
      <trkpt lat="48.84876" lon="2.41313">
        <ele>55</ele>
        <time>2016-01-25T21:12:30Z</time>
      </trkpt>
      <trkpt lat="48.84862" lon="2.41315">
        <ele>54.599998474121</ele>
        <time>2016-01-25T21:12:35Z</time>
      </trkpt>
      <trkpt lat="48.84853" lon="2.41315">
        <ele>54.599998474121</ele>
        <time>2016-01-25T21:12:38Z</time>
      </trkpt>
      <trkpt lat="48.84834" lon="2.41316">
        <ele>54.20000076294</ele>
        <time>2016-01-25T21:12:44Z</time>
      </trkpt>
      <trkpt lat="48.84816" lon="2.41311">
        <ele>54.400001525879</ele>
        <time>2016-01-25T21:12:50Z</time>
      </trkpt>
      <trkpt lat="48.84797" lon="2.41302">
        <ele>54.79999923706</ele>
        <time>2016-01-25T21:12:57Z</time>
      </trkpt>
      <trkpt lat="48.8478" lon="2.41288">
        <ele>55</ele>
        <time>2016-01-25T21:13:03Z</time>
      </trkpt>
      <trkpt lat="48.84779" lon="2.41284">
        <ele>55</ele>
        <time>2016-01-25T21:13:04Z</time>
      </trkpt>
      <trkpt lat="48.84779" lon="2.41268">
        <ele>55</ele>
        <time>2016-01-25T21:13:08Z</time>
      </trkpt>
      <trkpt lat="48.8478" lon="2.41237">
        <ele>55.400001525879</ele>
        <time>2016-01-25T21:13:15Z</time>
      </trkpt>
      <trkpt lat="48.84782" lon="2.41208">
        <ele>56.20000076294</ele>
        <time>2016-01-25T21:13:22Z</time>
      </trkpt>
      <trkpt lat="48.84783" lon="2.41179">
        <ele>57</ele>
        <time>2016-01-25T21:13:28Z</time>
      </trkpt>
      <trkpt lat="48.84782" lon="2.41165">
        <ele>57.20000076294</ele>
        <time>2016-01-25T21:13:32Z</time>
      </trkpt>
      <trkpt lat="48.84774" lon="2.4116">
        <ele>56.79999923706</ele>
        <time>2016-01-25T21:13:37Z</time>
      </trkpt>
      <trkpt lat="48.84755" lon="2.41154">
        <ele>56.400001525879</ele>
        <time>2016-01-25T21:13:44Z</time>
      </trkpt>
      <trkpt lat="48.84735" lon="2.41148">
        <ele>55.599998474121</ele>
        <time>2016-01-25T21:13:52Z</time>
      </trkpt>
      <trkpt lat="48.84721" lon="2.4113">
        <ele>55.20000076294</ele>
        <time>2016-01-25T21:14:00Z</time>
      </trkpt>
      <trkpt lat="48.84715" lon="2.41103">
        <ele>54.79999923706</ele>
        <time>2016-01-25T21:14:07Z</time>
      </trkpt>
      <trkpt lat="48.84715" lon="2.41075">
        <ele>54.400001525879</ele>
        <time>2016-01-25T21:14:12Z</time>
      </trkpt>
      <trkpt lat="48.84719" lon="2.41044">
        <ele>54.79999923706</ele>
        <time>2016-01-25T21:14:17Z</time>
      </trkpt>
      <trkpt lat="48.84722" lon="2.41014">
        <ele>54.599998474121</ele>
        <time>2016-01-25T21:14:23Z</time>
      </trkpt>
      <trkpt lat="48.84726" lon="2.40998">
        <ele>54.20000076294</ele>
        <time>2016-01-25T21:14:29Z</time>
      </trkpt>
      <trkpt lat="48.84725" lon="2.41025">
        <ele>54.79999923706</ele>
        <time>2016-01-25T21:14:55Z</time>
      </trkpt>
      <trkpt lat="48.84724" lon="2.41053">
        <ele>54.79999923706</ele>
        <time>2016-01-25T21:15:02Z</time>
      </trkpt>
      <trkpt lat="48.84723" lon="2.41081">
        <ele>54.400001525879</ele>
        <time>2016-01-25T21:15:11Z</time>
      </trkpt>
      <trkpt lat="48.84722" lon="2.41095">
        <ele>54.79999923706</ele>
        <time>2016-01-25T21:15:17Z</time>
      </trkpt>
      <trkpt lat="48.84724" lon="2.411">
        <ele>54.79999923706</ele>
        <time>2016-01-25T21:15:22Z</time>
      </trkpt>
      <trkpt lat="48.84721" lon="2.41072">
        <ele>54.599998474121</ele>
        <time>2016-01-25T21:15:37Z</time>
      </trkpt>
      <trkpt lat="48.84721" lon="2.41041">
        <ele>54.79999923706</ele>
        <time>2016-01-25T21:15:44Z</time>
      </trkpt>
      <trkpt lat="48.84723" lon="2.41009">
        <ele>54.400001525879</ele>
        <time>2016-01-25T21:15:49Z</time>
      </trkpt>
      <trkpt lat="48.84724" lon="2.40995">
        <ele>54.20000076294</ele>
        <time>2016-01-25T21:15:51Z</time>
      </trkpt>
      <trkpt lat="48.84726" lon="2.40967">
        <ele>54.79999923706</ele>
        <time>2016-01-25T21:15:55Z</time>
      </trkpt>
      <trkpt lat="48.84727" lon="2.40938">
        <ele>55.79999923706</ele>
        <time>2016-01-25T21:15:59Z</time>
      </trkpt>
      <trkpt lat="48.8473" lon="2.40909">
        <ele>56.20000076294</ele>
        <time>2016-01-25T21:16:03Z</time>
      </trkpt>
      <trkpt lat="48.84734" lon="2.40882">
        <ele>54.400001525879</ele>
        <time>2016-01-25T21:16:07Z</time>
      </trkpt>
      <trkpt lat="48.84737" lon="2.40847">
        <ele>53.20000076294</ele>
        <time>2016-01-25T21:16:12Z</time>
      </trkpt>
      <trkpt lat="48.84739" lon="2.40816">
        <ele>52.79999923706</ele>
        <time>2016-01-25T21:16:16Z</time>
      </trkpt>
      <trkpt lat="48.8474" lon="2.40808">
        <ele>52.79999923706</ele>
        <time>2016-01-25T21:16:17Z</time>
      </trkpt>
      <trkpt lat="48.84741" lon="2.40793">
        <ele>53</ele>
        <time>2016-01-25T21:16:19Z</time>
      </trkpt>
      <trkpt lat="48.84745" lon="2.40761">
        <ele>53</ele>
        <time>2016-01-25T21:16:23Z</time>
      </trkpt>
      <trkpt lat="48.84748" lon="2.4073">
        <ele>53.400001525879</ele>
        <time>2016-01-25T21:16:27Z</time>
      </trkpt>
      <trkpt lat="48.8475" lon="2.40715">
        <ele>53.400001525879</ele>
        <time>2016-01-25T21:16:29Z</time>
      </trkpt>
      <trkpt lat="48.84752" lon="2.40702">
        <ele>53.20000076294</ele>
        <time>2016-01-25T21:16:31Z</time>
      </trkpt>
      <trkpt lat="48.84756" lon="2.40671">
        <ele>52.599998474121</ele>
        <time>2016-01-25T21:16:36Z</time>
      </trkpt>
      <trkpt lat="48.84758" lon="2.40653">
        <ele>52.599998474121</ele>
        <time>2016-01-25T21:16:40Z</time>
      </trkpt>
      <trkpt lat="48.84761" lon="2.40634">
        <ele>53</ele>
        <time>2016-01-25T21:16:46Z</time>
      </trkpt>
      <trkpt lat="48.84762" lon="2.40605">
        <ele>53.599998474121</ele>
        <time>2016-01-25T21:16:52Z</time>
      </trkpt>
      <trkpt lat="48.84764" lon="2.40575">
        <ele>54.20000076294</ele>
        <time>2016-01-25T21:16:57Z</time>
      </trkpt>
      <trkpt lat="48.84767" lon="2.40543">
        <ele>53.79999923706</ele>
        <time>2016-01-25T21:17:02Z</time>
      </trkpt>
      <trkpt lat="48.8477" lon="2.4051">
        <ele>53.20000076294</ele>
        <time>2016-01-25T21:17:07Z</time>
      </trkpt>
      <trkpt lat="48.84773" lon="2.40483">
        <ele>54</ele>
        <time>2016-01-25T21:17:11Z</time>
      </trkpt>
      <trkpt lat="48.84775" lon="2.40455">
        <ele>55.79999923706</ele>
        <time>2016-01-25T21:17:15Z</time>
      </trkpt>
      <trkpt lat="48.84778" lon="2.40428">
        <ele>57.599998474121</ele>
        <time>2016-01-25T21:17:19Z</time>
      </trkpt>
      <trkpt lat="48.8478" lon="2.404">
        <ele>58.400001525879</ele>
        <time>2016-01-25T21:17:23Z</time>
      </trkpt>
      <trkpt lat="48.84784" lon="2.40372">
        <ele>59.20000076294</ele>
        <time>2016-01-25T21:17:27Z</time>
      </trkpt>
      <trkpt lat="48.84786" lon="2.40341">
        <ele>60.20000076294</ele>
        <time>2016-01-25T21:17:31Z</time>
      </trkpt>
      <trkpt lat="48.84788" lon="2.40307">
        <ele>59.599998474121</ele>
        <time>2016-01-25T21:17:35Z</time>
      </trkpt>
      <trkpt lat="48.8479" lon="2.40284">
        <ele>58.599998474121</ele>
        <time>2016-01-25T21:17:38Z</time>
      </trkpt>
      <trkpt lat="48.84793" lon="2.40251">
        <ele>57.400001525879</ele>
        <time>2016-01-25T21:17:42Z</time>
      </trkpt>
      <trkpt lat="48.84796" lon="2.40216">
        <ele>57.20000076294</ele>
        <time>2016-01-25T21:17:46Z</time>
      </trkpt>
      <trkpt lat="48.84798" lon="2.40183">
        <ele>57.20000076294</ele>
        <time>2016-01-25T21:17:50Z</time>
      </trkpt>
      <trkpt lat="48.84801" lon="2.4015">
        <ele>57.79999923706</ele>
        <time>2016-01-25T21:17:54Z</time>
      </trkpt>
      <trkpt lat="48.84804" lon="2.40119">
        <ele>58.20000076294</ele>
        <time>2016-01-25T21:17:58Z</time>
      </trkpt>
      <trkpt lat="48.84806" lon="2.40103">
        <ele>58.20000076294</ele>
        <time>2016-01-25T21:18:00Z</time>
      </trkpt>
      <trkpt lat="48.84809" lon="2.40071">
        <ele>57.599998474121</ele>
        <time>2016-01-25T21:18:04Z</time>
      </trkpt>
      <trkpt lat="48.84812" lon="2.40038">
        <ele>56</ele>
        <time>2016-01-25T21:18:08Z</time>
      </trkpt>
      <trkpt lat="48.84814" lon="2.40007">
        <ele>55.20000076294</ele>
        <time>2016-01-25T21:18:12Z</time>
      </trkpt>
      <trkpt lat="48.84816" lon="2.39983">
        <ele>54.599998474121</ele>
        <time>2016-01-25T21:18:15Z</time>
      </trkpt>
      <trkpt lat="48.84817" lon="2.39968">
        <ele>54.20000076294</ele>
        <time>2016-01-25T21:18:17Z</time>
      </trkpt>
      <trkpt lat="48.8482" lon="2.39939">
        <ele>53.79999923706</ele>
        <time>2016-01-25T21:18:22Z</time>
      </trkpt>
      <trkpt lat="48.84821" lon="2.39923">
        <ele>53.599998474121</ele>
        <time>2016-01-25T21:18:25Z</time>
      </trkpt>
      <trkpt lat="48.84821" lon="2.39913">
        <ele>53.79999923706</ele>
        <time>2016-01-25T21:18:27Z</time>
      </trkpt>
      <trkpt lat="48.84823" lon="2.39885">
        <ele>56.20000076294</ele>
        <time>2016-01-25T21:18:32Z</time>
      </trkpt>
      <trkpt lat="48.84825" lon="2.39867">
        <ele>57</ele>
        <time>2016-01-25T21:18:35Z</time>
      </trkpt>
      <trkpt lat="48.84827" lon="2.39838">
        <ele>58.400001525879</ele>
        <time>2016-01-25T21:18:40Z</time>
      </trkpt>
      <trkpt lat="48.84831" lon="2.3981">
        <ele>58</ele>
        <time>2016-01-25T21:18:45Z</time>
      </trkpt>
      <trkpt lat="48.84835" lon="2.3978">
        <ele>57.20000076294</ele>
        <time>2016-01-25T21:18:51Z</time>
      </trkpt>
      <trkpt lat="48.84836" lon="2.39773">
        <ele>57</ele>
        <time>2016-01-25T21:18:53Z</time>
      </trkpt>
      <trkpt lat="48.84836" lon="2.39767">
        <ele>57</ele>
        <time>2016-01-25T21:18:56Z</time>
      </trkpt>
      <trkpt lat="48.84843" lon="2.39748">
        <ele>56.20000076294</ele>
        <time>2016-01-25T21:19:25Z</time>
      </trkpt>
      <trkpt lat="48.84848" lon="2.39719">
        <ele>55</ele>
        <time>2016-01-25T21:19:33Z</time>
      </trkpt>
      <trkpt lat="48.84852" lon="2.39692">
        <ele>53.400001525879</ele>
        <time>2016-01-25T21:19:39Z</time>
      </trkpt>
      <trkpt lat="48.84864" lon="2.39672">
        <ele>52.599998474121</ele>
        <time>2016-01-25T21:19:44Z</time>
      </trkpt>
      <trkpt lat="48.8488" lon="2.3965">
        <ele>53.599998474121</ele>
        <time>2016-01-25T21:19:49Z</time>
      </trkpt>
      <trkpt lat="48.84883" lon="2.39645">
        <ele>53.599998474121</ele>
        <time>2016-01-25T21:19:50Z</time>
      </trkpt>
      <trkpt lat="48.84892" lon="2.3962">
        <ele>54</ele>
        <time>2016-01-25T21:19:54Z</time>
      </trkpt>
      <trkpt lat="48.84898" lon="2.39594">
        <ele>53.20000076294</ele>
        <time>2016-01-25T21:19:58Z</time>
      </trkpt>
      <trkpt lat="48.84902" lon="2.39566">
        <ele>52.599998474121</ele>
        <time>2016-01-25T21:20:03Z</time>
      </trkpt>
      <trkpt lat="48.84916" lon="2.39548">
        <ele>53</ele>
        <time>2016-01-25T21:20:08Z</time>
      </trkpt>
      <trkpt lat="48.84935" lon="2.3954">
        <ele>53.400001525879</ele>
        <time>2016-01-25T21:20:13Z</time>
      </trkpt>
      <trkpt lat="48.84955" lon="2.39529">
        <ele>53.599998474121</ele>
        <time>2016-01-25T21:20:18Z</time>
      </trkpt>
      <trkpt lat="48.84976" lon="2.39519">
        <ele>54.20000076294</ele>
        <time>2016-01-25T21:20:23Z</time>
      </trkpt>
      <trkpt lat="48.84995" lon="2.39507">
        <ele>55.400001525879</ele>
        <time>2016-01-25T21:20:27Z</time>
      </trkpt>
      <trkpt lat="48.85014" lon="2.39491">
        <ele>57</ele>
        <time>2016-01-25T21:20:31Z</time>
      </trkpt>
      <trkpt lat="48.85033" lon="2.39477">
        <ele>56.400001525879</ele>
        <time>2016-01-25T21:20:35Z</time>
      </trkpt>
      <trkpt lat="48.8505" lon="2.39464">
        <ele>56.20000076294</ele>
        <time>2016-01-25T21:20:39Z</time>
      </trkpt>
      <trkpt lat="48.85061" lon="2.39454">
        <ele>55.79999923706</ele>
        <time>2016-01-25T21:20:42Z</time>
      </trkpt>
      <trkpt lat="48.85081" lon="2.39444">
        <ele>55.400001525879</ele>
        <time>2016-01-25T21:20:47Z</time>
      </trkpt>
      <trkpt lat="48.85085" lon="2.39442">
        <ele>55.400001525879</ele>
        <time>2016-01-25T21:20:48Z</time>
      </trkpt>
      <trkpt lat="48.85103" lon="2.39434">
        <ele>55</ele>
        <time>2016-01-25T21:20:53Z</time>
      </trkpt>
      <trkpt lat="48.85111" lon="2.39429">
        <ele>54.599998474121</ele>
        <time>2016-01-25T21:20:55Z</time>
      </trkpt>
      <trkpt lat="48.85129" lon="2.39417">
        <ele>54.79999923706</ele>
        <time>2016-01-25T21:21:00Z</time>
      </trkpt>
      <trkpt lat="48.85149" lon="2.39403">
        <ele>55.599998474121</ele>
        <time>2016-01-25T21:21:05Z</time>
      </trkpt>
      <trkpt lat="48.85167" lon="2.39389">
        <ele>56.20000076294</ele>
        <time>2016-01-25T21:21:10Z</time>
      </trkpt>
      <trkpt lat="48.85186" lon="2.39375">
        <ele>56</ele>
        <time>2016-01-25T21:21:16Z</time>
      </trkpt>
      <trkpt lat="48.85192" lon="2.3937">
        <ele>56</ele>
        <time>2016-01-25T21:21:19Z</time>
      </trkpt>
      <trkpt lat="48.8521" lon="2.39359">
        <ele>56.20000076294</ele>
        <time>2016-01-25T21:21:27Z</time>
      </trkpt>
      <trkpt lat="48.85225" lon="2.39345">
        <ele>56.20000076294</ele>
        <time>2016-01-25T21:21:34Z</time>
      </trkpt>
      <trkpt lat="48.85243" lon="2.39338">
        <ele>56.400001525879</ele>
        <time>2016-01-25T21:21:41Z</time>
      </trkpt>
      <trkpt lat="48.85257" lon="2.39316">
        <ele>56.400001525879</ele>
        <time>2016-01-25T21:21:50Z</time>
      </trkpt>
      <trkpt lat="48.85269" lon="2.39306">
        <ele>56.599998474121</ele>
        <time>2016-01-25T21:21:57Z</time>
      </trkpt>
      <trkpt lat="48.8527" lon="2.3928">
        <ele>56.400001525879</ele>
        <time>2016-01-25T21:22:09Z</time>
      </trkpt>
      <trkpt lat="48.85263" lon="2.39249">
        <ele>55.79999923706</ele>
        <time>2016-01-25T21:22:15Z</time>
      </trkpt>
      <trkpt lat="48.85256" lon="2.39221">
        <ele>55.20000076294</ele>
        <time>2016-01-25T21:22:20Z</time>
      </trkpt>
      <trkpt lat="48.85248" lon="2.3919">
        <ele>54.400001525879</ele>
        <time>2016-01-25T21:22:25Z</time>
      </trkpt>
      <trkpt lat="48.8524" lon="2.39164">
        <ele>53.599998474121</ele>
        <time>2016-01-25T21:22:29Z</time>
      </trkpt>
      <trkpt lat="48.85233" lon="2.39136">
        <ele>53.599998474121</ele>
        <time>2016-01-25T21:22:33Z</time>
      </trkpt>
      <trkpt lat="48.85226" lon="2.39104">
        <ele>53.599998474121</ele>
        <time>2016-01-25T21:22:38Z</time>
      </trkpt>
      <trkpt lat="48.8522" lon="2.39071">
        <ele>54.20000076294</ele>
        <time>2016-01-25T21:22:43Z</time>
      </trkpt>
      <trkpt lat="48.8522" lon="2.39037">
        <ele>55.400001525879</ele>
        <time>2016-01-25T21:22:48Z</time>
      </trkpt>
      <trkpt lat="48.85215" lon="2.39005">
        <ele>55.400001525879</ele>
        <time>2016-01-25T21:22:53Z</time>
      </trkpt>
      <trkpt lat="48.85222" lon="2.38973">
        <ele>54.599998474121</ele>
        <time>2016-01-25T21:22:58Z</time>
      </trkpt>
      <trkpt lat="48.85232" lon="2.38948">
        <ele>53.79999923706</ele>
        <time>2016-01-25T21:23:04Z</time>
      </trkpt>
      <trkpt lat="48.85244" lon="2.38926">
        <ele>53.400001525879</ele>
        <time>2016-01-25T21:23:09Z</time>
      </trkpt>
      <trkpt lat="48.85258" lon="2.38903">
        <ele>52</ele>
        <time>2016-01-25T21:23:14Z</time>
      </trkpt>
      <trkpt lat="48.85272" lon="2.3888">
        <ele>51.79999923706</ele>
        <time>2016-01-25T21:23:19Z</time>
      </trkpt>
      <trkpt lat="48.85288" lon="2.38859">
        <ele>50.400001525879</ele>
        <time>2016-01-25T21:23:24Z</time>
      </trkpt>
      <trkpt lat="48.85301" lon="2.38839">
        <ele>49.20000076294</ele>
        <time>2016-01-25T21:23:28Z</time>
      </trkpt>
      <trkpt lat="48.85314" lon="2.38817">
        <ele>47.599998474121</ele>
        <time>2016-01-25T21:23:32Z</time>
      </trkpt>
      <trkpt lat="48.85326" lon="2.38795">
        <ele>46.599998474121</ele>
        <time>2016-01-25T21:23:36Z</time>
      </trkpt>
      <trkpt lat="48.85339" lon="2.38772">
        <ele>48.20000076294</ele>
        <time>2016-01-25T21:23:40Z</time>
      </trkpt>
      <trkpt lat="48.85352" lon="2.38748">
        <ele>49.79999923706</ele>
        <time>2016-01-25T21:23:44Z</time>
      </trkpt>
      <trkpt lat="48.85367" lon="2.38728">
        <ele>49.79999923706</ele>
        <time>2016-01-25T21:23:48Z</time>
      </trkpt>
      <trkpt lat="48.85379" lon="2.38706">
        <ele>49.599998474121</ele>
        <time>2016-01-25T21:23:52Z</time>
      </trkpt>
      <trkpt lat="48.85393" lon="2.38684">
        <ele>49.400001525879</ele>
        <time>2016-01-25T21:23:56Z</time>
      </trkpt>
      <trkpt lat="48.85405" lon="2.38663">
        <ele>49</ele>
        <time>2016-01-25T21:24:00Z</time>
      </trkpt>
      <trkpt lat="48.85418" lon="2.3864">
        <ele>47</ele>
        <time>2016-01-25T21:24:04Z</time>
      </trkpt>
      <trkpt lat="48.85431" lon="2.38616">
        <ele>47</ele>
        <time>2016-01-25T21:24:08Z</time>
      </trkpt>
      <trkpt lat="48.85443" lon="2.38592">
        <ele>47</ele>
        <time>2016-01-25T21:24:12Z</time>
      </trkpt>
      <trkpt lat="48.85456" lon="2.38569">
        <ele>47.20000076294</ele>
        <time>2016-01-25T21:24:16Z</time>
      </trkpt>
      <trkpt lat="48.85471" lon="2.38544">
        <ele>47.400001525879</ele>
        <time>2016-01-25T21:24:21Z</time>
      </trkpt>
      <trkpt lat="48.85485" lon="2.38518">
        <ele>47.599998474121</ele>
        <time>2016-01-25T21:24:26Z</time>
      </trkpt>
      <trkpt lat="48.85497" lon="2.38495">
        <ele>48</ele>
        <time>2016-01-25T21:24:30Z</time>
      </trkpt>
      <trkpt lat="48.8551" lon="2.38469">
        <ele>48.400001525879</ele>
        <time>2016-01-25T21:24:34Z</time>
      </trkpt>
      <trkpt lat="48.85524" lon="2.38444">
        <ele>48.400001525879</ele>
        <time>2016-01-25T21:24:38Z</time>
      </trkpt>
      <trkpt lat="48.85538" lon="2.38422">
        <ele>47.400001525879</ele>
        <time>2016-01-25T21:24:42Z</time>
      </trkpt>
      <trkpt lat="48.85552" lon="2.38397">
        <ele>46.599998474121</ele>
        <time>2016-01-25T21:24:46Z</time>
      </trkpt>
      <trkpt lat="48.85565" lon="2.38373">
        <ele>46</ele>
        <time>2016-01-25T21:24:50Z</time>
      </trkpt>
      <trkpt lat="48.8558" lon="2.38349">
        <ele>45.20000076294</ele>
        <time>2016-01-25T21:24:54Z</time>
      </trkpt>
      <trkpt lat="48.85591" lon="2.38334">
        <ele>44.79999923706</ele>
        <time>2016-01-25T21:24:57Z</time>
      </trkpt>
      <trkpt lat="48.85605" lon="2.38311">
        <ele>44.400001525879</ele>
        <time>2016-01-25T21:25:01Z</time>
      </trkpt>
      <trkpt lat="48.85619" lon="2.38288">
        <ele>45.599998474121</ele>
        <time>2016-01-25T21:25:05Z</time>
      </trkpt>
      <trkpt lat="48.85632" lon="2.38265">
        <ele>46.599998474121</ele>
        <time>2016-01-25T21:25:09Z</time>
      </trkpt>
      <trkpt lat="48.85647" lon="2.38242">
        <ele>47.20000076294</ele>
        <time>2016-01-25T21:25:13Z</time>
      </trkpt>
      <trkpt lat="48.85662" lon="2.38221">
        <ele>48</ele>
        <time>2016-01-25T21:25:17Z</time>
      </trkpt>
      <trkpt lat="48.85676" lon="2.38197">
        <ele>48</ele>
        <time>2016-01-25T21:25:21Z</time>
      </trkpt>
      <trkpt lat="48.85691" lon="2.38173">
        <ele>48</ele>
        <time>2016-01-25T21:25:25Z</time>
      </trkpt>
      <trkpt lat="48.85705" lon="2.38149">
        <ele>47.599998474121</ele>
        <time>2016-01-25T21:25:29Z</time>
      </trkpt>
      <trkpt lat="48.85719" lon="2.38128">
        <ele>47.20000076294</ele>
        <time>2016-01-25T21:25:33Z</time>
      </trkpt>
      <trkpt lat="48.85722" lon="2.38122">
        <ele>47</ele>
        <time>2016-01-25T21:25:34Z</time>
      </trkpt>
      <trkpt lat="48.85731" lon="2.38108">
        <ele>46.79999923706</ele>
        <time>2016-01-25T21:25:37Z</time>
      </trkpt>
      <trkpt lat="48.85745" lon="2.38087">
        <ele>46.79999923706</ele>
        <time>2016-01-25T21:25:41Z</time>
      </trkpt>
      <trkpt lat="48.85757" lon="2.38066">
        <ele>46.599998474121</ele>
        <time>2016-01-25T21:25:45Z</time>
      </trkpt>
      <trkpt lat="48.85761" lon="2.38062">
        <ele>46.400001525879</ele>
        <time>2016-01-25T21:25:46Z</time>
      </trkpt>
      <trkpt lat="48.85769" lon="2.38055">
        <ele>46</ele>
        <time>2016-01-25T21:25:48Z</time>
      </trkpt>
      <trkpt lat="48.85783" lon="2.38045">
        <ele>45.79999923706</ele>
        <time>2016-01-25T21:25:52Z</time>
      </trkpt>
      <trkpt lat="48.85795" lon="2.38023">
        <ele>45</ele>
        <time>2016-01-25T21:25:57Z</time>
      </trkpt>
      <trkpt lat="48.85795" lon="2.38017">
        <ele>44.599998474121</ele>
        <time>2016-01-25T21:25:58Z</time>
      </trkpt>
      <trkpt lat="48.85798" lon="2.37998">
        <ele>44</ele>
        <time>2016-01-25T21:26:01Z</time>
      </trkpt>
      <trkpt lat="48.85809" lon="2.37975">
        <ele>43.79999923706</ele>
        <time>2016-01-25T21:26:05Z</time>
      </trkpt>
      <trkpt lat="48.85823" lon="2.37954">
        <ele>43.79999923706</ele>
        <time>2016-01-25T21:26:09Z</time>
      </trkpt>
      <trkpt lat="48.85837" lon="2.37934">
        <ele>44.79999923706</ele>
        <time>2016-01-25T21:26:13Z</time>
      </trkpt>
      <trkpt lat="48.8585" lon="2.37913">
        <ele>45.79999923706</ele>
        <time>2016-01-25T21:26:17Z</time>
      </trkpt>
      <trkpt lat="48.85863" lon="2.37891">
        <ele>46.20000076294</ele>
        <time>2016-01-25T21:26:21Z</time>
      </trkpt>
      <trkpt lat="48.85877" lon="2.37869">
        <ele>46.599998474121</ele>
        <time>2016-01-25T21:26:25Z</time>
      </trkpt>
      <trkpt lat="48.85891" lon="2.37847">
        <ele>46.599998474121</ele>
        <time>2016-01-25T21:26:29Z</time>
      </trkpt>
      <trkpt lat="48.85899" lon="2.37837">
        <ele>46.599998474121</ele>
        <time>2016-01-25T21:26:31Z</time>
      </trkpt>
      <trkpt lat="48.85907" lon="2.37826">
        <ele>46.599998474121</ele>
        <time>2016-01-25T21:26:33Z</time>
      </trkpt>
      <trkpt lat="48.85915" lon="2.37813">
        <ele>46.400001525879</ele>
        <time>2016-01-25T21:26:35Z</time>
      </trkpt>
      <trkpt lat="48.85928" lon="2.37792">
        <ele>46.79999923706</ele>
        <time>2016-01-25T21:26:38Z</time>
      </trkpt>
      <trkpt lat="48.85932" lon="2.37785">
        <ele>46.79999923706</ele>
        <time>2016-01-25T21:26:39Z</time>
      </trkpt>
      <trkpt lat="48.85944" lon="2.37761">
        <ele>47.20000076294</ele>
        <time>2016-01-25T21:26:42Z</time>
      </trkpt>
      <trkpt lat="48.85955" lon="2.37739">
        <ele>47.20000076294</ele>
        <time>2016-01-25T21:26:45Z</time>
      </trkpt>
      <trkpt lat="48.85968" lon="2.37716">
        <ele>46.79999923706</ele>
        <time>2016-01-25T21:26:49Z</time>
      </trkpt>
      <trkpt lat="48.85977" lon="2.37698">
        <ele>46.599998474121</ele>
        <time>2016-01-25T21:26:53Z</time>
      </trkpt>
      <trkpt lat="48.85989" lon="2.37675">
        <ele>46.599998474121</ele>
        <time>2016-01-25T21:26:58Z</time>
      </trkpt>
      <trkpt lat="48.85998" lon="2.37657">
        <ele>46.599998474121</ele>
        <time>2016-01-25T21:27:01Z</time>
      </trkpt>
      <trkpt lat="48.86012" lon="2.37634">
        <ele>47</ele>
        <time>2016-01-25T21:27:05Z</time>
      </trkpt>
      <trkpt lat="48.86026" lon="2.37611">
        <ele>47.400001525879</ele>
        <time>2016-01-25T21:27:09Z</time>
      </trkpt>
      <trkpt lat="48.86029" lon="2.37605">
        <ele>47.20000076294</ele>
        <time>2016-01-25T21:27:10Z</time>
      </trkpt>
      <trkpt lat="48.86043" lon="2.37582">
        <ele>46</ele>
        <time>2016-01-25T21:27:14Z</time>
      </trkpt>
      <trkpt lat="48.86053" lon="2.37566">
        <ele>45</ele>
        <time>2016-01-25T21:27:17Z</time>
      </trkpt>
      <trkpt lat="48.86066" lon="2.37544">
        <ele>43.599998474121</ele>
        <time>2016-01-25T21:27:21Z</time>
      </trkpt>
      <trkpt lat="48.86078" lon="2.37522">
        <ele>43</ele>
        <time>2016-01-25T21:27:25Z</time>
      </trkpt>
      <trkpt lat="48.8609" lon="2.37499">
        <ele>42.400001525879</ele>
        <time>2016-01-25T21:27:29Z</time>
      </trkpt>
      <trkpt lat="48.86104" lon="2.37475">
        <ele>42.599998474121</ele>
        <time>2016-01-25T21:27:33Z</time>
      </trkpt>
      <trkpt lat="48.86118" lon="2.37453">
        <ele>43.599998474121</ele>
        <time>2016-01-25T21:27:37Z</time>
      </trkpt>
      <trkpt lat="48.86133" lon="2.3743">
        <ele>44.400001525879</ele>
        <time>2016-01-25T21:27:41Z</time>
      </trkpt>
      <trkpt lat="48.86147" lon="2.37406">
        <ele>44.599998474121</ele>
        <time>2016-01-25T21:27:45Z</time>
      </trkpt>
      <trkpt lat="48.86161" lon="2.3738">
        <ele>45.20000076294</ele>
        <time>2016-01-25T21:27:49Z</time>
      </trkpt>
      <trkpt lat="48.86177" lon="2.37358">
        <ele>46</ele>
        <time>2016-01-25T21:27:53Z</time>
      </trkpt>
      <trkpt lat="48.86193" lon="2.37335">
        <ele>46.79999923706</ele>
        <time>2016-01-25T21:27:57Z</time>
      </trkpt>
      <trkpt lat="48.86208" lon="2.37311">
        <ele>46.20000076294</ele>
        <time>2016-01-25T21:28:01Z</time>
      </trkpt>
      <trkpt lat="48.86222" lon="2.37287">
        <ele>45.599998474121</ele>
        <time>2016-01-25T21:28:05Z</time>
      </trkpt>
      <trkpt lat="48.86237" lon="2.37262">
        <ele>45.20000076294</ele>
        <time>2016-01-25T21:28:09Z</time>
      </trkpt>
      <trkpt lat="48.86252" lon="2.37238">
        <ele>44.79999923706</ele>
        <time>2016-01-25T21:28:13Z</time>
      </trkpt>
      <trkpt lat="48.86264" lon="2.37212">
        <ele>44.599998474121</ele>
        <time>2016-01-25T21:28:17Z</time>
      </trkpt>
      <trkpt lat="48.86277" lon="2.37189">
        <ele>44.400001525879</ele>
        <time>2016-01-25T21:28:21Z</time>
      </trkpt>
      <trkpt lat="48.86287" lon="2.37164">
        <ele>44</ele>
        <time>2016-01-25T21:28:26Z</time>
      </trkpt>
      <trkpt lat="48.86301" lon="2.37139">
        <ele>43.599998474121</ele>
        <time>2016-01-25T21:28:32Z</time>
      </trkpt>
      <trkpt lat="48.86304" lon="2.37134">
        <ele>43.599998474121</ele>
        <time>2016-01-25T21:28:33Z</time>
      </trkpt>
      <trkpt lat="48.86316" lon="2.37114">
        <ele>43.599998474121</ele>
        <time>2016-01-25T21:28:37Z</time>
      </trkpt>
      <trkpt lat="48.86331" lon="2.37091">
        <ele>43.599998474121</ele>
        <time>2016-01-25T21:28:41Z</time>
      </trkpt>
      <trkpt lat="48.86339" lon="2.3708">
        <ele>43.79999923706</ele>
        <time>2016-01-25T21:28:43Z</time>
      </trkpt>
      <trkpt lat="48.86356" lon="2.37056">
        <ele>44.599998474121</ele>
        <time>2016-01-25T21:28:47Z</time>
      </trkpt>
      <trkpt lat="48.86371" lon="2.3703">
        <ele>44.599998474121</ele>
        <time>2016-01-25T21:28:51Z</time>
      </trkpt>
      <trkpt lat="48.86375" lon="2.37023">
        <ele>44.79999923706</ele>
        <time>2016-01-25T21:28:52Z</time>
      </trkpt>
      <trkpt lat="48.8639" lon="2.36997">
        <ele>45.20000076294</ele>
        <time>2016-01-25T21:28:56Z</time>
      </trkpt>
      <trkpt lat="48.86406" lon="2.36972">
        <ele>44.599998474121</ele>
        <time>2016-01-25T21:29:00Z</time>
      </trkpt>
      <trkpt lat="48.86422" lon="2.36947">
        <ele>45</ele>
        <time>2016-01-25T21:29:04Z</time>
      </trkpt>
      <trkpt lat="48.86435" lon="2.36924">
        <ele>45.79999923706</ele>
        <time>2016-01-25T21:29:08Z</time>
      </trkpt>
      <trkpt lat="48.86448" lon="2.36902">
        <ele>46.20000076294</ele>
        <time>2016-01-25T21:29:12Z</time>
      </trkpt>
      <trkpt lat="48.86462" lon="2.36877">
        <ele>46.20000076294</ele>
        <time>2016-01-25T21:29:16Z</time>
      </trkpt>
      <trkpt lat="48.86469" lon="2.36866">
        <ele>46.400001525879</ele>
        <time>2016-01-25T21:29:18Z</time>
      </trkpt>
      <trkpt lat="48.86483" lon="2.36844">
        <ele>46.79999923706</ele>
        <time>2016-01-25T21:29:22Z</time>
      </trkpt>
      <trkpt lat="48.86487" lon="2.36838">
        <ele>47</ele>
        <time>2016-01-25T21:29:23Z</time>
      </trkpt>
      <trkpt lat="48.86501" lon="2.36817">
        <ele>47.400001525879</ele>
        <time>2016-01-25T21:29:27Z</time>
      </trkpt>
      <trkpt lat="48.86515" lon="2.36795">
        <ele>47.20000076294</ele>
        <time>2016-01-25T21:29:31Z</time>
      </trkpt>
      <trkpt lat="48.86528" lon="2.36769">
        <ele>46.599998474121</ele>
        <time>2016-01-25T21:29:35Z</time>
      </trkpt>
      <trkpt lat="48.86543" lon="2.36744">
        <ele>46.20000076294</ele>
        <time>2016-01-25T21:29:39Z</time>
      </trkpt>
      <trkpt lat="48.86556" lon="2.3672">
        <ele>46</ele>
        <time>2016-01-25T21:29:43Z</time>
      </trkpt>
      <trkpt lat="48.8657" lon="2.36696">
        <ele>46</ele>
        <time>2016-01-25T21:29:47Z</time>
      </trkpt>
      <trkpt lat="48.86584" lon="2.3667">
        <ele>45.79999923706</ele>
        <time>2016-01-25T21:29:51Z</time>
      </trkpt>
      <trkpt lat="48.86596" lon="2.36647">
        <ele>46.20000076294</ele>
        <time>2016-01-25T21:29:55Z</time>
      </trkpt>
      <trkpt lat="48.86609" lon="2.36626">
        <ele>46.400001525879</ele>
        <time>2016-01-25T21:29:59Z</time>
      </trkpt>
      <trkpt lat="48.86621" lon="2.36605">
        <ele>46.599998474121</ele>
        <time>2016-01-25T21:30:03Z</time>
      </trkpt>
      <trkpt lat="48.86624" lon="2.366">
        <ele>46.599998474121</ele>
        <time>2016-01-25T21:30:04Z</time>
      </trkpt>
      <trkpt lat="48.86637" lon="2.36579">
        <ele>46</ele>
        <time>2016-01-25T21:30:08Z</time>
      </trkpt>
      <trkpt lat="48.86651" lon="2.36555">
        <ele>45.599998474121</ele>
        <time>2016-01-25T21:30:13Z</time>
      </trkpt>
      <trkpt lat="48.86664" lon="2.36532">
        <ele>44</ele>
        <time>2016-01-25T21:30:18Z</time>
      </trkpt>
      <trkpt lat="48.86673" lon="2.36514">
        <ele>42.400001525879</ele>
        <time>2016-01-25T21:30:22Z</time>
      </trkpt>
      <trkpt lat="48.86671" lon="2.36491">
        <ele>42</ele>
        <time>2016-01-25T21:30:27Z</time>
      </trkpt>
      <trkpt lat="48.86669" lon="2.36486">
        <ele>42.20000076294</ele>
        <time>2016-01-25T21:30:28Z</time>
      </trkpt>
      <trkpt lat="48.86671" lon="2.36459">
        <ele>43</ele>
        <time>2016-01-25T21:30:33Z</time>
      </trkpt>
      <trkpt lat="48.8668" lon="2.36445">
        <ele>42.79999923706</ele>
        <time>2016-01-25T21:30:36Z</time>
      </trkpt>
      <trkpt lat="48.86688" lon="2.36431">
        <ele>42.599998474121</ele>
        <time>2016-01-25T21:30:39Z</time>
      </trkpt>
      <trkpt lat="48.867" lon="2.36404">
        <ele>43.20000076294</ele>
        <time>2016-01-25T21:30:44Z</time>
      </trkpt>
      <trkpt lat="48.86705" lon="2.36394">
        <ele>43.79999923706</ele>
        <time>2016-01-25T21:30:46Z</time>
      </trkpt>
      <trkpt lat="48.86714" lon="2.36379">
        <ele>44.400001525879</ele>
        <time>2016-01-25T21:30:50Z</time>
      </trkpt>
      <trkpt lat="48.8672" lon="2.36363">
        <ele>45.20000076294</ele>
        <time>2016-01-25T21:30:54Z</time>
      </trkpt>
      <trkpt lat="48.86734" lon="2.3634">
        <ele>44.599998474121</ele>
        <time>2016-01-25T21:31:00Z</time>
      </trkpt>
      <trkpt lat="48.86741" lon="2.36326">
        <ele>44</ele>
        <time>2016-01-25T21:31:04Z</time>
      </trkpt>
      <trkpt lat="48.86743" lon="2.36323">
        <ele>43.599998474121</ele>
        <time>2016-01-25T21:31:08Z</time>
      </trkpt>
      <trkpt lat="48.86731" lon="2.36309">
        <ele>44.400001525879</ele>
        <time>2016-01-25T21:31:35Z</time>
      </trkpt>
      <trkpt lat="48.86719" lon="2.36283">
        <ele>45</ele>
        <time>2016-01-25T21:31:40Z</time>
      </trkpt>
      <trkpt lat="48.86706" lon="2.36254">
        <ele>46.599998474121</ele>
        <time>2016-01-25T21:31:45Z</time>
      </trkpt>
      <trkpt lat="48.86695" lon="2.36231">
        <ele>46.79999923706</ele>
        <time>2016-01-25T21:31:49Z</time>
      </trkpt>
      <trkpt lat="48.86684" lon="2.36209">
        <ele>46.400001525879</ele>
        <time>2016-01-25T21:31:53Z</time>
      </trkpt>
      <trkpt lat="48.86674" lon="2.36184">
        <ele>45.79999923706</ele>
        <time>2016-01-25T21:31:57Z</time>
      </trkpt>
      <trkpt lat="48.86665" lon="2.36158">
        <ele>45.400001525879</ele>
        <time>2016-01-25T21:32:01Z</time>
      </trkpt>
      <trkpt lat="48.86657" lon="2.36132">
        <ele>44.79999923706</ele>
        <time>2016-01-25T21:32:05Z</time>
      </trkpt>
      <trkpt lat="48.86649" lon="2.36107">
        <ele>44.599998474121</ele>
        <time>2016-01-25T21:32:09Z</time>
      </trkpt>
      <trkpt lat="48.86639" lon="2.36076">
        <ele>44.20000076294</ele>
        <time>2016-01-25T21:32:14Z</time>
      </trkpt>
      <trkpt lat="48.86636" lon="2.36062">
        <ele>44.20000076294</ele>
        <time>2016-01-25T21:32:16Z</time>
      </trkpt>
      <trkpt lat="48.86631" lon="2.36035">
        <ele>44.400001525879</ele>
        <time>2016-01-25T21:32:20Z</time>
      </trkpt>
      <trkpt lat="48.86624" lon="2.36008">
        <ele>44.20000076294</ele>
        <time>2016-01-25T21:32:24Z</time>
      </trkpt>
      <trkpt lat="48.86616" lon="2.35979">
        <ele>44.20000076294</ele>
        <time>2016-01-25T21:32:28Z</time>
      </trkpt>
      <trkpt lat="48.8661" lon="2.35951">
        <ele>44.599998474121</ele>
        <time>2016-01-25T21:32:32Z</time>
      </trkpt>
      <trkpt lat="48.86603" lon="2.35924">
        <ele>44.79999923706</ele>
        <time>2016-01-25T21:32:36Z</time>
      </trkpt>
      <trkpt lat="48.86598" lon="2.35897">
        <ele>45</ele>
        <time>2016-01-25T21:32:40Z</time>
      </trkpt>
      <trkpt lat="48.86591" lon="2.3587">
        <ele>44.79999923706</ele>
        <time>2016-01-25T21:32:44Z</time>
      </trkpt>
      <trkpt lat="48.86588" lon="2.35856">
        <ele>44.79999923706</ele>
        <time>2016-01-25T21:32:46Z</time>
      </trkpt>
      <trkpt lat="48.86581" lon="2.35828">
        <ele>44.599998474121</ele>
        <time>2016-01-25T21:32:50Z</time>
      </trkpt>
      <trkpt lat="48.8658" lon="2.35821">
        <ele>44.599998474121</ele>
        <time>2016-01-25T21:32:51Z</time>
      </trkpt>
      <trkpt lat="48.86575" lon="2.3579">
        <ele>44.400001525879</ele>
        <time>2016-01-25T21:32:55Z</time>
      </trkpt>
      <trkpt lat="48.86567" lon="2.35762">
        <ele>44.79999923706</ele>
        <time>2016-01-25T21:32:59Z</time>
      </trkpt>
      <trkpt lat="48.86559" lon="2.35736">
        <ele>45.20000076294</ele>
        <time>2016-01-25T21:33:03Z</time>
      </trkpt>
      <trkpt lat="48.86558" lon="2.35729">
        <ele>45.20000076294</ele>
        <time>2016-01-25T21:33:04Z</time>
      </trkpt>
      <trkpt lat="48.86553" lon="2.35699">
        <ele>45.599998474121</ele>
        <time>2016-01-25T21:33:08Z</time>
      </trkpt>
      <trkpt lat="48.86547" lon="2.35667">
        <ele>45.20000076294</ele>
        <time>2016-01-25T21:33:13Z</time>
      </trkpt>
      <trkpt lat="48.86546" lon="2.35662">
        <ele>45.20000076294</ele>
        <time>2016-01-25T21:33:14Z</time>
      </trkpt>
      <trkpt lat="48.86543" lon="2.35643">
        <ele>45.20000076294</ele>
        <time>2016-01-25T21:33:18Z</time>
      </trkpt>
      <trkpt lat="48.86542" lon="2.35637">
        <ele>45.400001525879</ele>
        <time>2016-01-25T21:33:20Z</time>
      </trkpt>
      <trkpt lat="48.86541" lon="2.35629">
        <ele>45.400001525879</ele>
        <time>2016-01-25T21:33:24Z</time>
      </trkpt>
      <trkpt lat="48.8654" lon="2.35603">
        <ele>45.400001525879</ele>
        <time>2016-01-25T21:33:47Z</time>
      </trkpt>
      <trkpt lat="48.8653" lon="2.35578">
        <ele>45.599998474121</ele>
        <time>2016-01-25T21:33:53Z</time>
      </trkpt>
      <trkpt lat="48.86512" lon="2.35565">
        <ele>46</ele>
        <time>2016-01-25T21:33:59Z</time>
      </trkpt>
      <trkpt lat="48.86493" lon="2.35557">
        <ele>45.599998474121</ele>
        <time>2016-01-25T21:34:04Z</time>
      </trkpt>
      <trkpt lat="48.86474" lon="2.35554">
        <ele>45.400001525879</ele>
        <time>2016-01-25T21:34:09Z</time>
      </trkpt>
      <trkpt lat="48.86455" lon="2.35547">
        <ele>45.20000076294</ele>
        <time>2016-01-25T21:34:14Z</time>
      </trkpt>
      <trkpt lat="48.86436" lon="2.35541">
        <ele>45</ele>
        <time>2016-01-25T21:34:18Z</time>
      </trkpt>
      <trkpt lat="48.86418" lon="2.35536">
        <ele>44.79999923706</ele>
        <time>2016-01-25T21:34:22Z</time>
      </trkpt>
      <trkpt lat="48.86398" lon="2.35525">
        <ele>44.599998474121</ele>
        <time>2016-01-25T21:34:27Z</time>
      </trkpt>
      <trkpt lat="48.86377" lon="2.35515">
        <ele>44.20000076294</ele>
        <time>2016-01-25T21:34:32Z</time>
      </trkpt>
      <trkpt lat="48.86369" lon="2.35511">
        <ele>44.20000076294</ele>
        <time>2016-01-25T21:34:34Z</time>
      </trkpt>
      <trkpt lat="48.86348" lon="2.35504">
        <ele>44.400001525879</ele>
        <time>2016-01-25T21:34:39Z</time>
      </trkpt>
      <trkpt lat="48.86327" lon="2.35497">
        <ele>45</ele>
        <time>2016-01-25T21:34:44Z</time>
      </trkpt>
      <trkpt lat="48.86315" lon="2.35497">
        <ele>45.400001525879</ele>
        <time>2016-01-25T21:34:47Z</time>
      </trkpt>
      <trkpt lat="48.86296" lon="2.35488">
        <ele>46</ele>
        <time>2016-01-25T21:34:51Z</time>
      </trkpt>
      <trkpt lat="48.8628" lon="2.3548">
        <ele>46.599998474121</ele>
        <time>2016-01-25T21:34:55Z</time>
      </trkpt>
      <trkpt lat="48.86271" lon="2.35474">
        <ele>46.79999923706</ele>
        <time>2016-01-25T21:34:58Z</time>
      </trkpt>
      <trkpt lat="48.86262" lon="2.35469">
        <ele>46.79999923706</ele>
        <time>2016-01-25T21:35:02Z</time>
      </trkpt>
      <trkpt lat="48.86273" lon="2.35434">
        <ele>46.20000076294</ele>
        <time>2016-01-25T21:35:13Z</time>
      </trkpt>
      <trkpt lat="48.86279" lon="2.35415">
        <ele>46</ele>
        <time>2016-01-25T21:35:15Z</time>
      </trkpt>
      <trkpt lat="48.86288" lon="2.35389">
        <ele>46.20000076294</ele>
        <time>2016-01-25T21:35:19Z</time>
      </trkpt>
      <trkpt lat="48.86292" lon="2.35361">
        <ele>46.400001525879</ele>
        <time>2016-01-25T21:35:23Z</time>
      </trkpt>
      <trkpt lat="48.86306" lon="2.35338">
        <ele>45.79999923706</ele>
        <time>2016-01-25T21:35:27Z</time>
      </trkpt>
      <trkpt lat="48.86317" lon="2.35315">
        <ele>45.599998474121</ele>
        <time>2016-01-25T21:35:31Z</time>
      </trkpt>
      <trkpt lat="48.8632" lon="2.35284">
        <ele>46</ele>
        <time>2016-01-25T21:35:37Z</time>
      </trkpt>
      <trkpt lat="48.86318" lon="2.3527">
        <ele>46.400001525879</ele>
        <time>2016-01-25T21:35:40Z</time>
      </trkpt>
      <trkpt lat="48.86303" lon="2.3525">
        <ele>47.20000076294</ele>
        <time>2016-01-25T21:35:45Z</time>
      </trkpt>
      <trkpt lat="48.86285" lon="2.35241">
        <ele>47.79999923706</ele>
        <time>2016-01-25T21:35:50Z</time>
      </trkpt>
      <trkpt lat="48.86268" lon="2.35234">
        <ele>48</ele>
        <time>2016-01-25T21:35:54Z</time>
      </trkpt>
      <trkpt lat="48.86248" lon="2.35225">
        <ele>47.400001525879</ele>
        <time>2016-01-25T21:35:58Z</time>
      </trkpt>
      <trkpt lat="48.86229" lon="2.35219">
        <ele>46.79999923706</ele>
        <time>2016-01-25T21:36:03Z</time>
      </trkpt>
      <trkpt lat="48.8622" lon="2.35215">
        <ele>46.599998474121</ele>
        <time>2016-01-25T21:36:05Z</time>
      </trkpt>
      <trkpt lat="48.862" lon="2.35209">
        <ele>45.79999923706</ele>
        <time>2016-01-25T21:36:10Z</time>
      </trkpt>
      <trkpt lat="48.8618" lon="2.35203">
        <ele>45.599998474121</ele>
        <time>2016-01-25T21:36:15Z</time>
      </trkpt>
      <trkpt lat="48.86168" lon="2.35198">
        <ele>45.79999923706</ele>
        <time>2016-01-25T21:36:19Z</time>
      </trkpt>
      <trkpt lat="48.86163" lon="2.35195">
        <ele>46</ele>
        <time>2016-01-25T21:36:21Z</time>
      </trkpt>
      <trkpt lat="48.86159" lon="2.35185">
        <ele>46.20000076294</ele>
        <time>2016-01-25T21:36:23Z</time>
      </trkpt>
      <trkpt lat="48.86145" lon="2.35165">
        <ele>46.599998474121</ele>
        <time>2016-01-25T21:36:30Z</time>
      </trkpt>
      <trkpt lat="48.86142" lon="2.35165">
        <ele>46.599998474121</ele>
        <time>2016-01-25T21:36:31Z</time>
      </trkpt>
      <trkpt lat="48.86121" lon="2.35164">
        <ele>46.79999923706</ele>
        <time>2016-01-25T21:36:37Z</time>
      </trkpt>
      <trkpt lat="48.86099" lon="2.35168">
        <ele>47.599998474121</ele>
        <time>2016-01-25T21:36:43Z</time>
      </trkpt>
      <trkpt lat="48.86077" lon="2.35167">
        <ele>47.599998474121</ele>
        <time>2016-01-25T21:36:48Z</time>
      </trkpt>
      <trkpt lat="48.86058" lon="2.35159">
        <ele>47.400001525879</ele>
        <time>2016-01-25T21:36:53Z</time>
      </trkpt>
      <trkpt lat="48.86038" lon="2.35158">
        <ele>47.599998474121</ele>
        <time>2016-01-25T21:36:58Z</time>
      </trkpt>
      <trkpt lat="48.86021" lon="2.3515">
        <ele>47.400001525879</ele>
        <time>2016-01-25T21:37:05Z</time>
      </trkpt>
      <trkpt lat="48.86011" lon="2.35122">
        <ele>46.599998474121</ele>
        <time>2016-01-25T21:37:09Z</time>
      </trkpt>
      <trkpt lat="48.8601" lon="2.35102">
        <ele>45.79999923706</ele>
        <time>2016-01-25T21:37:12Z</time>
      </trkpt>
      <trkpt lat="48.8602" lon="2.35074">
        <ele>44.400001525879</ele>
        <time>2016-01-25T21:37:17Z</time>
      </trkpt>
      <trkpt lat="48.8603" lon="2.35047">
        <ele>45.599998474121</ele>
        <time>2016-01-25T21:37:23Z</time>
      </trkpt>
      <trkpt lat="48.8604" lon="2.35019">
        <ele>47</ele>
        <time>2016-01-25T21:37:32Z</time>
      </trkpt>
      <trkpt lat="48.86051" lon="2.34993">
        <ele>47.400001525879</ele>
        <time>2016-01-25T21:37:40Z</time>
      </trkpt>
      <trkpt lat="48.86057" lon="2.34966">
        <ele>47.599998474121</ele>
        <time>2016-01-25T21:37:50Z</time>
      </trkpt>
      <trkpt lat="48.86057" lon="2.34962">
        <ele>47.599998474121</ele>
        <time>2016-01-25T21:37:52Z</time>
      </trkpt>
      <trkpt lat="48.86055" lon="2.3493">
        <ele>48</ele>
        <time>2016-01-25T21:38:00Z</time>
      </trkpt>
      <trkpt lat="48.86047" lon="2.3492">
        <ele>48.400001525879</ele>
        <time>2016-01-25T21:38:03Z</time>
      </trkpt>
      <trkpt lat="48.86027" lon="2.34914">
        <ele>48.79999923706</ele>
        <time>2016-01-25T21:38:10Z</time>
      </trkpt>
      <trkpt lat="48.86009" lon="2.34908">
        <ele>48.79999923706</ele>
        <time>2016-01-25T21:38:17Z</time>
      </trkpt>
      <trkpt lat="48.86007" lon="2.34903">
        <ele>48.79999923706</ele>
        <time>2016-01-25T21:38:19Z</time>
      </trkpt>
      <trkpt lat="48.86006" lon="2.34873">
        <ele>48.599998474121</ele>
        <time>2016-01-25T21:38:28Z</time>
      </trkpt>
      <trkpt lat="48.86001" lon="2.34851">
        <ele>48.20000076294</ele>
        <time>2016-01-25T21:38:36Z</time>
      </trkpt>
      <trkpt lat="48.85983" lon="2.34836">
        <ele>48</ele>
        <time>2016-01-25T21:38:43Z</time>
      </trkpt>
      <trkpt lat="48.85967" lon="2.34818">
        <ele>47.400001525879</ele>
        <time>2016-01-25T21:38:50Z</time>
      </trkpt>
      <trkpt lat="48.85952" lon="2.34803">
        <ele>46.599998474121</ele>
        <time>2016-01-25T21:39:00Z</time>
      </trkpt>
      <trkpt lat="48.85953" lon="2.348">
        <ele>46.599998474121</ele>
        <time>2016-01-25T21:39:03Z</time>
      </trkpt>
      <trkpt lat="48.85958" lon="2.34793">
        <ele>46.20000076294</ele>
        <time>2016-01-25T21:39:07Z</time>
      </trkpt>
      <trkpt lat="48.85963" lon="2.34769">
        <ele>45</ele>
        <time>2016-01-25T21:39:19Z</time>
      </trkpt>
      <trkpt lat="48.85963" lon="2.34752">
        <ele>44.400001525879</ele>
        <time>2016-01-25T21:39:28Z</time>
      </trkpt>
      <trkpt lat="48.85963" lon="2.34747">
        <ele>44.20000076294</ele>
        <time>2016-01-25T21:39:30Z</time>
      </trkpt>
    </trkseg>
  </trk>
  <trk>
    <name><![CDATA[lundi 2016 01 18]]></name>
    <extensions>
      <line xmlns="http://www.topografix.com/GPX/gpx_style/0/2">
        <color>000000</color>
      </line>
    </extensions>
    <trkseg>
      <trkpt lat="48.85734" lon="2.34736">
        <ele>40.400001525879</ele>
        <time>2016-01-18T19:20:34Z</time>
      </trkpt>
      <trkpt lat="48.85736" lon="2.34733">
        <ele>40.400001525879</ele>
        <time>2016-01-18T19:20:35Z</time>
      </trkpt>
      <trkpt lat="48.85733" lon="2.34716">
        <ele>40.400001525879</ele>
        <time>2016-01-18T19:20:45Z</time>
      </trkpt>
      <trkpt lat="48.8573" lon="2.34707">
        <ele>40.599998474121</ele>
        <time>2016-01-18T19:20:50Z</time>
      </trkpt>
      <trkpt lat="48.85711" lon="2.34693">
        <ele>40.79999923706</ele>
        <time>2016-01-18T19:20:58Z</time>
      </trkpt>
      <trkpt lat="48.85694" lon="2.34683">
        <ele>41</ele>
        <time>2016-01-18T19:21:03Z</time>
      </trkpt>
      <trkpt lat="48.85676" lon="2.34673">
        <ele>42.20000076294</ele>
        <time>2016-01-18T19:21:09Z</time>
      </trkpt>
      <trkpt lat="48.85656" lon="2.34661">
        <ele>43.79999923706</ele>
        <time>2016-01-18T19:21:15Z</time>
      </trkpt>
      <trkpt lat="48.8564" lon="2.34644">
        <ele>45.20000076294</ele>
        <time>2016-01-18T19:21:21Z</time>
      </trkpt>
      <trkpt lat="48.85632" lon="2.34637">
        <ele>45.79999923706</ele>
        <time>2016-01-18T19:21:27Z</time>
      </trkpt>
      <trkpt lat="48.85619" lon="2.34632">
        <ele>46.79999923706</ele>
        <time>2016-01-18T19:21:39Z</time>
      </trkpt>
      <trkpt lat="48.85603" lon="2.34621">
        <ele>48</ele>
        <time>2016-01-18T19:21:43Z</time>
      </trkpt>
      <trkpt lat="48.85582" lon="2.3461">
        <ele>47.79999923706</ele>
        <time>2016-01-18T19:21:47Z</time>
      </trkpt>
      <trkpt lat="48.8556" lon="2.34602">
        <ele>47.400001525879</ele>
        <time>2016-01-18T19:21:51Z</time>
      </trkpt>
      <trkpt lat="48.8554" lon="2.3459">
        <ele>47.20000076294</ele>
        <time>2016-01-18T19:21:55Z</time>
      </trkpt>
      <trkpt lat="48.8552" lon="2.34574">
        <ele>46.599998474121</ele>
        <time>2016-01-18T19:21:59Z</time>
      </trkpt>
      <trkpt lat="48.85501" lon="2.34561">
        <ele>45.400001525879</ele>
        <time>2016-01-18T19:22:03Z</time>
      </trkpt>
      <trkpt lat="48.85485" lon="2.34548">
        <ele>44.20000076294</ele>
        <time>2016-01-18T19:22:07Z</time>
      </trkpt>
      <trkpt lat="48.85468" lon="2.34536">
        <ele>43</ele>
        <time>2016-01-18T19:22:11Z</time>
      </trkpt>
      <trkpt lat="48.85451" lon="2.34515">
        <ele>41.79999923706</ele>
        <time>2016-01-18T19:22:15Z</time>
      </trkpt>
      <trkpt lat="48.85434" lon="2.34492">
        <ele>41.20000076294</ele>
        <time>2016-01-18T19:22:19Z</time>
      </trkpt>
      <trkpt lat="48.85423" lon="2.34479">
        <ele>41.599998474121</ele>
        <time>2016-01-18T19:22:21Z</time>
      </trkpt>
      <trkpt lat="48.85408" lon="2.34461">
        <ele>42</ele>
        <time>2016-01-18T19:22:25Z</time>
      </trkpt>
      <trkpt lat="48.85402" lon="2.34451">
        <ele>42</ele>
        <time>2016-01-18T19:22:28Z</time>
      </trkpt>
      <trkpt lat="48.85398" lon="2.34444">
        <ele>42</ele>
        <time>2016-01-18T19:22:31Z</time>
      </trkpt>
      <trkpt lat="48.85392" lon="2.34438">
        <ele>42.20000076294</ele>
        <time>2016-01-18T19:22:35Z</time>
      </trkpt>
      <trkpt lat="48.85391" lon="2.34436">
        <ele>42.20000076294</ele>
        <time>2016-01-18T19:22:37Z</time>
      </trkpt>
      <trkpt lat="48.85394" lon="2.34431">
        <ele>41.79999923706</ele>
        <time>2016-01-18T19:22:44Z</time>
      </trkpt>
      <trkpt lat="48.85386" lon="2.34406">
        <ele>42.20000076294</ele>
        <time>2016-01-18T19:23:03Z</time>
      </trkpt>
      <trkpt lat="48.8537" lon="2.34386">
        <ele>44</ele>
        <time>2016-01-18T19:23:08Z</time>
      </trkpt>
      <trkpt lat="48.85356" lon="2.34366">
        <ele>45.79999923706</ele>
        <time>2016-01-18T19:23:12Z</time>
      </trkpt>
      <trkpt lat="48.85341" lon="2.34347">
        <ele>46.79999923706</ele>
        <time>2016-01-18T19:23:17Z</time>
      </trkpt>
      <trkpt lat="48.85328" lon="2.34328">
        <ele>47.79999923706</ele>
        <time>2016-01-18T19:23:22Z</time>
      </trkpt>
      <trkpt lat="48.85324" lon="2.34327">
        <ele>47.79999923706</ele>
        <time>2016-01-18T19:23:23Z</time>
      </trkpt>
      <trkpt lat="48.85306" lon="2.34328">
        <ele>48.20000076294</ele>
        <time>2016-01-18T19:23:28Z</time>
      </trkpt>
      <trkpt lat="48.85302" lon="2.34327">
        <ele>48.400001525879</ele>
        <time>2016-01-18T19:23:29Z</time>
      </trkpt>
      <trkpt lat="48.85284" lon="2.34317">
        <ele>48.79999923706</ele>
        <time>2016-01-18T19:23:36Z</time>
      </trkpt>
      <trkpt lat="48.85265" lon="2.34305">
        <ele>49.20000076294</ele>
        <time>2016-01-18T19:23:43Z</time>
      </trkpt>
      <trkpt lat="48.8525" lon="2.34288">
        <ele>49.20000076294</ele>
        <time>2016-01-18T19:23:47Z</time>
      </trkpt>
      <trkpt lat="48.85233" lon="2.34272">
        <ele>49.20000076294</ele>
        <time>2016-01-18T19:23:51Z</time>
      </trkpt>
      <trkpt lat="48.85218" lon="2.34249">
        <ele>49.400001525879</ele>
        <time>2016-01-18T19:23:57Z</time>
      </trkpt>
      <trkpt lat="48.85201" lon="2.3423">
        <ele>48.599998474121</ele>
        <time>2016-01-18T19:24:01Z</time>
      </trkpt>
      <trkpt lat="48.85182" lon="2.34219">
        <ele>48</ele>
        <time>2016-01-18T19:24:07Z</time>
      </trkpt>
      <trkpt lat="48.85181" lon="2.34217">
        <ele>47.79999923706</ele>
        <time>2016-01-18T19:24:08Z</time>
      </trkpt>
      <trkpt lat="48.85173" lon="2.34191">
        <ele>47</ele>
        <time>2016-01-18T19:24:15Z</time>
      </trkpt>
      <trkpt lat="48.85162" lon="2.34168">
        <ele>46.20000076294</ele>
        <time>2016-01-18T19:24:20Z</time>
      </trkpt>
      <trkpt lat="48.85142" lon="2.34157">
        <ele>46</ele>
        <time>2016-01-18T19:24:24Z</time>
      </trkpt>
      <trkpt lat="48.85122" lon="2.34157">
        <ele>46</ele>
        <time>2016-01-18T19:24:27Z</time>
      </trkpt>
      <trkpt lat="48.85104" lon="2.34142">
        <ele>46</ele>
        <time>2016-01-18T19:24:32Z</time>
      </trkpt>
      <trkpt lat="48.85099" lon="2.34134">
        <ele>46.400001525879</ele>
        <time>2016-01-18T19:24:35Z</time>
      </trkpt>
      <trkpt lat="48.85088" lon="2.34148">
        <ele>46.79999923706</ele>
        <time>2016-01-18T19:24:41Z</time>
      </trkpt>
      <trkpt lat="48.8508" lon="2.34175">
        <ele>47.400001525879</ele>
        <time>2016-01-18T19:24:50Z</time>
      </trkpt>
      <trkpt lat="48.8507" lon="2.34199">
        <ele>48.599998474121</ele>
        <time>2016-01-18T19:24:58Z</time>
      </trkpt>
      <trkpt lat="48.85063" lon="2.34225">
        <ele>50</ele>
        <time>2016-01-18T19:25:04Z</time>
      </trkpt>
      <trkpt lat="48.85049" lon="2.34246">
        <ele>51.599998474121</ele>
        <time>2016-01-18T19:25:09Z</time>
      </trkpt>
      <trkpt lat="48.85032" lon="2.34261">
        <ele>52.400001525879</ele>
        <time>2016-01-18T19:25:17Z</time>
      </trkpt>
      <trkpt lat="48.85019" lon="2.34283">
        <ele>53.599998474121</ele>
        <time>2016-01-18T19:25:25Z</time>
      </trkpt>
      <trkpt lat="48.85011" lon="2.34296">
        <ele>54.20000076294</ele>
        <time>2016-01-18T19:25:33Z</time>
      </trkpt>
      <trkpt lat="48.84999" lon="2.34297">
        <ele>54.79999923706</ele>
        <time>2016-01-18T19:25:38Z</time>
      </trkpt>
      <trkpt lat="48.84986" lon="2.34276">
        <ele>55.20000076294</ele>
        <time>2016-01-18T19:25:45Z</time>
      </trkpt>
      <trkpt lat="48.8497" lon="2.34261">
        <ele>55.599998474121</ele>
        <time>2016-01-18T19:25:50Z</time>
      </trkpt>
      <trkpt lat="48.84952" lon="2.3425">
        <ele>56.400001525879</ele>
        <time>2016-01-18T19:25:55Z</time>
      </trkpt>
      <trkpt lat="48.84937" lon="2.34234">
        <ele>57</ele>
        <time>2016-01-18T19:26:00Z</time>
      </trkpt>
      <trkpt lat="48.84914" lon="2.34228">
        <ele>58.400001525879</ele>
        <time>2016-01-18T19:26:05Z</time>
      </trkpt>
      <trkpt lat="48.84892" lon="2.34237">
        <ele>60.20000076294</ele>
        <time>2016-01-18T19:26:09Z</time>
      </trkpt>
      <trkpt lat="48.84875" lon="2.34235">
        <ele>61.400001525879</ele>
        <time>2016-01-18T19:26:13Z</time>
      </trkpt>
      <trkpt lat="48.84873" lon="2.34238">
        <ele>61.599998474121</ele>
        <time>2016-01-18T19:26:17Z</time>
      </trkpt>
      <trkpt lat="48.8486" lon="2.3426">
        <ele>62.599998474121</ele>
        <time>2016-01-18T19:26:28Z</time>
      </trkpt>
      <trkpt lat="48.84858" lon="2.34265">
        <ele>62.599998474121</ele>
        <time>2016-01-18T19:26:31Z</time>
      </trkpt>
      <trkpt lat="48.84856" lon="2.34266">
        <ele>62.599998474121</ele>
        <time>2016-01-18T19:26:34Z</time>
      </trkpt>
      <trkpt lat="48.84853" lon="2.34268">
        <ele>62.599998474121</ele>
        <time>2016-01-18T19:26:37Z</time>
      </trkpt>
      <trkpt lat="48.8484" lon="2.3427">
        <ele>62.400001525879</ele>
        <time>2016-01-18T19:26:58Z</time>
      </trkpt>
      <trkpt lat="48.84821" lon="2.34278">
        <ele>62.20000076294</ele>
        <time>2016-01-18T19:27:06Z</time>
      </trkpt>
      <trkpt lat="48.84819" lon="2.34276">
        <ele>62.400001525879</ele>
        <time>2016-01-18T19:27:07Z</time>
      </trkpt>
      <trkpt lat="48.84811" lon="2.34263">
        <ele>62.599998474121</ele>
        <time>2016-01-18T19:27:11Z</time>
      </trkpt>
      <trkpt lat="48.84794" lon="2.3425">
        <ele>63</ele>
        <time>2016-01-18T19:27:25Z</time>
      </trkpt>
      <trkpt lat="48.84779" lon="2.3425">
        <ele>63</ele>
        <time>2016-01-18T19:27:36Z</time>
      </trkpt>
      <trkpt lat="48.84759" lon="2.34247">
        <ele>63.599998474121</ele>
        <time>2016-01-18T19:27:44Z</time>
      </trkpt>
      <trkpt lat="48.84739" lon="2.34234">
        <ele>64.400001525879</ele>
        <time>2016-01-18T19:27:49Z</time>
      </trkpt>
      <trkpt lat="48.84727" lon="2.34211">
        <ele>64.800003051758</ele>
        <time>2016-01-18T19:27:55Z</time>
      </trkpt>
      <trkpt lat="48.84726" lon="2.34206">
        <ele>64.800003051758</ele>
        <time>2016-01-18T19:27:57Z</time>
      </trkpt>
      <trkpt lat="48.84726" lon="2.34204">
        <ele>64.599998474121</ele>
        <time>2016-01-18T19:27:59Z</time>
      </trkpt>
      <trkpt lat="48.84728" lon="2.34202">
        <ele>64.599998474121</ele>
        <time>2016-01-18T19:28:01Z</time>
      </trkpt>
      <trkpt lat="48.84719" lon="2.34193">
        <ele>64.800003051758</ele>
        <time>2016-01-18T19:28:07Z</time>
      </trkpt>
      <trkpt lat="48.84705" lon="2.3417">
        <ele>65</ele>
        <time>2016-01-18T19:28:13Z</time>
      </trkpt>
      <trkpt lat="48.84689" lon="2.34158">
        <ele>65.599998474121</ele>
        <time>2016-01-18T19:28:17Z</time>
      </trkpt>
      <trkpt lat="48.84674" lon="2.34137">
        <ele>65</ele>
        <time>2016-01-18T19:28:23Z</time>
      </trkpt>
      <trkpt lat="48.84647" lon="2.34138">
        <ele>65.800003051758</ele>
        <time>2016-01-18T19:28:28Z</time>
      </trkpt>
      <trkpt lat="48.84623" lon="2.34146">
        <ele>66.800003051758</ele>
        <time>2016-01-18T19:28:31Z</time>
      </trkpt>
      <trkpt lat="48.84618" lon="2.34146">
        <ele>66.800003051758</ele>
        <time>2016-01-18T19:28:32Z</time>
      </trkpt>
      <trkpt lat="48.84598" lon="2.34148">
        <ele>67.400001525879</ele>
        <time>2016-01-18T19:28:38Z</time>
      </trkpt>
      <trkpt lat="48.84588" lon="2.34153">
        <ele>67.599998474121</ele>
        <time>2016-01-18T19:28:41Z</time>
      </trkpt>
      <trkpt lat="48.84567" lon="2.34161">
        <ele>67.400001525879</ele>
        <time>2016-01-18T19:28:46Z</time>
      </trkpt>
      <trkpt lat="48.8455" lon="2.34166">
        <ele>67.400001525879</ele>
        <time>2016-01-18T19:28:51Z</time>
      </trkpt>
      <trkpt lat="48.8453" lon="2.34171">
        <ele>67.199996948242</ele>
        <time>2016-01-18T19:28:56Z</time>
      </trkpt>
      <trkpt lat="48.84511" lon="2.34177">
        <ele>66.800003051758</ele>
        <time>2016-01-18T19:29:01Z</time>
      </trkpt>
      <trkpt lat="48.84491" lon="2.34184">
        <ele>66</ele>
        <time>2016-01-18T19:29:06Z</time>
      </trkpt>
      <trkpt lat="48.84472" lon="2.34193">
        <ele>65.199996948242</ele>
        <time>2016-01-18T19:29:11Z</time>
      </trkpt>
      <trkpt lat="48.84454" lon="2.34199">
        <ele>64.599998474121</ele>
        <time>2016-01-18T19:29:16Z</time>
      </trkpt>
      <trkpt lat="48.84436" lon="2.34201">
        <ele>63.79999923706</ele>
        <time>2016-01-18T19:29:23Z</time>
      </trkpt>
      <trkpt lat="48.84416" lon="2.34209">
        <ele>63.79999923706</ele>
        <time>2016-01-18T19:29:31Z</time>
      </trkpt>
      <trkpt lat="48.84397" lon="2.34219">
        <ele>63.400001525879</ele>
        <time>2016-01-18T19:29:37Z</time>
      </trkpt>
      <trkpt lat="48.84376" lon="2.34212">
        <ele>62.79999923706</ele>
        <time>2016-01-18T19:29:42Z</time>
      </trkpt>
      <trkpt lat="48.84356" lon="2.34206">
        <ele>62</ele>
        <time>2016-01-18T19:29:47Z</time>
      </trkpt>
      <trkpt lat="48.84338" lon="2.34199">
        <ele>62.599998474121</ele>
        <time>2016-01-18T19:29:52Z</time>
      </trkpt>
      <trkpt lat="48.84327" lon="2.34174">
        <ele>63</ele>
        <time>2016-01-18T19:29:58Z</time>
      </trkpt>
      <trkpt lat="48.84327" lon="2.34171">
        <ele>63</ele>
        <time>2016-01-18T19:29:59Z</time>
      </trkpt>
      <trkpt lat="48.84342" lon="2.3415">
        <ele>62.20000076294</ele>
        <time>2016-01-18T19:30:07Z</time>
      </trkpt>
      <trkpt lat="48.84346" lon="2.34118">
        <ele>61.20000076294</ele>
        <time>2016-01-18T19:30:12Z</time>
      </trkpt>
      <trkpt lat="48.84352" lon="2.34084">
        <ele>60.20000076294</ele>
        <time>2016-01-18T19:30:18Z</time>
      </trkpt>
      <trkpt lat="48.84356" lon="2.34049">
        <ele>58.400001525879</ele>
        <time>2016-01-18T19:30:24Z</time>
      </trkpt>
      <trkpt lat="48.84366" lon="2.34022">
        <ele>57.400001525879</ele>
        <time>2016-01-18T19:30:27Z</time>
      </trkpt>
      <trkpt lat="48.84374" lon="2.33995">
        <ele>58</ele>
        <time>2016-01-18T19:30:31Z</time>
      </trkpt>
      <trkpt lat="48.84382" lon="2.33964">
        <ele>59.599998474121</ele>
        <time>2016-01-18T19:30:36Z</time>
      </trkpt>
      <trkpt lat="48.84392" lon="2.33941">
        <ele>60.79999923706</ele>
        <time>2016-01-18T19:30:42Z</time>
      </trkpt>
      <trkpt lat="48.84374" lon="2.33939">
        <ele>59.400001525879</ele>
        <time>2016-01-18T19:30:48Z</time>
      </trkpt>
      <trkpt lat="48.84354" lon="2.33937">
        <ele>57.400001525879</ele>
        <time>2016-01-18T19:30:52Z</time>
      </trkpt>
      <trkpt lat="48.84334" lon="2.33923">
        <ele>58</ele>
        <time>2016-01-18T19:30:55Z</time>
      </trkpt>
      <trkpt lat="48.8431" lon="2.33921">
        <ele>58.400001525879</ele>
        <time>2016-01-18T19:30:59Z</time>
      </trkpt>
      <trkpt lat="48.84288" lon="2.33916">
        <ele>58.79999923706</ele>
        <time>2016-01-18T19:31:03Z</time>
      </trkpt>
      <trkpt lat="48.84268" lon="2.33917">
        <ele>59.20000076294</ele>
        <time>2016-01-18T19:31:07Z</time>
      </trkpt>
      <trkpt lat="48.84252" lon="2.33915">
        <ele>60.20000076294</ele>
        <time>2016-01-18T19:31:11Z</time>
      </trkpt>
      <trkpt lat="48.84231" lon="2.33922">
        <ele>61.400001525879</ele>
        <time>2016-01-18T19:31:17Z</time>
      </trkpt>
      <trkpt lat="48.84211" lon="2.33925">
        <ele>62.400001525879</ele>
        <time>2016-01-18T19:31:22Z</time>
      </trkpt>
      <trkpt lat="48.84203" lon="2.33923">
        <ele>63</ele>
        <time>2016-01-18T19:31:24Z</time>
      </trkpt>
      <trkpt lat="48.84185" lon="2.33915">
        <ele>64</ele>
        <time>2016-01-18T19:31:29Z</time>
      </trkpt>
      <trkpt lat="48.84167" lon="2.33902">
        <ele>64</ele>
        <time>2016-01-18T19:31:35Z</time>
      </trkpt>
      <trkpt lat="48.84165" lon="2.33898">
        <ele>64</ele>
        <time>2016-01-18T19:31:36Z</time>
      </trkpt>
      <trkpt lat="48.84157" lon="2.33894">
        <ele>64</ele>
        <time>2016-01-18T19:31:39Z</time>
      </trkpt>
      <trkpt lat="48.8416" lon="2.33879">
        <ele>64.199996948242</ele>
        <time>2016-01-18T19:31:44Z</time>
      </trkpt>
      <trkpt lat="48.84156" lon="2.33851">
        <ele>64.800003051758</ele>
        <time>2016-01-18T19:31:53Z</time>
      </trkpt>
      <trkpt lat="48.8416" lon="2.33822">
        <ele>65</ele>
        <time>2016-01-18T19:32:00Z</time>
      </trkpt>
      <trkpt lat="48.84168" lon="2.33809">
        <ele>64.800003051758</ele>
        <time>2016-01-18T19:32:06Z</time>
      </trkpt>
      <trkpt lat="48.84175" lon="2.33787">
        <ele>64.400001525879</ele>
        <time>2016-01-18T19:32:16Z</time>
      </trkpt>
      <trkpt lat="48.84181" lon="2.33771">
        <ele>64.199996948242</ele>
        <time>2016-01-18T19:32:20Z</time>
      </trkpt>
      <trkpt lat="48.84196" lon="2.33752">
        <ele>63.79999923706</ele>
        <time>2016-01-18T19:32:26Z</time>
      </trkpt>
      <trkpt lat="48.84214" lon="2.33749">
        <ele>63.400001525879</ele>
        <time>2016-01-18T19:32:32Z</time>
      </trkpt>
      <trkpt lat="48.84233" lon="2.33745">
        <ele>62.79999923706</ele>
        <time>2016-01-18T19:32:38Z</time>
      </trkpt>
      <trkpt lat="48.84246" lon="2.33723">
        <ele>61.400001525879</ele>
        <time>2016-01-18T19:32:44Z</time>
      </trkpt>
      <trkpt lat="48.8425" lon="2.33694">
        <ele>60.400001525879</ele>
        <time>2016-01-18T19:32:49Z</time>
      </trkpt>
      <trkpt lat="48.84251" lon="2.33662">
        <ele>59.400001525879</ele>
        <time>2016-01-18T19:32:54Z</time>
      </trkpt>
      <trkpt lat="48.84254" lon="2.33633">
        <ele>60.400001525879</ele>
        <time>2016-01-18T19:32:59Z</time>
      </trkpt>
      <trkpt lat="48.84256" lon="2.33606">
        <ele>61</ele>
        <time>2016-01-18T19:33:03Z</time>
      </trkpt>
      <trkpt lat="48.84256" lon="2.33578">
        <ele>61.599998474121</ele>
        <time>2016-01-18T19:33:07Z</time>
      </trkpt>
      <trkpt lat="48.8426" lon="2.33547">
        <ele>61.20000076294</ele>
        <time>2016-01-18T19:33:11Z</time>
      </trkpt>
      <trkpt lat="48.84262" lon="2.33517">
        <ele>60.79999923706</ele>
        <time>2016-01-18T19:33:15Z</time>
      </trkpt>
      <trkpt lat="48.84266" lon="2.33491">
        <ele>60</ele>
        <time>2016-01-18T19:33:19Z</time>
      </trkpt>
      <trkpt lat="48.84266" lon="2.33478">
        <ele>60</ele>
        <time>2016-01-18T19:33:21Z</time>
      </trkpt>
      <trkpt lat="48.84263" lon="2.33448">
        <ele>59.79999923706</ele>
        <time>2016-01-18T19:33:26Z</time>
      </trkpt>
      <trkpt lat="48.84261" lon="2.33442">
        <ele>59.79999923706</ele>
        <time>2016-01-18T19:33:27Z</time>
      </trkpt>
      <trkpt lat="48.8425" lon="2.33424">
        <ele>59.79999923706</ele>
        <time>2016-01-18T19:33:31Z</time>
      </trkpt>
      <trkpt lat="48.84237" lon="2.33403">
        <ele>60</ele>
        <time>2016-01-18T19:33:35Z</time>
      </trkpt>
      <trkpt lat="48.84229" lon="2.33376">
        <ele>60.79999923706</ele>
        <time>2016-01-18T19:33:39Z</time>
      </trkpt>
      <trkpt lat="48.84217" lon="2.33353">
        <ele>61.400001525879</ele>
        <time>2016-01-18T19:33:43Z</time>
      </trkpt>
      <trkpt lat="48.84208" lon="2.33329">
        <ele>61.79999923706</ele>
        <time>2016-01-18T19:33:47Z</time>
      </trkpt>
      <trkpt lat="48.84199" lon="2.33305">
        <ele>61.79999923706</ele>
        <time>2016-01-18T19:33:51Z</time>
      </trkpt>
      <trkpt lat="48.8419" lon="2.33281">
        <ele>62</ele>
        <time>2016-01-18T19:33:55Z</time>
      </trkpt>
      <trkpt lat="48.84182" lon="2.3325">
        <ele>62.20000076294</ele>
        <time>2016-01-18T19:34:01Z</time>
      </trkpt>
      <trkpt lat="48.84186" lon="2.33227">
        <ele>62.400001525879</ele>
        <time>2016-01-18T19:34:07Z</time>
      </trkpt>
      <trkpt lat="48.8419" lon="2.33219">
        <ele>62.400001525879</ele>
        <time>2016-01-18T19:34:09Z</time>
      </trkpt>
      <trkpt lat="48.84206" lon="2.332">
        <ele>62.20000076294</ele>
        <time>2016-01-18T19:34:16Z</time>
      </trkpt>
      <trkpt lat="48.84223" lon="2.3319">
        <ele>61.79999923706</ele>
        <time>2016-01-18T19:34:27Z</time>
      </trkpt>
      <trkpt lat="48.84239" lon="2.33172">
        <ele>61.20000076294</ele>
        <time>2016-01-18T19:34:34Z</time>
      </trkpt>
      <trkpt lat="48.84246" lon="2.33177">
        <ele>61</ele>
        <time>2016-01-18T19:34:36Z</time>
      </trkpt>
      <trkpt lat="48.84268" lon="2.3317">
        <ele>60.20000076294</ele>
        <time>2016-01-18T19:34:41Z</time>
      </trkpt>
      <trkpt lat="48.84289" lon="2.33156">
        <ele>59.599998474121</ele>
        <time>2016-01-18T19:34:44Z</time>
      </trkpt>
      <trkpt lat="48.84306" lon="2.33144">
        <ele>59.20000076294</ele>
        <time>2016-01-18T19:34:48Z</time>
      </trkpt>
      <trkpt lat="48.84324" lon="2.33127">
        <ele>58.599998474121</ele>
        <time>2016-01-18T19:34:53Z</time>
      </trkpt>
      <trkpt lat="48.84337" lon="2.33108">
        <ele>57.79999923706</ele>
        <time>2016-01-18T19:34:58Z</time>
      </trkpt>
      <trkpt lat="48.84351" lon="2.33085">
        <ele>57.20000076294</ele>
        <time>2016-01-18T19:35:03Z</time>
      </trkpt>
      <trkpt lat="48.84371" lon="2.33072">
        <ele>57.400001525879</ele>
        <time>2016-01-18T19:35:08Z</time>
      </trkpt>
      <trkpt lat="48.84394" lon="2.33065">
        <ele>57.79999923706</ele>
        <time>2016-01-18T19:35:11Z</time>
      </trkpt>
      <trkpt lat="48.84411" lon="2.33052">
        <ele>58.400001525879</ele>
        <time>2016-01-18T19:35:17Z</time>
      </trkpt>
      <trkpt lat="48.84424" lon="2.33031">
        <ele>58.20000076294</ele>
        <time>2016-01-18T19:35:23Z</time>
      </trkpt>
      <trkpt lat="48.84437" lon="2.33009">
        <ele>58</ele>
        <time>2016-01-18T19:35:28Z</time>
      </trkpt>
      <trkpt lat="48.84451" lon="2.32982">
        <ele>57.400001525879</ele>
        <time>2016-01-18T19:35:33Z</time>
      </trkpt>
      <trkpt lat="48.84463" lon="2.32955">
        <ele>56.599998474121</ele>
        <time>2016-01-18T19:35:38Z</time>
      </trkpt>
      <trkpt lat="48.84475" lon="2.32928">
        <ele>55.599998474121</ele>
        <time>2016-01-18T19:35:44Z</time>
      </trkpt>
      <trkpt lat="48.84488" lon="2.32905">
        <ele>54.400001525879</ele>
        <time>2016-01-18T19:35:49Z</time>
      </trkpt>
      <trkpt lat="48.84498" lon="2.32882">
        <ele>53.599998474121</ele>
        <time>2016-01-18T19:35:58Z</time>
      </trkpt>
      <trkpt lat="48.845" lon="2.32878">
        <ele>53.599998474121</ele>
        <time>2016-01-18T19:36:00Z</time>
      </trkpt>
      <trkpt lat="48.84494" lon="2.32876">
        <ele>53.79999923706</ele>
        <time>2016-01-18T19:36:04Z</time>
      </trkpt>
      <trkpt lat="48.84475" lon="2.32883">
        <ele>55</ele>
        <time>2016-01-18T19:36:10Z</time>
      </trkpt>
      <trkpt lat="48.84456" lon="2.32902">
        <ele>56.599998474121</ele>
        <time>2016-01-18T19:36:15Z</time>
      </trkpt>
      <trkpt lat="48.84437" lon="2.3291">
        <ele>58</ele>
        <time>2016-01-18T19:36:19Z</time>
      </trkpt>
      <trkpt lat="48.84418" lon="2.32917">
        <ele>58.599998474121</ele>
        <time>2016-01-18T19:36:23Z</time>
      </trkpt>
      <trkpt lat="48.84397" lon="2.32924">
        <ele>59</ele>
        <time>2016-01-18T19:36:28Z</time>
      </trkpt>
      <trkpt lat="48.84379" lon="2.32925">
        <ele>59.400001525879</ele>
        <time>2016-01-18T19:36:33Z</time>
      </trkpt>
      <trkpt lat="48.84357" lon="2.3293">
        <ele>59.79999923706</ele>
        <time>2016-01-18T19:36:39Z</time>
      </trkpt>
      <trkpt lat="48.84336" lon="2.3294">
        <ele>59.599998474121</ele>
        <time>2016-01-18T19:36:45Z</time>
      </trkpt>
      <trkpt lat="48.84316" lon="2.32942">
        <ele>59.599998474121</ele>
        <time>2016-01-18T19:36:51Z</time>
      </trkpt>
      <trkpt lat="48.84295" lon="2.32944">
        <ele>59.79999923706</ele>
        <time>2016-01-18T19:36:57Z</time>
      </trkpt>
      <trkpt lat="48.84275" lon="2.32951">
        <ele>60</ele>
        <time>2016-01-18T19:37:03Z</time>
      </trkpt>
      <trkpt lat="48.84255" lon="2.32955">
        <ele>60.20000076294</ele>
        <time>2016-01-18T19:37:10Z</time>
      </trkpt>
      <trkpt lat="48.84236" lon="2.32958">
        <ele>60.400001525879</ele>
        <time>2016-01-18T19:37:17Z</time>
      </trkpt>
      <trkpt lat="48.84225" lon="2.32953">
        <ele>60.599998474121</ele>
        <time>2016-01-18T19:37:24Z</time>
      </trkpt>
      <trkpt lat="48.84208" lon="2.32952">
        <ele>60.79999923706</ele>
        <time>2016-01-18T19:37:42Z</time>
      </trkpt>
      <trkpt lat="48.84193" lon="2.3297">
        <ele>61</ele>
        <time>2016-01-18T19:37:49Z</time>
      </trkpt>
      <trkpt lat="48.84174" lon="2.3298">
        <ele>61</ele>
        <time>2016-01-18T19:37:54Z</time>
      </trkpt>
      <trkpt lat="48.84154" lon="2.32986">
        <ele>61.79999923706</ele>
        <time>2016-01-18T19:37:59Z</time>
      </trkpt>
      <trkpt lat="48.84139" lon="2.32973">
        <ele>62</ele>
        <time>2016-01-18T19:38:05Z</time>
      </trkpt>
      <trkpt lat="48.84126" lon="2.32948">
        <ele>61.599998474121</ele>
        <time>2016-01-18T19:38:10Z</time>
      </trkpt>
      <trkpt lat="48.84115" lon="2.32923">
        <ele>61</ele>
        <time>2016-01-18T19:38:14Z</time>
      </trkpt>
      <trkpt lat="48.84103" lon="2.329">
        <ele>60.79999923706</ele>
        <time>2016-01-18T19:38:18Z</time>
      </trkpt>
      <trkpt lat="48.84091" lon="2.32876">
        <ele>60.400001525879</ele>
        <time>2016-01-18T19:38:22Z</time>
      </trkpt>
      <trkpt lat="48.84078" lon="2.32854">
        <ele>60</ele>
        <time>2016-01-18T19:38:26Z</time>
      </trkpt>
      <trkpt lat="48.84062" lon="2.3283">
        <ele>59.400001525879</ele>
        <time>2016-01-18T19:38:31Z</time>
      </trkpt>
      <trkpt lat="48.84059" lon="2.32825">
        <ele>59.599998474121</ele>
        <time>2016-01-18T19:38:32Z</time>
      </trkpt>
      <trkpt lat="48.84045" lon="2.32801">
        <ele>59.599998474121</ele>
        <time>2016-01-18T19:38:37Z</time>
      </trkpt>
      <trkpt lat="48.84043" lon="2.32796">
        <ele>59.599998474121</ele>
        <time>2016-01-18T19:38:38Z</time>
      </trkpt>
      <trkpt lat="48.84037" lon="2.32769">
        <ele>60</ele>
        <time>2016-01-18T19:38:43Z</time>
      </trkpt>
      <trkpt lat="48.84043" lon="2.3274">
        <ele>61</ele>
        <time>2016-01-18T19:38:49Z</time>
      </trkpt>
      <trkpt lat="48.84044" lon="2.32735">
        <ele>61</ele>
        <time>2016-01-18T19:38:50Z</time>
      </trkpt>
      <trkpt lat="48.84048" lon="2.32719">
        <ele>61.20000076294</ele>
        <time>2016-01-18T19:38:53Z</time>
      </trkpt>
      <trkpt lat="48.84056" lon="2.32693">
        <ele>61.400001525879</ele>
        <time>2016-01-18T19:38:58Z</time>
      </trkpt>
      <trkpt lat="48.84063" lon="2.32666">
        <ele>61</ele>
        <time>2016-01-18T19:39:03Z</time>
      </trkpt>
      <trkpt lat="48.84071" lon="2.32641">
        <ele>60.599998474121</ele>
        <time>2016-01-18T19:39:07Z</time>
      </trkpt>
      <trkpt lat="48.84079" lon="2.32615">
        <ele>60.20000076294</ele>
        <time>2016-01-18T19:39:11Z</time>
      </trkpt>
      <trkpt lat="48.84087" lon="2.3259">
        <ele>59.79999923706</ele>
        <time>2016-01-18T19:39:15Z</time>
      </trkpt>
      <trkpt lat="48.84096" lon="2.32566">
        <ele>59.79999923706</ele>
        <time>2016-01-18T19:39:19Z</time>
      </trkpt>
      <trkpt lat="48.84104" lon="2.3254">
        <ele>60.79999923706</ele>
        <time>2016-01-18T19:39:23Z</time>
      </trkpt>
      <trkpt lat="48.84114" lon="2.32511">
        <ele>62</ele>
        <time>2016-01-18T19:39:28Z</time>
      </trkpt>
      <trkpt lat="48.84115" lon="2.32504">
        <ele>62.20000076294</ele>
        <time>2016-01-18T19:39:29Z</time>
      </trkpt>
      <trkpt lat="48.84111" lon="2.32476">
        <ele>61.599998474121</ele>
        <time>2016-01-18T19:39:35Z</time>
      </trkpt>
      <trkpt lat="48.84109" lon="2.32473">
        <ele>61.400001525879</ele>
        <time>2016-01-18T19:39:36Z</time>
      </trkpt>
      <trkpt lat="48.84108" lon="2.32469">
        <ele>61.400001525879</ele>
        <time>2016-01-18T19:39:37Z</time>
      </trkpt>
      <trkpt lat="48.84103" lon="2.32453">
        <ele>61</ele>
        <time>2016-01-18T19:39:42Z</time>
      </trkpt>
      <trkpt lat="48.84087" lon="2.32436">
        <ele>60.79999923706</ele>
        <time>2016-01-18T19:39:52Z</time>
      </trkpt>
      <trkpt lat="48.84068" lon="2.32433">
        <ele>61</ele>
        <time>2016-01-18T19:39:56Z</time>
      </trkpt>
      <trkpt lat="48.84061" lon="2.3241">
        <ele>60.79999923706</ele>
        <time>2016-01-18T19:40:03Z</time>
      </trkpt>
      <trkpt lat="48.84066" lon="2.32382">
        <ele>63</ele>
        <time>2016-01-18T19:40:11Z</time>
      </trkpt>
      <trkpt lat="48.84068" lon="2.32353">
        <ele>63</ele>
        <time>2016-01-18T19:40:20Z</time>
      </trkpt>
      <trkpt lat="48.84072" lon="2.32325">
        <ele>61.79999923706</ele>
        <time>2016-01-18T19:40:27Z</time>
      </trkpt>
      <trkpt lat="48.84072" lon="2.32296">
        <ele>60.79999923706</ele>
        <time>2016-01-18T19:40:36Z</time>
      </trkpt>
      <trkpt lat="48.84068" lon="2.32268">
        <ele>63.20000076294</ele>
        <time>2016-01-18T19:40:48Z</time>
      </trkpt>
      <trkpt lat="48.84066" lon="2.3224">
        <ele>64.800003051758</ele>
        <time>2016-01-18T19:40:57Z</time>
      </trkpt>
      <trkpt lat="48.84072" lon="2.32205">
        <ele>64.199996948242</ele>
        <time>2016-01-18T19:41:02Z</time>
      </trkpt>
      <trkpt lat="48.84058" lon="2.32184">
        <ele>63.79999923706</ele>
        <time>2016-01-18T19:41:05Z</time>
      </trkpt>
      <trkpt lat="48.84052" lon="2.32175">
        <ele>63.79999923706</ele>
        <time>2016-01-18T19:41:08Z</time>
      </trkpt>
      <trkpt lat="48.84054" lon="2.32151">
        <ele>64.400001525879</ele>
        <time>2016-01-18T19:41:37Z</time>
      </trkpt>
      <trkpt lat="48.84073" lon="2.3214">
        <ele>65.400001525879</ele>
        <time>2016-01-18T19:41:43Z</time>
      </trkpt>
      <trkpt lat="48.84093" lon="2.32132">
        <ele>64.199996948242</ele>
        <time>2016-01-18T19:41:48Z</time>
      </trkpt>
      <trkpt lat="48.84093" lon="2.32129">
        <ele>64</ele>
        <time>2016-01-18T19:41:49Z</time>
      </trkpt>
      <trkpt lat="48.84101" lon="2.3212">
        <ele>62.79999923706</ele>
        <time>2016-01-18T19:41:53Z</time>
      </trkpt>
      <trkpt lat="48.8412" lon="2.32106">
        <ele>59.599998474121</ele>
        <time>2016-01-18T19:42:00Z</time>
      </trkpt>
      <trkpt lat="48.84146" lon="2.32103">
        <ele>56.20000076294</ele>
        <time>2016-01-18T19:42:07Z</time>
      </trkpt>
      <trkpt lat="48.84174" lon="2.32101">
        <ele>52.79999923706</ele>
        <time>2016-01-18T19:42:11Z</time>
      </trkpt>
      <trkpt lat="48.84195" lon="2.32086">
        <ele>50.400001525879</ele>
        <time>2016-01-18T19:42:16Z</time>
      </trkpt>
      <trkpt lat="48.84221" lon="2.32082">
        <ele>52.20000076294</ele>
        <time>2016-01-18T19:42:22Z</time>
      </trkpt>
      <trkpt lat="48.84236" lon="2.32065">
        <ele>55.20000076294</ele>
        <time>2016-01-18T19:42:26Z</time>
      </trkpt>
      <trkpt lat="48.84242" lon="2.32031">
        <ele>57.20000076294</ele>
        <time>2016-01-18T19:42:31Z</time>
      </trkpt>
      <trkpt lat="48.84243" lon="2.32023">
        <ele>57.20000076294</ele>
        <time>2016-01-18T19:42:32Z</time>
      </trkpt>
      <trkpt lat="48.84239" lon="2.31991">
        <ele>57.400001525879</ele>
        <time>2016-01-18T19:42:36Z</time>
      </trkpt>
      <trkpt lat="48.84239" lon="2.31982">
        <ele>58</ele>
        <time>2016-01-18T19:42:39Z</time>
      </trkpt>
      <trkpt lat="48.84226" lon="2.31995">
        <ele>58</ele>
        <time>2016-01-18T19:42:45Z</time>
      </trkpt>
      <trkpt lat="48.84224" lon="2.31997">
        <ele>57.79999923706</ele>
        <time>2016-01-18T19:42:46Z</time>
      </trkpt>
      <trkpt lat="48.84197" lon="2.32021">
        <ele>57.599998474121</ele>
        <time>2016-01-18T19:42:49Z</time>
      </trkpt>
      <trkpt lat="48.84198" lon="2.32026">
        <ele>57.20000076294</ele>
        <time>2016-01-18T19:42:50Z</time>
      </trkpt>
      <trkpt lat="48.84195" lon="2.32057">
        <ele>53.20000076294</ele>
        <time>2016-01-18T19:42:55Z</time>
      </trkpt>
      <trkpt lat="48.84211" lon="2.32069">
        <ele>53</ele>
        <time>2016-01-18T19:43:02Z</time>
      </trkpt>
      <trkpt lat="48.84229" lon="2.32082">
        <ele>52.79999923706</ele>
        <time>2016-01-18T19:43:11Z</time>
      </trkpt>
      <trkpt lat="48.84239" lon="2.32108">
        <ele>53.20000076294</ele>
        <time>2016-01-18T19:43:19Z</time>
      </trkpt>
      <trkpt lat="48.84259" lon="2.32108">
        <ele>54.599998474121</ele>
        <time>2016-01-18T19:43:27Z</time>
      </trkpt>
      <trkpt lat="48.84278" lon="2.32114">
        <ele>55.79999923706</ele>
        <time>2016-01-18T19:43:34Z</time>
      </trkpt>
      <trkpt lat="48.84279" lon="2.32124">
        <ele>55.599998474121</ele>
        <time>2016-01-18T19:43:36Z</time>
      </trkpt>
      <trkpt lat="48.84285" lon="2.32095">
        <ele>56.20000076294</ele>
        <time>2016-01-18T19:43:42Z</time>
      </trkpt>
      <trkpt lat="48.84291" lon="2.32058">
        <ele>55.79999923706</ele>
        <time>2016-01-18T19:43:47Z</time>
      </trkpt>
      <trkpt lat="48.84296" lon="2.32026">
        <ele>55.400001525879</ele>
        <time>2016-01-18T19:43:50Z</time>
      </trkpt>
      <trkpt lat="48.84302" lon="2.31991">
        <ele>55.599998474121</ele>
        <time>2016-01-18T19:43:52Z</time>
      </trkpt>
      <trkpt lat="48.84304" lon="2.31958">
        <ele>56.79999923706</ele>
        <time>2016-01-18T19:43:54Z</time>
      </trkpt>
      <trkpt lat="48.84303" lon="2.31929">
        <ele>56.79999923706</ele>
        <time>2016-01-18T19:43:56Z</time>
      </trkpt>
      <trkpt lat="48.8431" lon="2.3189">
        <ele>56</ele>
        <time>2016-01-18T19:43:58Z</time>
      </trkpt>
      <trkpt lat="48.84307" lon="2.31862">
        <ele>56.599998474121</ele>
        <time>2016-01-18T19:44:01Z</time>
      </trkpt>
      <trkpt lat="48.84303" lon="2.31843">
        <ele>56.79999923706</ele>
        <time>2016-01-18T19:44:03Z</time>
      </trkpt>
      <trkpt lat="48.84298" lon="2.31814">
        <ele>57.599998474121</ele>
        <time>2016-01-18T19:44:07Z</time>
      </trkpt>
      <trkpt lat="48.84296" lon="2.3179">
        <ele>58.20000076294</ele>
        <time>2016-01-18T19:44:12Z</time>
      </trkpt>
      <trkpt lat="48.8429" lon="2.31774">
        <ele>59</ele>
        <time>2016-01-18T19:44:18Z</time>
      </trkpt>
      <trkpt lat="48.84292" lon="2.3177">
        <ele>59</ele>
        <time>2016-01-18T19:44:19Z</time>
      </trkpt>
      <trkpt lat="48.84298" lon="2.31743">
        <ele>58.400001525879</ele>
        <time>2016-01-18T19:44:24Z</time>
      </trkpt>
      <trkpt lat="48.84301" lon="2.31726">
        <ele>56.79999923706</ele>
        <time>2016-01-18T19:44:27Z</time>
      </trkpt>
      <trkpt lat="48.84303" lon="2.3172">
        <ele>56.20000076294</ele>
        <time>2016-01-18T19:44:28Z</time>
      </trkpt>
      <trkpt lat="48.84308" lon="2.31707">
        <ele>54.599998474121</ele>
        <time>2016-01-18T19:44:32Z</time>
      </trkpt>
      <trkpt lat="48.84312" lon="2.31698">
        <ele>54</ele>
        <time>2016-01-18T19:44:34Z</time>
      </trkpt>
      <trkpt lat="48.84309" lon="2.31688">
        <ele>53.79999923706</ele>
        <time>2016-01-18T19:44:38Z</time>
      </trkpt>
      <trkpt lat="48.84307" lon="2.3168">
        <ele>53.79999923706</ele>
        <time>2016-01-18T19:44:41Z</time>
      </trkpt>
      <trkpt lat="48.84302" lon="2.31654">
        <ele>53.599998474121</ele>
        <time>2016-01-18T19:44:51Z</time>
      </trkpt>
      <trkpt lat="48.84291" lon="2.31631">
        <ele>53.400001525879</ele>
        <time>2016-01-18T19:44:59Z</time>
      </trkpt>
      <trkpt lat="48.84272" lon="2.31615">
        <ele>53.400001525879</ele>
        <time>2016-01-18T19:45:05Z</time>
      </trkpt>
      <trkpt lat="48.84254" lon="2.31607">
        <ele>54.79999923706</ele>
        <time>2016-01-18T19:45:11Z</time>
      </trkpt>
      <trkpt lat="48.84252" lon="2.31599">
        <ele>55</ele>
        <time>2016-01-18T19:45:16Z</time>
      </trkpt>
      <trkpt lat="48.84273" lon="2.31583">
        <ele>53</ele>
        <time>2016-01-18T19:45:21Z</time>
      </trkpt>
      <trkpt lat="48.84294" lon="2.31571">
        <ele>53.599998474121</ele>
        <time>2016-01-18T19:45:25Z</time>
      </trkpt>
      <trkpt lat="48.84311" lon="2.31558">
        <ele>54.20000076294</ele>
        <time>2016-01-18T19:45:29Z</time>
      </trkpt>
      <trkpt lat="48.84329" lon="2.31547">
        <ele>54.79999923706</ele>
        <time>2016-01-18T19:45:33Z</time>
      </trkpt>
      <trkpt lat="48.84345" lon="2.31545">
        <ele>54.599998474121</ele>
        <time>2016-01-18T19:45:39Z</time>
      </trkpt>
      <trkpt lat="48.84353" lon="2.31541">
        <ele>54.599998474121</ele>
        <time>2016-01-18T19:45:45Z</time>
      </trkpt>
      <trkpt lat="48.8436" lon="2.31511">
        <ele>54.400001525879</ele>
        <time>2016-01-18T19:45:51Z</time>
      </trkpt>
      <trkpt lat="48.84358" lon="2.31481">
        <ele>54.400001525879</ele>
        <time>2016-01-18T19:45:58Z</time>
      </trkpt>
      <trkpt lat="48.84353" lon="2.31454">
        <ele>54</ele>
        <time>2016-01-18T19:46:04Z</time>
      </trkpt>
      <trkpt lat="48.84349" lon="2.31427">
        <ele>53.599998474121</ele>
        <time>2016-01-18T19:46:09Z</time>
      </trkpt>
      <trkpt lat="48.84346" lon="2.31395">
        <ele>52.599998474121</ele>
        <time>2016-01-18T19:46:14Z</time>
      </trkpt>
      <trkpt lat="48.8434" lon="2.31367">
        <ele>51.79999923706</ele>
        <time>2016-01-18T19:46:19Z</time>
      </trkpt>
      <trkpt lat="48.84333" lon="2.31338">
        <ele>50.79999923706</ele>
        <time>2016-01-18T19:46:25Z</time>
      </trkpt>
      <trkpt lat="48.84325" lon="2.3131">
        <ele>50.20000076294</ele>
        <time>2016-01-18T19:46:31Z</time>
      </trkpt>
      <trkpt lat="48.84313" lon="2.31286">
        <ele>50</ele>
        <time>2016-01-18T19:46:37Z</time>
      </trkpt>
      <trkpt lat="48.84326" lon="2.31264">
        <ele>50</ele>
        <time>2016-01-18T19:46:44Z</time>
      </trkpt>
      <trkpt lat="48.84343" lon="2.31248">
        <ele>50</ele>
        <time>2016-01-18T19:46:49Z</time>
      </trkpt>
      <trkpt lat="48.8436" lon="2.31233">
        <ele>49.79999923706</ele>
        <time>2016-01-18T19:46:53Z</time>
      </trkpt>
      <trkpt lat="48.84376" lon="2.31217">
        <ele>49.599998474121</ele>
        <time>2016-01-18T19:46:57Z</time>
      </trkpt>
      <trkpt lat="48.84393" lon="2.31202">
        <ele>49.400001525879</ele>
        <time>2016-01-18T19:47:01Z</time>
      </trkpt>
      <trkpt lat="48.8441" lon="2.31186">
        <ele>48.20000076294</ele>
        <time>2016-01-18T19:47:05Z</time>
      </trkpt>
      <trkpt lat="48.84428" lon="2.31169">
        <ele>46.599998474121</ele>
        <time>2016-01-18T19:47:09Z</time>
      </trkpt>
      <trkpt lat="48.84444" lon="2.31154">
        <ele>45.599998474121</ele>
        <time>2016-01-18T19:47:13Z</time>
      </trkpt>
      <trkpt lat="48.84462" lon="2.31143">
        <ele>44.400001525879</ele>
        <time>2016-01-18T19:47:17Z</time>
      </trkpt>
      <trkpt lat="48.8448" lon="2.31133">
        <ele>43.400001525879</ele>
        <time>2016-01-18T19:47:21Z</time>
      </trkpt>
      <trkpt lat="48.84497" lon="2.31122">
        <ele>43</ele>
        <time>2016-01-18T19:47:26Z</time>
      </trkpt>
      <trkpt lat="48.84509" lon="2.31114">
        <ele>43.20000076294</ele>
        <time>2016-01-18T19:47:32Z</time>
      </trkpt>
      <trkpt lat="48.84512" lon="2.31115">
        <ele>43.20000076294</ele>
        <time>2016-01-18T19:47:36Z</time>
      </trkpt>
      <trkpt lat="48.84529" lon="2.31099">
        <ele>43.599998474121</ele>
        <time>2016-01-18T19:47:46Z</time>
      </trkpt>
      <trkpt lat="48.8454" lon="2.31077">
        <ele>44.20000076294</ele>
        <time>2016-01-18T19:47:54Z</time>
      </trkpt>
      <trkpt lat="48.84549" lon="2.3105">
        <ele>44.400001525879</ele>
        <time>2016-01-18T19:48:00Z</time>
      </trkpt>
      <trkpt lat="48.84556" lon="2.31025">
        <ele>44.400001525879</ele>
        <time>2016-01-18T19:48:05Z</time>
      </trkpt>
      <trkpt lat="48.84566" lon="2.30998">
        <ele>45</ele>
        <time>2016-01-18T19:48:10Z</time>
      </trkpt>
      <trkpt lat="48.84575" lon="2.30968">
        <ele>45.20000076294</ele>
        <time>2016-01-18T19:48:15Z</time>
      </trkpt>
      <trkpt lat="48.84583" lon="2.30938">
        <ele>44.599998474121</ele>
        <time>2016-01-18T19:48:21Z</time>
      </trkpt>
      <trkpt lat="48.84593" lon="2.30914">
        <ele>44</ele>
        <time>2016-01-18T19:48:26Z</time>
      </trkpt>
      <trkpt lat="48.84602" lon="2.3089">
        <ele>43.20000076294</ele>
        <time>2016-01-18T19:48:31Z</time>
      </trkpt>
      <trkpt lat="48.84608" lon="2.30862">
        <ele>42.20000076294</ele>
        <time>2016-01-18T19:48:38Z</time>
      </trkpt>
      <trkpt lat="48.84609" lon="2.30857">
        <ele>42.20000076294</ele>
        <time>2016-01-18T19:48:41Z</time>
      </trkpt>
      <trkpt lat="48.84627" lon="2.30858">
        <ele>43</ele>
        <time>2016-01-18T19:48:50Z</time>
      </trkpt>
      <trkpt lat="48.84642" lon="2.30842">
        <ele>43.79999923706</ele>
        <time>2016-01-18T19:48:57Z</time>
      </trkpt>
      <trkpt lat="48.84645" lon="2.30842">
        <ele>44</ele>
        <time>2016-01-18T19:48:59Z</time>
      </trkpt>
      <trkpt lat="48.8465" lon="2.30855">
        <ele>44.400001525879</ele>
        <time>2016-01-18T19:49:03Z</time>
      </trkpt>
      <trkpt lat="48.84651" lon="2.3086">
        <ele>44.599998474121</ele>
        <time>2016-01-18T19:49:05Z</time>
      </trkpt>
      <trkpt lat="48.84651" lon="2.30888">
        <ele>45.20000076294</ele>
        <time>2016-01-18T19:49:12Z</time>
      </trkpt>
      <trkpt lat="48.84658" lon="2.30915">
        <ele>46.599998474121</ele>
        <time>2016-01-18T19:49:17Z</time>
      </trkpt>
      <trkpt lat="48.84669" lon="2.30942">
        <ele>47.79999923706</ele>
        <time>2016-01-18T19:49:22Z</time>
      </trkpt>
      <trkpt lat="48.84677" lon="2.3097">
        <ele>48.79999923706</ele>
        <time>2016-01-18T19:49:28Z</time>
      </trkpt>
      <trkpt lat="48.84681" lon="2.30982">
        <ele>49.20000076294</ele>
        <time>2016-01-18T19:49:34Z</time>
      </trkpt>
      <trkpt lat="48.84697" lon="2.30977">
        <ele>49.400001525879</ele>
        <time>2016-01-18T19:49:59Z</time>
      </trkpt>
      <trkpt lat="48.84707" lon="2.30971">
        <ele>49.20000076294</ele>
        <time>2016-01-18T19:50:02Z</time>
      </trkpt>
      <trkpt lat="48.84722" lon="2.30965">
        <ele>48.79999923706</ele>
        <time>2016-01-18T19:50:07Z</time>
      </trkpt>
      <trkpt lat="48.84741" lon="2.30964">
        <ele>48.599998474121</ele>
        <time>2016-01-18T19:50:18Z</time>
      </trkpt>
      <trkpt lat="48.84751" lon="2.30939">
        <ele>49.20000076294</ele>
        <time>2016-01-18T19:50:27Z</time>
      </trkpt>
      <trkpt lat="48.84749" lon="2.3091">
        <ele>49.400001525879</ele>
        <time>2016-01-18T19:50:31Z</time>
      </trkpt>
      <trkpt lat="48.8475" lon="2.30881">
        <ele>49.20000076294</ele>
        <time>2016-01-18T19:50:35Z</time>
      </trkpt>
      <trkpt lat="48.84755" lon="2.30879">
        <ele>49.400001525879</ele>
        <time>2016-01-18T19:50:37Z</time>
      </trkpt>
      <trkpt lat="48.8477" lon="2.30881">
        <ele>50</ele>
        <time>2016-01-18T19:50:42Z</time>
      </trkpt>
      <trkpt lat="48.84788" lon="2.30892">
        <ele>49.599998474121</ele>
        <time>2016-01-18T19:50:46Z</time>
      </trkpt>
      <trkpt lat="48.84807" lon="2.30894">
        <ele>49.20000076294</ele>
        <time>2016-01-18T19:50:50Z</time>
      </trkpt>
      <trkpt lat="48.84831" lon="2.30891">
        <ele>48.599998474121</ele>
        <time>2016-01-18T19:50:54Z</time>
      </trkpt>
      <trkpt lat="48.84851" lon="2.30881">
        <ele>48.79999923706</ele>
        <time>2016-01-18T19:50:58Z</time>
      </trkpt>
      <trkpt lat="48.84854" lon="2.30869">
        <ele>49</ele>
        <time>2016-01-18T19:51:00Z</time>
      </trkpt>
      <trkpt lat="48.84848" lon="2.30842">
        <ele>49.79999923706</ele>
        <time>2016-01-18T19:51:05Z</time>
      </trkpt>
      <trkpt lat="48.84846" lon="2.30838">
        <ele>49.79999923706</ele>
        <time>2016-01-18T19:51:06Z</time>
      </trkpt>
      <trkpt lat="48.84839" lon="2.30824">
        <ele>50</ele>
        <time>2016-01-18T19:51:09Z</time>
      </trkpt>
      <trkpt lat="48.84827" lon="2.30803">
        <ele>50.400001525879</ele>
        <time>2016-01-18T19:51:13Z</time>
      </trkpt>
      <trkpt lat="48.84819" lon="2.30787">
        <ele>50.400001525879</ele>
        <time>2016-01-18T19:51:16Z</time>
      </trkpt>
      <trkpt lat="48.8481" lon="2.3077">
        <ele>50.599998474121</ele>
        <time>2016-01-18T19:51:20Z</time>
      </trkpt>
      <trkpt lat="48.84815" lon="2.30745">
        <ele>50.400001525879</ele>
        <time>2016-01-18T19:51:24Z</time>
      </trkpt>
      <trkpt lat="48.84822" lon="2.30728">
        <ele>50.400001525879</ele>
        <time>2016-01-18T19:51:27Z</time>
      </trkpt>
      <trkpt lat="48.84833" lon="2.30709">
        <ele>49.599998474121</ele>
        <time>2016-01-18T19:51:31Z</time>
      </trkpt>
      <trkpt lat="48.84844" lon="2.30696">
        <ele>48.20000076294</ele>
        <time>2016-01-18T19:51:35Z</time>
      </trkpt>
      <trkpt lat="48.84838" lon="2.30679">
        <ele>47.79999923706</ele>
        <time>2016-01-18T19:51:41Z</time>
      </trkpt>
      <trkpt lat="48.84836" lon="2.30676">
        <ele>47.79999923706</ele>
        <time>2016-01-18T19:51:42Z</time>
      </trkpt>
      <trkpt lat="48.84821" lon="2.30657">
        <ele>47.79999923706</ele>
        <time>2016-01-18T19:51:48Z</time>
      </trkpt>
      <trkpt lat="48.84803" lon="2.3064">
        <ele>48</ele>
        <time>2016-01-18T19:51:54Z</time>
      </trkpt>
      <trkpt lat="48.84802" lon="2.30636">
        <ele>48</ele>
        <time>2016-01-18T19:51:55Z</time>
      </trkpt>
      <trkpt lat="48.84802" lon="2.30632">
        <ele>47.79999923706</ele>
        <time>2016-01-18T19:51:57Z</time>
      </trkpt>
      <trkpt lat="48.84809" lon="2.30612">
        <ele>46.400001525879</ele>
        <time>2016-01-18T19:52:23Z</time>
      </trkpt>
      <trkpt lat="48.84818" lon="2.30587">
        <ele>45</ele>
        <time>2016-01-18T19:52:29Z</time>
      </trkpt>
      <trkpt lat="48.84813" lon="2.30559">
        <ele>44.79999923706</ele>
        <time>2016-01-18T19:52:35Z</time>
      </trkpt>
      <trkpt lat="48.84804" lon="2.30535">
        <ele>45</ele>
        <time>2016-01-18T19:52:40Z</time>
      </trkpt>
      <trkpt lat="48.84795" lon="2.30508">
        <ele>45.400001525879</ele>
        <time>2016-01-18T19:52:46Z</time>
      </trkpt>
      <trkpt lat="48.84787" lon="2.30483">
        <ele>45.599998474121</ele>
        <time>2016-01-18T19:52:53Z</time>
      </trkpt>
      <trkpt lat="48.84803" lon="2.30459">
        <ele>45.20000076294</ele>
        <time>2016-01-18T19:53:00Z</time>
      </trkpt>
      <trkpt lat="48.84821" lon="2.30442">
        <ele>45</ele>
        <time>2016-01-18T19:53:04Z</time>
      </trkpt>
      <trkpt lat="48.84837" lon="2.30427">
        <ele>45</ele>
        <time>2016-01-18T19:53:08Z</time>
      </trkpt>
      <trkpt lat="48.84859" lon="2.30418">
        <ele>44.599998474121</ele>
        <time>2016-01-18T19:53:13Z</time>
      </trkpt>
      <trkpt lat="48.84865" lon="2.30422">
        <ele>44</ele>
        <time>2016-01-18T19:53:15Z</time>
      </trkpt>
      <trkpt lat="48.84877" lon="2.30444">
        <ele>42.599998474121</ele>
        <time>2016-01-18T19:53:24Z</time>
      </trkpt>
      <trkpt lat="48.8488" lon="2.30446">
        <ele>42.400001525879</ele>
        <time>2016-01-18T19:53:26Z</time>
      </trkpt>
      <trkpt lat="48.84889" lon="2.3044">
        <ele>41.400001525879</ele>
        <time>2016-01-18T19:53:32Z</time>
      </trkpt>
      <trkpt lat="48.84903" lon="2.3042">
        <ele>40.400001525879</ele>
        <time>2016-01-18T19:53:38Z</time>
      </trkpt>
      <trkpt lat="48.84915" lon="2.30397">
        <ele>39</ele>
        <time>2016-01-18T19:53:44Z</time>
      </trkpt>
      <trkpt lat="48.84924" lon="2.30384">
        <ele>39.400001525879</ele>
        <time>2016-01-18T19:53:50Z</time>
      </trkpt>
      <trkpt lat="48.84942" lon="2.3038">
        <ele>39.79999923706</ele>
        <time>2016-01-18T19:53:56Z</time>
      </trkpt>
      <trkpt lat="48.84946" lon="2.30373">
        <ele>40.20000076294</ele>
        <time>2016-01-18T19:53:58Z</time>
      </trkpt>
      <trkpt lat="48.84959" lon="2.30355">
        <ele>41.400001525879</ele>
        <time>2016-01-18T19:54:04Z</time>
      </trkpt>
      <trkpt lat="48.84974" lon="2.30334">
        <ele>41.599998474121</ele>
        <time>2016-01-18T19:54:10Z</time>
      </trkpt>
      <trkpt lat="48.84989" lon="2.30309">
        <ele>41</ele>
        <time>2016-01-18T19:54:15Z</time>
      </trkpt>
      <trkpt lat="48.84996" lon="2.30295">
        <ele>40.79999923706</ele>
        <time>2016-01-18T19:54:17Z</time>
      </trkpt>
      <trkpt lat="48.85007" lon="2.30272">
        <ele>41</ele>
        <time>2016-01-18T19:54:20Z</time>
      </trkpt>
      <trkpt lat="48.8502" lon="2.30247">
        <ele>41</ele>
        <time>2016-01-18T19:54:23Z</time>
      </trkpt>
      <trkpt lat="48.85034" lon="2.30221">
        <ele>42</ele>
        <time>2016-01-18T19:54:26Z</time>
      </trkpt>
      <trkpt lat="48.85038" lon="2.30212">
        <ele>42.400001525879</ele>
        <time>2016-01-18T19:54:27Z</time>
      </trkpt>
      <trkpt lat="48.85056" lon="2.30188">
        <ele>43.400001525879</ele>
        <time>2016-01-18T19:54:30Z</time>
      </trkpt>
      <trkpt lat="48.85074" lon="2.30163">
        <ele>44.400001525879</ele>
        <time>2016-01-18T19:54:33Z</time>
      </trkpt>
      <trkpt lat="48.85083" lon="2.30149">
        <ele>45.20000076294</ele>
        <time>2016-01-18T19:54:35Z</time>
      </trkpt>
      <trkpt lat="48.85099" lon="2.30129">
        <ele>44.79999923706</ele>
        <time>2016-01-18T19:54:38Z</time>
      </trkpt>
      <trkpt lat="48.85114" lon="2.30103">
        <ele>44.400001525879</ele>
        <time>2016-01-18T19:54:42Z</time>
      </trkpt>
      <trkpt lat="48.8512" lon="2.30093">
        <ele>44.400001525879</ele>
        <time>2016-01-18T19:54:44Z</time>
      </trkpt>
      <trkpt lat="48.85128" lon="2.30067">
        <ele>45.79999923706</ele>
        <time>2016-01-18T19:54:50Z</time>
      </trkpt>
      <trkpt lat="48.8513" lon="2.30063">
        <ele>45.79999923706</ele>
        <time>2016-01-18T19:54:51Z</time>
      </trkpt>
      <trkpt lat="48.85143" lon="2.30044">
        <ele>46.79999923706</ele>
        <time>2016-01-18T19:54:56Z</time>
      </trkpt>
      <trkpt lat="48.85148" lon="2.30034">
        <ele>47.20000076294</ele>
        <time>2016-01-18T19:54:58Z</time>
      </trkpt>
      <trkpt lat="48.85161" lon="2.30012">
        <ele>48.599998474121</ele>
        <time>2016-01-18T19:55:04Z</time>
      </trkpt>
      <trkpt lat="48.85175" lon="2.29985">
        <ele>49.599998474121</ele>
        <time>2016-01-18T19:55:09Z</time>
      </trkpt>
      <trkpt lat="48.85188" lon="2.29962">
        <ele>49.20000076294</ele>
        <time>2016-01-18T19:55:13Z</time>
      </trkpt>
      <trkpt lat="48.85203" lon="2.29939">
        <ele>48</ele>
        <time>2016-01-18T19:55:17Z</time>
      </trkpt>
      <trkpt lat="48.85222" lon="2.29922">
        <ele>48</ele>
        <time>2016-01-18T19:55:21Z</time>
      </trkpt>
      <trkpt lat="48.85232" lon="2.29913">
        <ele>48.599998474121</ele>
        <time>2016-01-18T19:55:23Z</time>
      </trkpt>
      <trkpt lat="48.85245" lon="2.29892">
        <ele>48</ele>
        <time>2016-01-18T19:55:27Z</time>
      </trkpt>
      <trkpt lat="48.85252" lon="2.29882">
        <ele>47.20000076294</ele>
        <time>2016-01-18T19:55:29Z</time>
      </trkpt>
      <trkpt lat="48.85266" lon="2.29861">
        <ele>45.400001525879</ele>
        <time>2016-01-18T19:55:33Z</time>
      </trkpt>
      <trkpt lat="48.85277" lon="2.29836">
        <ele>43.20000076294</ele>
        <time>2016-01-18T19:55:37Z</time>
      </trkpt>
      <trkpt lat="48.8529" lon="2.29811">
        <ele>42.599998474121</ele>
        <time>2016-01-18T19:55:42Z</time>
      </trkpt>
      <trkpt lat="48.85296" lon="2.29803">
        <ele>42.400001525879</ele>
        <time>2016-01-18T19:55:44Z</time>
      </trkpt>
      <trkpt lat="48.85306" lon="2.29799">
        <ele>42.79999923706</ele>
        <time>2016-01-18T19:55:47Z</time>
      </trkpt>
      <trkpt lat="48.85317" lon="2.29793">
        <ele>43</ele>
        <time>2016-01-18T19:55:52Z</time>
      </trkpt>
      <trkpt lat="48.85318" lon="2.29787">
        <ele>43</ele>
        <time>2016-01-18T19:56:05Z</time>
      </trkpt>
      <trkpt lat="48.85321" lon="2.29786">
        <ele>43.400001525879</ele>
        <time>2016-01-18T19:56:20Z</time>
      </trkpt>
      <trkpt lat="48.85319" lon="2.29774">
        <ele>43.20000076294</ele>
        <time>2016-01-18T19:56:54Z</time>
      </trkpt>
      <trkpt lat="48.8532" lon="2.29773">
        <ele>43.20000076294</ele>
        <time>2016-01-18T19:56:55Z</time>
      </trkpt>
      <trkpt lat="48.85323" lon="2.29777">
        <ele>43.79999923706</ele>
        <time>2016-01-18T19:57:02Z</time>
      </trkpt>
      <trkpt lat="48.85338" lon="2.29762">
        <ele>45.599998474121</ele>
        <time>2016-01-18T19:57:18Z</time>
      </trkpt>
      <trkpt lat="48.85351" lon="2.29739">
        <ele>47.20000076294</ele>
        <time>2016-01-18T19:57:24Z</time>
      </trkpt>
      <trkpt lat="48.85365" lon="2.2972">
        <ele>45.599998474121</ele>
        <time>2016-01-18T19:57:30Z</time>
      </trkpt>
      <trkpt lat="48.85378" lon="2.29701">
        <ele>44</ele>
        <time>2016-01-18T19:57:37Z</time>
      </trkpt>
      <trkpt lat="48.85389" lon="2.29678">
        <ele>43</ele>
        <time>2016-01-18T19:57:48Z</time>
      </trkpt>
      <trkpt lat="48.854" lon="2.29651">
        <ele>42.79999923706</ele>
        <time>2016-01-18T19:57:56Z</time>
      </trkpt>
      <trkpt lat="48.85411" lon="2.29625">
        <ele>42.79999923706</ele>
        <time>2016-01-18T19:58:03Z</time>
      </trkpt>
      <trkpt lat="48.85428" lon="2.29607">
        <ele>43</ele>
        <time>2016-01-18T19:58:09Z</time>
      </trkpt>
      <trkpt lat="48.85444" lon="2.29582">
        <ele>42.79999923706</ele>
        <time>2016-01-18T19:58:13Z</time>
      </trkpt>
      <trkpt lat="48.8546" lon="2.29561">
        <ele>42.599998474121</ele>
        <time>2016-01-18T19:58:18Z</time>
      </trkpt>
      <trkpt lat="48.85473" lon="2.2954">
        <ele>42.20000076294</ele>
        <time>2016-01-18T19:58:23Z</time>
      </trkpt>
      <trkpt lat="48.85483" lon="2.29516">
        <ele>43.599998474121</ele>
        <time>2016-01-18T19:58:31Z</time>
      </trkpt>
      <trkpt lat="48.85491" lon="2.29489">
        <ele>45</ele>
        <time>2016-01-18T19:58:41Z</time>
      </trkpt>
      <trkpt lat="48.85505" lon="2.2947">
        <ele>44.79999923706</ele>
        <time>2016-01-18T19:58:46Z</time>
      </trkpt>
      <trkpt lat="48.85518" lon="2.29448">
        <ele>44.20000076294</ele>
        <time>2016-01-18T19:58:51Z</time>
      </trkpt>
      <trkpt lat="48.8553" lon="2.29421">
        <ele>43.20000076294</ele>
        <time>2016-01-18T19:58:56Z</time>
      </trkpt>
      <trkpt lat="48.85543" lon="2.29397">
        <ele>43.79999923706</ele>
        <time>2016-01-18T19:59:01Z</time>
      </trkpt>
      <trkpt lat="48.85558" lon="2.29378">
        <ele>43.79999923706</ele>
        <time>2016-01-18T19:59:05Z</time>
      </trkpt>
      <trkpt lat="48.85578" lon="2.29358">
        <ele>44</ele>
        <time>2016-01-18T19:59:10Z</time>
      </trkpt>
      <trkpt lat="48.8559" lon="2.29335">
        <ele>43.400001525879</ele>
        <time>2016-01-18T19:59:14Z</time>
      </trkpt>
      <trkpt lat="48.856" lon="2.29328">
        <ele>43.599998474121</ele>
        <time>2016-01-18T19:59:16Z</time>
      </trkpt>
      <trkpt lat="48.85616" lon="2.2931">
        <ele>43</ele>
        <time>2016-01-18T19:59:20Z</time>
      </trkpt>
      <trkpt lat="48.85629" lon="2.29293">
        <ele>42.400001525879</ele>
        <time>2016-01-18T19:59:24Z</time>
      </trkpt>
      <trkpt lat="48.85638" lon="2.29277">
        <ele>41.599998474121</ele>
        <time>2016-01-18T19:59:27Z</time>
      </trkpt>
      <trkpt lat="48.85652" lon="2.29251">
        <ele>43.400001525879</ele>
        <time>2016-01-18T19:59:32Z</time>
      </trkpt>
      <trkpt lat="48.85656" lon="2.29242">
        <ele>43.79999923706</ele>
        <time>2016-01-18T19:59:34Z</time>
      </trkpt>
      <trkpt lat="48.85669" lon="2.2922">
        <ele>45</ele>
        <time>2016-01-18T19:59:39Z</time>
      </trkpt>
      <trkpt lat="48.85682" lon="2.29202">
        <ele>45</ele>
        <time>2016-01-18T19:59:43Z</time>
      </trkpt>
      <trkpt lat="48.85695" lon="2.29178">
        <ele>44.400001525879</ele>
        <time>2016-01-18T19:59:48Z</time>
      </trkpt>
      <trkpt lat="48.85705" lon="2.29165">
        <ele>43.599998474121</ele>
        <time>2016-01-18T19:59:51Z</time>
      </trkpt>
      <trkpt lat="48.85717" lon="2.29145">
        <ele>42</ele>
        <time>2016-01-18T19:59:55Z</time>
      </trkpt>
      <trkpt lat="48.85721" lon="2.29137">
        <ele>41.400001525879</ele>
        <time>2016-01-18T19:59:57Z</time>
      </trkpt>
      <trkpt lat="48.85737" lon="2.29119">
        <ele>39.400001525879</ele>
        <time>2016-01-18T20:00:04Z</time>
      </trkpt>
      <trkpt lat="48.85739" lon="2.29118">
        <ele>39.400001525879</ele>
        <time>2016-01-18T20:00:05Z</time>
      </trkpt>
      <trkpt lat="48.85743" lon="2.29119">
        <ele>39.20000076294</ele>
        <time>2016-01-18T20:00:09Z</time>
      </trkpt>
      <trkpt lat="48.85759" lon="2.29138">
        <ele>40.20000076294</ele>
        <time>2016-01-18T20:00:28Z</time>
      </trkpt>
      <trkpt lat="48.85774" lon="2.2916">
        <ele>41.599998474121</ele>
        <time>2016-01-18T20:00:33Z</time>
      </trkpt>
      <trkpt lat="48.85788" lon="2.29181">
        <ele>41.20000076294</ele>
        <time>2016-01-18T20:00:37Z</time>
      </trkpt>
      <trkpt lat="48.85804" lon="2.29201">
        <ele>40.599998474121</ele>
        <time>2016-01-18T20:00:41Z</time>
      </trkpt>
      <trkpt lat="48.85818" lon="2.29222">
        <ele>40.20000076294</ele>
        <time>2016-01-18T20:00:45Z</time>
      </trkpt>
      <trkpt lat="48.85833" lon="2.29245">
        <ele>39.599998474121</ele>
        <time>2016-01-18T20:00:49Z</time>
      </trkpt>
      <trkpt lat="48.85844" lon="2.29261">
        <ele>39</ele>
        <time>2016-01-18T20:00:52Z</time>
      </trkpt>
      <trkpt lat="48.8586" lon="2.29279">
        <ele>38.400001525879</ele>
        <time>2016-01-18T20:00:56Z</time>
      </trkpt>
      <trkpt lat="48.85863" lon="2.29283">
        <ele>38.400001525879</ele>
        <time>2016-01-18T20:00:57Z</time>
      </trkpt>
      <trkpt lat="48.8587" lon="2.29292">
        <ele>38.599998474121</ele>
        <time>2016-01-18T20:00:59Z</time>
      </trkpt>
      <trkpt lat="48.85884" lon="2.29314">
        <ele>38.79999923706</ele>
        <time>2016-01-18T20:01:04Z</time>
      </trkpt>
      <trkpt lat="48.85891" lon="2.29323">
        <ele>39</ele>
        <time>2016-01-18T20:01:07Z</time>
      </trkpt>
      <trkpt lat="48.85907" lon="2.29335">
        <ele>39.20000076294</ele>
        <time>2016-01-18T20:01:13Z</time>
      </trkpt>
      <trkpt lat="48.85923" lon="2.29324">
        <ele>39</ele>
        <time>2016-01-18T20:01:18Z</time>
      </trkpt>
      <trkpt lat="48.85933" lon="2.29311">
        <ele>37.79999923706</ele>
        <time>2016-01-18T20:01:21Z</time>
      </trkpt>
      <trkpt lat="48.85945" lon="2.29291">
        <ele>35.20000076294</ele>
        <time>2016-01-18T20:01:25Z</time>
      </trkpt>
      <trkpt lat="48.85959" lon="2.29268">
        <ele>31.799999237061</ele>
        <time>2016-01-18T20:01:30Z</time>
      </trkpt>
      <trkpt lat="48.85971" lon="2.29249">
        <ele>29.39999961853</ele>
        <time>2016-01-18T20:01:34Z</time>
      </trkpt>
      <trkpt lat="48.85986" lon="2.29226">
        <ele>27.39999961853</ele>
        <time>2016-01-18T20:01:39Z</time>
      </trkpt>
      <trkpt lat="48.86" lon="2.29203">
        <ele>26.799999237061</ele>
        <time>2016-01-18T20:01:44Z</time>
      </trkpt>
      <trkpt lat="48.86014" lon="2.29181">
        <ele>27.39999961853</ele>
        <time>2016-01-18T20:01:49Z</time>
      </trkpt>
      <trkpt lat="48.86026" lon="2.29156">
        <ele>28.60000038147</ele>
        <time>2016-01-18T20:01:55Z</time>
      </trkpt>
      <trkpt lat="48.86028" lon="2.29144">
        <ele>29.39999961853</ele>
        <time>2016-01-18T20:01:58Z</time>
      </trkpt>
      <trkpt lat="48.86034" lon="2.29132">
        <ele>30.39999961853</ele>
        <time>2016-01-18T20:02:04Z</time>
      </trkpt>
      <trkpt lat="48.86037" lon="2.29108">
        <ele>32</ele>
        <time>2016-01-18T20:02:34Z</time>
      </trkpt>
      <trkpt lat="48.86033" lon="2.29079">
        <ele>32.79999923706</ele>
        <time>2016-01-18T20:02:40Z</time>
      </trkpt>
      <trkpt lat="48.8603" lon="2.29051">
        <ele>34.599998474121</ele>
        <time>2016-01-18T20:02:45Z</time>
      </trkpt>
      <trkpt lat="48.86028" lon="2.29021">
        <ele>36.400001525879</ele>
        <time>2016-01-18T20:02:51Z</time>
      </trkpt>
      <trkpt lat="48.8602" lon="2.28993">
        <ele>38.20000076294</ele>
        <time>2016-01-18T20:02:59Z</time>
      </trkpt>
      <trkpt lat="48.86011" lon="2.28966">
        <ele>40.20000076294</ele>
        <time>2016-01-18T20:03:07Z</time>
      </trkpt>
      <trkpt lat="48.86005" lon="2.28939">
        <ele>42.400001525879</ele>
        <time>2016-01-18T20:03:14Z</time>
      </trkpt>
      <trkpt lat="48.85999" lon="2.28912">
        <ele>44.599998474121</ele>
        <time>2016-01-18T20:03:20Z</time>
      </trkpt>
      <trkpt lat="48.85993" lon="2.28881">
        <ele>47.599998474121</ele>
        <time>2016-01-18T20:03:26Z</time>
      </trkpt>
      <trkpt lat="48.85988" lon="2.28855">
        <ele>49.599998474121</ele>
        <time>2016-01-18T20:03:31Z</time>
      </trkpt>
      <trkpt lat="48.85983" lon="2.28829">
        <ele>51.599998474121</ele>
        <time>2016-01-18T20:03:36Z</time>
      </trkpt>
      <trkpt lat="48.85982" lon="2.288">
        <ele>53.79999923706</ele>
        <time>2016-01-18T20:03:43Z</time>
      </trkpt>
      <trkpt lat="48.85979" lon="2.2878">
        <ele>55</ele>
        <time>2016-01-18T20:03:52Z</time>
      </trkpt>
      <trkpt lat="48.85975" lon="2.28776">
        <ele>55.20000076294</ele>
        <time>2016-01-18T20:05:11Z</time>
      </trkpt>
      <trkpt lat="48.85992" lon="2.28767">
        <ele>56.400001525879</ele>
        <time>2016-01-18T20:05:32Z</time>
      </trkpt>
      <trkpt lat="48.86007" lon="2.28753">
        <ele>58</ele>
        <time>2016-01-18T20:06:04Z</time>
      </trkpt>
      <trkpt lat="48.86014" lon="2.28726">
        <ele>61</ele>
        <time>2016-01-18T20:06:20Z</time>
      </trkpt>
      <trkpt lat="48.86021" lon="2.287">
        <ele>64.400001525879</ele>
        <time>2016-01-18T20:06:36Z</time>
      </trkpt>
      <trkpt lat="48.86028" lon="2.28675">
        <ele>67.800003051758</ele>
        <time>2016-01-18T20:06:52Z</time>
      </trkpt>
      <trkpt lat="48.86044" lon="2.2866">
        <ele>69.599998474121</ele>
        <time>2016-01-18T20:07:24Z</time>
      </trkpt>
      <trkpt lat="48.86059" lon="2.28642">
        <ele>70.800003051758</ele>
        <time>2016-01-18T20:07:38Z</time>
      </trkpt>
      <trkpt lat="48.86056" lon="2.28623">
        <ele>71.800003051758</ele>
        <time>2016-01-18T20:07:47Z</time>
      </trkpt>
      <trkpt lat="48.86054" lon="2.2861">
        <ele>72.400001525879</ele>
        <time>2016-01-18T20:08:09Z</time>
      </trkpt>
      <trkpt lat="48.86046" lon="2.28605">
        <ele>72.400001525879</ele>
        <time>2016-01-18T20:08:22Z</time>
      </trkpt>
      <trkpt lat="48.86045" lon="2.28601">
        <ele>72.599998474121</ele>
        <time>2016-01-18T20:09:43Z</time>
      </trkpt>
      <trkpt lat="48.86056" lon="2.28603">
        <ele>73</ele>
        <time>2016-01-18T20:10:16Z</time>
      </trkpt>
      <trkpt lat="48.86074" lon="2.28613">
        <ele>73</ele>
        <time>2016-01-18T20:10:23Z</time>
      </trkpt>
      <trkpt lat="48.86093" lon="2.28615">
        <ele>73.800003051758</ele>
        <time>2016-01-18T20:10:32Z</time>
      </trkpt>
      <trkpt lat="48.86111" lon="2.28621">
        <ele>74</ele>
        <time>2016-01-18T20:10:41Z</time>
      </trkpt>
      <trkpt lat="48.86127" lon="2.28637">
        <ele>72.800003051758</ele>
        <time>2016-01-18T20:10:50Z</time>
      </trkpt>
      <trkpt lat="48.86131" lon="2.28639">
        <ele>72.800003051758</ele>
        <time>2016-01-18T20:10:53Z</time>
      </trkpt>
      <trkpt lat="48.86137" lon="2.28624">
        <ele>73.800003051758</ele>
        <time>2016-01-18T20:11:04Z</time>
      </trkpt>
      <trkpt lat="48.86126" lon="2.28599">
        <ele>75.599998474121</ele>
        <time>2016-01-18T20:11:13Z</time>
      </trkpt>
      <trkpt lat="48.86111" lon="2.28583">
        <ele>76.599998474121</ele>
        <time>2016-01-18T20:11:19Z</time>
      </trkpt>
      <trkpt lat="48.86098" lon="2.28562">
        <ele>76.599998474121</ele>
        <time>2016-01-18T20:11:26Z</time>
      </trkpt>
      <trkpt lat="48.86088" lon="2.28535">
        <ele>76.199996948242</ele>
        <time>2016-01-18T20:11:32Z</time>
      </trkpt>
      <trkpt lat="48.86074" lon="2.28516">
        <ele>75.400001525879</ele>
        <time>2016-01-18T20:11:38Z</time>
      </trkpt>
      <trkpt lat="48.86059" lon="2.28497">
        <ele>74.800003051758</ele>
        <time>2016-01-18T20:11:43Z</time>
      </trkpt>
      <trkpt lat="48.86043" lon="2.28474">
        <ele>73.400001525879</ele>
        <time>2016-01-18T20:11:48Z</time>
      </trkpt>
      <trkpt lat="48.86024" lon="2.28472">
        <ele>72.400001525879</ele>
        <time>2016-01-18T20:11:50Z</time>
      </trkpt>
      <trkpt lat="48.86001" lon="2.28467">
        <ele>72</ele>
        <time>2016-01-18T20:11:55Z</time>
      </trkpt>
      <trkpt lat="48.8598" lon="2.28465">
        <ele>71.599998474121</ele>
        <time>2016-01-18T20:12:00Z</time>
      </trkpt>
      <trkpt lat="48.85961" lon="2.28462">
        <ele>71</ele>
        <time>2016-01-18T20:12:04Z</time>
      </trkpt>
      <trkpt lat="48.85941" lon="2.28462">
        <ele>70.599998474121</ele>
        <time>2016-01-18T20:12:08Z</time>
      </trkpt>
      <trkpt lat="48.8592" lon="2.28463">
        <ele>69.800003051758</ele>
        <time>2016-01-18T20:12:13Z</time>
      </trkpt>
      <trkpt lat="48.85911" lon="2.28463">
        <ele>69.599998474121</ele>
        <time>2016-01-18T20:12:16Z</time>
      </trkpt>
      <trkpt lat="48.859" lon="2.28467">
        <ele>68.800003051758</ele>
        <time>2016-01-18T20:12:21Z</time>
      </trkpt>
      <trkpt lat="48.85892" lon="2.28473">
        <ele>67.800003051758</ele>
        <time>2016-01-18T20:12:27Z</time>
      </trkpt>
      <trkpt lat="48.85884" lon="2.28445">
        <ele>68.199996948242</ele>
        <time>2016-01-18T20:12:31Z</time>
      </trkpt>
      <trkpt lat="48.85885" lon="2.28428">
        <ele>68.199996948242</ele>
        <time>2016-01-18T20:12:34Z</time>
      </trkpt>
      <trkpt lat="48.85896" lon="2.284">
        <ele>69</ele>
        <time>2016-01-18T20:12:39Z</time>
      </trkpt>
      <trkpt lat="48.85908" lon="2.28375">
        <ele>70.199996948242</ele>
        <time>2016-01-18T20:12:43Z</time>
      </trkpt>
      <trkpt lat="48.85924" lon="2.28352">
        <ele>69.599998474121</ele>
        <time>2016-01-18T20:12:47Z</time>
      </trkpt>
      <trkpt lat="48.8594" lon="2.28329">
        <ele>69</ele>
        <time>2016-01-18T20:12:51Z</time>
      </trkpt>
      <trkpt lat="48.85954" lon="2.28304">
        <ele>70.199996948242</ele>
        <time>2016-01-18T20:12:55Z</time>
      </trkpt>
      <trkpt lat="48.85964" lon="2.2828">
        <ele>71</ele>
        <time>2016-01-18T20:12:58Z</time>
      </trkpt>
      <trkpt lat="48.85975" lon="2.28255">
        <ele>71.800003051758</ele>
        <time>2016-01-18T20:13:01Z</time>
      </trkpt>
      <trkpt lat="48.85985" lon="2.28227">
        <ele>71.800003051758</ele>
        <time>2016-01-18T20:13:04Z</time>
      </trkpt>
      <trkpt lat="48.85997" lon="2.28201">
        <ele>72.199996948242</ele>
        <time>2016-01-18T20:13:07Z</time>
      </trkpt>
      <trkpt lat="48.86013" lon="2.28177">
        <ele>73.400001525879</ele>
        <time>2016-01-18T20:13:10Z</time>
      </trkpt>
      <trkpt lat="48.86022" lon="2.28148">
        <ele>74</ele>
        <time>2016-01-18T20:13:14Z</time>
      </trkpt>
      <trkpt lat="48.86025" lon="2.28128">
        <ele>74</ele>
        <time>2016-01-18T20:13:21Z</time>
      </trkpt>
      <trkpt lat="48.86031" lon="2.28121">
        <ele>73.800003051758</ele>
        <time>2016-01-18T20:13:58Z</time>
      </trkpt>
      <trkpt lat="48.8604" lon="2.28096">
        <ele>73.800003051758</ele>
        <time>2016-01-18T20:14:21Z</time>
      </trkpt>
      <trkpt lat="48.86053" lon="2.28075">
        <ele>74.400001525879</ele>
        <time>2016-01-18T20:14:27Z</time>
      </trkpt>
      <trkpt lat="48.86067" lon="2.28053">
        <ele>74.199996948242</ele>
        <time>2016-01-18T20:14:32Z</time>
      </trkpt>
      <trkpt lat="48.86083" lon="2.28038">
        <ele>74</ele>
        <time>2016-01-18T20:14:36Z</time>
      </trkpt>
      <trkpt lat="48.86094" lon="2.28012">
        <ele>73.400001525879</ele>
        <time>2016-01-18T20:14:41Z</time>
      </trkpt>
      <trkpt lat="48.86107" lon="2.27992">
        <ele>73</ele>
        <time>2016-01-18T20:14:46Z</time>
      </trkpt>
      <trkpt lat="48.86119" lon="2.27972">
        <ele>72.400001525879</ele>
        <time>2016-01-18T20:14:51Z</time>
      </trkpt>
      <trkpt lat="48.86135" lon="2.27951">
        <ele>71.800003051758</ele>
        <time>2016-01-18T20:14:56Z</time>
      </trkpt>
      <trkpt lat="48.86145" lon="2.27923">
        <ele>71.199996948242</ele>
        <time>2016-01-18T20:15:01Z</time>
      </trkpt>
      <trkpt lat="48.86157" lon="2.27901">
        <ele>70.800003051758</ele>
        <time>2016-01-18T20:15:05Z</time>
      </trkpt>
      <trkpt lat="48.86171" lon="2.2788">
        <ele>70</ele>
        <time>2016-01-18T20:15:09Z</time>
      </trkpt>
      <trkpt lat="48.86185" lon="2.27858">
        <ele>68.800003051758</ele>
        <time>2016-01-18T20:15:13Z</time>
      </trkpt>
      <trkpt lat="48.86189" lon="2.27854">
        <ele>68.599998474121</ele>
        <time>2016-01-18T20:15:14Z</time>
      </trkpt>
      <trkpt lat="48.862" lon="2.2783">
        <ele>67.599998474121</ele>
        <time>2016-01-18T20:15:18Z</time>
      </trkpt>
      <trkpt lat="48.86213" lon="2.27806">
        <ele>66</ele>
        <time>2016-01-18T20:15:22Z</time>
      </trkpt>
      <trkpt lat="48.86224" lon="2.27779">
        <ele>64.400001525879</ele>
        <time>2016-01-18T20:15:26Z</time>
      </trkpt>
      <trkpt lat="48.86235" lon="2.27762">
        <ele>64.599998474121</ele>
        <time>2016-01-18T20:15:29Z</time>
      </trkpt>
      <trkpt lat="48.86247" lon="2.27745">
        <ele>64.599998474121</ele>
        <time>2016-01-18T20:15:32Z</time>
      </trkpt>
      <trkpt lat="48.86263" lon="2.2772">
        <ele>64.599998474121</ele>
        <time>2016-01-18T20:15:36Z</time>
      </trkpt>
      <trkpt lat="48.86275" lon="2.27694">
        <ele>64.400001525879</ele>
        <time>2016-01-18T20:15:40Z</time>
      </trkpt>
      <trkpt lat="48.86286" lon="2.27669">
        <ele>64.400001525879</ele>
        <time>2016-01-18T20:15:44Z</time>
      </trkpt>
      <trkpt lat="48.86302" lon="2.27647">
        <ele>65</ele>
        <time>2016-01-18T20:15:50Z</time>
      </trkpt>
      <trkpt lat="48.86313" lon="2.27621">
        <ele>65.400001525879</ele>
        <time>2016-01-18T20:15:55Z</time>
      </trkpt>
      <trkpt lat="48.86321" lon="2.27591">
        <ele>65.800003051758</ele>
        <time>2016-01-18T20:16:00Z</time>
      </trkpt>
      <trkpt lat="48.8633" lon="2.27562">
        <ele>66.800003051758</ele>
        <time>2016-01-18T20:16:05Z</time>
      </trkpt>
      <trkpt lat="48.86338" lon="2.27533">
        <ele>68.400001525879</ele>
        <time>2016-01-18T20:16:10Z</time>
      </trkpt>
      <trkpt lat="48.86347" lon="2.27506">
        <ele>70</ele>
        <time>2016-01-18T20:16:15Z</time>
      </trkpt>
      <trkpt lat="48.86354" lon="2.27479">
        <ele>70.800003051758</ele>
        <time>2016-01-18T20:16:20Z</time>
      </trkpt>
      <trkpt lat="48.86361" lon="2.27466">
        <ele>70.400001525879</ele>
        <time>2016-01-18T20:16:23Z</time>
      </trkpt>
      <trkpt lat="48.86367" lon="2.27439">
        <ele>69.800003051758</ele>
        <time>2016-01-18T20:16:28Z</time>
      </trkpt>
      <trkpt lat="48.8637" lon="2.27428">
        <ele>69.599998474121</ele>
        <time>2016-01-18T20:16:30Z</time>
      </trkpt>
      <trkpt lat="48.8637" lon="2.27417">
        <ele>69.400001525879</ele>
        <time>2016-01-18T20:16:32Z</time>
      </trkpt>
      <trkpt lat="48.86372" lon="2.27388">
        <ele>67.400001525879</ele>
        <time>2016-01-18T20:16:36Z</time>
      </trkpt>
      <trkpt lat="48.86377" lon="2.27357">
        <ele>65</ele>
        <time>2016-01-18T20:16:40Z</time>
      </trkpt>
      <trkpt lat="48.86382" lon="2.27328">
        <ele>63.599998474121</ele>
        <time>2016-01-18T20:16:44Z</time>
      </trkpt>
      <trkpt lat="48.8639" lon="2.27305">
        <ele>63</ele>
        <time>2016-01-18T20:16:47Z</time>
      </trkpt>
      <trkpt lat="48.86399" lon="2.27277">
        <ele>62.20000076294</ele>
        <time>2016-01-18T20:16:52Z</time>
      </trkpt>
      <trkpt lat="48.86396" lon="2.27263">
        <ele>61.599998474121</ele>
        <time>2016-01-18T20:16:54Z</time>
      </trkpt>
      <trkpt lat="48.86402" lon="2.27257">
        <ele>61.20000076294</ele>
        <time>2016-01-18T20:16:56Z</time>
      </trkpt>
      <trkpt lat="48.86413" lon="2.27246">
        <ele>60.599998474121</ele>
        <time>2016-01-18T20:17:00Z</time>
      </trkpt>
      <trkpt lat="48.86414" lon="2.27241">
        <ele>61</ele>
        <time>2016-01-18T20:17:01Z</time>
      </trkpt>
      <trkpt lat="48.86414" lon="2.27212">
        <ele>62.400001525879</ele>
        <time>2016-01-18T20:17:06Z</time>
      </trkpt>
      <trkpt lat="48.86414" lon="2.27208">
        <ele>62.599998474121</ele>
        <time>2016-01-18T20:17:07Z</time>
      </trkpt>
      <trkpt lat="48.86413" lon="2.27199">
        <ele>63</ele>
        <time>2016-01-18T20:17:10Z</time>
      </trkpt>
      <trkpt lat="48.86412" lon="2.27167">
        <ele>64.199996948242</ele>
        <time>2016-01-18T20:17:16Z</time>
      </trkpt>
      <trkpt lat="48.86416" lon="2.27154">
        <ele>64.199996948242</ele>
        <time>2016-01-18T20:17:18Z</time>
      </trkpt>
      <trkpt lat="48.86427" lon="2.27127">
        <ele>64.400001525879</ele>
        <time>2016-01-18T20:17:22Z</time>
      </trkpt>
      <trkpt lat="48.86433" lon="2.27099">
        <ele>65.400001525879</ele>
        <time>2016-01-18T20:17:26Z</time>
      </trkpt>
      <trkpt lat="48.86447" lon="2.27075">
        <ele>65.599998474121</ele>
        <time>2016-01-18T20:17:30Z</time>
      </trkpt>
      <trkpt lat="48.86458" lon="2.27052">
        <ele>64.400001525879</ele>
        <time>2016-01-18T20:17:34Z</time>
      </trkpt>
      <trkpt lat="48.86466" lon="2.2703">
        <ele>63.599998474121</ele>
        <time>2016-01-18T20:17:38Z</time>
      </trkpt>
      <trkpt lat="48.86469" lon="2.2701">
        <ele>61.79999923706</ele>
        <time>2016-01-18T20:17:42Z</time>
      </trkpt>
      <trkpt lat="48.86459" lon="2.26994">
        <ele>61.400001525879</ele>
        <time>2016-01-18T20:17:55Z</time>
      </trkpt>
      <trkpt lat="48.86473" lon="2.27003">
        <ele>60.599998474121</ele>
        <time>2016-01-18T20:18:25Z</time>
      </trkpt>
      <trkpt lat="48.8649" lon="2.27017">
        <ele>60</ele>
        <time>2016-01-18T20:18:30Z</time>
      </trkpt>
      <trkpt lat="48.8651" lon="2.27033">
        <ele>59.20000076294</ele>
        <time>2016-01-18T20:18:35Z</time>
      </trkpt>
      <trkpt lat="48.86515" lon="2.27036">
        <ele>58.79999923706</ele>
        <time>2016-01-18T20:18:36Z</time>
      </trkpt>
      <trkpt lat="48.86534" lon="2.2705">
        <ele>59</ele>
        <time>2016-01-18T20:18:40Z</time>
      </trkpt>
      <trkpt lat="48.86554" lon="2.27065">
        <ele>60.20000076294</ele>
        <time>2016-01-18T20:18:44Z</time>
      </trkpt>
      <trkpt lat="48.86573" lon="2.27082">
        <ele>61.599998474121</ele>
        <time>2016-01-18T20:18:48Z</time>
      </trkpt>
      <trkpt lat="48.86591" lon="2.27099">
        <ele>62.599998474121</ele>
        <time>2016-01-18T20:18:52Z</time>
      </trkpt>
      <trkpt lat="48.86612" lon="2.27116">
        <ele>62.79999923706</ele>
        <time>2016-01-18T20:18:56Z</time>
      </trkpt>
      <trkpt lat="48.86633" lon="2.27135">
        <ele>61.79999923706</ele>
        <time>2016-01-18T20:19:00Z</time>
      </trkpt>
      <trkpt lat="48.86643" lon="2.27144">
        <ele>61.20000076294</ele>
        <time>2016-01-18T20:19:02Z</time>
      </trkpt>
      <trkpt lat="48.86663" lon="2.27159">
        <ele>60</ele>
        <time>2016-01-18T20:19:06Z</time>
      </trkpt>
      <trkpt lat="48.86675" lon="2.27171">
        <ele>59.400001525879</ele>
        <time>2016-01-18T20:19:09Z</time>
      </trkpt>
      <trkpt lat="48.86695" lon="2.27186">
        <ele>58.599998474121</ele>
        <time>2016-01-18T20:19:13Z</time>
      </trkpt>
      <trkpt lat="48.86714" lon="2.272">
        <ele>58.400001525879</ele>
        <time>2016-01-18T20:19:17Z</time>
      </trkpt>
      <trkpt lat="48.86735" lon="2.27215">
        <ele>58</ele>
        <time>2016-01-18T20:19:21Z</time>
      </trkpt>
      <trkpt lat="48.86756" lon="2.27233">
        <ele>58</ele>
        <time>2016-01-18T20:19:25Z</time>
      </trkpt>
      <trkpt lat="48.86771" lon="2.27247">
        <ele>58.20000076294</ele>
        <time>2016-01-18T20:19:28Z</time>
      </trkpt>
      <trkpt lat="48.86791" lon="2.27264">
        <ele>57.599998474121</ele>
        <time>2016-01-18T20:19:32Z</time>
      </trkpt>
      <trkpt lat="48.8681" lon="2.27282">
        <ele>57</ele>
        <time>2016-01-18T20:19:36Z</time>
      </trkpt>
      <trkpt lat="48.86826" lon="2.27297">
        <ele>56.599998474121</ele>
        <time>2016-01-18T20:19:39Z</time>
      </trkpt>
      <trkpt lat="48.86845" lon="2.27317">
        <ele>56.20000076294</ele>
        <time>2016-01-18T20:19:43Z</time>
      </trkpt>
      <trkpt lat="48.86865" lon="2.27333">
        <ele>55.79999923706</ele>
        <time>2016-01-18T20:19:47Z</time>
      </trkpt>
      <trkpt lat="48.86885" lon="2.27349">
        <ele>55</ele>
        <time>2016-01-18T20:19:51Z</time>
      </trkpt>
      <trkpt lat="48.86904" lon="2.27362">
        <ele>54.20000076294</ele>
        <time>2016-01-18T20:19:55Z</time>
      </trkpt>
      <trkpt lat="48.86922" lon="2.27375">
        <ele>53.599998474121</ele>
        <time>2016-01-18T20:19:59Z</time>
      </trkpt>
      <trkpt lat="48.86939" lon="2.27388">
        <ele>52.79999923706</ele>
        <time>2016-01-18T20:20:03Z</time>
      </trkpt>
      <trkpt lat="48.8696" lon="2.27404">
        <ele>51.79999923706</ele>
        <time>2016-01-18T20:20:07Z</time>
      </trkpt>
      <trkpt lat="48.86978" lon="2.27421">
        <ele>51.79999923706</ele>
        <time>2016-01-18T20:20:11Z</time>
      </trkpt>
      <trkpt lat="48.86996" lon="2.27436">
        <ele>52.79999923706</ele>
        <time>2016-01-18T20:20:15Z</time>
      </trkpt>
      <trkpt lat="48.87016" lon="2.27455">
        <ele>54.20000076294</ele>
        <time>2016-01-18T20:20:19Z</time>
      </trkpt>
      <trkpt lat="48.87022" lon="2.27459">
        <ele>54.400001525879</ele>
        <time>2016-01-18T20:20:20Z</time>
      </trkpt>
      <trkpt lat="48.87042" lon="2.27474">
        <ele>53.599998474121</ele>
        <time>2016-01-18T20:20:24Z</time>
      </trkpt>
      <trkpt lat="48.87062" lon="2.27487">
        <ele>52.400001525879</ele>
        <time>2016-01-18T20:20:28Z</time>
      </trkpt>
      <trkpt lat="48.87081" lon="2.27501">
        <ele>51.599998474121</ele>
        <time>2016-01-18T20:20:33Z</time>
      </trkpt>
      <trkpt lat="48.8709" lon="2.27508">
        <ele>51.400001525879</ele>
        <time>2016-01-18T20:20:36Z</time>
      </trkpt>
      <trkpt lat="48.87096" lon="2.27518">
        <ele>51.79999923706</ele>
        <time>2016-01-18T20:20:39Z</time>
      </trkpt>
      <trkpt lat="48.87109" lon="2.27531">
        <ele>51.599998474121</ele>
        <time>2016-01-18T20:20:44Z</time>
      </trkpt>
      <trkpt lat="48.87115" lon="2.2754">
        <ele>51.79999923706</ele>
        <time>2016-01-18T20:20:47Z</time>
      </trkpt>
      <trkpt lat="48.87118" lon="2.27546">
        <ele>52</ele>
        <time>2016-01-18T20:20:49Z</time>
      </trkpt>
      <trkpt lat="48.87122" lon="2.27567">
        <ele>54</ele>
        <time>2016-01-18T20:20:55Z</time>
      </trkpt>
      <trkpt lat="48.87124" lon="2.27574">
        <ele>54.599998474121</ele>
        <time>2016-01-18T20:20:57Z</time>
      </trkpt>
      <trkpt lat="48.8712" lon="2.27583">
        <ele>55.79999923706</ele>
        <time>2016-01-18T20:21:37Z</time>
      </trkpt>
      <trkpt lat="48.8712" lon="2.27592">
        <ele>55.79999923706</ele>
        <time>2016-01-18T20:22:27Z</time>
      </trkpt>
      <trkpt lat="48.87132" lon="2.27613">
        <ele>53.79999923706</ele>
        <time>2016-01-18T20:22:36Z</time>
      </trkpt>
      <trkpt lat="48.8714" lon="2.27641">
        <ele>53.400001525879</ele>
        <time>2016-01-18T20:22:45Z</time>
      </trkpt>
      <trkpt lat="48.87144" lon="2.27669">
        <ele>53.400001525879</ele>
        <time>2016-01-18T20:22:52Z</time>
      </trkpt>
      <trkpt lat="48.87148" lon="2.27698">
        <ele>53.20000076294</ele>
        <time>2016-01-18T20:23:00Z</time>
      </trkpt>
      <trkpt lat="48.87152" lon="2.27726">
        <ele>52.400001525879</ele>
        <time>2016-01-18T20:23:08Z</time>
      </trkpt>
      <trkpt lat="48.87149" lon="2.27748">
        <ele>52.400001525879</ele>
        <time>2016-01-18T20:23:19Z</time>
      </trkpt>
      <trkpt lat="48.87154" lon="2.27775">
        <ele>53.599998474121</ele>
        <time>2016-01-18T20:23:30Z</time>
      </trkpt>
      <trkpt lat="48.87157" lon="2.27809">
        <ele>54.400001525879</ele>
        <time>2016-01-18T20:23:36Z</time>
      </trkpt>
      <trkpt lat="48.87161" lon="2.27837">
        <ele>53.599998474121</ele>
        <time>2016-01-18T20:23:40Z</time>
      </trkpt>
      <trkpt lat="48.87163" lon="2.27871">
        <ele>53</ele>
        <time>2016-01-18T20:23:44Z</time>
      </trkpt>
      <trkpt lat="48.87167" lon="2.27907">
        <ele>52.400001525879</ele>
        <time>2016-01-18T20:23:48Z</time>
      </trkpt>
      <trkpt lat="48.87171" lon="2.27935">
        <ele>53.20000076294</ele>
        <time>2016-01-18T20:23:51Z</time>
      </trkpt>
      <trkpt lat="48.87174" lon="2.27964">
        <ele>54.400001525879</ele>
        <time>2016-01-18T20:23:54Z</time>
      </trkpt>
      <trkpt lat="48.87176" lon="2.27992">
        <ele>55.400001525879</ele>
        <time>2016-01-18T20:23:57Z</time>
      </trkpt>
      <trkpt lat="48.87179" lon="2.28021">
        <ele>55.79999923706</ele>
        <time>2016-01-18T20:24:00Z</time>
      </trkpt>
      <trkpt lat="48.87181" lon="2.28052">
        <ele>56</ele>
        <time>2016-01-18T20:24:03Z</time>
      </trkpt>
      <trkpt lat="48.87186" lon="2.28082">
        <ele>56.20000076294</ele>
        <time>2016-01-18T20:24:06Z</time>
      </trkpt>
      <trkpt lat="48.8719" lon="2.28111">
        <ele>57.20000076294</ele>
        <time>2016-01-18T20:24:09Z</time>
      </trkpt>
      <trkpt lat="48.87195" lon="2.28141">
        <ele>57.79999923706</ele>
        <time>2016-01-18T20:24:12Z</time>
      </trkpt>
      <trkpt lat="48.87198" lon="2.28171">
        <ele>58.599998474121</ele>
        <time>2016-01-18T20:24:15Z</time>
      </trkpt>
      <trkpt lat="48.872" lon="2.282">
        <ele>59.20000076294</ele>
        <time>2016-01-18T20:24:18Z</time>
      </trkpt>
      <trkpt lat="48.87203" lon="2.2823">
        <ele>59.79999923706</ele>
        <time>2016-01-18T20:24:21Z</time>
      </trkpt>
      <trkpt lat="48.87205" lon="2.28258">
        <ele>59.20000076294</ele>
        <time>2016-01-18T20:24:24Z</time>
      </trkpt>
      <trkpt lat="48.87208" lon="2.28286">
        <ele>59.20000076294</ele>
        <time>2016-01-18T20:24:27Z</time>
      </trkpt>
      <trkpt lat="48.87212" lon="2.28313">
        <ele>59.599998474121</ele>
        <time>2016-01-18T20:24:30Z</time>
      </trkpt>
      <trkpt lat="48.87217" lon="2.28341">
        <ele>59.20000076294</ele>
        <time>2016-01-18T20:24:33Z</time>
      </trkpt>
      <trkpt lat="48.8722" lon="2.28366">
        <ele>58.20000076294</ele>
        <time>2016-01-18T20:24:36Z</time>
      </trkpt>
      <trkpt lat="48.87225" lon="2.28394">
        <ele>58</ele>
        <time>2016-01-18T20:24:40Z</time>
      </trkpt>
      <trkpt lat="48.87227" lon="2.2841">
        <ele>57.79999923706</ele>
        <time>2016-01-18T20:24:43Z</time>
      </trkpt>
      <trkpt lat="48.87231" lon="2.2844">
        <ele>58.400001525879</ele>
        <time>2016-01-18T20:24:49Z</time>
      </trkpt>
      <trkpt lat="48.87232" lon="2.28449">
        <ele>58.599998474121</ele>
        <time>2016-01-18T20:24:51Z</time>
      </trkpt>
      <trkpt lat="48.87237" lon="2.28459">
        <ele>58</ele>
        <time>2016-01-18T20:24:55Z</time>
      </trkpt>
      <trkpt lat="48.87239" lon="2.28464">
        <ele>57.599998474121</ele>
        <time>2016-01-18T20:25:00Z</time>
      </trkpt>
      <trkpt lat="48.87235" lon="2.28465">
        <ele>58.20000076294</ele>
        <time>2016-01-18T20:25:43Z</time>
      </trkpt>
      <trkpt lat="48.87225" lon="2.28486">
        <ele>59.20000076294</ele>
        <time>2016-01-18T20:26:03Z</time>
      </trkpt>
      <trkpt lat="48.87226" lon="2.28488">
        <ele>59</ele>
        <time>2016-01-18T20:26:04Z</time>
      </trkpt>
      <trkpt lat="48.87228" lon="2.28494">
        <ele>58.400001525879</ele>
        <time>2016-01-18T20:26:10Z</time>
      </trkpt>
      <trkpt lat="48.87229" lon="2.28493">
        <ele>58.400001525879</ele>
        <time>2016-01-18T20:26:11Z</time>
      </trkpt>
      <trkpt lat="48.87237" lon="2.28506">
        <ele>57.79999923706</ele>
        <time>2016-01-18T20:27:16Z</time>
      </trkpt>
      <trkpt lat="48.8724" lon="2.28541">
        <ele>59.79999923706</ele>
        <time>2016-01-18T20:27:21Z</time>
      </trkpt>
      <trkpt lat="48.87242" lon="2.28555">
        <ele>60.20000076294</ele>
        <time>2016-01-18T20:27:23Z</time>
      </trkpt>
      <trkpt lat="48.87247" lon="2.28587">
        <ele>59.79999923706</ele>
        <time>2016-01-18T20:27:27Z</time>
      </trkpt>
      <trkpt lat="48.8725" lon="2.28619">
        <ele>60.400001525879</ele>
        <time>2016-01-18T20:27:31Z</time>
      </trkpt>
      <trkpt lat="48.87253" lon="2.28654">
        <ele>60.79999923706</ele>
        <time>2016-01-18T20:27:35Z</time>
      </trkpt>
      <trkpt lat="48.87255" lon="2.28683">
        <ele>61.400001525879</ele>
        <time>2016-01-18T20:27:39Z</time>
      </trkpt>
      <trkpt lat="48.87259" lon="2.28707">
        <ele>61.79999923706</ele>
        <time>2016-01-18T20:27:42Z</time>
      </trkpt>
      <trkpt lat="48.87263" lon="2.28742">
        <ele>62.599998474121</ele>
        <time>2016-01-18T20:27:46Z</time>
      </trkpt>
      <trkpt lat="48.87266" lon="2.28769">
        <ele>63.79999923706</ele>
        <time>2016-01-18T20:27:49Z</time>
      </trkpt>
      <trkpt lat="48.87271" lon="2.28797">
        <ele>64.599998474121</ele>
        <time>2016-01-18T20:27:52Z</time>
      </trkpt>
      <trkpt lat="48.87275" lon="2.28825">
        <ele>65.599998474121</ele>
        <time>2016-01-18T20:27:55Z</time>
      </trkpt>
      <trkpt lat="48.87276" lon="2.28853">
        <ele>66</ele>
        <time>2016-01-18T20:27:58Z</time>
      </trkpt>
      <trkpt lat="48.87279" lon="2.28889">
        <ele>66.199996948242</ele>
        <time>2016-01-18T20:28:02Z</time>
      </trkpt>
      <trkpt lat="48.87282" lon="2.28924">
        <ele>66.199996948242</ele>
        <time>2016-01-18T20:28:06Z</time>
      </trkpt>
      <trkpt lat="48.87285" lon="2.28955">
        <ele>65.199996948242</ele>
        <time>2016-01-18T20:28:10Z</time>
      </trkpt>
      <trkpt lat="48.87291" lon="2.28984">
        <ele>64.199996948242</ele>
        <time>2016-01-18T20:28:14Z</time>
      </trkpt>
      <trkpt lat="48.87292" lon="2.28991">
        <ele>64</ele>
        <time>2016-01-18T20:28:15Z</time>
      </trkpt>
      <trkpt lat="48.87295" lon="2.29021">
        <ele>66.199996948242</ele>
        <time>2016-01-18T20:28:19Z</time>
      </trkpt>
      <trkpt lat="48.87299" lon="2.29052">
        <ele>68</ele>
        <time>2016-01-18T20:28:23Z</time>
      </trkpt>
      <trkpt lat="48.87303" lon="2.29082">
        <ele>69.599998474121</ele>
        <time>2016-01-18T20:28:27Z</time>
      </trkpt>
      <trkpt lat="48.87306" lon="2.29103">
        <ele>69.400001525879</ele>
        <time>2016-01-18T20:28:30Z</time>
      </trkpt>
      <trkpt lat="48.8731" lon="2.29134">
        <ele>70.199996948242</ele>
        <time>2016-01-18T20:28:35Z</time>
      </trkpt>
      <trkpt lat="48.87312" lon="2.29139">
        <ele>70.400001525879</ele>
        <time>2016-01-18T20:28:36Z</time>
      </trkpt>
      <trkpt lat="48.87314" lon="2.29148">
        <ele>70.599998474121</ele>
        <time>2016-01-18T20:28:38Z</time>
      </trkpt>
      <trkpt lat="48.87318" lon="2.29157">
        <ele>70.800003051758</ele>
        <time>2016-01-18T20:28:40Z</time>
      </trkpt>
      <trkpt lat="48.87332" lon="2.29183">
        <ele>69.800003051758</ele>
        <time>2016-01-18T20:28:45Z</time>
      </trkpt>
      <trkpt lat="48.87337" lon="2.29192">
        <ele>69.199996948242</ele>
        <time>2016-01-18T20:28:47Z</time>
      </trkpt>
      <trkpt lat="48.87345" lon="2.29208">
        <ele>68.400001525879</ele>
        <time>2016-01-18T20:28:50Z</time>
      </trkpt>
      <trkpt lat="48.87352" lon="2.29234">
        <ele>67.400001525879</ele>
        <time>2016-01-18T20:28:55Z</time>
      </trkpt>
      <trkpt lat="48.87353" lon="2.29238">
        <ele>67.400001525879</ele>
        <time>2016-01-18T20:28:56Z</time>
      </trkpt>
      <trkpt lat="48.87355" lon="2.29251">
        <ele>67</ele>
        <time>2016-01-18T20:29:00Z</time>
      </trkpt>
      <trkpt lat="48.87355" lon="2.29253">
        <ele>67</ele>
        <time>2016-01-18T20:29:02Z</time>
      </trkpt>
      <trkpt lat="48.87356" lon="2.29251">
        <ele>66.800003051758</ele>
        <time>2016-01-18T20:29:06Z</time>
      </trkpt>
      <trkpt lat="48.87345" lon="2.2925">
        <ele>67.800003051758</ele>
        <time>2016-01-18T20:30:04Z</time>
      </trkpt>
      <trkpt lat="48.87353" lon="2.29258">
        <ele>67</ele>
        <time>2016-01-18T20:30:35Z</time>
      </trkpt>
      <trkpt lat="48.87355" lon="2.29268">
        <ele>66.599998474121</ele>
        <time>2016-01-18T20:30:43Z</time>
      </trkpt>
      <trkpt lat="48.87339" lon="2.29283">
        <ele>67.599998474121</ele>
        <time>2016-01-18T20:30:54Z</time>
      </trkpt>
      <trkpt lat="48.87321" lon="2.2929">
        <ele>69</ele>
        <time>2016-01-18T20:31:01Z</time>
      </trkpt>
      <trkpt lat="48.87308" lon="2.29295">
        <ele>69.199996948242</ele>
        <time>2016-01-18T20:31:06Z</time>
      </trkpt>
      <trkpt lat="48.87296" lon="2.29315">
        <ele>67.599998474121</ele>
        <time>2016-01-18T20:31:17Z</time>
      </trkpt>
      <trkpt lat="48.87295" lon="2.29319">
        <ele>67.400001525879</ele>
        <time>2016-01-18T20:31:18Z</time>
      </trkpt>
      <trkpt lat="48.87289" lon="2.29329">
        <ele>66.800003051758</ele>
        <time>2016-01-18T20:31:23Z</time>
      </trkpt>
      <trkpt lat="48.87269" lon="2.2932">
        <ele>68</ele>
        <time>2016-01-18T20:31:33Z</time>
      </trkpt>
      <trkpt lat="48.8725" lon="2.29313">
        <ele>68.800003051758</ele>
        <time>2016-01-18T20:31:38Z</time>
      </trkpt>
      <trkpt lat="48.87232" lon="2.29303">
        <ele>70.199996948242</ele>
        <time>2016-01-18T20:31:42Z</time>
      </trkpt>
      <trkpt lat="48.87214" lon="2.2929">
        <ele>71.599998474121</ele>
        <time>2016-01-18T20:31:46Z</time>
      </trkpt>
      <trkpt lat="48.87196" lon="2.29279">
        <ele>72.800003051758</ele>
        <time>2016-01-18T20:31:49Z</time>
      </trkpt>
      <trkpt lat="48.87179" lon="2.29267">
        <ele>74.199996948242</ele>
        <time>2016-01-18T20:31:52Z</time>
      </trkpt>
      <trkpt lat="48.87168" lon="2.29255">
        <ele>75.400001525879</ele>
        <time>2016-01-18T20:31:55Z</time>
      </trkpt>
      <trkpt lat="48.87153" lon="2.29234">
        <ele>77</ele>
        <time>2016-01-18T20:32:01Z</time>
      </trkpt>
      <trkpt lat="48.87139" lon="2.29212">
        <ele>78.199996948242</ele>
        <time>2016-01-18T20:32:06Z</time>
      </trkpt>
      <trkpt lat="48.87137" lon="2.29204">
        <ele>78.599998474121</ele>
        <time>2016-01-18T20:32:15Z</time>
      </trkpt>
      <trkpt lat="48.87131" lon="2.29204">
        <ele>78.800003051758</ele>
        <time>2016-01-18T20:32:24Z</time>
      </trkpt>
      <trkpt lat="48.8712" lon="2.29191">
        <ele>79.400001525879</ele>
        <time>2016-01-18T20:32:48Z</time>
      </trkpt>
      <trkpt lat="48.87104" lon="2.2918">
        <ele>80</ele>
        <time>2016-01-18T20:32:54Z</time>
      </trkpt>
      <trkpt lat="48.87087" lon="2.29163">
        <ele>80</ele>
        <time>2016-01-18T20:32:59Z</time>
      </trkpt>
      <trkpt lat="48.8707" lon="2.29149">
        <ele>79.400001525879</ele>
        <time>2016-01-18T20:33:03Z</time>
      </trkpt>
      <trkpt lat="48.87055" lon="2.29133">
        <ele>79</ele>
        <time>2016-01-18T20:33:07Z</time>
      </trkpt>
      <trkpt lat="48.87035" lon="2.29114">
        <ele>78.199996948242</ele>
        <time>2016-01-18T20:33:11Z</time>
      </trkpt>
      <trkpt lat="48.87018" lon="2.291">
        <ele>77.599998474121</ele>
        <time>2016-01-18T20:33:14Z</time>
      </trkpt>
      <trkpt lat="48.86999" lon="2.29083">
        <ele>76.800003051758</ele>
        <time>2016-01-18T20:33:18Z</time>
      </trkpt>
      <trkpt lat="48.8699" lon="2.2907">
        <ele>76.599998474121</ele>
        <time>2016-01-18T20:33:21Z</time>
      </trkpt>
      <trkpt lat="48.86983" lon="2.29058">
        <ele>76.400001525879</ele>
        <time>2016-01-18T20:33:25Z</time>
      </trkpt>
      <trkpt lat="48.86967" lon="2.29041">
        <ele>75.800003051758</ele>
        <time>2016-01-18T20:33:30Z</time>
      </trkpt>
      <trkpt lat="48.86951" lon="2.29024">
        <ele>75.199996948242</ele>
        <time>2016-01-18T20:33:35Z</time>
      </trkpt>
      <trkpt lat="48.86935" lon="2.29009">
        <ele>74.599998474121</ele>
        <time>2016-01-18T20:33:39Z</time>
      </trkpt>
      <trkpt lat="48.86928" lon="2.28998">
        <ele>74.400001525879</ele>
        <time>2016-01-18T20:33:43Z</time>
      </trkpt>
      <trkpt lat="48.86928" lon="2.28996">
        <ele>74.400001525879</ele>
        <time>2016-01-18T20:33:45Z</time>
      </trkpt>
      <trkpt lat="48.8693" lon="2.28969">
        <ele>74.400001525879</ele>
        <time>2016-01-18T20:33:57Z</time>
      </trkpt>
      <trkpt lat="48.86932" lon="2.28935">
        <ele>74</ele>
        <time>2016-01-18T20:34:02Z</time>
      </trkpt>
      <trkpt lat="48.86936" lon="2.28907">
        <ele>73.800003051758</ele>
        <time>2016-01-18T20:34:06Z</time>
      </trkpt>
      <trkpt lat="48.8694" lon="2.28878">
        <ele>74</ele>
        <time>2016-01-18T20:34:10Z</time>
      </trkpt>
      <trkpt lat="48.86942" lon="2.28846">
        <ele>74.199996948242</ele>
        <time>2016-01-18T20:34:14Z</time>
      </trkpt>
      <trkpt lat="48.86947" lon="2.28813">
        <ele>74.199996948242</ele>
        <time>2016-01-18T20:34:18Z</time>
      </trkpt>
      <trkpt lat="48.86951" lon="2.28779">
        <ele>74.800003051758</ele>
        <time>2016-01-18T20:34:22Z</time>
      </trkpt>
      <trkpt lat="48.86957" lon="2.28748">
        <ele>74.800003051758</ele>
        <time>2016-01-18T20:34:26Z</time>
      </trkpt>
      <trkpt lat="48.86961" lon="2.28715">
        <ele>74.800003051758</ele>
        <time>2016-01-18T20:34:30Z</time>
      </trkpt>
      <trkpt lat="48.86968" lon="2.28683">
        <ele>74.599998474121</ele>
        <time>2016-01-18T20:34:34Z</time>
      </trkpt>
      <trkpt lat="48.86974" lon="2.28651">
        <ele>73.800003051758</ele>
        <time>2016-01-18T20:34:38Z</time>
      </trkpt>
      <trkpt lat="48.86976" lon="2.28644">
        <ele>73.400001525879</ele>
        <time>2016-01-18T20:34:39Z</time>
      </trkpt>
      <trkpt lat="48.86979" lon="2.28612">
        <ele>72.400001525879</ele>
        <time>2016-01-18T20:34:44Z</time>
      </trkpt>
      <trkpt lat="48.8698" lon="2.28598">
        <ele>72.400001525879</ele>
        <time>2016-01-18T20:34:47Z</time>
      </trkpt>
      <trkpt lat="48.8699" lon="2.28586">
        <ele>72.599998474121</ele>
        <time>2016-01-18T20:34:53Z</time>
      </trkpt>
      <trkpt lat="48.86996" lon="2.28582">
        <ele>72.599998474121</ele>
        <time>2016-01-18T20:34:56Z</time>
      </trkpt>
      <trkpt lat="48.87007" lon="2.28564">
        <ele>72.800003051758</ele>
        <time>2016-01-18T20:35:03Z</time>
      </trkpt>
      <trkpt lat="48.87015" lon="2.28565">
        <ele>73</ele>
        <time>2016-01-18T20:35:08Z</time>
      </trkpt>
      <trkpt lat="48.87016" lon="2.28566">
        <ele>73</ele>
        <time>2016-01-18T20:35:10Z</time>
      </trkpt>
      <trkpt lat="48.87029" lon="2.28566">
        <ele>72.599998474121</ele>
        <time>2016-01-18T20:35:22Z</time>
      </trkpt>
      <trkpt lat="48.87041" lon="2.28574">
        <ele>72</ele>
        <time>2016-01-18T20:35:26Z</time>
      </trkpt>
      <trkpt lat="48.87058" lon="2.28586">
        <ele>71</ele>
        <time>2016-01-18T20:35:30Z</time>
      </trkpt>
      <trkpt lat="48.87078" lon="2.28598">
        <ele>70</ele>
        <time>2016-01-18T20:35:35Z</time>
      </trkpt>
      <trkpt lat="48.87098" lon="2.28613">
        <ele>69</ele>
        <time>2016-01-18T20:35:40Z</time>
      </trkpt>
      <trkpt lat="48.87116" lon="2.28625">
        <ele>68</ele>
        <time>2016-01-18T20:35:45Z</time>
      </trkpt>
      <trkpt lat="48.87135" lon="2.28634">
        <ele>67</ele>
        <time>2016-01-18T20:35:51Z</time>
      </trkpt>
      <trkpt lat="48.87154" lon="2.28649">
        <ele>66</ele>
        <time>2016-01-18T20:35:57Z</time>
      </trkpt>
      <trkpt lat="48.87172" lon="2.28656">
        <ele>65</ele>
        <time>2016-01-18T20:36:04Z</time>
      </trkpt>
      <trkpt lat="48.87172" lon="2.28661">
        <ele>65</ele>
        <time>2016-01-18T20:36:07Z</time>
      </trkpt>
      <trkpt lat="48.87176" lon="2.28674">
        <ele>65.599998474121</ele>
        <time>2016-01-18T20:36:10Z</time>
      </trkpt>
      <trkpt lat="48.87179" lon="2.28681">
        <ele>66</ele>
        <time>2016-01-18T20:36:21Z</time>
      </trkpt>
      <trkpt lat="48.87179" lon="2.2868">
        <ele>65.800003051758</ele>
        <time>2016-01-18T20:36:23Z</time>
      </trkpt>
      <trkpt lat="48.87173" lon="2.28675">
        <ele>65.800003051758</ele>
        <time>2016-01-18T20:36:28Z</time>
      </trkpt>
      <trkpt lat="48.87161" lon="2.2867">
        <ele>66.199996948242</ele>
        <time>2016-01-18T20:36:51Z</time>
      </trkpt>
      <trkpt lat="48.87172" lon="2.2868">
        <ele>66.199996948242</ele>
        <time>2016-01-18T20:37:13Z</time>
      </trkpt>
      <trkpt lat="48.87187" lon="2.28695">
        <ele>66.400001525879</ele>
        <time>2016-01-18T20:37:19Z</time>
      </trkpt>
      <trkpt lat="48.87205" lon="2.28713">
        <ele>66</ele>
        <time>2016-01-18T20:37:24Z</time>
      </trkpt>
      <trkpt lat="48.87221" lon="2.28728">
        <ele>65.599998474121</ele>
        <time>2016-01-18T20:37:29Z</time>
      </trkpt>
      <trkpt lat="48.87239" lon="2.28735">
        <ele>64.400001525879</ele>
        <time>2016-01-18T20:37:36Z</time>
      </trkpt>
      <trkpt lat="48.87258" lon="2.28725">
        <ele>62.20000076294</ele>
        <time>2016-01-18T20:37:44Z</time>
      </trkpt>
      <trkpt lat="48.8726" lon="2.28727">
        <ele>62.20000076294</ele>
        <time>2016-01-18T20:37:45Z</time>
      </trkpt>
      <trkpt lat="48.8726" lon="2.28714">
        <ele>61.79999923706</ele>
        <time>2016-01-18T20:37:57Z</time>
      </trkpt>
      <trkpt lat="48.87276" lon="2.28699">
        <ele>60.79999923706</ele>
        <time>2016-01-18T20:38:12Z</time>
      </trkpt>
      <trkpt lat="48.8729" lon="2.28683">
        <ele>59.79999923706</ele>
        <time>2016-01-18T20:38:19Z</time>
      </trkpt>
      <trkpt lat="48.87303" lon="2.28663">
        <ele>60</ele>
        <time>2016-01-18T20:38:27Z</time>
      </trkpt>
      <trkpt lat="48.87308" lon="2.28657">
        <ele>59.79999923706</ele>
        <time>2016-01-18T20:38:34Z</time>
      </trkpt>
      <trkpt lat="48.87316" lon="2.28653">
        <ele>59.79999923706</ele>
        <time>2016-01-18T20:38:45Z</time>
      </trkpt>
      <trkpt lat="48.87332" lon="2.28636">
        <ele>59.400001525879</ele>
        <time>2016-01-18T20:39:04Z</time>
      </trkpt>
      <trkpt lat="48.87343" lon="2.28622">
        <ele>60</ele>
        <time>2016-01-18T20:39:12Z</time>
      </trkpt>
      <trkpt lat="48.87359" lon="2.28602">
        <ele>60.79999923706</ele>
        <time>2016-01-18T20:39:22Z</time>
      </trkpt>
      <trkpt lat="48.87375" lon="2.2859">
        <ele>61.599998474121</ele>
        <time>2016-01-18T20:39:27Z</time>
      </trkpt>
      <trkpt lat="48.8739" lon="2.28571">
        <ele>62.599998474121</ele>
        <time>2016-01-18T20:39:32Z</time>
      </trkpt>
      <trkpt lat="48.87399" lon="2.28561">
        <ele>62.599998474121</ele>
        <time>2016-01-18T20:39:38Z</time>
      </trkpt>
      <trkpt lat="48.87415" lon="2.28546">
        <ele>62.79999923706</ele>
        <time>2016-01-18T20:39:48Z</time>
      </trkpt>
      <trkpt lat="48.87427" lon="2.28528">
        <ele>62.400001525879</ele>
        <time>2016-01-18T20:39:51Z</time>
      </trkpt>
      <trkpt lat="48.87444" lon="2.28507">
        <ele>61.400001525879</ele>
        <time>2016-01-18T20:39:55Z</time>
      </trkpt>
      <trkpt lat="48.87453" lon="2.28496">
        <ele>61</ele>
        <time>2016-01-18T20:39:57Z</time>
      </trkpt>
      <trkpt lat="48.8747" lon="2.28474">
        <ele>60.20000076294</ele>
        <time>2016-01-18T20:40:01Z</time>
      </trkpt>
      <trkpt lat="48.87478" lon="2.28464">
        <ele>59.79999923706</ele>
        <time>2016-01-18T20:40:03Z</time>
      </trkpt>
      <trkpt lat="48.87494" lon="2.28443">
        <ele>59.400001525879</ele>
        <time>2016-01-18T20:40:07Z</time>
      </trkpt>
      <trkpt lat="48.87497" lon="2.28438">
        <ele>59.20000076294</ele>
        <time>2016-01-18T20:40:08Z</time>
      </trkpt>
      <trkpt lat="48.87505" lon="2.28422">
        <ele>59</ele>
        <time>2016-01-18T20:40:11Z</time>
      </trkpt>
      <trkpt lat="48.87526" lon="2.28416">
        <ele>59</ele>
        <time>2016-01-18T20:40:16Z</time>
      </trkpt>
      <trkpt lat="48.87539" lon="2.28431">
        <ele>58.599998474121</ele>
        <time>2016-01-18T20:40:21Z</time>
      </trkpt>
      <trkpt lat="48.87544" lon="2.28441">
        <ele>58.599998474121</ele>
        <time>2016-01-18T20:40:23Z</time>
      </trkpt>
      <trkpt lat="48.87554" lon="2.28464">
        <ele>58.79999923706</ele>
        <time>2016-01-18T20:40:28Z</time>
      </trkpt>
      <trkpt lat="48.87557" lon="2.28466">
        <ele>58.599998474121</ele>
        <time>2016-01-18T20:40:29Z</time>
      </trkpt>
      <trkpt lat="48.87565" lon="2.28493">
        <ele>59</ele>
        <time>2016-01-18T20:40:34Z</time>
      </trkpt>
      <trkpt lat="48.87567" lon="2.28498">
        <ele>58.79999923706</ele>
        <time>2016-01-18T20:40:35Z</time>
      </trkpt>
      <trkpt lat="48.87574" lon="2.28507">
        <ele>58.599998474121</ele>
        <time>2016-01-18T20:40:37Z</time>
      </trkpt>
      <trkpt lat="48.87588" lon="2.28526">
        <ele>58.20000076294</ele>
        <time>2016-01-18T20:40:42Z</time>
      </trkpt>
      <trkpt lat="48.8759" lon="2.28531">
        <ele>58.20000076294</ele>
        <time>2016-01-18T20:40:43Z</time>
      </trkpt>
      <trkpt lat="48.87599" lon="2.28559">
        <ele>58</ele>
        <time>2016-01-18T20:40:49Z</time>
      </trkpt>
      <trkpt lat="48.87603" lon="2.28594">
        <ele>57.599998474121</ele>
        <time>2016-01-18T20:40:55Z</time>
      </trkpt>
      <trkpt lat="48.87608" lon="2.28623">
        <ele>56.400001525879</ele>
        <time>2016-01-18T20:40:59Z</time>
      </trkpt>
      <trkpt lat="48.87615" lon="2.28651">
        <ele>55.20000076294</ele>
        <time>2016-01-18T20:41:03Z</time>
      </trkpt>
      <trkpt lat="48.8762" lon="2.28679">
        <ele>55.20000076294</ele>
        <time>2016-01-18T20:41:08Z</time>
      </trkpt>
      <trkpt lat="48.87622" lon="2.28684">
        <ele>55.20000076294</ele>
        <time>2016-01-18T20:41:09Z</time>
      </trkpt>
      <trkpt lat="48.87624" lon="2.28692">
        <ele>55.20000076294</ele>
        <time>2016-01-18T20:41:12Z</time>
      </trkpt>
      <trkpt lat="48.87629" lon="2.28694">
        <ele>55.20000076294</ele>
        <time>2016-01-18T20:41:16Z</time>
      </trkpt>
      <trkpt lat="48.87627" lon="2.28696">
        <ele>55.20000076294</ele>
        <time>2016-01-18T20:41:19Z</time>
      </trkpt>
      <trkpt lat="48.87618" lon="2.28701">
        <ele>55.20000076294</ele>
        <time>2016-01-18T20:41:29Z</time>
      </trkpt>
      <trkpt lat="48.87627" lon="2.28708">
        <ele>55.20000076294</ele>
        <time>2016-01-18T20:42:01Z</time>
      </trkpt>
      <trkpt lat="48.87643" lon="2.28716">
        <ele>55.400001525879</ele>
        <time>2016-01-18T20:42:08Z</time>
      </trkpt>
      <trkpt lat="48.87654" lon="2.28722">
        <ele>55.599998474121</ele>
        <time>2016-01-18T20:42:23Z</time>
      </trkpt>
      <trkpt lat="48.87661" lon="2.28725">
        <ele>55.599998474121</ele>
        <time>2016-01-18T20:42:29Z</time>
      </trkpt>
      <trkpt lat="48.87675" lon="2.28741">
        <ele>55.79999923706</ele>
        <time>2016-01-18T20:42:46Z</time>
      </trkpt>
      <trkpt lat="48.87692" lon="2.28753">
        <ele>56.20000076294</ele>
        <time>2016-01-18T20:42:55Z</time>
      </trkpt>
      <trkpt lat="48.8771" lon="2.28762">
        <ele>55.79999923706</ele>
        <time>2016-01-18T20:43:01Z</time>
      </trkpt>
      <trkpt lat="48.87725" lon="2.28765">
        <ele>55.400001525879</ele>
        <time>2016-01-18T20:43:10Z</time>
      </trkpt>
      <trkpt lat="48.87745" lon="2.28777">
        <ele>55</ele>
        <time>2016-01-18T20:43:18Z</time>
      </trkpt>
      <trkpt lat="48.87764" lon="2.28781">
        <ele>54.599998474121</ele>
        <time>2016-01-18T20:43:25Z</time>
      </trkpt>
      <trkpt lat="48.87773" lon="2.28794">
        <ele>54.599998474121</ele>
        <time>2016-01-18T20:43:31Z</time>
      </trkpt>
      <trkpt lat="48.87774" lon="2.28815">
        <ele>54.79999923706</ele>
        <time>2016-01-18T20:43:37Z</time>
      </trkpt>
      <trkpt lat="48.87785" lon="2.28827">
        <ele>54.20000076294</ele>
        <time>2016-01-18T20:43:41Z</time>
      </trkpt>
      <trkpt lat="48.87804" lon="2.28844">
        <ele>53.20000076294</ele>
        <time>2016-01-18T20:43:45Z</time>
      </trkpt>
      <trkpt lat="48.87819" lon="2.28867">
        <ele>52.20000076294</ele>
        <time>2016-01-18T20:43:50Z</time>
      </trkpt>
      <trkpt lat="48.87833" lon="2.28892">
        <ele>51.400001525879</ele>
        <time>2016-01-18T20:43:56Z</time>
      </trkpt>
      <trkpt lat="48.87842" lon="2.28916">
        <ele>51</ele>
        <time>2016-01-18T20:44:01Z</time>
      </trkpt>
      <trkpt lat="48.87853" lon="2.2894">
        <ele>50.599998474121</ele>
        <time>2016-01-18T20:44:06Z</time>
      </trkpt>
      <trkpt lat="48.87864" lon="2.28963">
        <ele>50.400001525879</ele>
        <time>2016-01-18T20:44:11Z</time>
      </trkpt>
      <trkpt lat="48.87878" lon="2.28986">
        <ele>50</ele>
        <time>2016-01-18T20:44:17Z</time>
      </trkpt>
      <trkpt lat="48.87892" lon="2.29008">
        <ele>49.599998474121</ele>
        <time>2016-01-18T20:44:22Z</time>
      </trkpt>
      <trkpt lat="48.87903" lon="2.29036">
        <ele>48.79999923706</ele>
        <time>2016-01-18T20:44:27Z</time>
      </trkpt>
      <trkpt lat="48.87919" lon="2.29055">
        <ele>48</ele>
        <time>2016-01-18T20:44:32Z</time>
      </trkpt>
      <trkpt lat="48.87922" lon="2.29084">
        <ele>47</ele>
        <time>2016-01-18T20:44:39Z</time>
      </trkpt>
      <trkpt lat="48.87931" lon="2.29108">
        <ele>46.400001525879</ele>
        <time>2016-01-18T20:44:46Z</time>
      </trkpt>
      <trkpt lat="48.87938" lon="2.2912">
        <ele>46</ele>
        <time>2016-01-18T20:44:52Z</time>
      </trkpt>
      <trkpt lat="48.87946" lon="2.29142">
        <ele>45.599998474121</ele>
        <time>2016-01-18T20:45:00Z</time>
      </trkpt>
      <trkpt lat="48.87958" lon="2.29135">
        <ele>45.79999923706</ele>
        <time>2016-01-18T20:45:07Z</time>
      </trkpt>
      <trkpt lat="48.87974" lon="2.29141">
        <ele>46</ele>
        <time>2016-01-18T20:45:13Z</time>
      </trkpt>
      <trkpt lat="48.8798" lon="2.29155">
        <ele>45.599998474121</ele>
        <time>2016-01-18T20:45:16Z</time>
      </trkpt>
      <trkpt lat="48.87993" lon="2.29177">
        <ele>45.599998474121</ele>
        <time>2016-01-18T20:45:23Z</time>
      </trkpt>
      <trkpt lat="48.88004" lon="2.29201">
        <ele>45.79999923706</ele>
        <time>2016-01-18T20:45:28Z</time>
      </trkpt>
      <trkpt lat="48.88014" lon="2.29225">
        <ele>45.79999923706</ele>
        <time>2016-01-18T20:45:33Z</time>
      </trkpt>
      <trkpt lat="48.88025" lon="2.2925">
        <ele>46</ele>
        <time>2016-01-18T20:45:39Z</time>
      </trkpt>
      <trkpt lat="48.88038" lon="2.2927">
        <ele>46</ele>
        <time>2016-01-18T20:45:46Z</time>
      </trkpt>
      <trkpt lat="48.88053" lon="2.29276">
        <ele>45.20000076294</ele>
        <time>2016-01-18T20:45:50Z</time>
      </trkpt>
      <trkpt lat="48.8807" lon="2.29294">
        <ele>44.79999923706</ele>
        <time>2016-01-18T20:45:56Z</time>
      </trkpt>
      <trkpt lat="48.88085" lon="2.2931">
        <ele>44.599998474121</ele>
        <time>2016-01-18T20:46:02Z</time>
      </trkpt>
      <trkpt lat="48.88085" lon="2.29341">
        <ele>45.599998474121</ele>
        <time>2016-01-18T20:46:16Z</time>
      </trkpt>
      <trkpt lat="48.88092" lon="2.29317">
        <ele>44.400001525879</ele>
        <time>2016-01-18T20:46:30Z</time>
      </trkpt>
      <trkpt lat="48.88107" lon="2.29304">
        <ele>44</ele>
        <time>2016-01-18T20:46:39Z</time>
      </trkpt>
      <trkpt lat="48.88112" lon="2.29299">
        <ele>44.400001525879</ele>
        <time>2016-01-18T20:46:40Z</time>
      </trkpt>
      <trkpt lat="48.88133" lon="2.29298">
        <ele>46</ele>
        <time>2016-01-18T20:46:44Z</time>
      </trkpt>
      <trkpt lat="48.88143" lon="2.2931">
        <ele>46.599998474121</ele>
        <time>2016-01-18T20:46:48Z</time>
      </trkpt>
      <trkpt lat="48.88152" lon="2.29323">
        <ele>47.20000076294</ele>
        <time>2016-01-18T20:46:54Z</time>
      </trkpt>
      <trkpt lat="48.88154" lon="2.29328">
        <ele>47.400001525879</ele>
        <time>2016-01-18T20:46:57Z</time>
      </trkpt>
      <trkpt lat="48.88157" lon="2.29332">
        <ele>47.599998474121</ele>
        <time>2016-01-18T20:46:59Z</time>
      </trkpt>
      <trkpt lat="48.88169" lon="2.29357">
        <ele>49.20000076294</ele>
        <time>2016-01-18T20:47:07Z</time>
      </trkpt>
      <trkpt lat="48.88183" lon="2.29377">
        <ele>50.599998474121</ele>
        <time>2016-01-18T20:47:15Z</time>
      </trkpt>
      <trkpt lat="48.88197" lon="2.29402">
        <ele>51.599998474121</ele>
        <time>2016-01-18T20:47:24Z</time>
      </trkpt>
      <trkpt lat="48.88214" lon="2.2942">
        <ele>51.599998474121</ele>
        <time>2016-01-18T20:47:32Z</time>
      </trkpt>
      <trkpt lat="48.88235" lon="2.2942">
        <ele>51.400001525879</ele>
        <time>2016-01-18T20:47:39Z</time>
      </trkpt>
      <trkpt lat="48.88246" lon="2.29418">
        <ele>51.20000076294</ele>
        <time>2016-01-18T20:47:46Z</time>
      </trkpt>
      <trkpt lat="48.88266" lon="2.29405">
        <ele>51</ele>
        <time>2016-01-18T20:47:56Z</time>
      </trkpt>
      <trkpt lat="48.88281" lon="2.29388">
        <ele>50.20000076294</ele>
        <time>2016-01-18T20:48:01Z</time>
      </trkpt>
      <trkpt lat="48.88285" lon="2.29387">
        <ele>49.79999923706</ele>
        <time>2016-01-18T20:48:02Z</time>
      </trkpt>
      <trkpt lat="48.88302" lon="2.29401">
        <ele>48.79999923706</ele>
        <time>2016-01-18T20:48:09Z</time>
      </trkpt>
      <trkpt lat="48.88317" lon="2.29425">
        <ele>47.599998474121</ele>
        <time>2016-01-18T20:48:14Z</time>
      </trkpt>
      <trkpt lat="48.88331" lon="2.29445">
        <ele>46</ele>
        <time>2016-01-18T20:48:18Z</time>
      </trkpt>
      <trkpt lat="48.88349" lon="2.29466">
        <ele>44.20000076294</ele>
        <time>2016-01-18T20:48:23Z</time>
      </trkpt>
      <trkpt lat="48.88362" lon="2.29487">
        <ele>43.20000076294</ele>
        <time>2016-01-18T20:48:27Z</time>
      </trkpt>
      <trkpt lat="48.88374" lon="2.2951">
        <ele>43.400001525879</ele>
        <time>2016-01-18T20:48:31Z</time>
      </trkpt>
      <trkpt lat="48.88388" lon="2.29531">
        <ele>44</ele>
        <time>2016-01-18T20:48:35Z</time>
      </trkpt>
      <trkpt lat="48.88401" lon="2.29557">
        <ele>45</ele>
        <time>2016-01-18T20:48:40Z</time>
      </trkpt>
      <trkpt lat="48.88415" lon="2.29575">
        <ele>45.599998474121</ele>
        <time>2016-01-18T20:48:44Z</time>
      </trkpt>
      <trkpt lat="48.88432" lon="2.29596">
        <ele>45.20000076294</ele>
        <time>2016-01-18T20:48:49Z</time>
      </trkpt>
      <trkpt lat="48.88447" lon="2.2962">
        <ele>44.400001525879</ele>
        <time>2016-01-18T20:48:54Z</time>
      </trkpt>
      <trkpt lat="48.88461" lon="2.29641">
        <ele>43.400001525879</ele>
        <time>2016-01-18T20:48:58Z</time>
      </trkpt>
      <trkpt lat="48.88475" lon="2.29666">
        <ele>42.599998474121</ele>
        <time>2016-01-18T20:49:04Z</time>
      </trkpt>
      <trkpt lat="48.88474" lon="2.29685">
        <ele>42.79999923706</ele>
        <time>2016-01-18T20:49:08Z</time>
      </trkpt>
      <trkpt lat="48.88474" lon="2.29689">
        <ele>42.79999923706</ele>
        <time>2016-01-18T20:49:09Z</time>
      </trkpt>
      <trkpt lat="48.88468" lon="2.29701">
        <ele>43.20000076294</ele>
        <time>2016-01-18T20:49:12Z</time>
      </trkpt>
      <trkpt lat="48.88459" lon="2.29726">
        <ele>43.79999923706</ele>
        <time>2016-01-18T20:49:18Z</time>
      </trkpt>
      <trkpt lat="48.88464" lon="2.29756">
        <ele>43.79999923706</ele>
        <time>2016-01-18T20:49:25Z</time>
      </trkpt>
      <trkpt lat="48.88475" lon="2.29782">
        <ele>44.20000076294</ele>
        <time>2016-01-18T20:49:32Z</time>
      </trkpt>
      <trkpt lat="48.88491" lon="2.29794">
        <ele>43.599998474121</ele>
        <time>2016-01-18T20:49:39Z</time>
      </trkpt>
      <trkpt lat="48.88503" lon="2.29796">
        <ele>43</ele>
        <time>2016-01-18T20:49:46Z</time>
      </trkpt>
      <trkpt lat="48.88513" lon="2.29803">
        <ele>42.599998474121</ele>
        <time>2016-01-18T20:49:50Z</time>
      </trkpt>
      <trkpt lat="48.88525" lon="2.29825">
        <ele>42.79999923706</ele>
        <time>2016-01-18T20:49:56Z</time>
      </trkpt>
      <trkpt lat="48.88537" lon="2.29849">
        <ele>43.79999923706</ele>
        <time>2016-01-18T20:50:02Z</time>
      </trkpt>
      <trkpt lat="48.88551" lon="2.2987">
        <ele>44.79999923706</ele>
        <time>2016-01-18T20:50:06Z</time>
      </trkpt>
      <trkpt lat="48.88563" lon="2.29893">
        <ele>45.79999923706</ele>
        <time>2016-01-18T20:50:10Z</time>
      </trkpt>
      <trkpt lat="48.88577" lon="2.29911">
        <ele>46.599998474121</ele>
        <time>2016-01-18T20:50:13Z</time>
      </trkpt>
      <trkpt lat="48.88585" lon="2.29925">
        <ele>46.79999923706</ele>
        <time>2016-01-18T20:50:15Z</time>
      </trkpt>
      <trkpt lat="48.88599" lon="2.29945">
        <ele>47</ele>
        <time>2016-01-18T20:50:18Z</time>
      </trkpt>
      <trkpt lat="48.88614" lon="2.29968">
        <ele>47.20000076294</ele>
        <time>2016-01-18T20:50:21Z</time>
      </trkpt>
      <trkpt lat="48.88623" lon="2.29984">
        <ele>47.400001525879</ele>
        <time>2016-01-18T20:50:23Z</time>
      </trkpt>
      <trkpt lat="48.88634" lon="2.30011">
        <ele>47.400001525879</ele>
        <time>2016-01-18T20:50:26Z</time>
      </trkpt>
      <trkpt lat="48.88639" lon="2.30028">
        <ele>47.400001525879</ele>
        <time>2016-01-18T20:50:28Z</time>
      </trkpt>
      <trkpt lat="48.88648" lon="2.30056">
        <ele>48</ele>
        <time>2016-01-18T20:50:31Z</time>
      </trkpt>
      <trkpt lat="48.88657" lon="2.30082">
        <ele>48.400001525879</ele>
        <time>2016-01-18T20:50:34Z</time>
      </trkpt>
      <trkpt lat="48.8866" lon="2.30099">
        <ele>48.20000076294</ele>
        <time>2016-01-18T20:50:36Z</time>
      </trkpt>
      <trkpt lat="48.88663" lon="2.30133">
        <ele>47.599998474121</ele>
        <time>2016-01-18T20:50:40Z</time>
      </trkpt>
      <trkpt lat="48.88665" lon="2.3016">
        <ele>48.20000076294</ele>
        <time>2016-01-18T20:50:45Z</time>
      </trkpt>
      <trkpt lat="48.88665" lon="2.30163">
        <ele>48.20000076294</ele>
        <time>2016-01-18T20:50:49Z</time>
      </trkpt>
      <trkpt lat="48.88665" lon="2.30163">
        <ele>48.20000076294</ele>
        <time>2016-01-18T20:50:50Z</time>
      </trkpt>
      <trkpt lat="48.88672" lon="2.30189">
        <ele>48.79999923706</ele>
        <time>2016-01-18T20:51:15Z</time>
      </trkpt>
      <trkpt lat="48.88684" lon="2.30215">
        <ele>49.20000076294</ele>
        <time>2016-01-18T20:51:19Z</time>
      </trkpt>
      <trkpt lat="48.88692" lon="2.30243">
        <ele>50</ele>
        <time>2016-01-18T20:51:23Z</time>
      </trkpt>
      <trkpt lat="48.88705" lon="2.30269">
        <ele>50.400001525879</ele>
        <time>2016-01-18T20:51:27Z</time>
      </trkpt>
      <trkpt lat="48.8871" lon="2.30284">
        <ele>50.400001525879</ele>
        <time>2016-01-18T20:51:29Z</time>
      </trkpt>
      <trkpt lat="48.88717" lon="2.30314">
        <ele>50.599998474121</ele>
        <time>2016-01-18T20:51:33Z</time>
      </trkpt>
      <trkpt lat="48.88722" lon="2.30346">
        <ele>50</ele>
        <time>2016-01-18T20:51:37Z</time>
      </trkpt>
      <trkpt lat="48.88726" lon="2.30379">
        <ele>49.20000076294</ele>
        <time>2016-01-18T20:51:41Z</time>
      </trkpt>
      <trkpt lat="48.88728" lon="2.30412">
        <ele>49.599998474121</ele>
        <time>2016-01-18T20:51:45Z</time>
      </trkpt>
      <trkpt lat="48.88727" lon="2.30445">
        <ele>49.20000076294</ele>
        <time>2016-01-18T20:51:49Z</time>
      </trkpt>
      <trkpt lat="48.8873" lon="2.30476">
        <ele>49.400001525879</ele>
        <time>2016-01-18T20:51:54Z</time>
      </trkpt>
      <trkpt lat="48.88728" lon="2.30499">
        <ele>49.79999923706</ele>
        <time>2016-01-18T20:51:59Z</time>
      </trkpt>
      <trkpt lat="48.88732" lon="2.30525">
        <ele>49.79999923706</ele>
        <time>2016-01-18T20:52:14Z</time>
      </trkpt>
      <trkpt lat="48.88737" lon="2.30556">
        <ele>50.20000076294</ele>
        <time>2016-01-18T20:52:21Z</time>
      </trkpt>
      <trkpt lat="48.88748" lon="2.3058">
        <ele>50.20000076294</ele>
        <time>2016-01-18T20:52:26Z</time>
      </trkpt>
      <trkpt lat="48.88757" lon="2.3061">
        <ele>48.599998474121</ele>
        <time>2016-01-18T20:52:31Z</time>
      </trkpt>
      <trkpt lat="48.88767" lon="2.30636">
        <ele>47.20000076294</ele>
        <time>2016-01-18T20:52:35Z</time>
      </trkpt>
      <trkpt lat="48.88775" lon="2.30663">
        <ele>46</ele>
        <time>2016-01-18T20:52:39Z</time>
      </trkpt>
      <trkpt lat="48.88786" lon="2.30689">
        <ele>46</ele>
        <time>2016-01-18T20:52:43Z</time>
      </trkpt>
      <trkpt lat="48.88792" lon="2.30711">
        <ele>46.20000076294</ele>
        <time>2016-01-18T20:52:46Z</time>
      </trkpt>
      <trkpt lat="48.88791" lon="2.30735">
        <ele>46.400001525879</ele>
        <time>2016-01-18T20:52:49Z</time>
      </trkpt>
      <trkpt lat="48.88794" lon="2.30766">
        <ele>46.79999923706</ele>
        <time>2016-01-18T20:52:53Z</time>
      </trkpt>
      <trkpt lat="48.88801" lon="2.30798">
        <ele>48.400001525879</ele>
        <time>2016-01-18T20:52:57Z</time>
      </trkpt>
      <trkpt lat="48.88806" lon="2.30833">
        <ele>50.20000076294</ele>
        <time>2016-01-18T20:53:01Z</time>
      </trkpt>
      <trkpt lat="48.8881" lon="2.30861">
        <ele>49.599998474121</ele>
        <time>2016-01-18T20:53:04Z</time>
      </trkpt>
      <trkpt lat="48.88819" lon="2.30894">
        <ele>48.79999923706</ele>
        <time>2016-01-18T20:53:08Z</time>
      </trkpt>
      <trkpt lat="48.88823" lon="2.30921">
        <ele>48.400001525879</ele>
        <time>2016-01-18T20:53:11Z</time>
      </trkpt>
      <trkpt lat="48.88827" lon="2.30956">
        <ele>46.599998474121</ele>
        <time>2016-01-18T20:53:15Z</time>
      </trkpt>
      <trkpt lat="48.88817" lon="2.30994">
        <ele>46</ele>
        <time>2016-01-18T20:53:19Z</time>
      </trkpt>
      <trkpt lat="48.88817" lon="2.31021">
        <ele>45.20000076294</ele>
        <time>2016-01-18T20:53:23Z</time>
      </trkpt>
      <trkpt lat="48.88819" lon="2.31044">
        <ele>44.400001525879</ele>
        <time>2016-01-18T20:53:26Z</time>
      </trkpt>
      <trkpt lat="48.88819" lon="2.31073">
        <ele>43.400001525879</ele>
        <time>2016-01-18T20:53:30Z</time>
      </trkpt>
      <trkpt lat="48.88821" lon="2.31094">
        <ele>42.599998474121</ele>
        <time>2016-01-18T20:53:34Z</time>
      </trkpt>
      <trkpt lat="48.88812" lon="2.31121">
        <ele>42.79999923706</ele>
        <time>2016-01-18T20:53:39Z</time>
      </trkpt>
      <trkpt lat="48.8881" lon="2.31122">
        <ele>43</ele>
        <time>2016-01-18T20:53:40Z</time>
      </trkpt>
      <trkpt lat="48.88809" lon="2.31145">
        <ele>43.20000076294</ele>
        <time>2016-01-18T20:53:58Z</time>
      </trkpt>
      <trkpt lat="48.88808" lon="2.31149">
        <ele>43.20000076294</ele>
        <time>2016-01-18T20:53:59Z</time>
      </trkpt>
      <trkpt lat="48.88808" lon="2.31156">
        <ele>43.20000076294</ele>
        <time>2016-01-18T20:54:01Z</time>
      </trkpt>
      <trkpt lat="48.88804" lon="2.31184">
        <ele>43.599998474121</ele>
        <time>2016-01-18T20:54:06Z</time>
      </trkpt>
      <trkpt lat="48.88802" lon="2.3119">
        <ele>43.79999923706</ele>
        <time>2016-01-18T20:54:07Z</time>
      </trkpt>
      <trkpt lat="48.88801" lon="2.31205">
        <ele>44.599998474121</ele>
        <time>2016-01-18T20:54:09Z</time>
      </trkpt>
      <trkpt lat="48.88797" lon="2.31236">
        <ele>46.599998474121</ele>
        <time>2016-01-18T20:54:13Z</time>
      </trkpt>
      <trkpt lat="48.88789" lon="2.31269">
        <ele>48.20000076294</ele>
        <time>2016-01-18T20:54:17Z</time>
      </trkpt>
      <trkpt lat="48.88782" lon="2.31299">
        <ele>47.599998474121</ele>
        <time>2016-01-18T20:54:21Z</time>
      </trkpt>
      <trkpt lat="48.88776" lon="2.31326">
        <ele>46.79999923706</ele>
        <time>2016-01-18T20:54:24Z</time>
      </trkpt>
      <trkpt lat="48.88774" lon="2.31335">
        <ele>47</ele>
        <time>2016-01-18T20:54:25Z</time>
      </trkpt>
      <trkpt lat="48.88766" lon="2.3136">
        <ele>47.599998474121</ele>
        <time>2016-01-18T20:54:29Z</time>
      </trkpt>
      <trkpt lat="48.8876" lon="2.31387">
        <ele>48</ele>
        <time>2016-01-18T20:54:34Z</time>
      </trkpt>
      <trkpt lat="48.88758" lon="2.3139">
        <ele>48</ele>
        <time>2016-01-18T20:54:35Z</time>
      </trkpt>
      <trkpt lat="48.88757" lon="2.31393">
        <ele>48.20000076294</ele>
        <time>2016-01-18T20:54:37Z</time>
      </trkpt>
      <trkpt lat="48.8875" lon="2.31411">
        <ele>49.20000076294</ele>
        <time>2016-01-18T20:55:03Z</time>
      </trkpt>
      <trkpt lat="48.88759" lon="2.31438">
        <ele>48</ele>
        <time>2016-01-18T20:55:09Z</time>
      </trkpt>
      <trkpt lat="48.88773" lon="2.31462">
        <ele>46.400001525879</ele>
        <time>2016-01-18T20:55:15Z</time>
      </trkpt>
      <trkpt lat="48.88788" lon="2.31485">
        <ele>45.400001525879</ele>
        <time>2016-01-18T20:55:20Z</time>
      </trkpt>
      <trkpt lat="48.88802" lon="2.31504">
        <ele>45</ele>
        <time>2016-01-18T20:55:24Z</time>
      </trkpt>
      <trkpt lat="48.8882" lon="2.31523">
        <ele>45.20000076294</ele>
        <time>2016-01-18T20:55:28Z</time>
      </trkpt>
      <trkpt lat="48.8884" lon="2.31542">
        <ele>45.400001525879</ele>
        <time>2016-01-18T20:55:32Z</time>
      </trkpt>
      <trkpt lat="48.88856" lon="2.3156">
        <ele>45.79999923706</ele>
        <time>2016-01-18T20:55:36Z</time>
      </trkpt>
      <trkpt lat="48.8886" lon="2.31565">
        <ele>45.79999923706</ele>
        <time>2016-01-18T20:55:37Z</time>
      </trkpt>
      <trkpt lat="48.88857" lon="2.31593">
        <ele>47.79999923706</ele>
        <time>2016-01-18T20:55:42Z</time>
      </trkpt>
      <trkpt lat="48.88848" lon="2.3161">
        <ele>48.599998474121</ele>
        <time>2016-01-18T20:55:46Z</time>
      </trkpt>
      <trkpt lat="48.88845" lon="2.31615">
        <ele>48.79999923706</ele>
        <time>2016-01-18T20:55:47Z</time>
      </trkpt>
      <trkpt lat="48.88832" lon="2.3164">
        <ele>50</ele>
        <time>2016-01-18T20:55:52Z</time>
      </trkpt>
      <trkpt lat="48.88829" lon="2.31644">
        <ele>50.20000076294</ele>
        <time>2016-01-18T20:55:53Z</time>
      </trkpt>
      <trkpt lat="48.88815" lon="2.31665">
        <ele>51.599998474121</ele>
        <time>2016-01-18T20:55:57Z</time>
      </trkpt>
      <trkpt lat="48.888" lon="2.3169">
        <ele>52</ele>
        <time>2016-01-18T20:56:01Z</time>
      </trkpt>
      <trkpt lat="48.88793" lon="2.31701">
        <ele>52.599998474121</ele>
        <time>2016-01-18T20:56:03Z</time>
      </trkpt>
      <trkpt lat="48.88785" lon="2.31712">
        <ele>53.20000076294</ele>
        <time>2016-01-18T20:56:05Z</time>
      </trkpt>
      <trkpt lat="48.88771" lon="2.31735">
        <ele>54.400001525879</ele>
        <time>2016-01-18T20:56:09Z</time>
      </trkpt>
      <trkpt lat="48.88766" lon="2.3174">
        <ele>54.599998474121</ele>
        <time>2016-01-18T20:56:10Z</time>
      </trkpt>
      <trkpt lat="48.88751" lon="2.31761">
        <ele>55.20000076294</ele>
        <time>2016-01-18T20:56:14Z</time>
      </trkpt>
      <trkpt lat="48.8874" lon="2.31773">
        <ele>55.400001525879</ele>
        <time>2016-01-18T20:56:17Z</time>
      </trkpt>
      <trkpt lat="48.88724" lon="2.31769">
        <ele>55.20000076294</ele>
        <time>2016-01-18T20:56:23Z</time>
      </trkpt>
      <trkpt lat="48.88718" lon="2.31766">
        <ele>55.20000076294</ele>
        <time>2016-01-18T20:56:27Z</time>
      </trkpt>
      <trkpt lat="48.88711" lon="2.31761">
        <ele>55.20000076294</ele>
        <time>2016-01-18T20:57:13Z</time>
      </trkpt>
      <trkpt lat="48.88698" lon="2.31737">
        <ele>54.599998474121</ele>
        <time>2016-01-18T20:57:21Z</time>
      </trkpt>
      <trkpt lat="48.88683" lon="2.31718">
        <ele>54</ele>
        <time>2016-01-18T20:57:27Z</time>
      </trkpt>
      <trkpt lat="48.8867" lon="2.3171">
        <ele>54.20000076294</ele>
        <time>2016-01-18T20:57:31Z</time>
      </trkpt>
      <trkpt lat="48.88651" lon="2.31722">
        <ele>55</ele>
        <time>2016-01-18T20:57:36Z</time>
      </trkpt>
      <trkpt lat="48.88646" lon="2.31731">
        <ele>55</ele>
        <time>2016-01-18T20:57:38Z</time>
      </trkpt>
      <trkpt lat="48.88631" lon="2.31751">
        <ele>55</ele>
        <time>2016-01-18T20:57:44Z</time>
      </trkpt>
      <trkpt lat="48.88616" lon="2.31773">
        <ele>55.79999923706</ele>
        <time>2016-01-18T20:57:51Z</time>
      </trkpt>
      <trkpt lat="48.88599" lon="2.31792">
        <ele>57.20000076294</ele>
        <time>2016-01-18T20:57:57Z</time>
      </trkpt>
      <trkpt lat="48.88581" lon="2.31809">
        <ele>57.599998474121</ele>
        <time>2016-01-18T20:58:02Z</time>
      </trkpt>
      <trkpt lat="48.88563" lon="2.31826">
        <ele>56</ele>
        <time>2016-01-18T20:58:07Z</time>
      </trkpt>
      <trkpt lat="48.88542" lon="2.3184">
        <ele>54.599998474121</ele>
        <time>2016-01-18T20:58:12Z</time>
      </trkpt>
      <trkpt lat="48.88526" lon="2.31854">
        <ele>54.400001525879</ele>
        <time>2016-01-18T20:58:16Z</time>
      </trkpt>
      <trkpt lat="48.88515" lon="2.3188">
        <ele>56.20000076294</ele>
        <time>2016-01-18T20:58:21Z</time>
      </trkpt>
      <trkpt lat="48.88499" lon="2.31906">
        <ele>57.599998474121</ele>
        <time>2016-01-18T20:58:27Z</time>
      </trkpt>
      <trkpt lat="48.88487" lon="2.31924">
        <ele>57.599998474121</ele>
        <time>2016-01-18T20:58:31Z</time>
      </trkpt>
      <trkpt lat="48.88472" lon="2.31932">
        <ele>57.599998474121</ele>
        <time>2016-01-18T20:58:34Z</time>
      </trkpt>
      <trkpt lat="48.88459" lon="2.3194">
        <ele>57.400001525879</ele>
        <time>2016-01-18T20:58:38Z</time>
      </trkpt>
      <trkpt lat="48.88456" lon="2.31943">
        <ele>57.400001525879</ele>
        <time>2016-01-18T20:58:39Z</time>
      </trkpt>
      <trkpt lat="48.8845" lon="2.31953">
        <ele>57.20000076294</ele>
        <time>2016-01-18T20:58:42Z</time>
      </trkpt>
      <trkpt lat="48.88441" lon="2.31968">
        <ele>57</ele>
        <time>2016-01-18T20:58:46Z</time>
      </trkpt>
      <trkpt lat="48.88429" lon="2.31983">
        <ele>56.79999923706</ele>
        <time>2016-01-18T20:58:51Z</time>
      </trkpt>
      <trkpt lat="48.88413" lon="2.31999">
        <ele>56.400001525879</ele>
        <time>2016-01-18T20:58:56Z</time>
      </trkpt>
      <trkpt lat="48.88396" lon="2.32012">
        <ele>56.599998474121</ele>
        <time>2016-01-18T20:59:01Z</time>
      </trkpt>
      <trkpt lat="48.88379" lon="2.32024">
        <ele>57</ele>
        <time>2016-01-18T20:59:06Z</time>
      </trkpt>
      <trkpt lat="48.8837" lon="2.32032">
        <ele>57.79999923706</ele>
        <time>2016-01-18T20:59:12Z</time>
      </trkpt>
      <trkpt lat="48.88355" lon="2.3205">
        <ele>59.599998474121</ele>
        <time>2016-01-18T20:59:32Z</time>
      </trkpt>
      <trkpt lat="48.88333" lon="2.32054">
        <ele>61</ele>
        <time>2016-01-18T20:59:36Z</time>
      </trkpt>
      <trkpt lat="48.88314" lon="2.32056">
        <ele>59.599998474121</ele>
        <time>2016-01-18T20:59:39Z</time>
      </trkpt>
      <trkpt lat="48.88295" lon="2.32065">
        <ele>57.599998474121</ele>
        <time>2016-01-18T20:59:43Z</time>
      </trkpt>
      <trkpt lat="48.88276" lon="2.32074">
        <ele>55.599998474121</ele>
        <time>2016-01-18T20:59:48Z</time>
      </trkpt>
      <trkpt lat="48.88256" lon="2.3208">
        <ele>54.20000076294</ele>
        <time>2016-01-18T20:59:55Z</time>
      </trkpt>
      <trkpt lat="48.88247" lon="2.32095">
        <ele>54.20000076294</ele>
        <time>2016-01-18T21:00:00Z</time>
      </trkpt>
      <trkpt lat="48.8824" lon="2.32081">
        <ele>53.400001525879</ele>
        <time>2016-01-18T21:00:06Z</time>
      </trkpt>
      <trkpt lat="48.88231" lon="2.32055">
        <ele>53.599998474121</ele>
        <time>2016-01-18T21:00:16Z</time>
      </trkpt>
      <trkpt lat="48.88227" lon="2.32049">
        <ele>53.599998474121</ele>
        <time>2016-01-18T21:00:22Z</time>
      </trkpt>
      <trkpt lat="48.88219" lon="2.32036">
        <ele>53.400001525879</ele>
        <time>2016-01-18T21:00:33Z</time>
      </trkpt>
      <trkpt lat="48.88206" lon="2.32036">
        <ele>52.79999923706</ele>
        <time>2016-01-18T21:00:41Z</time>
      </trkpt>
      <trkpt lat="48.88189" lon="2.32048">
        <ele>51.79999923706</ele>
        <time>2016-01-18T21:00:58Z</time>
      </trkpt>
      <trkpt lat="48.88173" lon="2.3206">
        <ele>52.599998474121</ele>
        <time>2016-01-18T21:01:05Z</time>
      </trkpt>
      <trkpt lat="48.88156" lon="2.32069">
        <ele>53.400001525879</ele>
        <time>2016-01-18T21:01:09Z</time>
      </trkpt>
      <trkpt lat="48.88151" lon="2.32072">
        <ele>53.599998474121</ele>
        <time>2016-01-18T21:01:10Z</time>
      </trkpt>
      <trkpt lat="48.88134" lon="2.32087">
        <ele>54.79999923706</ele>
        <time>2016-01-18T21:01:14Z</time>
      </trkpt>
      <trkpt lat="48.88115" lon="2.321">
        <ele>55.79999923706</ele>
        <time>2016-01-18T21:01:18Z</time>
      </trkpt>
      <trkpt lat="48.881" lon="2.32109">
        <ele>55.79999923706</ele>
        <time>2016-01-18T21:01:21Z</time>
      </trkpt>
      <trkpt lat="48.88081" lon="2.32118">
        <ele>56.599998474121</ele>
        <time>2016-01-18T21:01:25Z</time>
      </trkpt>
      <trkpt lat="48.88062" lon="2.32126">
        <ele>57.400001525879</ele>
        <time>2016-01-18T21:01:29Z</time>
      </trkpt>
      <trkpt lat="48.88052" lon="2.3213">
        <ele>57.79999923706</ele>
        <time>2016-01-18T21:01:31Z</time>
      </trkpt>
      <trkpt lat="48.88033" lon="2.32142">
        <ele>58.400001525879</ele>
        <time>2016-01-18T21:01:35Z</time>
      </trkpt>
      <trkpt lat="48.88013" lon="2.32153">
        <ele>58.599998474121</ele>
        <time>2016-01-18T21:01:39Z</time>
      </trkpt>
      <trkpt lat="48.87994" lon="2.32164">
        <ele>59.400001525879</ele>
        <time>2016-01-18T21:01:43Z</time>
      </trkpt>
      <trkpt lat="48.87974" lon="2.32174">
        <ele>59.599998474121</ele>
        <time>2016-01-18T21:01:47Z</time>
      </trkpt>
      <trkpt lat="48.87955" lon="2.32187">
        <ele>59.400001525879</ele>
        <time>2016-01-18T21:01:51Z</time>
      </trkpt>
      <trkpt lat="48.87938" lon="2.32202">
        <ele>58.400001525879</ele>
        <time>2016-01-18T21:01:55Z</time>
      </trkpt>
      <trkpt lat="48.87919" lon="2.32213">
        <ele>57</ele>
        <time>2016-01-18T21:01:59Z</time>
      </trkpt>
      <trkpt lat="48.87898" lon="2.32222">
        <ele>56.20000076294</ele>
        <time>2016-01-18T21:02:03Z</time>
      </trkpt>
      <trkpt lat="48.87885" lon="2.32231">
        <ele>55.79999923706</ele>
        <time>2016-01-18T21:02:06Z</time>
      </trkpt>
      <trkpt lat="48.87865" lon="2.32243">
        <ele>55.20000076294</ele>
        <time>2016-01-18T21:02:10Z</time>
      </trkpt>
      <trkpt lat="48.87848" lon="2.3225">
        <ele>54.400001525879</ele>
        <time>2016-01-18T21:02:14Z</time>
      </trkpt>
      <trkpt lat="48.87834" lon="2.32257">
        <ele>53.400001525879</ele>
        <time>2016-01-18T21:02:18Z</time>
      </trkpt>
      <trkpt lat="48.87821" lon="2.3226">
        <ele>52.79999923706</ele>
        <time>2016-01-18T21:02:21Z</time>
      </trkpt>
      <trkpt lat="48.87798" lon="2.32268">
        <ele>51.599998474121</ele>
        <time>2016-01-18T21:02:25Z</time>
      </trkpt>
      <trkpt lat="48.87793" lon="2.3227">
        <ele>51.20000076294</ele>
        <time>2016-01-18T21:02:26Z</time>
      </trkpt>
      <trkpt lat="48.87787" lon="2.32272">
        <ele>51</ele>
        <time>2016-01-18T21:02:27Z</time>
      </trkpt>
      <trkpt lat="48.87768" lon="2.32278">
        <ele>50</ele>
        <time>2016-01-18T21:02:30Z</time>
      </trkpt>
      <trkpt lat="48.87756" lon="2.32286">
        <ele>48.400001525879</ele>
        <time>2016-01-18T21:02:32Z</time>
      </trkpt>
      <trkpt lat="48.87739" lon="2.323">
        <ele>46.20000076294</ele>
        <time>2016-01-18T21:02:35Z</time>
      </trkpt>
      <trkpt lat="48.87733" lon="2.32303">
        <ele>46.20000076294</ele>
        <time>2016-01-18T21:02:36Z</time>
      </trkpt>
      <trkpt lat="48.87716" lon="2.32314">
        <ele>46.20000076294</ele>
        <time>2016-01-18T21:02:39Z</time>
      </trkpt>
      <trkpt lat="48.87697" lon="2.32328">
        <ele>46</ele>
        <time>2016-01-18T21:02:42Z</time>
      </trkpt>
      <trkpt lat="48.87676" lon="2.32345">
        <ele>45.400001525879</ele>
        <time>2016-01-18T21:02:45Z</time>
      </trkpt>
      <trkpt lat="48.87656" lon="2.32361">
        <ele>44.400001525879</ele>
        <time>2016-01-18T21:02:48Z</time>
      </trkpt>
      <trkpt lat="48.87635" lon="2.32374">
        <ele>42.599998474121</ele>
        <time>2016-01-18T21:02:51Z</time>
      </trkpt>
      <trkpt lat="48.87615" lon="2.32387">
        <ele>39.79999923706</ele>
        <time>2016-01-18T21:02:54Z</time>
      </trkpt>
      <trkpt lat="48.87596" lon="2.32398">
        <ele>38.400001525879</ele>
        <time>2016-01-18T21:02:57Z</time>
      </trkpt>
      <trkpt lat="48.87584" lon="2.32405">
        <ele>38.79999923706</ele>
        <time>2016-01-18T21:02:59Z</time>
      </trkpt>
      <trkpt lat="48.87563" lon="2.32408">
        <ele>40.20000076294</ele>
        <time>2016-01-18T21:03:02Z</time>
      </trkpt>
      <trkpt lat="48.87556" lon="2.32405">
        <ele>40.79999923706</ele>
        <time>2016-01-18T21:03:03Z</time>
      </trkpt>
      <trkpt lat="48.87536" lon="2.32404">
        <ele>42.20000076294</ele>
        <time>2016-01-18T21:03:08Z</time>
      </trkpt>
      <trkpt lat="48.87533" lon="2.32402">
        <ele>42.599998474121</ele>
        <time>2016-01-18T21:03:10Z</time>
      </trkpt>
      <trkpt lat="48.8752" lon="2.32392">
        <ele>43.400001525879</ele>
        <time>2016-01-18T21:03:22Z</time>
      </trkpt>
      <trkpt lat="48.875" lon="2.32382">
        <ele>43.20000076294</ele>
        <time>2016-01-18T21:03:30Z</time>
      </trkpt>
      <trkpt lat="48.87482" lon="2.32378">
        <ele>43</ele>
        <time>2016-01-18T21:03:35Z</time>
      </trkpt>
      <trkpt lat="48.87461" lon="2.32379">
        <ele>43</ele>
        <time>2016-01-18T21:03:41Z</time>
      </trkpt>
      <trkpt lat="48.87442" lon="2.32386">
        <ele>43</ele>
        <time>2016-01-18T21:03:45Z</time>
      </trkpt>
      <trkpt lat="48.87424" lon="2.32392">
        <ele>43</ele>
        <time>2016-01-18T21:03:50Z</time>
      </trkpt>
      <trkpt lat="48.87406" lon="2.32388">
        <ele>43.20000076294</ele>
        <time>2016-01-18T21:03:56Z</time>
      </trkpt>
      <trkpt lat="48.87387" lon="2.3238">
        <ele>43.400001525879</ele>
        <time>2016-01-18T21:04:04Z</time>
      </trkpt>
      <trkpt lat="48.87368" lon="2.32375">
        <ele>43.79999923706</ele>
        <time>2016-01-18T21:04:10Z</time>
      </trkpt>
      <trkpt lat="48.87348" lon="2.32368">
        <ele>44.400001525879</ele>
        <time>2016-01-18T21:04:16Z</time>
      </trkpt>
      <trkpt lat="48.87341" lon="2.32392">
        <ele>45.400001525879</ele>
        <time>2016-01-18T21:04:21Z</time>
      </trkpt>
      <trkpt lat="48.87342" lon="2.3242">
        <ele>45.599998474121</ele>
        <time>2016-01-18T21:04:26Z</time>
      </trkpt>
      <trkpt lat="48.87344" lon="2.32449">
        <ele>46.20000076294</ele>
        <time>2016-01-18T21:04:32Z</time>
      </trkpt>
      <trkpt lat="48.87346" lon="2.3248">
        <ele>47</ele>
        <time>2016-01-18T21:04:38Z</time>
      </trkpt>
      <trkpt lat="48.87345" lon="2.32509">
        <ele>47.79999923706</ele>
        <time>2016-01-18T21:04:44Z</time>
      </trkpt>
      <trkpt lat="48.87337" lon="2.32539">
        <ele>49</ele>
        <time>2016-01-18T21:04:50Z</time>
      </trkpt>
      <trkpt lat="48.87339" lon="2.32567">
        <ele>49.79999923706</ele>
        <time>2016-01-18T21:04:55Z</time>
      </trkpt>
      <trkpt lat="48.87343" lon="2.32598">
        <ele>49.20000076294</ele>
        <time>2016-01-18T21:05:01Z</time>
      </trkpt>
      <trkpt lat="48.87341" lon="2.32628">
        <ele>48.400001525879</ele>
        <time>2016-01-18T21:05:08Z</time>
      </trkpt>
      <trkpt lat="48.87325" lon="2.32656">
        <ele>48.20000076294</ele>
        <time>2016-01-18T21:05:14Z</time>
      </trkpt>
      <trkpt lat="48.87323" lon="2.32683">
        <ele>48.400001525879</ele>
        <time>2016-01-18T21:05:19Z</time>
      </trkpt>
      <trkpt lat="48.87323" lon="2.32713">
        <ele>48.400001525879</ele>
        <time>2016-01-18T21:05:24Z</time>
      </trkpt>
      <trkpt lat="48.87324" lon="2.32741">
        <ele>49.400001525879</ele>
        <time>2016-01-18T21:05:28Z</time>
      </trkpt>
      <trkpt lat="48.87324" lon="2.3277">
        <ele>49.599998474121</ele>
        <time>2016-01-18T21:05:32Z</time>
      </trkpt>
      <trkpt lat="48.87325" lon="2.32797">
        <ele>49.599998474121</ele>
        <time>2016-01-18T21:05:36Z</time>
      </trkpt>
      <trkpt lat="48.87322" lon="2.32824">
        <ele>49</ele>
        <time>2016-01-18T21:05:43Z</time>
      </trkpt>
      <trkpt lat="48.87311" lon="2.32851">
        <ele>49.599998474121</ele>
        <time>2016-01-18T21:05:49Z</time>
      </trkpt>
      <trkpt lat="48.87305" lon="2.32883">
        <ele>50</ele>
        <time>2016-01-18T21:05:54Z</time>
      </trkpt>
      <trkpt lat="48.87305" lon="2.32916">
        <ele>50</ele>
        <time>2016-01-18T21:05:58Z</time>
      </trkpt>
      <trkpt lat="48.87306" lon="2.3295">
        <ele>48.599998474121</ele>
        <time>2016-01-18T21:06:02Z</time>
      </trkpt>
      <trkpt lat="48.87308" lon="2.32983">
        <ele>47.599998474121</ele>
        <time>2016-01-18T21:06:06Z</time>
      </trkpt>
      <trkpt lat="48.87305" lon="2.33014">
        <ele>46.79999923706</ele>
        <time>2016-01-18T21:06:10Z</time>
      </trkpt>
      <trkpt lat="48.873" lon="2.33043">
        <ele>45.79999923706</ele>
        <time>2016-01-18T21:06:14Z</time>
      </trkpt>
      <trkpt lat="48.87298" lon="2.33071">
        <ele>44.400001525879</ele>
        <time>2016-01-18T21:06:18Z</time>
      </trkpt>
      <trkpt lat="48.87298" lon="2.33078">
        <ele>44</ele>
        <time>2016-01-18T21:06:19Z</time>
      </trkpt>
      <trkpt lat="48.87297" lon="2.33096">
        <ele>44.599998474121</ele>
        <time>2016-01-18T21:06:23Z</time>
      </trkpt>
      <trkpt lat="48.87279" lon="2.33104">
        <ele>45</ele>
        <time>2016-01-18T21:06:28Z</time>
      </trkpt>
      <trkpt lat="48.87273" lon="2.33103">
        <ele>44.79999923706</ele>
        <time>2016-01-18T21:06:30Z</time>
      </trkpt>
      <trkpt lat="48.87271" lon="2.33104">
        <ele>45</ele>
        <time>2016-01-18T21:06:31Z</time>
      </trkpt>
      <trkpt lat="48.87281" lon="2.33125">
        <ele>46.79999923706</ele>
        <time>2016-01-18T21:06:36Z</time>
      </trkpt>
      <trkpt lat="48.8729" lon="2.33146">
        <ele>48.599998474121</ele>
        <time>2016-01-18T21:06:41Z</time>
      </trkpt>
      <trkpt lat="48.87294" lon="2.33158">
        <ele>49.599998474121</ele>
        <time>2016-01-18T21:06:45Z</time>
      </trkpt>
      <trkpt lat="48.87288" lon="2.33175">
        <ele>50</ele>
        <time>2016-01-18T21:06:50Z</time>
      </trkpt>
      <trkpt lat="48.87273" lon="2.33196">
        <ele>50.400001525879</ele>
        <time>2016-01-18T21:06:56Z</time>
      </trkpt>
      <trkpt lat="48.87262" lon="2.3322">
        <ele>51.20000076294</ele>
        <time>2016-01-18T21:07:02Z</time>
      </trkpt>
      <trkpt lat="48.87253" lon="2.33237">
        <ele>51.20000076294</ele>
        <time>2016-01-18T21:07:06Z</time>
      </trkpt>
      <trkpt lat="48.87241" lon="2.33261">
        <ele>49.79999923706</ele>
        <time>2016-01-18T21:07:12Z</time>
      </trkpt>
      <trkpt lat="48.87228" lon="2.3328">
        <ele>48.79999923706</ele>
        <time>2016-01-18T21:07:17Z</time>
      </trkpt>
      <trkpt lat="48.87215" lon="2.33305">
        <ele>49.79999923706</ele>
        <time>2016-01-18T21:07:23Z</time>
      </trkpt>
      <trkpt lat="48.87203" lon="2.33326">
        <ele>51.20000076294</ele>
        <time>2016-01-18T21:07:28Z</time>
      </trkpt>
      <trkpt lat="48.87187" lon="2.3335">
        <ele>51</ele>
        <time>2016-01-18T21:07:34Z</time>
      </trkpt>
      <trkpt lat="48.87176" lon="2.33375">
        <ele>49.400001525879</ele>
        <time>2016-01-18T21:07:40Z</time>
      </trkpt>
      <trkpt lat="48.87158" lon="2.3339">
        <ele>48.20000076294</ele>
        <time>2016-01-18T21:07:46Z</time>
      </trkpt>
      <trkpt lat="48.87138" lon="2.33398">
        <ele>48.20000076294</ele>
        <time>2016-01-18T21:07:52Z</time>
      </trkpt>
      <trkpt lat="48.87115" lon="2.33407">
        <ele>48</ele>
        <time>2016-01-18T21:07:57Z</time>
      </trkpt>
      <trkpt lat="48.87102" lon="2.33415">
        <ele>48</ele>
        <time>2016-01-18T21:08:01Z</time>
      </trkpt>
      <trkpt lat="48.87098" lon="2.33445">
        <ele>48.400001525879</ele>
        <time>2016-01-18T21:08:07Z</time>
      </trkpt>
      <trkpt lat="48.87102" lon="2.3346">
        <ele>48.599998474121</ele>
        <time>2016-01-18T21:08:10Z</time>
      </trkpt>
      <trkpt lat="48.87111" lon="2.33488">
        <ele>48.79999923706</ele>
        <time>2016-01-18T21:08:17Z</time>
      </trkpt>
      <trkpt lat="48.87119" lon="2.33516">
        <ele>49.599998474121</ele>
        <time>2016-01-18T21:08:24Z</time>
      </trkpt>
      <trkpt lat="48.87127" lon="2.33543">
        <ele>50.599998474121</ele>
        <time>2016-01-18T21:08:30Z</time>
      </trkpt>
      <trkpt lat="48.87135" lon="2.33573">
        <ele>51.79999923706</ele>
        <time>2016-01-18T21:08:36Z</time>
      </trkpt>
      <trkpt lat="48.87142" lon="2.33599">
        <ele>51.79999923706</ele>
        <time>2016-01-18T21:08:41Z</time>
      </trkpt>
      <trkpt lat="48.87151" lon="2.33627">
        <ele>51.599998474121</ele>
        <time>2016-01-18T21:08:46Z</time>
      </trkpt>
      <trkpt lat="48.87155" lon="2.33655">
        <ele>52</ele>
        <time>2016-01-18T21:08:51Z</time>
      </trkpt>
      <trkpt lat="48.87168" lon="2.33677">
        <ele>51.400001525879</ele>
        <time>2016-01-18T21:08:58Z</time>
      </trkpt>
      <trkpt lat="48.8718" lon="2.33698">
        <ele>50.599998474121</ele>
        <time>2016-01-18T21:09:04Z</time>
      </trkpt>
      <trkpt lat="48.87186" lon="2.33727">
        <ele>49.599998474121</ele>
        <time>2016-01-18T21:09:10Z</time>
      </trkpt>
      <trkpt lat="48.87185" lon="2.33762">
        <ele>49.400001525879</ele>
        <time>2016-01-18T21:09:17Z</time>
      </trkpt>
      <trkpt lat="48.87187" lon="2.33792">
        <ele>49.599998474121</ele>
        <time>2016-01-18T21:09:22Z</time>
      </trkpt>
      <trkpt lat="48.87198" lon="2.33821">
        <ele>50</ele>
        <time>2016-01-18T21:09:27Z</time>
      </trkpt>
      <trkpt lat="48.87207" lon="2.33846">
        <ele>50.20000076294</ele>
        <time>2016-01-18T21:09:31Z</time>
      </trkpt>
      <trkpt lat="48.87212" lon="2.33873">
        <ele>50.20000076294</ele>
        <time>2016-01-18T21:09:35Z</time>
      </trkpt>
      <trkpt lat="48.87221" lon="2.33903">
        <ele>50.400001525879</ele>
        <time>2016-01-18T21:09:40Z</time>
      </trkpt>
      <trkpt lat="48.87231" lon="2.33928">
        <ele>49.79999923706</ele>
        <time>2016-01-18T21:09:44Z</time>
      </trkpt>
      <trkpt lat="48.87239" lon="2.33957">
        <ele>48.599998474121</ele>
        <time>2016-01-18T21:09:49Z</time>
      </trkpt>
      <trkpt lat="48.87229" lon="2.33975">
        <ele>48</ele>
        <time>2016-01-18T21:09:52Z</time>
      </trkpt>
      <trkpt lat="48.87227" lon="2.3398">
        <ele>48</ele>
        <time>2016-01-18T21:09:54Z</time>
      </trkpt>
      <trkpt lat="48.87223" lon="2.33983">
        <ele>48</ele>
        <time>2016-01-18T21:09:58Z</time>
      </trkpt>
      <trkpt lat="48.87221" lon="2.33984">
        <ele>48</ele>
        <time>2016-01-18T21:09:59Z</time>
      </trkpt>
      <trkpt lat="48.87222" lon="2.33985">
        <ele>48</ele>
        <time>2016-01-18T21:10:11Z</time>
      </trkpt>
      <trkpt lat="48.87221" lon="2.33986">
        <ele>48</ele>
        <time>2016-01-18T21:10:13Z</time>
      </trkpt>
      <trkpt lat="48.87218" lon="2.33987">
        <ele>48</ele>
        <time>2016-01-18T21:10:16Z</time>
      </trkpt>
      <trkpt lat="48.87204" lon="2.33994">
        <ele>47.79999923706</ele>
        <time>2016-01-18T21:10:35Z</time>
      </trkpt>
      <trkpt lat="48.872" lon="2.33994">
        <ele>48</ele>
        <time>2016-01-18T21:10:36Z</time>
      </trkpt>
      <trkpt lat="48.87179" lon="2.3399">
        <ele>48</ele>
        <time>2016-01-18T21:10:40Z</time>
      </trkpt>
      <trkpt lat="48.8716" lon="2.33984">
        <ele>47.79999923706</ele>
        <time>2016-01-18T21:10:44Z</time>
      </trkpt>
      <trkpt lat="48.87141" lon="2.33973">
        <ele>47.79999923706</ele>
        <time>2016-01-18T21:10:49Z</time>
      </trkpt>
      <trkpt lat="48.87129" lon="2.33969">
        <ele>47.599998474121</ele>
        <time>2016-01-18T21:10:52Z</time>
      </trkpt>
      <trkpt lat="48.87109" lon="2.33968">
        <ele>47.599998474121</ele>
        <time>2016-01-18T21:10:56Z</time>
      </trkpt>
      <trkpt lat="48.87089" lon="2.33965">
        <ele>48.20000076294</ele>
        <time>2016-01-18T21:11:00Z</time>
      </trkpt>
      <trkpt lat="48.87071" lon="2.33958">
        <ele>48.79999923706</ele>
        <time>2016-01-18T21:11:04Z</time>
      </trkpt>
      <trkpt lat="48.87052" lon="2.33945">
        <ele>49.20000076294</ele>
        <time>2016-01-18T21:11:09Z</time>
      </trkpt>
      <trkpt lat="48.87032" lon="2.33934">
        <ele>49.599998474121</ele>
        <time>2016-01-18T21:11:14Z</time>
      </trkpt>
      <trkpt lat="48.87013" lon="2.33923">
        <ele>49.79999923706</ele>
        <time>2016-01-18T21:11:19Z</time>
      </trkpt>
      <trkpt lat="48.87006" lon="2.33919">
        <ele>49.79999923706</ele>
        <time>2016-01-18T21:11:21Z</time>
      </trkpt>
      <trkpt lat="48.86984" lon="2.33899">
        <ele>49.79999923706</ele>
        <time>2016-01-18T21:11:27Z</time>
      </trkpt>
      <trkpt lat="48.8698" lon="2.33895">
        <ele>49.79999923706</ele>
        <time>2016-01-18T21:11:28Z</time>
      </trkpt>
      <trkpt lat="48.86965" lon="2.33886">
        <ele>49.599998474121</ele>
        <time>2016-01-18T21:11:32Z</time>
      </trkpt>
      <trkpt lat="48.86951" lon="2.33876">
        <ele>49.599998474121</ele>
        <time>2016-01-18T21:11:36Z</time>
      </trkpt>
      <trkpt lat="48.8694" lon="2.33862">
        <ele>49.599998474121</ele>
        <time>2016-01-18T21:11:40Z</time>
      </trkpt>
      <trkpt lat="48.86937" lon="2.33858">
        <ele>49.79999923706</ele>
        <time>2016-01-18T21:11:41Z</time>
      </trkpt>
      <trkpt lat="48.86927" lon="2.33858">
        <ele>49.79999923706</ele>
        <time>2016-01-18T21:11:46Z</time>
      </trkpt>
      <trkpt lat="48.86925" lon="2.33859">
        <ele>49.79999923706</ele>
        <time>2016-01-18T21:11:48Z</time>
      </trkpt>
      <trkpt lat="48.86913" lon="2.33856">
        <ele>50</ele>
        <time>2016-01-18T21:11:54Z</time>
      </trkpt>
      <trkpt lat="48.86892" lon="2.33849">
        <ele>50.400001525879</ele>
        <time>2016-01-18T21:12:00Z</time>
      </trkpt>
      <trkpt lat="48.86873" lon="2.33845">
        <ele>50.599998474121</ele>
        <time>2016-01-18T21:12:05Z</time>
      </trkpt>
      <trkpt lat="48.86851" lon="2.33842">
        <ele>50.599998474121</ele>
        <time>2016-01-18T21:12:10Z</time>
      </trkpt>
      <trkpt lat="48.86832" lon="2.33836">
        <ele>50.400001525879</ele>
        <time>2016-01-18T21:12:15Z</time>
      </trkpt>
      <trkpt lat="48.86814" lon="2.33824">
        <ele>50.20000076294</ele>
        <time>2016-01-18T21:12:20Z</time>
      </trkpt>
      <trkpt lat="48.86796" lon="2.33812">
        <ele>50</ele>
        <time>2016-01-18T21:12:25Z</time>
      </trkpt>
      <trkpt lat="48.8678" lon="2.33793">
        <ele>50</ele>
        <time>2016-01-18T21:12:30Z</time>
      </trkpt>
      <trkpt lat="48.86765" lon="2.33778">
        <ele>50.20000076294</ele>
        <time>2016-01-18T21:12:37Z</time>
      </trkpt>
      <trkpt lat="48.86747" lon="2.33765">
        <ele>50.599998474121</ele>
        <time>2016-01-18T21:12:43Z</time>
      </trkpt>
      <trkpt lat="48.8673" lon="2.3375">
        <ele>51</ele>
        <time>2016-01-18T21:12:50Z</time>
      </trkpt>
      <trkpt lat="48.86711" lon="2.3374">
        <ele>51</ele>
        <time>2016-01-18T21:12:56Z</time>
      </trkpt>
      <trkpt lat="48.8669" lon="2.33728">
        <ele>51</ele>
        <time>2016-01-18T21:13:02Z</time>
      </trkpt>
      <trkpt lat="48.86671" lon="2.3372">
        <ele>50.79999923706</ele>
        <time>2016-01-18T21:13:08Z</time>
      </trkpt>
      <trkpt lat="48.86652" lon="2.33709">
        <ele>50.599998474121</ele>
        <time>2016-01-18T21:13:13Z</time>
      </trkpt>
      <trkpt lat="48.86634" lon="2.33699">
        <ele>50</ele>
        <time>2016-01-18T21:13:18Z</time>
      </trkpt>
      <trkpt lat="48.86617" lon="2.3369">
        <ele>49.400001525879</ele>
        <time>2016-01-18T21:13:23Z</time>
      </trkpt>
      <trkpt lat="48.86597" lon="2.33686">
        <ele>48.79999923706</ele>
        <time>2016-01-18T21:13:28Z</time>
      </trkpt>
      <trkpt lat="48.86577" lon="2.33683">
        <ele>48.400001525879</ele>
        <time>2016-01-18T21:13:33Z</time>
      </trkpt>
      <trkpt lat="48.86557" lon="2.33683">
        <ele>47.79999923706</ele>
        <time>2016-01-18T21:13:38Z</time>
      </trkpt>
      <trkpt lat="48.86536" lon="2.33678">
        <ele>47.599998474121</ele>
        <time>2016-01-18T21:13:43Z</time>
      </trkpt>
      <trkpt lat="48.86518" lon="2.33672">
        <ele>47</ele>
        <time>2016-01-18T21:13:47Z</time>
      </trkpt>
      <trkpt lat="48.86501" lon="2.33666">
        <ele>47</ele>
        <time>2016-01-18T21:13:51Z</time>
      </trkpt>
      <trkpt lat="48.86483" lon="2.33647">
        <ele>47</ele>
        <time>2016-01-18T21:13:55Z</time>
      </trkpt>
      <trkpt lat="48.86465" lon="2.33633">
        <ele>46.599998474121</ele>
        <time>2016-01-18T21:13:59Z</time>
      </trkpt>
      <trkpt lat="48.86447" lon="2.33623">
        <ele>46.20000076294</ele>
        <time>2016-01-18T21:14:03Z</time>
      </trkpt>
      <trkpt lat="48.86431" lon="2.33598">
        <ele>46.599998474121</ele>
        <time>2016-01-18T21:14:07Z</time>
      </trkpt>
      <trkpt lat="48.86423" lon="2.3359">
        <ele>46.79999923706</ele>
        <time>2016-01-18T21:14:09Z</time>
      </trkpt>
      <trkpt lat="48.86414" lon="2.33584">
        <ele>47</ele>
        <time>2016-01-18T21:14:16Z</time>
      </trkpt>
      <trkpt lat="48.86416" lon="2.33587">
        <ele>46.79999923706</ele>
        <time>2016-01-18T21:14:17Z</time>
      </trkpt>
      <trkpt lat="48.86418" lon="2.33591">
        <ele>46.79999923706</ele>
        <time>2016-01-18T21:14:18Z</time>
      </trkpt>
      <trkpt lat="48.86434" lon="2.3361">
        <ele>46.20000076294</ele>
        <time>2016-01-18T21:14:25Z</time>
      </trkpt>
      <trkpt lat="48.86437" lon="2.33612">
        <ele>46.20000076294</ele>
        <time>2016-01-18T21:14:26Z</time>
      </trkpt>
      <trkpt lat="48.86456" lon="2.33617">
        <ele>46.79999923706</ele>
        <time>2016-01-18T21:14:32Z</time>
      </trkpt>
      <trkpt lat="48.86473" lon="2.33628">
        <ele>47</ele>
        <time>2016-01-18T21:14:39Z</time>
      </trkpt>
      <trkpt lat="48.86493" lon="2.3364">
        <ele>47.400001525879</ele>
        <time>2016-01-18T21:14:44Z</time>
      </trkpt>
      <trkpt lat="48.8651" lon="2.33649">
        <ele>48</ele>
        <time>2016-01-18T21:14:48Z</time>
      </trkpt>
      <trkpt lat="48.86527" lon="2.33665">
        <ele>48</ele>
        <time>2016-01-18T21:14:53Z</time>
      </trkpt>
      <trkpt lat="48.86542" lon="2.33684">
        <ele>47.400001525879</ele>
        <time>2016-01-18T21:14:58Z</time>
      </trkpt>
      <trkpt lat="48.86561" lon="2.33697">
        <ele>47.400001525879</ele>
        <time>2016-01-18T21:15:03Z</time>
      </trkpt>
      <trkpt lat="48.86582" lon="2.33704">
        <ele>47.599998474121</ele>
        <time>2016-01-18T21:15:07Z</time>
      </trkpt>
      <trkpt lat="48.86602" lon="2.3371">
        <ele>47.79999923706</ele>
        <time>2016-01-18T21:15:11Z</time>
      </trkpt>
      <trkpt lat="48.86623" lon="2.33715">
        <ele>48.599998474121</ele>
        <time>2016-01-18T21:15:15Z</time>
      </trkpt>
      <trkpt lat="48.86642" lon="2.3372">
        <ele>49.400001525879</ele>
        <time>2016-01-18T21:15:19Z</time>
      </trkpt>
      <trkpt lat="48.86651" lon="2.33727">
        <ele>49.599998474121</ele>
        <time>2016-01-18T21:15:22Z</time>
      </trkpt>
      <trkpt lat="48.86657" lon="2.33727">
        <ele>50</ele>
        <time>2016-01-18T21:15:25Z</time>
      </trkpt>
      <trkpt lat="48.86656" lon="2.33759">
        <ele>48.79999923706</ele>
        <time>2016-01-18T21:15:32Z</time>
      </trkpt>
      <trkpt lat="48.86655" lon="2.33792">
        <ele>47.79999923706</ele>
        <time>2016-01-18T21:15:37Z</time>
      </trkpt>
      <trkpt lat="48.86654" lon="2.33801">
        <ele>47.79999923706</ele>
        <time>2016-01-18T21:15:39Z</time>
      </trkpt>
      <trkpt lat="48.86657" lon="2.33835">
        <ele>47.79999923706</ele>
        <time>2016-01-18T21:15:45Z</time>
      </trkpt>
      <trkpt lat="48.86664" lon="2.33843">
        <ele>48</ele>
        <time>2016-01-18T21:16:02Z</time>
      </trkpt>
      <trkpt lat="48.86664" lon="2.3387">
        <ele>47.599998474121</ele>
        <time>2016-01-18T21:16:10Z</time>
      </trkpt>
      <trkpt lat="48.86661" lon="2.33897">
        <ele>47.79999923706</ele>
        <time>2016-01-18T21:16:15Z</time>
      </trkpt>
      <trkpt lat="48.86653" lon="2.33927">
        <ele>49.400001525879</ele>
        <time>2016-01-18T21:16:21Z</time>
      </trkpt>
      <trkpt lat="48.86645" lon="2.33952">
        <ele>50.400001525879</ele>
        <time>2016-01-18T21:16:26Z</time>
      </trkpt>
      <trkpt lat="48.86632" lon="2.33973">
        <ele>50.79999923706</ele>
        <time>2016-01-18T21:16:31Z</time>
      </trkpt>
      <trkpt lat="48.86616" lon="2.33993">
        <ele>51</ele>
        <time>2016-01-18T21:16:36Z</time>
      </trkpt>
      <trkpt lat="48.86597" lon="2.34007">
        <ele>50.400001525879</ele>
        <time>2016-01-18T21:16:41Z</time>
      </trkpt>
      <trkpt lat="48.86575" lon="2.34022">
        <ele>49.20000076294</ele>
        <time>2016-01-18T21:16:46Z</time>
      </trkpt>
      <trkpt lat="48.86557" lon="2.34028">
        <ele>48.400001525879</ele>
        <time>2016-01-18T21:16:48Z</time>
      </trkpt>
      <trkpt lat="48.86538" lon="2.34024">
        <ele>48.400001525879</ele>
        <time>2016-01-18T21:16:51Z</time>
      </trkpt>
      <trkpt lat="48.86515" lon="2.34017">
        <ele>48.79999923706</ele>
        <time>2016-01-18T21:16:55Z</time>
      </trkpt>
      <trkpt lat="48.86496" lon="2.34007">
        <ele>49.20000076294</ele>
        <time>2016-01-18T21:16:59Z</time>
      </trkpt>
      <trkpt lat="48.86476" lon="2.33998">
        <ele>49.79999923706</ele>
        <time>2016-01-18T21:17:03Z</time>
      </trkpt>
      <trkpt lat="48.86455" lon="2.33988">
        <ele>50.400001525879</ele>
        <time>2016-01-18T21:17:07Z</time>
      </trkpt>
      <trkpt lat="48.86436" lon="2.33979">
        <ele>50.599998474121</ele>
        <time>2016-01-18T21:17:11Z</time>
      </trkpt>
      <trkpt lat="48.86432" lon="2.33977">
        <ele>50.400001525879</ele>
        <time>2016-01-18T21:17:12Z</time>
      </trkpt>
      <trkpt lat="48.86412" lon="2.3397">
        <ele>49.400001525879</ele>
        <time>2016-01-18T21:17:16Z</time>
      </trkpt>
      <trkpt lat="48.86399" lon="2.33962">
        <ele>48.79999923706</ele>
        <time>2016-01-18T21:17:19Z</time>
      </trkpt>
      <trkpt lat="48.86384" lon="2.33957">
        <ele>48.20000076294</ele>
        <time>2016-01-18T21:17:23Z</time>
      </trkpt>
      <trkpt lat="48.86366" lon="2.33953">
        <ele>47.599998474121</ele>
        <time>2016-01-18T21:17:27Z</time>
      </trkpt>
      <trkpt lat="48.86346" lon="2.33942">
        <ele>47.20000076294</ele>
        <time>2016-01-18T21:17:31Z</time>
      </trkpt>
      <trkpt lat="48.86327" lon="2.3393">
        <ele>47.20000076294</ele>
        <time>2016-01-18T21:17:35Z</time>
      </trkpt>
      <trkpt lat="48.86322" lon="2.33927">
        <ele>47.20000076294</ele>
        <time>2016-01-18T21:17:36Z</time>
      </trkpt>
      <trkpt lat="48.86302" lon="2.33918">
        <ele>47.400001525879</ele>
        <time>2016-01-18T21:17:40Z</time>
      </trkpt>
      <trkpt lat="48.86282" lon="2.33911">
        <ele>47.599998474121</ele>
        <time>2016-01-18T21:17:44Z</time>
      </trkpt>
      <trkpt lat="48.86264" lon="2.33905">
        <ele>47.400001525879</ele>
        <time>2016-01-18T21:17:48Z</time>
      </trkpt>
      <trkpt lat="48.86263" lon="2.3391">
        <ele>47.599998474121</ele>
        <time>2016-01-18T21:18:23Z</time>
      </trkpt>
      <trkpt lat="48.86269" lon="2.33921">
        <ele>48</ele>
        <time>2016-01-18T21:18:34Z</time>
      </trkpt>
      <trkpt lat="48.86279" lon="2.33916">
        <ele>48</ele>
        <time>2016-01-18T21:18:38Z</time>
      </trkpt>
      <trkpt lat="48.86297" lon="2.33909">
        <ele>47.20000076294</ele>
        <time>2016-01-18T21:18:46Z</time>
      </trkpt>
      <trkpt lat="48.86316" lon="2.33903">
        <ele>46.599998474121</ele>
        <time>2016-01-18T21:18:54Z</time>
      </trkpt>
      <trkpt lat="48.8634" lon="2.33917">
        <ele>46.400001525879</ele>
        <time>2016-01-18T21:18:59Z</time>
      </trkpt>
      <trkpt lat="48.86332" lon="2.33932">
        <ele>47.20000076294</ele>
        <time>2016-01-18T21:19:01Z</time>
      </trkpt>
      <trkpt lat="48.86306" lon="2.33942">
        <ele>48.20000076294</ele>
        <time>2016-01-18T21:19:05Z</time>
      </trkpt>
      <trkpt lat="48.86279" lon="2.33946">
        <ele>48.599998474121</ele>
        <time>2016-01-18T21:19:09Z</time>
      </trkpt>
      <trkpt lat="48.86258" lon="2.33943">
        <ele>48.20000076294</ele>
        <time>2016-01-18T21:19:14Z</time>
      </trkpt>
      <trkpt lat="48.86245" lon="2.3394">
        <ele>47.599998474121</ele>
        <time>2016-01-18T21:19:19Z</time>
      </trkpt>
      <trkpt lat="48.8624" lon="2.33942">
        <ele>47.599998474121</ele>
        <time>2016-01-18T21:19:21Z</time>
      </trkpt>
      <trkpt lat="48.86236" lon="2.33958">
        <ele>47.79999923706</ele>
        <time>2016-01-18T21:19:25Z</time>
      </trkpt>
      <trkpt lat="48.86227" lon="2.3399">
        <ele>49.20000076294</ele>
        <time>2016-01-18T21:19:30Z</time>
      </trkpt>
      <trkpt lat="48.86207" lon="2.34012">
        <ele>49.599998474121</ele>
        <time>2016-01-18T21:19:34Z</time>
      </trkpt>
      <trkpt lat="48.86197" lon="2.3404">
        <ele>49.20000076294</ele>
        <time>2016-01-18T21:19:38Z</time>
      </trkpt>
      <trkpt lat="48.86188" lon="2.34069">
        <ele>49</ele>
        <time>2016-01-18T21:19:42Z</time>
      </trkpt>
      <trkpt lat="48.86188" lon="2.34077">
        <ele>49</ele>
        <time>2016-01-18T21:19:43Z</time>
      </trkpt>
      <trkpt lat="48.86185" lon="2.34105">
        <ele>49.20000076294</ele>
        <time>2016-01-18T21:19:47Z</time>
      </trkpt>
      <trkpt lat="48.8618" lon="2.34122">
        <ele>49.20000076294</ele>
        <time>2016-01-18T21:19:51Z</time>
      </trkpt>
      <trkpt lat="48.86179" lon="2.34132">
        <ele>49.20000076294</ele>
        <time>2016-01-18T21:19:53Z</time>
      </trkpt>
      <trkpt lat="48.86176" lon="2.34159">
        <ele>49.599998474121</ele>
        <time>2016-01-18T21:19:58Z</time>
      </trkpt>
      <trkpt lat="48.86174" lon="2.34164">
        <ele>49.599998474121</ele>
        <time>2016-01-18T21:19:59Z</time>
      </trkpt>
      <trkpt lat="48.86167" lon="2.34194">
        <ele>49.400001525879</ele>
        <time>2016-01-18T21:20:04Z</time>
      </trkpt>
      <trkpt lat="48.86165" lon="2.34206">
        <ele>49.400001525879</ele>
        <time>2016-01-18T21:20:06Z</time>
      </trkpt>
      <trkpt lat="48.86157" lon="2.34222">
        <ele>49.400001525879</ele>
        <time>2016-01-18T21:20:09Z</time>
      </trkpt>
      <trkpt lat="48.8615" lon="2.34248">
        <ele>49.599998474121</ele>
        <time>2016-01-18T21:20:13Z</time>
      </trkpt>
      <trkpt lat="48.8615" lon="2.34254">
        <ele>49.400001525879</ele>
        <time>2016-01-18T21:20:14Z</time>
      </trkpt>
      <trkpt lat="48.8615" lon="2.34285">
        <ele>49</ele>
        <time>2016-01-18T21:20:18Z</time>
      </trkpt>
      <trkpt lat="48.86149" lon="2.34297">
        <ele>49.20000076294</ele>
        <time>2016-01-18T21:20:20Z</time>
      </trkpt>
      <trkpt lat="48.86138" lon="2.34325">
        <ele>50</ele>
        <time>2016-01-18T21:20:26Z</time>
      </trkpt>
      <trkpt lat="48.86137" lon="2.34331">
        <ele>50.20000076294</ele>
        <time>2016-01-18T21:20:27Z</time>
      </trkpt>
      <trkpt lat="48.86129" lon="2.34357">
        <ele>49.400001525879</ele>
        <time>2016-01-18T21:20:31Z</time>
      </trkpt>
      <trkpt lat="48.86129" lon="2.34365">
        <ele>49.20000076294</ele>
        <time>2016-01-18T21:20:32Z</time>
      </trkpt>
      <trkpt lat="48.86125" lon="2.34395">
        <ele>49</ele>
        <time>2016-01-18T21:20:37Z</time>
      </trkpt>
      <trkpt lat="48.86125" lon="2.34427">
        <ele>47.599998474121</ele>
        <time>2016-01-18T21:20:42Z</time>
      </trkpt>
      <trkpt lat="48.86123" lon="2.34456">
        <ele>47.599998474121</ele>
        <time>2016-01-18T21:20:46Z</time>
      </trkpt>
      <trkpt lat="48.8612" lon="2.34465">
        <ele>48.400001525879</ele>
        <time>2016-01-18T21:20:48Z</time>
      </trkpt>
      <trkpt lat="48.86102" lon="2.34487">
        <ele>51</ele>
        <time>2016-01-18T21:20:53Z</time>
      </trkpt>
      <trkpt lat="48.86097" lon="2.34496">
        <ele>51.20000076294</ele>
        <time>2016-01-18T21:20:55Z</time>
      </trkpt>
      <trkpt lat="48.86092" lon="2.34507">
        <ele>51.20000076294</ele>
        <time>2016-01-18T21:20:57Z</time>
      </trkpt>
      <trkpt lat="48.86084" lon="2.34537">
        <ele>51</ele>
        <time>2016-01-18T21:21:02Z</time>
      </trkpt>
      <trkpt lat="48.86078" lon="2.34563">
        <ele>50.599998474121</ele>
        <time>2016-01-18T21:21:06Z</time>
      </trkpt>
      <trkpt lat="48.86065" lon="2.34586">
        <ele>49</ele>
        <time>2016-01-18T21:21:11Z</time>
      </trkpt>
      <trkpt lat="48.86052" lon="2.3461">
        <ele>47</ele>
        <time>2016-01-18T21:21:16Z</time>
      </trkpt>
      <trkpt lat="48.86038" lon="2.34631">
        <ele>46.599998474121</ele>
        <time>2016-01-18T21:21:21Z</time>
      </trkpt>
      <trkpt lat="48.8602" lon="2.34644">
        <ele>46.79999923706</ele>
        <time>2016-01-18T21:21:25Z</time>
      </trkpt>
      <trkpt lat="48.86012" lon="2.34648">
        <ele>46.79999923706</ele>
        <time>2016-01-18T21:21:26Z</time>
      </trkpt>
      <trkpt lat="48.85996" lon="2.34663">
        <ele>46.400001525879</ele>
        <time>2016-01-18T21:21:30Z</time>
      </trkpt>
      <trkpt lat="48.85982" lon="2.34676">
        <ele>46.400001525879</ele>
        <time>2016-01-18T21:21:36Z</time>
      </trkpt>
      <trkpt lat="48.85975" lon="2.34688">
        <ele>46.20000076294</ele>
        <time>2016-01-18T21:21:40Z</time>
      </trkpt>
      <trkpt lat="48.8597" lon="2.34701">
        <ele>46</ele>
        <time>2016-01-18T21:21:45Z</time>
      </trkpt>
      <trkpt lat="48.85956" lon="2.3472">
        <ele>45.20000076294</ele>
        <time>2016-01-18T21:21:54Z</time>
      </trkpt>
      <trkpt lat="48.85955" lon="2.34722">
        <ele>45</ele>
        <time>2016-01-18T21:22:00Z</time>
      </trkpt>
      <trkpt lat="48.85961" lon="2.34724">
        <ele>45.20000076294</ele>
        <time>2016-01-18T21:22:06Z</time>
      </trkpt>
      <trkpt lat="48.85971" lon="2.34719">
        <ele>45.400001525879</ele>
        <time>2016-01-18T21:22:10Z</time>
      </trkpt>
    </trkseg>
  </trk>
  <trk>
    <name><![CDATA[Lundi 2016 01 11]]></name>
    <extensions>
      <line xmlns="http://www.topografix.com/GPX/gpx_style/0/2">
        <color>000000</color>
      </line>
    </extensions>
    <trkseg>
      <trkpt lat="48.85727" lon="2.34717">
        <ele>40.599998474121</ele>
        <time>2016-01-11T19:20:31Z</time>
      </trkpt>
      <trkpt lat="48.85727" lon="2.34723">
        <ele>40.599998474121</ele>
        <time>2016-01-11T19:20:32Z</time>
      </trkpt>
      <trkpt lat="48.85728" lon="2.34716">
        <ele>40.599998474121</ele>
        <time>2016-01-11T19:20:36Z</time>
      </trkpt>
      <trkpt lat="48.8572" lon="2.34705">
        <ele>40.599998474121</ele>
        <time>2016-01-11T19:20:42Z</time>
      </trkpt>
      <trkpt lat="48.85702" lon="2.34691">
        <ele>40.79999923706</ele>
        <time>2016-01-11T19:20:50Z</time>
      </trkpt>
      <trkpt lat="48.85685" lon="2.34679">
        <ele>41.400001525879</ele>
        <time>2016-01-11T19:20:57Z</time>
      </trkpt>
      <trkpt lat="48.85668" lon="2.34666">
        <ele>42.79999923706</ele>
        <time>2016-01-11T19:21:04Z</time>
      </trkpt>
      <trkpt lat="48.85649" lon="2.34653">
        <ele>44.400001525879</ele>
        <time>2016-01-11T19:21:10Z</time>
      </trkpt>
      <trkpt lat="48.85632" lon="2.34644">
        <ele>45.79999923706</ele>
        <time>2016-01-11T19:21:15Z</time>
      </trkpt>
      <trkpt lat="48.85611" lon="2.34636">
        <ele>47.599998474121</ele>
        <time>2016-01-11T19:21:21Z</time>
      </trkpt>
      <trkpt lat="48.85592" lon="2.34628">
        <ele>47.79999923706</ele>
        <time>2016-01-11T19:21:25Z</time>
      </trkpt>
      <trkpt lat="48.85575" lon="2.34619">
        <ele>47.599998474121</ele>
        <time>2016-01-11T19:21:29Z</time>
      </trkpt>
      <trkpt lat="48.85555" lon="2.3461">
        <ele>47.400001525879</ele>
        <time>2016-01-11T19:21:34Z</time>
      </trkpt>
      <trkpt lat="48.85535" lon="2.34597">
        <ele>47</ele>
        <time>2016-01-11T19:21:39Z</time>
      </trkpt>
      <trkpt lat="48.85515" lon="2.3458">
        <ele>46.400001525879</ele>
        <time>2016-01-11T19:21:43Z</time>
      </trkpt>
      <trkpt lat="48.85497" lon="2.34563">
        <ele>45.20000076294</ele>
        <time>2016-01-11T19:21:47Z</time>
      </trkpt>
      <trkpt lat="48.85479" lon="2.34546">
        <ele>43.79999923706</ele>
        <time>2016-01-11T19:21:51Z</time>
      </trkpt>
      <trkpt lat="48.8546" lon="2.34529">
        <ele>42.599998474121</ele>
        <time>2016-01-11T19:21:55Z</time>
      </trkpt>
      <trkpt lat="48.85443" lon="2.34515">
        <ele>41.20000076294</ele>
        <time>2016-01-11T19:21:59Z</time>
      </trkpt>
      <trkpt lat="48.85435" lon="2.34503">
        <ele>41.20000076294</ele>
        <time>2016-01-11T19:22:01Z</time>
      </trkpt>
      <trkpt lat="48.85421" lon="2.3448">
        <ele>41.599998474121</ele>
        <time>2016-01-11T19:22:05Z</time>
      </trkpt>
      <trkpt lat="48.85418" lon="2.34475">
        <ele>41.79999923706</ele>
        <time>2016-01-11T19:22:06Z</time>
      </trkpt>
      <trkpt lat="48.85403" lon="2.34456">
        <ele>42.20000076294</ele>
        <time>2016-01-11T19:22:11Z</time>
      </trkpt>
      <trkpt lat="48.85398" lon="2.34451">
        <ele>42.20000076294</ele>
        <time>2016-01-11T19:22:13Z</time>
      </trkpt>
      <trkpt lat="48.85386" lon="2.34437">
        <ele>42.599998474121</ele>
        <time>2016-01-11T19:22:22Z</time>
      </trkpt>
      <trkpt lat="48.85385" lon="2.34413">
        <ele>42</ele>
        <time>2016-01-11T19:22:49Z</time>
      </trkpt>
      <trkpt lat="48.85397" lon="2.34386">
        <ele>42</ele>
        <time>2016-01-11T19:22:55Z</time>
      </trkpt>
      <trkpt lat="48.85411" lon="2.34361">
        <ele>41.599998474121</ele>
        <time>2016-01-11T19:22:59Z</time>
      </trkpt>
      <trkpt lat="48.85425" lon="2.34332">
        <ele>41.20000076294</ele>
        <time>2016-01-11T19:23:03Z</time>
      </trkpt>
      <trkpt lat="48.85431" lon="2.34317">
        <ele>40.79999923706</ele>
        <time>2016-01-11T19:23:05Z</time>
      </trkpt>
      <trkpt lat="48.85444" lon="2.34296">
        <ele>41.20000076294</ele>
        <time>2016-01-11T19:23:08Z</time>
      </trkpt>
      <trkpt lat="48.85458" lon="2.34267">
        <ele>42</ele>
        <time>2016-01-11T19:23:12Z</time>
      </trkpt>
      <trkpt lat="48.85465" lon="2.34253">
        <ele>41.79999923706</ele>
        <time>2016-01-11T19:23:14Z</time>
      </trkpt>
      <trkpt lat="48.85477" lon="2.34232">
        <ele>41.79999923706</ele>
        <time>2016-01-11T19:23:17Z</time>
      </trkpt>
      <trkpt lat="48.85482" lon="2.34225">
        <ele>41.79999923706</ele>
        <time>2016-01-11T19:23:18Z</time>
      </trkpt>
      <trkpt lat="48.85498" lon="2.34199">
        <ele>41</ele>
        <time>2016-01-11T19:23:22Z</time>
      </trkpt>
      <trkpt lat="48.85513" lon="2.34173">
        <ele>39.79999923706</ele>
        <time>2016-01-11T19:23:26Z</time>
      </trkpt>
      <trkpt lat="48.85518" lon="2.34165">
        <ele>39.400001525879</ele>
        <time>2016-01-11T19:23:28Z</time>
      </trkpt>
      <trkpt lat="48.85508" lon="2.34145">
        <ele>40.79999923706</ele>
        <time>2016-01-11T19:23:33Z</time>
      </trkpt>
      <trkpt lat="48.85506" lon="2.3414">
        <ele>41.20000076294</ele>
        <time>2016-01-11T19:23:34Z</time>
      </trkpt>
      <trkpt lat="48.85501" lon="2.34133">
        <ele>42</ele>
        <time>2016-01-11T19:23:36Z</time>
      </trkpt>
      <trkpt lat="48.85482" lon="2.34122">
        <ele>43.400001525879</ele>
        <time>2016-01-11T19:23:41Z</time>
      </trkpt>
      <trkpt lat="48.85462" lon="2.34109">
        <ele>45.400001525879</ele>
        <time>2016-01-11T19:23:46Z</time>
      </trkpt>
      <trkpt lat="48.85459" lon="2.34103">
        <ele>45.79999923706</ele>
        <time>2016-01-11T19:23:47Z</time>
      </trkpt>
      <trkpt lat="48.85442" lon="2.34088">
        <ele>47.599998474121</ele>
        <time>2016-01-11T19:23:52Z</time>
      </trkpt>
      <trkpt lat="48.85431" lon="2.34072">
        <ele>47.400001525879</ele>
        <time>2016-01-11T19:23:57Z</time>
      </trkpt>
      <trkpt lat="48.85438" lon="2.34051">
        <ele>47.599998474121</ele>
        <time>2016-01-11T19:24:03Z</time>
      </trkpt>
      <trkpt lat="48.85439" lon="2.34044">
        <ele>47.599998474121</ele>
        <time>2016-01-11T19:24:04Z</time>
      </trkpt>
      <trkpt lat="48.85448" lon="2.34019">
        <ele>46.79999923706</ele>
        <time>2016-01-11T19:24:10Z</time>
      </trkpt>
      <trkpt lat="48.8546" lon="2.33996">
        <ele>47.599998474121</ele>
        <time>2016-01-11T19:24:18Z</time>
      </trkpt>
      <trkpt lat="48.8547" lon="2.33971">
        <ele>47.79999923706</ele>
        <time>2016-01-11T19:24:31Z</time>
      </trkpt>
      <trkpt lat="48.8547" lon="2.3397">
        <ele>47.79999923706</ele>
        <time>2016-01-11T19:24:32Z</time>
      </trkpt>
      <trkpt lat="48.85472" lon="2.33962">
        <ele>47.79999923706</ele>
        <time>2016-01-11T19:24:36Z</time>
      </trkpt>
      <trkpt lat="48.85473" lon="2.33959">
        <ele>47.79999923706</ele>
        <time>2016-01-11T19:24:37Z</time>
      </trkpt>
      <trkpt lat="48.8548" lon="2.33936">
        <ele>47.599998474121</ele>
        <time>2016-01-11T19:24:44Z</time>
      </trkpt>
      <trkpt lat="48.85483" lon="2.33932">
        <ele>47.400001525879</ele>
        <time>2016-01-11T19:24:47Z</time>
      </trkpt>
      <trkpt lat="48.85499" lon="2.33921">
        <ele>47.20000076294</ele>
        <time>2016-01-11T19:24:57Z</time>
      </trkpt>
      <trkpt lat="48.85512" lon="2.3393">
        <ele>47.400001525879</ele>
        <time>2016-01-11T19:25:07Z</time>
      </trkpt>
      <trkpt lat="48.85524" lon="2.33903">
        <ele>47</ele>
        <time>2016-01-11T19:25:13Z</time>
      </trkpt>
      <trkpt lat="48.85538" lon="2.33884">
        <ele>47</ele>
        <time>2016-01-11T19:25:19Z</time>
      </trkpt>
      <trkpt lat="48.85536" lon="2.33884">
        <ele>47</ele>
        <time>2016-01-11T19:25:20Z</time>
      </trkpt>
      <trkpt lat="48.85541" lon="2.33893">
        <ele>47</ele>
        <time>2016-01-11T19:25:25Z</time>
      </trkpt>
      <trkpt lat="48.8556" lon="2.33907">
        <ele>47</ele>
        <time>2016-01-11T19:25:36Z</time>
      </trkpt>
      <trkpt lat="48.8558" lon="2.33917">
        <ele>47</ele>
        <time>2016-01-11T19:25:42Z</time>
      </trkpt>
      <trkpt lat="48.85592" lon="2.33937">
        <ele>47.20000076294</ele>
        <time>2016-01-11T19:25:47Z</time>
      </trkpt>
      <trkpt lat="48.856" lon="2.33964">
        <ele>47.599998474121</ele>
        <time>2016-01-11T19:25:54Z</time>
      </trkpt>
      <trkpt lat="48.85606" lon="2.33994">
        <ele>48</ele>
        <time>2016-01-11T19:26:03Z</time>
      </trkpt>
      <trkpt lat="48.85608" lon="2.34007">
        <ele>47.400001525879</ele>
        <time>2016-01-11T19:26:07Z</time>
      </trkpt>
      <trkpt lat="48.85612" lon="2.34008">
        <ele>47</ele>
        <time>2016-01-11T19:26:13Z</time>
      </trkpt>
      <trkpt lat="48.85627" lon="2.33991">
        <ele>44.20000076294</ele>
        <time>2016-01-11T19:26:20Z</time>
      </trkpt>
      <trkpt lat="48.8563" lon="2.33988">
        <ele>43.599998474121</ele>
        <time>2016-01-11T19:26:21Z</time>
      </trkpt>
      <trkpt lat="48.85628" lon="2.33959">
        <ele>43.599998474121</ele>
        <time>2016-01-11T19:26:27Z</time>
      </trkpt>
      <trkpt lat="48.85613" lon="2.33938">
        <ele>46</ele>
        <time>2016-01-11T19:26:33Z</time>
      </trkpt>
      <trkpt lat="48.85598" lon="2.33915">
        <ele>47</ele>
        <time>2016-01-11T19:26:38Z</time>
      </trkpt>
      <trkpt lat="48.85585" lon="2.3389">
        <ele>46.79999923706</ele>
        <time>2016-01-11T19:26:42Z</time>
      </trkpt>
      <trkpt lat="48.85572" lon="2.33866">
        <ele>46.20000076294</ele>
        <time>2016-01-11T19:26:46Z</time>
      </trkpt>
      <trkpt lat="48.85558" lon="2.33844">
        <ele>45.599998474121</ele>
        <time>2016-01-11T19:26:50Z</time>
      </trkpt>
      <trkpt lat="48.85544" lon="2.33825">
        <ele>45.599998474121</ele>
        <time>2016-01-11T19:26:54Z</time>
      </trkpt>
      <trkpt lat="48.85535" lon="2.338">
        <ele>46</ele>
        <time>2016-01-11T19:26:58Z</time>
      </trkpt>
      <trkpt lat="48.85525" lon="2.33772">
        <ele>46.20000076294</ele>
        <time>2016-01-11T19:27:03Z</time>
      </trkpt>
      <trkpt lat="48.85529" lon="2.33744">
        <ele>46</ele>
        <time>2016-01-11T19:27:08Z</time>
      </trkpt>
      <trkpt lat="48.85533" lon="2.33714">
        <ele>46.400001525879</ele>
        <time>2016-01-11T19:27:14Z</time>
      </trkpt>
      <trkpt lat="48.85524" lon="2.33691">
        <ele>46.599998474121</ele>
        <time>2016-01-11T19:27:21Z</time>
      </trkpt>
      <trkpt lat="48.85504" lon="2.33693">
        <ele>47.20000076294</ele>
        <time>2016-01-11T19:27:27Z</time>
      </trkpt>
      <trkpt lat="48.85486" lon="2.33677">
        <ele>47.79999923706</ele>
        <time>2016-01-11T19:27:34Z</time>
      </trkpt>
      <trkpt lat="48.85481" lon="2.33666">
        <ele>48</ele>
        <time>2016-01-11T19:27:36Z</time>
      </trkpt>
      <trkpt lat="48.85464" lon="2.33647">
        <ele>47.79999923706</ele>
        <time>2016-01-11T19:27:42Z</time>
      </trkpt>
      <trkpt lat="48.85456" lon="2.33641">
        <ele>47.79999923706</ele>
        <time>2016-01-11T19:27:44Z</time>
      </trkpt>
      <trkpt lat="48.85438" lon="2.3364">
        <ele>48.20000076294</ele>
        <time>2016-01-11T19:27:49Z</time>
      </trkpt>
      <trkpt lat="48.85419" lon="2.33636">
        <ele>49.400001525879</ele>
        <time>2016-01-11T19:27:55Z</time>
      </trkpt>
      <trkpt lat="48.85403" lon="2.33624">
        <ele>50.20000076294</ele>
        <time>2016-01-11T19:28:03Z</time>
      </trkpt>
      <trkpt lat="48.85406" lon="2.33591">
        <ele>48.79999923706</ele>
        <time>2016-01-11T19:28:07Z</time>
      </trkpt>
      <trkpt lat="48.85408" lon="2.33565">
        <ele>47.79999923706</ele>
        <time>2016-01-11T19:28:11Z</time>
      </trkpt>
      <trkpt lat="48.8541" lon="2.3353">
        <ele>47.400001525879</ele>
        <time>2016-01-11T19:28:17Z</time>
      </trkpt>
      <trkpt lat="48.85414" lon="2.33501">
        <ele>47.20000076294</ele>
        <time>2016-01-11T19:28:21Z</time>
      </trkpt>
      <trkpt lat="48.85423" lon="2.33473">
        <ele>45.79999923706</ele>
        <time>2016-01-11T19:28:25Z</time>
      </trkpt>
      <trkpt lat="48.85431" lon="2.33443">
        <ele>44.79999923706</ele>
        <time>2016-01-11T19:28:30Z</time>
      </trkpt>
      <trkpt lat="48.8544" lon="2.33416">
        <ele>44</ele>
        <time>2016-01-11T19:28:36Z</time>
      </trkpt>
      <trkpt lat="48.85444" lon="2.33385">
        <ele>44.79999923706</ele>
        <time>2016-01-11T19:28:42Z</time>
      </trkpt>
      <trkpt lat="48.85448" lon="2.33358">
        <ele>45.400001525879</ele>
        <time>2016-01-11T19:28:48Z</time>
      </trkpt>
      <trkpt lat="48.85458" lon="2.33334">
        <ele>45.79999923706</ele>
        <time>2016-01-11T19:28:57Z</time>
      </trkpt>
      <trkpt lat="48.85458" lon="2.33333">
        <ele>45.79999923706</ele>
        <time>2016-01-11T19:28:59Z</time>
      </trkpt>
      <trkpt lat="48.85464" lon="2.33322">
        <ele>46.20000076294</ele>
        <time>2016-01-11T19:29:04Z</time>
      </trkpt>
      <trkpt lat="48.85486" lon="2.33319">
        <ele>46</ele>
        <time>2016-01-11T19:29:11Z</time>
      </trkpt>
      <trkpt lat="48.85505" lon="2.33328">
        <ele>45.400001525879</ele>
        <time>2016-01-11T19:29:17Z</time>
      </trkpt>
      <trkpt lat="48.85523" lon="2.33331">
        <ele>45</ele>
        <time>2016-01-11T19:29:23Z</time>
      </trkpt>
      <trkpt lat="48.8554" lon="2.33343">
        <ele>45.20000076294</ele>
        <time>2016-01-11T19:29:29Z</time>
      </trkpt>
      <trkpt lat="48.85558" lon="2.33351">
        <ele>45.20000076294</ele>
        <time>2016-01-11T19:29:38Z</time>
      </trkpt>
      <trkpt lat="48.8556" lon="2.33349">
        <ele>45.20000076294</ele>
        <time>2016-01-11T19:29:40Z</time>
      </trkpt>
      <trkpt lat="48.85572" lon="2.33326">
        <ele>45.20000076294</ele>
        <time>2016-01-11T19:29:47Z</time>
      </trkpt>
      <trkpt lat="48.85581" lon="2.33299">
        <ele>46.79999923706</ele>
        <time>2016-01-11T19:29:52Z</time>
      </trkpt>
      <trkpt lat="48.85588" lon="2.3327">
        <ele>47.599998474121</ele>
        <time>2016-01-11T19:29:57Z</time>
      </trkpt>
      <trkpt lat="48.85598" lon="2.33245">
        <ele>48.400001525879</ele>
        <time>2016-01-11T19:30:01Z</time>
      </trkpt>
      <trkpt lat="48.8561" lon="2.33218">
        <ele>49</ele>
        <time>2016-01-11T19:30:06Z</time>
      </trkpt>
      <trkpt lat="48.85619" lon="2.33194">
        <ele>49.79999923706</ele>
        <time>2016-01-11T19:30:12Z</time>
      </trkpt>
      <trkpt lat="48.85623" lon="2.33185">
        <ele>50</ele>
        <time>2016-01-11T19:30:18Z</time>
      </trkpt>
      <trkpt lat="48.85623" lon="2.3318">
        <ele>50.20000076294</ele>
        <time>2016-01-11T19:30:25Z</time>
      </trkpt>
      <trkpt lat="48.85635" lon="2.33158">
        <ele>48.599998474121</ele>
        <time>2016-01-11T19:30:42Z</time>
      </trkpt>
      <trkpt lat="48.85644" lon="2.3313">
        <ele>46.599998474121</ele>
        <time>2016-01-11T19:30:50Z</time>
      </trkpt>
      <trkpt lat="48.8565" lon="2.33102">
        <ele>45.599998474121</ele>
        <time>2016-01-11T19:30:57Z</time>
      </trkpt>
      <trkpt lat="48.85662" lon="2.33078">
        <ele>45</ele>
        <time>2016-01-11T19:31:04Z</time>
      </trkpt>
      <trkpt lat="48.85672" lon="2.33056">
        <ele>44.599998474121</ele>
        <time>2016-01-11T19:31:11Z</time>
      </trkpt>
      <trkpt lat="48.85683" lon="2.33031">
        <ele>44.20000076294</ele>
        <time>2016-01-11T19:31:17Z</time>
      </trkpt>
      <trkpt lat="48.85691" lon="2.33002">
        <ele>44</ele>
        <time>2016-01-11T19:31:22Z</time>
      </trkpt>
      <trkpt lat="48.85699" lon="2.32977">
        <ele>43.79999923706</ele>
        <time>2016-01-11T19:31:26Z</time>
      </trkpt>
      <trkpt lat="48.85709" lon="2.32953">
        <ele>43.400001525879</ele>
        <time>2016-01-11T19:31:30Z</time>
      </trkpt>
      <trkpt lat="48.85717" lon="2.32926">
        <ele>43.20000076294</ele>
        <time>2016-01-11T19:31:35Z</time>
      </trkpt>
      <trkpt lat="48.85728" lon="2.32898">
        <ele>44.20000076294</ele>
        <time>2016-01-11T19:31:43Z</time>
      </trkpt>
      <trkpt lat="48.85738" lon="2.3287">
        <ele>45.400001525879</ele>
        <time>2016-01-11T19:31:48Z</time>
      </trkpt>
      <trkpt lat="48.85747" lon="2.32844">
        <ele>45.400001525879</ele>
        <time>2016-01-11T19:31:53Z</time>
      </trkpt>
      <trkpt lat="48.85757" lon="2.32824">
        <ele>45.20000076294</ele>
        <time>2016-01-11T19:31:59Z</time>
      </trkpt>
      <trkpt lat="48.85766" lon="2.32803">
        <ele>45</ele>
        <time>2016-01-11T19:32:11Z</time>
      </trkpt>
      <trkpt lat="48.85778" lon="2.3278">
        <ele>45</ele>
        <time>2016-01-11T19:32:18Z</time>
      </trkpt>
      <trkpt lat="48.85785" lon="2.32752">
        <ele>45.20000076294</ele>
        <time>2016-01-11T19:32:23Z</time>
      </trkpt>
      <trkpt lat="48.85794" lon="2.32724">
        <ele>45.20000076294</ele>
        <time>2016-01-11T19:32:28Z</time>
      </trkpt>
      <trkpt lat="48.85801" lon="2.32698">
        <ele>44.79999923706</ele>
        <time>2016-01-11T19:32:32Z</time>
      </trkpt>
      <trkpt lat="48.85813" lon="2.32669">
        <ele>44.20000076294</ele>
        <time>2016-01-11T19:32:37Z</time>
      </trkpt>
      <trkpt lat="48.85822" lon="2.32637">
        <ele>43</ele>
        <time>2016-01-11T19:32:42Z</time>
      </trkpt>
      <trkpt lat="48.85831" lon="2.32609">
        <ele>41.79999923706</ele>
        <time>2016-01-11T19:32:46Z</time>
      </trkpt>
      <trkpt lat="48.85843" lon="2.32582">
        <ele>40.79999923706</ele>
        <time>2016-01-11T19:32:51Z</time>
      </trkpt>
      <trkpt lat="48.85848" lon="2.32571">
        <ele>41</ele>
        <time>2016-01-11T19:32:53Z</time>
      </trkpt>
      <trkpt lat="48.85858" lon="2.32543">
        <ele>42</ele>
        <time>2016-01-11T19:32:58Z</time>
      </trkpt>
      <trkpt lat="48.85864" lon="2.32527">
        <ele>42.400001525879</ele>
        <time>2016-01-11T19:33:01Z</time>
      </trkpt>
      <trkpt lat="48.85872" lon="2.32506">
        <ele>43</ele>
        <time>2016-01-11T19:33:05Z</time>
      </trkpt>
      <trkpt lat="48.85877" lon="2.32494">
        <ele>42.79999923706</ele>
        <time>2016-01-11T19:33:08Z</time>
      </trkpt>
      <trkpt lat="48.85888" lon="2.32465">
        <ele>43.79999923706</ele>
        <time>2016-01-11T19:33:13Z</time>
      </trkpt>
      <trkpt lat="48.85898" lon="2.32435">
        <ele>44</ele>
        <time>2016-01-11T19:33:18Z</time>
      </trkpt>
      <trkpt lat="48.85909" lon="2.32409">
        <ele>43.400001525879</ele>
        <time>2016-01-11T19:33:22Z</time>
      </trkpt>
      <trkpt lat="48.85918" lon="2.32384">
        <ele>43</ele>
        <time>2016-01-11T19:33:26Z</time>
      </trkpt>
      <trkpt lat="48.85926" lon="2.32367">
        <ele>43.599998474121</ele>
        <time>2016-01-11T19:33:30Z</time>
      </trkpt>
      <trkpt lat="48.85934" lon="2.32341">
        <ele>44.599998474121</ele>
        <time>2016-01-11T19:33:36Z</time>
      </trkpt>
      <trkpt lat="48.85938" lon="2.32313">
        <ele>44.599998474121</ele>
        <time>2016-01-11T19:33:42Z</time>
      </trkpt>
      <trkpt lat="48.85941" lon="2.32309">
        <ele>44.400001525879</ele>
        <time>2016-01-11T19:33:43Z</time>
      </trkpt>
      <trkpt lat="48.85948" lon="2.32293">
        <ele>44.20000076294</ele>
        <time>2016-01-11T19:33:47Z</time>
      </trkpt>
      <trkpt lat="48.85956" lon="2.32268">
        <ele>43.400001525879</ele>
        <time>2016-01-11T19:33:53Z</time>
      </trkpt>
      <trkpt lat="48.85966" lon="2.3224">
        <ele>41.79999923706</ele>
        <time>2016-01-11T19:33:59Z</time>
      </trkpt>
      <trkpt lat="48.85978" lon="2.32215">
        <ele>39.400001525879</ele>
        <time>2016-01-11T19:34:04Z</time>
      </trkpt>
    </trkseg>
  </trk>
</gpx>